Wetterdaten: Samstag, 30.12.2017
Datum Zeit Temp. A. Pool Temp. Feuchte A. Luftdruck Regen Wind Richtung Richtung Sonnenschein ET UV Solar Taupunkt Windchill Windben Empfang
30.12.2017 00:00 -2,8 C 3,3 C 88 % 1008,7 hPa 0,0 l/m 3,2 km/h (1 Bft) S-SW 202 0 min 0,000 mm 0,0 UV-I 0 W/m -4,5 C -2,8 C 4,8 km/h (1 Bft) 95,65 %
30.12.2017 00:01 -2,8 C 3,3 C 88 % 1008,7 hPa 0,0 l/m 3,2 km/h (1 Bft) S-SW 202 0 min 0,000 mm 0,0 UV-I 0 W/m -4,5 C -2,8 C 4,8 km/h (1 Bft) 82,61 %
30.12.2017 00:02 -2,8 C 3,3 C 88 % 1008,6 hPa 0,0 l/m 1,6 km/h (1 Bft) S-SW 202 0 min 0,000 mm 0,0 UV-I 0 W/m -4,5 C -2,8 C 1,6 km/h (1 Bft) 100,00 %
30.12.2017 00:03 -2,8 C 3,3 C 88 % 1008,6 hPa 0,0 l/m 1,6 km/h (1 Bft) S-SW 202 0 min 0,000 mm 0,0 UV-I 0 W/m -4,5 C -2,8 C 3,2 km/h (1 Bft) 100,00 %
30.12.2017 00:04 -2,8 C 3,3 C 88 % 1008,6 hPa 0,0 l/m 3,2 km/h (1 Bft) S-SW 202 0 min 0,000 mm 0,0 UV-I 0 W/m -4,5 C -2,8 C 4,8 km/h (1 Bft) 100,00 %
30.12.2017 00:05 -2,7 C 3,3 C 88 % 1008,6 hPa 0,0 l/m 1,6 km/h (1 Bft) S-SW 202 0 min 0,000 mm 0,0 UV-I 0 W/m -4,4 C -2,7 C 3,2 km/h (1 Bft) 100,00 %
30.12.2017 00:06 -2,7 C 3,3 C 88 % 1008,6 hPa 0,0 l/m 1,6 km/h (1 Bft) S-SW 202 0 min 0,000 mm 0,0 UV-I 0 W/m -4,4 C -2,7 C 4,8 km/h (1 Bft) 100,00 %
30.12.2017 00:07 -2,7 C 3,3 C 88 % 1008,5 hPa 0,0 l/m 3,2 km/h (1 Bft) S-SW 202 0 min 0,000 mm 0,0 UV-I 0 W/m -4,4 C -2,7 C 6,4 km/h (2 Bft) 100,00 %
30.12.2017 00:08 -2,7 C 3,3 C 88 % 1008,5 hPa 0,0 l/m 3,2 km/h (1 Bft) S 180 0 min 0,000 mm 0,0 UV-I 0 W/m -4,4 C -2,7 C 3,2 km/h (1 Bft) 95,65 %
30.12.2017 00:09 -2,7 C 3,3 C 88 % 1008,6 hPa 0,0 l/m 3,2 km/h (1 Bft) S 180 0 min 0,000 mm 0,0 UV-I 0 W/m -4,4 C -2,7 C 8,0 km/h (2 Bft) 100,00 %
30.12.2017 00:10 -2,7 C 3,3 C 88 % 1008,6 hPa 0,0 l/m 0,0 km/h (0 Bft) S 180 0 min 0,000 mm 0,0 UV-I 0 W/m -4,4 C -2,7 C 1,6 km/h (1 Bft) 100,00 %
30.12.2017 00:11 -2,7 C 3,3 C 88 % 1008,5 hPa 0,0 l/m 1,6 km/h (1 Bft) S 180 0 min 0,000 mm 0,0 UV-I 0 W/m -4,4 C -2,7 C 3,2 km/h (1 Bft) 95,65 %
30.12.2017 00:12 -2,7 C 3,3 C 88 % 1008,5 hPa 0,0 l/m 1,6 km/h (1 Bft) S 180 0 min 0,000 mm 0,0 UV-I 0 W/m -4,4 C -2,7 C 4,8 km/h (1 Bft) 100,00 %
30.12.2017 00:13 -2,7 C 3,3 C 88 % 1008,6 hPa 0,0 l/m 4,8 km/h (1 Bft) S 180 0 min 0,000 mm 0,0 UV-I 0 W/m -4,4 C -2,7 C 8,0 km/h (2 Bft) 100,00 %
30.12.2017 00:14 -2,7 C 3,3 C 88 % 1008,7 hPa 0,0 l/m 4,8 km/h (1 Bft) SW 225 0 min 0,000 mm 0,0 UV-I 0 W/m -4,4 C -2,7 C 6,4 km/h (2 Bft) 95,65 %
30.12.2017 00:15 -2,7 C 3,3 C 88 % 1008,7 hPa 0,0 l/m 4,8 km/h (1 Bft) SW 225 0 min 0,000 mm 0,0 UV-I 0 W/m -4,4 C -2,7 C 6,4 km/h (2 Bft) 91,30 %
30.12.2017 00:16 -2,7 C 3,3 C 88 % 1008,7 hPa 0,0 l/m 3,2 km/h (1 Bft) SW 225 0 min 0,000 mm 0,0 UV-I 0 W/m -4,4 C -2,7 C 4,8 km/h (1 Bft) 100,00 %
30.12.2017 00:17 -2,7 C 3,3 C 88 % 1008,8 hPa 0,0 l/m 3,2 km/h (1 Bft) SW 225 0 min 0,000 mm 0,0 UV-I 0 W/m -4,4 C -2,7 C 4,8 km/h (1 Bft) 100,00 %
30.12.2017 00:18 -2,7 C 3,3 C 88 % 1008,8 hPa 0,0 l/m 3,2 km/h (1 Bft) SW 225 0 min 0,000 mm 0,0 UV-I 0 W/m -4,4 C -2,7 C 4,8 km/h (1 Bft) 100,00 %
30.12.2017 00:19 -2,7 C 3,3 C 89 % 1008,7 hPa 0,0 l/m 3,2 km/h (1 Bft) SW 225 0 min 0,000 mm 0,0 UV-I 0 W/m -4,3 C -2,7 C 4,8 km/h (1 Bft) 100,00 %
30.12.2017 00:20 -2,7 C 3,3 C 89 % 1008,8 hPa 0,0 l/m 3,2 km/h (1 Bft) SW 225 0 min 0,000 mm 0,0 UV-I 0 W/m -4,3 C -2,7 C 4,8 km/h (1 Bft) 100,00 %
30.12.2017 00:21 -2,7 C 3,3 C 89 % 1008,8 hPa 0,0 l/m 4,8 km/h (1 Bft) SW 225 0 min 0,000 mm 0,0 UV-I 0 W/m -4,3 C -2,7 C 4,8 km/h (1 Bft) 100,00 %
30.12.2017 00:22 -2,7 C 3,3 C 89 % 1008,8 hPa 0,0 l/m 3,2 km/h (1 Bft) SW 225 0 min 0,000 mm 0,0 UV-I 0 W/m -4,3 C -2,7 C 4,8 km/h (1 Bft) 95,65 %
30.12.2017 00:23 -2,7 C 3,3 C 89 % 1008,8 hPa 0,0 l/m 3,2 km/h (1 Bft) SW 225 0 min 0,000 mm 0,0 UV-I 0 W/m -4,3 C -2,7 C 4,8 km/h (1 Bft) 100,00 %
30.12.2017 00:24 -2,8 C 3,3 C 89 % 1008,8 hPa 0,0 l/m 6,4 km/h (2 Bft) SW 225 0 min 0,000 mm 0,0 UV-I 0 W/m -4,4 C -2,8 C 8,0 km/h (2 Bft) 100,00 %
30.12.2017 00:25 -2,8 C 3,3 C 90 % 1008,8 hPa 0,0 l/m 4,8 km/h (1 Bft) SW 225 0 min 0,000 mm 0,0 UV-I 0 W/m -4,2 C -2,8 C 8,0 km/h (2 Bft) 100,00 %
30.12.2017 00:26 -2,8 C 3,3 C 90 % 1008,8 hPa 0,0 l/m 6,4 km/h (2 Bft) SW 225 0 min 0,000 mm 0,0 UV-I 0 W/m -4,2 C -2,8 C 6,4 km/h (2 Bft) 100,00 %
30.12.2017 00:27 -2,8 C 3,3 C 90 % 1008,9 hPa 0,0 l/m 6,4 km/h (2 Bft) SW 225 0 min 0,000 mm 0,0 UV-I 0 W/m -4,2 C -2,8 C 9,7 km/h (2 Bft) 95,65 %
30.12.2017 00:28 -2,8 C 3,3 C 90 % 1008,9 hPa 0,0 l/m 6,4 km/h (2 Bft) SW 225 0 min 0,000 mm 0,0 UV-I 0 W/m -4,2 C -2,8 C 9,7 km/h (2 Bft) 100,00 %
30.12.2017 00:29 -2,9 C 3,3 C 90 % 1008,9 hPa 0,0 l/m 6,4 km/h (2 Bft) SW 225 0 min 0,000 mm 0,0 UV-I 0 W/m -4,3 C -2,9 C 9,7 km/h (2 Bft) 91,30 %
30.12.2017 00:30 -2,9 C 3,3 C 90 % 1008,9 hPa 0,0 l/m 4,8 km/h (1 Bft) SW 225 0 min 0,000 mm 0,0 UV-I 0 W/m -4,3 C -2,9 C 6,4 km/h (2 Bft) 100,00 %
30.12.2017 00:31 -2,9 C 3,3 C 91 % 1009,0 hPa 0,0 l/m 4,8 km/h (1 Bft) SW 225 0 min 0,000 mm 0,0 UV-I 0 W/m -4,2 C -2,9 C 8,0 km/h (2 Bft) 91,30 %
30.12.2017 00:32 -2,9 C 3,3 C 91 % 1009,1 hPa 0,0 l/m 4,8 km/h (1 Bft) SW 225 0 min 0,000 mm 0,0 UV-I 0 W/m -4,2 C -2,9 C 6,4 km/h (2 Bft) 95,65 %
30.12.2017 00:33 -2,9 C 3,3 C 91 % 1009,1 hPa 0,0 l/m 4,8 km/h (1 Bft) W-SW 247 0 min 0,000 mm 0,0 UV-I 0 W/m -4,2 C -2,9 C 8,0 km/h (2 Bft) 100,00 %
30.12.2017 00:34 -2,9 C 3,3 C 91 % 1009,1 hPa 0,0 l/m 4,8 km/h (1 Bft) W-SW 247 0 min 0,000 mm 0,0 UV-I 0 W/m -4,2 C -2,9 C 6,4 km/h (2 Bft) 95,65 %
30.12.2017 00:35 -2,9 C 3,3 C 91 % 1009,2 hPa 0,0 l/m 4,8 km/h (1 Bft) W 270 0 min 0,000 mm 0,0 UV-I 0 W/m -4,2 C -2,9 C 6,4 km/h (2 Bft) 100,00 %
30.12.2017 00:36 -2,9 C 3,3 C 91 % 1009,2 hPa 0,0 l/m 4,8 km/h (1 Bft) W-SW 247 0 min 0,000 mm 0,0 UV-I 0 W/m -4,2 C -2,9 C 6,4 km/h (2 Bft) 91,30 %
30.12.2017 00:37 -2,9 C 3,3 C 91 % 1009,2 hPa 0,0 l/m 6,4 km/h (2 Bft) W-SW 247 0 min 0,000 mm 0,0 UV-I 0 W/m -4,2 C -2,9 C 9,7 km/h (2 Bft) 100,00 %
30.12.2017 00:38 -2,9 C 3,3 C 91 % 1009,2 hPa 0,0 l/m 6,4 km/h (2 Bft) SW 225 0 min 0,000 mm 0,0 UV-I 0 W/m -4,2 C -2,9 C 8,0 km/h (2 Bft) 95,65 %
30.12.2017 00:39 -2,9 C 3,3 C 91 % 1009,2 hPa 0,0 l/m 4,8 km/h (1 Bft) SW 225 0 min 0,000 mm 0,0 UV-I 0 W/m -4,2 C -2,9 C 11,3 km/h (2 Bft) 100,00 %
30.12.2017 00:40 -2,9 C 3,3 C 92 % 1009,3 hPa 0,0 l/m 4,8 km/h (1 Bft) SW 225 0 min 0,000 mm 0,0 UV-I 0 W/m -4,0 C -2,9 C 9,7 km/h (2 Bft) 91,30 %
30.12.2017 00:41 -2,9 C 3,3 C 92 % 1009,2 hPa 0,0 l/m 4,8 km/h (1 Bft) SW 225 0 min 0,000 mm 0,0 UV-I 0 W/m -4,0 C -2,9 C 6,4 km/h (2 Bft) 95,65 %
30.12.2017 00:42 -2,9 C 3,3 C 92 % 1009,3 hPa 0,0 l/m 4,8 km/h (1 Bft) SW 225 0 min 0,000 mm 0,0 UV-I 0 W/m -4,0 C -2,9 C 6,4 km/h (2 Bft) 100,00 %
30.12.2017 00:43 -2,9 C 3,3 C 92 % 1009,3 hPa 0,0 l/m 4,8 km/h (1 Bft) SW 225 0 min 0,000 mm 0,0 UV-I 0 W/m -4,0 C -2,9 C 6,4 km/h (2 Bft) 91,30 %
30.12.2017 00:44 -2,9 C 3,3 C 92 % 1009,3 hPa 0,0 l/m 6,4 km/h (2 Bft) SW 225 0 min 0,000 mm 0,0 UV-I 0 W/m -4,0 C -2,9 C 9,7 km/h (2 Bft) 95,65 %
30.12.2017 00:45 -2,9 C 3,3 C 92 % 1009,3 hPa 0,0 l/m 8,0 km/h (2 Bft) SW 225 0 min 0,000 mm 0,0 UV-I 0 W/m -4,0 C -4,7 C 11,3 km/h (2 Bft) 91,30 %
30.12.2017 00:46 -3,0 C 3,3 C 92 % 1009,3 hPa 0,0 l/m 8,0 km/h (2 Bft) SW 225 0 min 0,000 mm 0,0 UV-I 0 W/m -4,1 C -4,8 C 11,3 km/h (2 Bft) 100,00 %
30.12.2017 00:47 -3,1 C 3,3 C 92 % 1009,3 hPa 0,0 l/m 8,0 km/h (2 Bft) SW 225 0 min 0,000 mm 0,0 UV-I 0 W/m -4,2 C -4,9 C 9,7 km/h (2 Bft) 95,65 %
30.12.2017 00:48 -3,1 C 3,3 C 92 % 1009,3 hPa 0,0 l/m 9,7 km/h (2 Bft) W-SW 247 0 min 0,000 mm 0,0 UV-I 0 W/m -4,2 C -6,6 C 11,3 km/h (2 Bft) 95,65 %
30.12.2017 00:49 -3,0 C 3,3 C 93 % 1009,3 hPa 0,0 l/m 4,8 km/h (1 Bft) W-SW 247 0 min 0,000 mm 0,0 UV-I 0 W/m -4,0 C -3,0 C 6,4 km/h (2 Bft) 95,65 %
30.12.2017 00:50 -3,0 C 3,3 C 93 % 1009,3 hPa 0,0 l/m 6,4 km/h (2 Bft) SW 225 0 min 0,000 mm 0,0 UV-I 0 W/m -4,0 C -3,0 C 8,0 km/h (2 Bft) 86,96 %
30.12.2017 00:51 -3,0 C 3,3 C 93 % 1009,3 hPa 0,0 l/m 6,4 km/h (2 Bft) W-SW 247 0 min 0,000 mm 0,0 UV-I 0 W/m -4,0 C -3,0 C 8,0 km/h (2 Bft) 100,00 %
30.12.2017 00:52 -3,1 C 3,3 C 93 % 1009,3 hPa 0,0 l/m 6,4 km/h (2 Bft) W-SW 247 0 min 0,000 mm 0,0 UV-I 0 W/m -4,1 C -3,1 C 8,0 km/h (2 Bft) 95,65 %
30.12.2017 00:53 -3,1 C 3,3 C 93 % 1009,3 hPa 0,0 l/m 6,4 km/h (2 Bft) SW 225 0 min 0,000 mm 0,0 UV-I 0 W/m -4,1 C -3,1 C 9,7 km/h (2 Bft) 100,00 %
30.12.2017 00:54 -3,1 C 3,3 C 93 % 1009,3 hPa 0,0 l/m 6,4 km/h (2 Bft) SW 225 0 min 0,000 mm 0,0 UV-I 0 W/m -4,1 C -3,1 C 8,0 km/h (2 Bft) 95,65 %
30.12.2017 00:55 -3,1 C 3,3 C 93 % 1009,3 hPa 0,0 l/m 4,8 km/h (1 Bft) W-SW 247 0 min 0,000 mm 0,0 UV-I 0 W/m -4,1 C -3,1 C 6,4 km/h (2 Bft) 95,65 %
30.12.2017 00:56 -3,1 C 3,3 C 93 % 1009,3 hPa 0,0 l/m 4,8 km/h (1 Bft) SW 225 0 min 0,000 mm 0,0 UV-I 0 W/m -4,1 C -3,1 C 6,4 km/h (2 Bft) 95,65 %
30.12.2017 00:57 -3,1 C 3,3 C 93 % 1009,2 hPa 0,0 l/m 3,2 km/h (1 Bft) SW 225 0 min 0,000 mm 0,0 UV-I 0 W/m -4,1 C -3,1 C 4,8 km/h (1 Bft) 86,96 %
30.12.2017 00:58 -3,1 C 3,3 C 93 % 1009,2 hPa 0,0 l/m 4,8 km/h (1 Bft) SW 225 0 min 0,000 mm 0,0 UV-I 0 W/m -4,1 C -3,1 C 6,4 km/h (2 Bft) 91,30 %
30.12.2017 00:59 -3,1 C 3,3 C 93 % 1009,2 hPa 0,0 l/m 4,8 km/h (1 Bft) SW 225 0 min 0,000 mm 0,0 UV-I 0 W/m -4,1 C -3,1 C 6,4 km/h (2 Bft) 86,96 %
30.12.2017 01:00 -3,1 C 3,3 C 93 % 1009,2 hPa 0,0 l/m 4,8 km/h (1 Bft) W-SW 247 0 min 0,000 mm 0,0 UV-I 0 W/m -4,1 C -3,1 C 6,4 km/h (2 Bft) 100,00 %
30.12.2017 01:01 -3,1 C 3,3 C 93 % 1009,3 hPa 0,0 l/m 3,2 km/h (1 Bft) W-SW 247 0 min 0,000 mm 0,0 UV-I 0 W/m -4,1 C -3,1 C 6,4 km/h (2 Bft) 91,30 %
30.12.2017 01:02 -3,1 C 3,3 C 94 % 1009,3 hPa 0,0 l/m 4,8 km/h (1 Bft) SW 225 0 min 0,000 mm 0,0 UV-I 0 W/m -3,9 C -3,1 C 6,4 km/h (2 Bft) 100,00 %
30.12.2017 01:03 -3,1 C 3,3 C 94 % 1009,2 hPa 0,0 l/m 4,8 km/h (1 Bft) SW 225 0 min 0,000 mm 0,0 UV-I 0 W/m -3,9 C -3,1 C 6,4 km/h (2 Bft) 91,30 %
30.12.2017 01:04 -3,1 C 3,3 C 94 % 1009,2 hPa 0,0 l/m 6,4 km/h (2 Bft) S-SW 202 0 min 0,000 mm 0,0 UV-I 0 W/m -3,9 C -3,1 C 9,7 km/h (2 Bft) 95,65 %
30.12.2017 01:05 -3,1 C 3,3 C 94 % 1009,2 hPa 0,0 l/m 6,4 km/h (2 Bft) SW 225 0 min 0,000 mm 0,0 UV-I 0 W/m -3,9 C -3,1 C 9,7 km/h (2 Bft) 91,30 %
30.12.2017 01:06 -3,1 C 3,3 C 94 % 1009,2 hPa 0,0 l/m 8,0 km/h (2 Bft) SW 225 0 min 0,000 mm 0,0 UV-I 0 W/m -3,9 C -4,9 C 11,3 km/h (2 Bft) 100,00 %
30.12.2017 01:07 -3,1 C 3,3 C 94 % 1009,2 hPa 0,0 l/m 6,4 km/h (2 Bft) SW 225 0 min 0,000 mm 0,0 UV-I 0 W/m -3,9 C -3,1 C 9,7 km/h (2 Bft) 91,30 %
30.12.2017 01:08 -3,1 C 3,3 C 94 % 1009,2 hPa 0,0 l/m 4,8 km/h (1 Bft) S-SW 202 0 min 0,000 mm 0,0 UV-I 0 W/m -3,9 C -3,1 C 12,9 km/h (3 Bft) 100,00 %
30.12.2017 01:09 -3,1 C 3,3 C 94 % 1009,2 hPa 0,0 l/m 6,4 km/h (2 Bft) S-SW 202 0 min 0,000 mm 0,0 UV-I 0 W/m -3,9 C -3,1 C 8,0 km/h (2 Bft) 95,65 %
30.12.2017 01:10 -3,1 C 3,3 C 94 % 1009,2 hPa 0,0 l/m 4,8 km/h (1 Bft) S-SW 202 0 min 0,000 mm 0,0 UV-I 0 W/m -3,9 C -3,1 C 8,0 km/h (2 Bft) 95,65 %
30.12.2017 01:11 -3,1 C 3,3 C 94 % 1009,3 hPa 0,0 l/m 6,4 km/h (2 Bft) S-SW 202 0 min 0,000 mm 0,0 UV-I 0 W/m -3,9 C -3,1 C 9,7 km/h (2 Bft) 100,00 %
30.12.2017 01:12 -3,1 C 3,3 C 94 % 1009,3 hPa 0,0 l/m 6,4 km/h (2 Bft) S-SW 202 0 min 0,000 mm 0,0 UV-I 0 W/m -3,9 C -3,1 C 8,0 km/h (2 Bft) 91,30 %
30.12.2017 01:13 -3,1 C 3,3 C 94 % 1009,2 hPa 0,0 l/m 3,2 km/h (1 Bft) S-SW 202 0 min 0,000 mm 0,0 UV-I 0 W/m -3,9 C -3,1 C 6,4 km/h (2 Bft) 100,00 %
30.12.2017 01:14 -3,1 C 3,3 C 94 % 1009,2 hPa 0,0 l/m 4,8 km/h (1 Bft) S-SW 202 0 min 0,000 mm 0,0 UV-I 0 W/m -3,9 C -3,1 C 6,4 km/h (2 Bft) 95,65 %
30.12.2017 01:15 -3,1 C 3,3 C 94 % 1009,2 hPa 0,0 l/m 3,2 km/h (1 Bft) S 180 0 min 0,000 mm 0,0 UV-I 0 W/m -3,9 C -3,1 C 6,4 km/h (2 Bft) 100,00 %
30.12.2017 01:16 -3,1 C 3,3 C 94 % 1009,2 hPa 0,0 l/m 4,8 km/h (1 Bft) S-SW 202 0 min 0,000 mm 0,0 UV-I 0 W/m -3,9 C -3,1 C 6,4 km/h (2 Bft) 95,65 %
30.12.2017 01:17 -3,1 C 3,3 C 94 % 1009,2 hPa 0,0 l/m 3,2 km/h (1 Bft) S-SW 202 0 min 0,000 mm 0,0 UV-I 0 W/m -3,9 C -3,1 C 4,8 km/h (1 Bft) 100,00 %
30.12.2017 01:18 -3,1 C 3,3 C 94 % 1009,1 hPa 0,0 l/m 4,8 km/h (1 Bft) S 180 0 min 0,000 mm 0,0 UV-I 0 W/m -3,9 C -3,1 C 8,0 km/h (2 Bft) 95,65 %
30.12.2017 01:19 -3,1 C 3,3 C 94 % 1008,9 hPa 0,0 l/m 6,4 km/h (2 Bft) SO 135 0 min 0,000 mm 0,0 UV-I 0 W/m -3,9 C -3,1 C 8,0 km/h (2 Bft) 100,00 %
30.12.2017 01:20 -3,1 C 3,3 C 94 % 1008,9 hPa 0,0 l/m 3,2 km/h (1 Bft) SO 135 0 min 0,000 mm 0,0 UV-I 0 W/m -3,9 C -3,1 C 4,8 km/h (1 Bft) 95,65 %
30.12.2017 01:21 -3,1 C 3,3 C 94 % 1009,2 hPa 0,0 l/m 11,3 km/h (2 Bft) W 270 0 min 0,000 mm 0,0 UV-I 0 W/m -3,9 C -8,0 C 14,5 km/h (3 Bft) 95,65 %
30.12.2017 01:22 -3,0 C 3,3 C 94 % 1009,7 hPa 0,0 l/m 6,4 km/h (2 Bft) W 270 0 min 0,000 mm 0,0 UV-I 0 W/m -3,8 C -3,0 C 14,5 km/h (3 Bft) 100,00 %
30.12.2017 01:23 -3,0 C 3,3 C 94 % 1009,4 hPa 0,0 l/m 6,4 km/h (2 Bft) O-SO 112 0 min 0,000 mm 0,0 UV-I 0 W/m -3,8 C -3,0 C 11,3 km/h (2 Bft) 95,65 %
30.12.2017 01:24 -3,0 C 3,3 C 94 % 1009,0 hPa 0,0 l/m 6,4 km/h (2 Bft) SO 135 0 min 0,000 mm 0,0 UV-I 0 W/m -3,8 C -3,0 C 11,3 km/h (2 Bft) 100,00 %
30.12.2017 01:25 -3,0 C 3,3 C 94 % 1009,1 hPa 0,0 l/m 3,2 km/h (1 Bft) S-SO 157 0 min 0,000 mm 0,0 UV-I 0 W/m -3,8 C -3,0 C 6,4 km/h (2 Bft) 95,65 %
30.12.2017 01:26 -3,0 C 3,3 C 94 % 1009,3 hPa 0,0 l/m 3,2 km/h (1 Bft) S-SO 157 0 min 0,000 mm 0,0 UV-I 0 W/m -3,8 C -3,0 C 3,2 km/h (1 Bft) 100,00 %
30.12.2017 01:27 -3,0 C 3,3 C 94 % 1009,2 hPa 0,0 l/m 4,8 km/h (1 Bft) S-SO 157 0 min 0,000 mm 0,0 UV-I 0 W/m -3,8 C -3,0 C 8,0 km/h (2 Bft) 100,00 %
30.12.2017 01:28 -3,0 C 3,3 C 94 % 1009,1 hPa 0,0 l/m 9,7 km/h (2 Bft) O-SO 112 0 min 0,000 mm 0,0 UV-I 0 W/m -3,8 C -6,5 C 11,3 km/h (2 Bft) 100,00 %
30.12.2017 01:29 -3,0 C 3,3 C 94 % 1009,1 hPa 0,0 l/m 8,0 km/h (2 Bft) O-SO 112 0 min 0,000 mm 0,0 UV-I 0 W/m -3,8 C -4,8 C 11,3 km/h (2 Bft) 100,00 %
30.12.2017 01:30 -3,0 C 3,3 C 94 % 1009,1 hPa 0,0 l/m 3,2 km/h (1 Bft) S-SO 157 0 min 0,000 mm 0,0 UV-I 0 W/m -3,8 C -3,0 C 8,0 km/h (2 Bft) 100,00 %
30.12.2017 01:31 -3,0 C 3,3 C 94 % 1009,2 hPa 0,0 l/m 4,8 km/h (1 Bft) S-SO 157 0 min 0,000 mm 0,0 UV-I 0 W/m -3,8 C -3,0 C 9,7 km/h (2 Bft) 100,00 %
30.12.2017 01:32 -2,9 C 3,3 C 94 % 1009,4 hPa 0,0 l/m 6,4 km/h (2 Bft) W 270 0 min 0,000 mm 0,0 UV-I 0 W/m -3,7 C -2,9 C 11,3 km/h (2 Bft) 95,65 %
30.12.2017 01:33 -2,9 C 3,3 C 94 % 1009,4 hPa 0,0 l/m 0,0 km/h (0 Bft) W 270 0 min 0,000 mm 0,0 UV-I 0 W/m -3,7 C -2,9 C 1,6 km/h (1 Bft) 100,00 %
30.12.2017 01:34 -2,9 C 3,3 C 94 % 1009,4 hPa 0,0 l/m 0,0 km/h (0 Bft) W 270 0 min 0,000 mm 0,0 UV-I 0 W/m -3,7 C -2,9 C 1,6 km/h (1 Bft) 95,65 %
30.12.2017 01:35 -2,9 C 3,3 C 94 % 1009,4 hPa 0,0 l/m 0,0 km/h (0 Bft) W 270 0 min 0,000 mm 0,0 UV-I 0 W/m -3,7 C -2,9 C 1,6 km/h (1 Bft) 100,00 %
30.12.2017 01:36 -2,9 C 3,3 C 94 % 1009,3 hPa 0,0 l/m 1,6 km/h (1 Bft) W 270 0 min 0,000 mm 0,0 UV-I 0 W/m -3,7 C -2,9 C 3,2 km/h (1 Bft) 100,00 %
30.12.2017 01:37 -2,9 C 3,3 C 94 % 1009,4 hPa 0,0 l/m 3,2 km/h (1 Bft) SO 135 0 min 0,000 mm 0,0 UV-I 0 W/m -3,7 C -2,9 C 4,8 km/h (1 Bft) 100,00 %
30.12.2017 01:38 -2,9 C 3,3 C 94 % 1009,4 hPa 0,0 l/m 1,6 km/h (1 Bft) SO 135 0 min 0,000 mm 0,0 UV-I 0 W/m -3,7 C -2,9 C 1,6 km/h (1 Bft) 100,00 %
30.12.2017 01:39 -2,9 C 3,3 C 94 % 1009,5 hPa 0,0 l/m 3,2 km/h (1 Bft) W-SW 247 0 min 0,000 mm 0,0 UV-I 0 W/m -3,7 C -2,9 C 4,8 km/h (1 Bft) 95,65 %
30.12.2017 01:40 -2,9 C 3,3 C 94 % 1009,6 hPa 0,0 l/m 3,2 km/h (1 Bft) W-SW 247 0 min 0,000 mm 0,0 UV-I 0 W/m -3,7 C -2,9 C 4,8 km/h (1 Bft) 100,00 %
30.12.2017 01:41 -2,9 C 3,3 C 94 % 1009,7 hPa 0,0 l/m 3,2 km/h (1 Bft) W 270 0 min 0,000 mm 0,0 UV-I 0 W/m -3,7 C -2,9 C 4,8 km/h (1 Bft) 100,00 %
30.12.2017 01:42 -2,9 C 3,3 C 94 % 1009,7 hPa 0,0 l/m 0,0 km/h (0 Bft) W 270 0 min 0,000 mm 0,0 UV-I 0 W/m -3,7 C -2,9 C 3,2 km/h (1 Bft) 100,00 %
30.12.2017 01:43 -2,9 C 3,3 C 94 % 1009,6 hPa 0,0 l/m 6,4 km/h (2 Bft) S-SO 157 0 min 0,000 mm 0,0 UV-I 0 W/m -3,7 C -2,9 C 11,3 km/h (2 Bft) 100,00 %
30.12.2017 01:44 -2,9 C 3,3 C 94 % 1009,4 hPa 0,0 l/m 4,8 km/h (1 Bft) SO 135 0 min 0,000 mm 0,0 UV-I 0 W/m -3,7 C -2,9 C 6,4 km/h (2 Bft) 100,00 %
30.12.2017 01:45 -2,9 C 3,3 C 94 % 1009,5 hPa 0,0 l/m 4,8 km/h (1 Bft) SO 135 0 min 0,000 mm 0,0 UV-I 0 W/m -3,7 C -2,9 C 9,7 km/h (2 Bft) 100,00 %
30.12.2017 01:46 -2,9 C 3,3 C 94 % 1009,9 hPa 0,0 l/m 8,0 km/h (2 Bft) W 270 0 min 0,000 mm 0,0 UV-I 0 W/m -3,7 C -4,7 C 12,9 km/h (3 Bft) 95,65 %
30.12.2017 01:47 -2,9 C 3,3 C 94 % 1010,0 hPa 0,0 l/m 3,2 km/h (1 Bft) W-NW 292 0 min 0,000 mm 0,0 UV-I 0 W/m -3,7 C -2,9 C 3,2 km/h (1 Bft) 95,65 %
30.12.2017 01:48 -2,9 C 3,3 C 94 % 1009,7 hPa 0,0 l/m 4,8 km/h (1 Bft) O-NO 67 0 min 0,000 mm 0,0 UV-I 0 W/m -3,7 C -2,9 C 6,4 km/h (2 Bft) 100,00 %
30.12.2017 01:49 -2,9 C 3,3 C 94 % 1009,5 hPa 0,0 l/m 4,8 km/h (1 Bft) O 90 0 min 0,000 mm 0,0 UV-I 0 W/m -3,7 C -2,9 C 6,4 km/h (2 Bft) 100,00 %
30.12.2017 01:50 -2,9 C 3,3 C 94 % 1009,5 hPa 0,0 l/m 3,2 km/h (1 Bft) O 90 0 min 0,000 mm 0,0 UV-I 0 W/m -3,7 C -2,9 C 6,4 km/h (2 Bft) 95,65 %
30.12.2017 01:51 -2,9 C 3,3 C 94 % 1009,5 hPa 0,0 l/m 1,6 km/h (1 Bft) O 90 0 min 0,000 mm 0,0 UV-I 0 W/m -3,7 C -2,9 C 3,2 km/h (1 Bft) 100,00 %
30.12.2017 01:52 -2,9 C 3,3 C 94 % 1009,7 hPa 0,0 l/m 4,8 km/h (1 Bft) W 270 0 min 0,000 mm 0,0 UV-I 0 W/m -3,7 C -2,9 C 11,3 km/h (2 Bft) 95,65 %
30.12.2017 01:53 -2,9 C 3,3 C 95 % 1009,9 hPa 0,0 l/m 8,0 km/h (2 Bft) W-NW 292 0 min 0,000 mm 0,0 UV-I 0 W/m -3,6 C -4,7 C 9,7 km/h (2 Bft) 95,65 %
30.12.2017 01:54 -2,8 C 3,3 C 95 % 1010,1 hPa 0,0 l/m 4,8 km/h (1 Bft) W 270 0 min 0,000 mm 0,0 UV-I 0 W/m -3,5 C -2,8 C 6,4 km/h (2 Bft) 100,00 %
30.12.2017 01:55 -2,8 C 3,3 C 95 % 1010,0 hPa 0,0 l/m 3,2 km/h (1 Bft) NW 315 0 min 0,000 mm 0,0 UV-I 0 W/m -3,5 C -2,8 C 4,8 km/h (1 Bft) 95,65 %
30.12.2017 01:56 -2,8 C 3,3 C 95 % 1009,9 hPa 0,0 l/m 3,2 km/h (1 Bft) O-NO 67 0 min 0,000 mm 0,0 UV-I 0 W/m -3,5 C -2,8 C 6,4 km/h (2 Bft) 100,00 %
30.12.2017 01:57 -2,9 C 3,3 C 95 % 1009,7 hPa 0,0 l/m 4,8 km/h (1 Bft) O-NO 67 0 min 0,000 mm 0,0 UV-I 0 W/m -3,6 C -2,9 C 6,4 km/h (2 Bft) 95,65 %
30.12.2017 01:58 -2,9 C 3,3 C 95 % 1009,7 hPa 0,0 l/m 6,4 km/h (2 Bft) O 90 0 min 0,000 mm 0,0 UV-I 0 W/m -3,6 C -2,9 C 11,3 km/h (2 Bft) 100,00 %
30.12.2017 01:59 -2,9 C 3,3 C 95 % 1009,5 hPa 0,0 l/m 9,7 km/h (2 Bft) O 90 0 min 0,000 mm 0,0 UV-I 0 W/m -3,6 C -6,4 C 11,3 km/h (2 Bft) 95,65 %
30.12.2017 02:00 -2,9 C 3,3 C 95 % 1009,4 hPa 0,0 l/m 8,0 km/h (2 Bft) O-SO 112 0 min 0,000 mm 0,0 UV-I 0 W/m -3,6 C -4,7 C 11,3 km/h (2 Bft) 95,65 %
30.12.2017 02:01 -2,9 C 3,3 C 95 % 1009,4 hPa 0,0 l/m 6,4 km/h (2 Bft) O-SO 112 0 min 0,000 mm 0,0 UV-I 0 W/m -3,6 C -2,9 C 11,3 km/h (2 Bft) 100,00 %
30.12.2017 02:02 -2,9 C 3,3 C 95 % 1009,4 hPa 0,0 l/m 3,2 km/h (1 Bft) SO 135 0 min 0,000 mm 0,0 UV-I 0 W/m -3,6 C -2,9 C 9,7 km/h (2 Bft) 100,00 %
30.12.2017 02:03 -2,9 C 3,3 C 95 % 1009,5 hPa 0,0 l/m 3,2 km/h (1 Bft) W 270 0 min 0,000 mm 0,0 UV-I 0 W/m -3,6 C -2,9 C 4,8 km/h (1 Bft) 95,65 %
30.12.2017 02:04 -2,9 C 3,3 C 95 % 1009,7 hPa 0,0 l/m 3,2 km/h (1 Bft) W 270 0 min 0,000 mm 0,0 UV-I 0 W/m -3,6 C -2,9 C 6,4 km/h (2 Bft) 100,00 %
30.12.2017 02:05 -2,9 C 3,3 C 95 % 1009,8 hPa 0,0 l/m 3,2 km/h (1 Bft) W 270 0 min 0,000 mm 0,0 UV-I 0 W/m -3,6 C -2,9 C 4,8 km/h (1 Bft) 100,00 %
30.12.2017 02:06 -2,9 C 3,3 C 95 % 1009,7 hPa 0,0 l/m 1,6 km/h (1 Bft) W 270 0 min 0,000 mm 0,0 UV-I 0 W/m -3,6 C -2,9 C 3,2 km/h (1 Bft) 100,00 %
30.12.2017 02:07 -2,8 C 3,3 C 95 % 1009,8 hPa 0,0 l/m 0,0 km/h (0 Bft) W 270 0 min 0,000 mm 0,0 UV-I 0 W/m -3,5 C -2,8 C 1,6 km/h (1 Bft) 95,65 %
30.12.2017 02:08 -2,8 C 3,3 C 95 % 1009,7 hPa 0,0 l/m 0,0 km/h (0 Bft) N 0 0 min 0,000 mm 0,0 UV-I 0 W/m -3,5 C -2,8 C 0,0 km/h (0 Bft) 95,65 %
30.12.2017 02:09 -2,8 C 3,3 C 95 % 1009,7 hPa 0,0 l/m 0,0 km/h (0 Bft) W 270 0 min 0,000 mm 0,0 UV-I 0 W/m -3,5 C -2,8 C 1,6 km/h (1 Bft) 95,65 %
30.12.2017 02:10 -2,8 C 3,3 C 95 % 1009,7 hPa 0,0 l/m 3,2 km/h (1 Bft) W 270 0 min 0,000 mm 0,0 UV-I 0 W/m -3,5 C -2,8 C 4,8 km/h (1 Bft) 95,65 %
30.12.2017 02:11 -2,8 C 3,3 C 95 % 1009,7 hPa 0,0 l/m 1,6 km/h (1 Bft) O-SO 112 0 min 0,000 mm 0,0 UV-I 0 W/m -3,5 C -2,8 C 4,8 km/h (1 Bft) 95,65 %
30.12.2017 02:12 -2,8 C 3,3 C 95 % 1009,7 hPa 0,0 l/m 1,6 km/h (1 Bft) O-SO 112 0 min 0,000 mm 0,0 UV-I 0 W/m -3,5 C -2,8 C 4,8 km/h (1 Bft) 100,00 %
30.12.2017 02:13 -2,8 C 3,3 C 95 % 1009,7 hPa 0,0 l/m 0,0 km/h (0 Bft) O-SO 112 0 min 0,000 mm 0,0 UV-I 0 W/m -3,5 C -2,8 C 1,6 km/h (1 Bft) 95,65 %
30.12.2017 02:14 -2,8 C 3,3 C 95 % 1009,8 hPa 0,0 l/m 1,6 km/h (1 Bft) O-SO 112 0 min 0,000 mm 0,0 UV-I 0 W/m -3,5 C -2,8 C 3,2 km/h (1 Bft) 95,65 %
30.12.2017 02:15 -2,8 C 3,3 C 95 % 1009,7 hPa 0,0 l/m 1,6 km/h (1 Bft) O-SO 112 0 min 0,000 mm 0,0 UV-I 0 W/m -3,5 C -2,8 C 3,2 km/h (1 Bft) 95,65 %
30.12.2017 02:16 -2,8 C 3,3 C 95 % 1009,8 hPa 0,0 l/m 0,0 km/h (0 Bft) O-SO 112 0 min 0,000 mm 0,0 UV-I 0 W/m -3,5 C -2,8 C 3,2 km/h (1 Bft) 91,30 %
30.12.2017 02:17 -2,8 C 3,3 C 95 % 1009,8 hPa 0,0 l/m 1,6 km/h (1 Bft) O-SO 112 0 min 0,000 mm 0,0 UV-I 0 W/m -3,5 C -2,8 C 3,2 km/h (1 Bft) 100,00 %
30.12.2017 02:18 -2,8 C 3,3 C 95 % 1009,9 hPa 0,0 l/m 3,2 km/h (1 Bft) O-SO 112 0 min 0,000 mm 0,0 UV-I 0 W/m -3,5 C -2,8 C 3,2 km/h (1 Bft) 95,65 %
30.12.2017 02:19 -2,8 C 3,3 C 95 % 1009,9 hPa 0,0 l/m 1,6 km/h (1 Bft) O-SO 112 0 min 0,000 mm 0,0 UV-I 0 W/m -3,5 C -2,8 C 3,2 km/h (1 Bft) 100,00 %
30.12.2017 02:20 -2,8 C 3,3 C 95 % 1009,9 hPa 0,0 l/m 3,2 km/h (1 Bft) O-SO 112 0 min 0,000 mm 0,0 UV-I 0 W/m -3,5 C -2,8 C 3,2 km/h (1 Bft) 95,65 %
30.12.2017 02:21 -2,8 C 3,3 C 95 % 1009,8 hPa 0,0 l/m 1,6 km/h (1 Bft) O-SO 112 0 min 0,000 mm 0,0 UV-I 0 W/m -3,5 C -2,8 C 4,8 km/h (1 Bft) 100,00 %
30.12.2017 02:22 -2,8 C 3,3 C 95 % 1009,8 hPa 0,0 l/m 0,0 km/h (0 Bft) O-SO 112 0 min 0,000 mm 0,0 UV-I 0 W/m -3,5 C -2,8 C 1,6 km/h (1 Bft) 91,30 %
30.12.2017 02:23 -2,8 C 3,3 C 95 % 1009,8 hPa 0,0 l/m 0,0 km/h (0 Bft) O-SO 112 0 min 0,000 mm 0,0 UV-I 0 W/m -3,5 C -2,8 C 1,6 km/h (1 Bft) 100,00 %
30.12.2017 02:24 -2,8 C 3,3 C 95 % 1009,8 hPa 0,0 l/m 0,0 km/h (0 Bft) N 0 0 min 0,000 mm 0,0 UV-I 0 W/m -3,5 C -2,8 C 0,0 km/h (0 Bft) 95,65 %
30.12.2017 02:25 -2,8 C 3,3 C 95 % 1009,8 hPa 0,0 l/m 0,0 km/h (0 Bft) O-SO 112 0 min 0,000 mm 0,0 UV-I 0 W/m -3,5 C -2,8 C 3,2 km/h (1 Bft) 100,00 %
30.12.2017 02:26 -2,8 C 3,3 C 95 % 1009,8 hPa 0,0 l/m 0,0 km/h (0 Bft) O-SO 112 0 min 0,000 mm 0,0 UV-I 0 W/m -3,5 C -2,8 C 1,6 km/h (1 Bft) 91,30 %
30.12.2017 02:27 -2,8 C 3,3 C 95 % 1009,8 hPa 0,0 l/m 0,0 km/h (0 Bft) N 0 0 min 0,000 mm 0,0 UV-I 0 W/m -3,5 C -2,8 C 0,0 km/h (0 Bft) 100,00 %
30.12.2017 02:28 -2,7 C 3,3 C 95 % 1009,7 hPa 0,0 l/m 0,0 km/h (0 Bft) N 0 0 min 0,000 mm 0,0 UV-I 0 W/m -3,4 C -2,7 C 0,0 km/h (0 Bft) 86,96 %
30.12.2017 02:29 -2,8 C 3,3 C 95 % 1009,7 hPa 0,0 l/m 0,0 km/h (0 Bft) O-SO 112 0 min 0,000 mm 0,0 UV-I 0 W/m -3,5 C -2,8 C 1,6 km/h (1 Bft) 100,00 %
30.12.2017 02:30 -2,7 C 3,3 C 95 % 1009,7 hPa 0,0 l/m 1,6 km/h (1 Bft) O-SO 112 0 min 0,000 mm 0,0 UV-I 0 W/m -3,4 C -2,7 C 3,2 km/h (1 Bft) 91,30 %
30.12.2017 02:31 -2,7 C 3,3 C 95 % 1009,7 hPa 0,0 l/m 1,6 km/h (1 Bft) O-SO 112 0 min 0,000 mm 0,0 UV-I 0 W/m -3,4 C -2,7 C 3,2 km/h (1 Bft) 91,30 %
30.12.2017 02:32 -2,7 C 3,3 C 95 % 1009,7 hPa 0,0 l/m 1,6 km/h (1 Bft) O-SO 112 0 min 0,000 mm 0,0 UV-I 0 W/m -3,4 C -2,7 C 1,6 km/h (1 Bft) 95,65 %
30.12.2017 02:33 -2,7 C 3,3 C 95 % 1009,7 hPa 0,0 l/m 1,6 km/h (1 Bft) O-SO 112 0 min 0,000 mm 0,0 UV-I 0 W/m -3,4 C -2,7 C 3,2 km/h (1 Bft) 95,65 %
30.12.2017 02:34 -2,7 C 3,3 C 95 % 1009,7 hPa 0,0 l/m 0,0 km/h (0 Bft) O-SO 112 0 min 0,000 mm 0,0 UV-I 0 W/m -3,4 C -2,7 C 1,6 km/h (1 Bft) 95,65 %
30.12.2017 02:35 -2,7 C 3,3 C 95 % 1009,7 hPa 0,0 l/m 0,0 km/h (0 Bft) N 0 0 min 0,000 mm 0,0 UV-I 0 W/m -3,4 C -2,7 C 0,0 km/h (0 Bft) 95,65 %
30.12.2017 02:36 -2,7 C 3,3 C 95 % 1009,7 hPa 0,0 l/m 0,0 km/h (0 Bft) N 0 0 min 0,000 mm 0,0 UV-I 0 W/m -3,4 C -2,7 C 0,0 km/h (0 Bft) 95,65 %
30.12.2017 02:37 -2,7 C 3,3 C 95 % 1009,7 hPa 0,0 l/m 0,0 km/h (0 Bft) N 0 0 min 0,000 mm 0,0 UV-I 0 W/m -3,4 C -2,7 C 0,0 km/h (0 Bft) 100,00 %
30.12.2017 02:38 -2,7 C 3,3 C 95 % 1009,7 hPa 0,0 l/m 0,0 km/h (0 Bft) N 0 0 min 0,000 mm 0,0 UV-I 0 W/m -3,4 C -2,7 C 0,0 km/h (0 Bft) 91,30 %
30.12.2017 02:39 -2,7 C 3,3 C 95 % 1009,6 hPa 0,0 l/m 0,0 km/h (0 Bft) N 0 0 min 0,000 mm 0,0 UV-I 0 W/m -3,4 C -2,7 C 0,0 km/h (0 Bft) 100,00 %
30.12.2017 02:40 -2,7 C 3,3 C 95 % 1009,7 hPa 0,0 l/m 0,0 km/h (0 Bft) N 0 0 min 0,000 mm 0,0 UV-I 0 W/m -3,4 C -2,7 C 0,0 km/h (0 Bft) 95,65 %
30.12.2017 02:41 -2,7 C 3,3 C 95 % 1009,7 hPa 0,0 l/m 0,0 km/h (0 Bft) N 0 0 min 0,000 mm 0,0 UV-I 0 W/m -3,4 C -2,7 C 0,0 km/h (0 Bft) 95,65 %
30.12.2017 02:42 -2,7 C 3,3 C 95 % 1009,8 hPa 0,0 l/m 0,0 km/h (0 Bft) N 0 0 min 0,000 mm 0,0 UV-I 0 W/m -3,4 C -2,7 C 0,0 km/h (0 Bft) 91,30 %
30.12.2017 02:43 -2,7 C 3,3 C 95 % 1009,7 hPa 0,0 l/m 0,0 km/h (0 Bft) N 0 0 min 0,000 mm 0,0 UV-I 0 W/m -3,4 C -2,7 C 0,0 km/h (0 Bft) 95,65 %
30.12.2017 02:44 -2,6 C 3,3 C 95 % 1009,7 hPa 0,0 l/m 0,0 km/h (0 Bft) O-SO 112 0 min 0,000 mm 0,0 UV-I 0 W/m -3,3 C -2,6 C 1,6 km/h (1 Bft) 100,00 %
30.12.2017 02:45 -2,6 C 3,3 C 95 % 1009,7 hPa 0,0 l/m 1,6 km/h (1 Bft) O-SO 112 0 min 0,000 mm 0,0 UV-I 0 W/m -3,3 C -2,6 C 1,6 km/h (1 Bft) 91,30 %
30.12.2017 02:46 -2,6 C 3,3 C 95 % 1009,8 hPa 0,0 l/m 0,0 km/h (0 Bft) N 0 0 min 0,000 mm 0,0 UV-I 0 W/m -3,3 C -2,6 C 0,0 km/h (0 Bft) 100,00 %
30.12.2017 02:47 -2,6 C 3,3 C 95 % 1009,8 hPa 0,0 l/m 0,0 km/h (0 Bft) N 0 0 min 0,000 mm 0,0 UV-I 0 W/m -3,3 C -2,6 C 0,0 km/h (0 Bft) 95,65 %
30.12.2017 02:48 -2,6 C 3,3 C 95 % 1009,8 hPa 0,0 l/m 0,0 km/h (0 Bft) N 0 0 min 0,000 mm 0,0 UV-I 0 W/m -3,3 C -2,6 C 0,0 km/h (0 Bft) 100,00 %
30.12.2017 02:49 -2,6 C 3,3 C 95 % 1009,8 hPa 0,0 l/m 1,6 km/h (1 Bft) O-SO 112 0 min 0,000 mm 0,0 UV-I 0 W/m -3,3 C -2,6 C 3,2 km/h (1 Bft) 95,65 %
30.12.2017 02:50 -2,6 C 3,3 C 95 % 1009,8 hPa 0,0 l/m 1,6 km/h (1 Bft) O-SO 112 0 min 0,000 mm 0,0 UV-I 0 W/m -3,3 C -2,6 C 1,6 km/h (1 Bft) 95,65 %
30.12.2017 02:51 -2,6 C 3,3 C 95 % 1009,7 hPa 0,0 l/m 1,6 km/h (1 Bft) O-SO 112 0 min 0,000 mm 0,0 UV-I 0 W/m -3,3 C -2,6 C 3,2 km/h (1 Bft) 91,30 %
30.12.2017 02:52 -2,6 C 3,3 C 95 % 1009,8 hPa 0,0 l/m 1,6 km/h (1 Bft) O-SO 112 0 min 0,000 mm 0,0 UV-I 0 W/m -3,3 C -2,6 C 1,6 km/h (1 Bft) 95,65 %
30.12.2017 02:53 -2,6 C 3,3 C 95 % 1009,7 hPa 0,0 l/m 0,0 km/h (0 Bft) O-SO 112 0 min 0,000 mm 0,0 UV-I 0 W/m -3,3 C -2,6 C 1,6 km/h (1 Bft) 100,00 %
30.12.2017 02:54 -2,6 C 3,3 C 95 % 1009,8 hPa 0,0 l/m 0,0 km/h (0 Bft) N 0 0 min 0,000 mm 0,0 UV-I 0 W/m -3,3 C -2,6 C 0,0 km/h (0 Bft) 95,65 %
30.12.2017 02:55 -2,6 C 3,3 C 95 % 1009,8 hPa 0,0 l/m 1,6 km/h (1 Bft) O-SO 112 0 min 0,000 mm 0,0 UV-I 0 W/m -3,3 C -2,6 C 3,2 km/h (1 Bft) 100,00 %
30.12.2017 02:56 -2,6 C 3,3 C 95 % 1009,7 hPa 0,0 l/m 1,6 km/h (1 Bft) O-SO 112 0 min 0,000 mm 0,0 UV-I 0 W/m -3,3 C -2,6 C 3,2 km/h (1 Bft) 91,30 %
30.12.2017 02:57 -2,6 C 3,3 C 95 % 1009,7 hPa 0,0 l/m 0,0 km/h (0 Bft) O-SO 112 0 min 0,000 mm 0,0 UV-I 0 W/m -3,3 C -2,6 C 1,6 km/h (1 Bft) 95,65 %
30.12.2017 02:58 -2,5 C 3,3 C 95 % 1009,7 hPa 0,0 l/m 0,0 km/h (0 Bft) N 0 0 min 0,000 mm 0,0 UV-I 0 W/m -3,2 C -2,5 C 0,0 km/h (0 Bft) 91,30 %
30.12.2017 02:59 -2,5 C 3,3 C 95 % 1009,8 hPa 0,0 l/m 0,0 km/h (0 Bft) N 0 0 min 0,000 mm 0,0 UV-I 0 W/m -3,2 C -2,5 C 0,0 km/h (0 Bft) 95,65 %
30.12.2017 03:00 -2,6 C 3,3 C 95 % 1009,7 hPa 0,0 l/m 0,0 km/h (0 Bft) N 0 0 min 0,000 mm 0,0 UV-I 0 W/m -3,3 C -2,6 C 0,0 km/h (0 Bft) 100,00 %
30.12.2017 03:01 -2,5 C 3,3 C 95 % 1009,7 hPa 0,0 l/m 0,0 km/h (0 Bft) O-SO 112 0 min 0,000 mm 0,0 UV-I 0 W/m -3,2 C -2,5 C 1,6 km/h (1 Bft) 95,65 %
30.12.2017 03:02 -2,5 C 3,3 C 95 % 1009,7 hPa 0,0 l/m 0,0 km/h (0 Bft) N 0 0 min 0,000 mm 0,0 UV-I 0 W/m -3,2 C -2,5 C 0,0 km/h (0 Bft) 100,00 %
30.12.2017 03:03 -2,5 C 3,3 C 95 % 1009,7 hPa 0,0 l/m 0,0 km/h (0 Bft) O-SO 112 0 min 0,000 mm 0,0 UV-I 0 W/m -3,2 C -2,5 C 3,2 km/h (1 Bft) 95,65 %
30.12.2017 03:04 -2,5 C 3,3 C 95 % 1009,6 hPa 0,0 l/m 1,6 km/h (1 Bft) O-SO 112 0 min 0,000 mm 0,0 UV-I 0 W/m -3,2 C -2,5 C 1,6 km/h (1 Bft) 95,65 %
30.12.2017 03:05 -2,4 C 3,3 C 95 % 1009,7 hPa 0,0 l/m 0,0 km/h (0 Bft) O-SO 112 0 min 0,000 mm 0,0 UV-I 0 W/m -3,1 C -2,4 C 1,6 km/h (1 Bft) 91,30 %
30.12.2017 03:06 -2,4 C 3,3 C 95 % 1009,7 hPa 0,0 l/m 0,0 km/h (0 Bft) O-SO 112 0 min 0,000 mm 0,0 UV-I 0 W/m -3,1 C -2,4 C 1,6 km/h (1 Bft) 100,00 %
30.12.2017 03:07 -2,4 C 3,3 C 95 % 1009,7 hPa 0,0 l/m 1,6 km/h (1 Bft) O-SO 112 0 min 0,000 mm 0,0 UV-I 0 W/m -3,1 C -2,4 C 3,2 km/h (1 Bft) 95,65 %
30.12.2017 03:08 -2,4 C 3,3 C 95 % 1009,7 hPa 0,0 l/m 0,0 km/h (0 Bft) O-SO 112 0 min 0,000 mm 0,0 UV-I 0 W/m -3,1 C -2,4 C 1,6 km/h (1 Bft) 100,00 %
30.12.2017 03:09 -2,4 C 3,3 C 95 % 1009,7 hPa 0,0 l/m 1,6 km/h (1 Bft) O-SO 112 0 min 0,000 mm 0,0 UV-I 0 W/m -3,1 C -2,4 C 1,6 km/h (1 Bft) 100,00 %
30.12.2017 03:10 -2,4 C 3,3 C 95 % 1009,7 hPa 0,0 l/m 1,6 km/h (1 Bft) O-SO 112 0 min 0,000 mm 0,0 UV-I 0 W/m -3,1 C -2,4 C 3,2 km/h (1 Bft) 100,00 %
30.12.2017 03:11 -2,4 C 3,3 C 95 % 1009,7 hPa 0,0 l/m 1,6 km/h (1 Bft) O-SO 112 0 min 0,000 mm 0,0 UV-I 0 W/m -3,1 C -2,4 C 1,6 km/h (1 Bft) 91,30 %
30.12.2017 03:12 -2,3 C 3,3 C 95 % 1009,7 hPa 0,0 l/m 1,6 km/h (1 Bft) O-SO 112 0 min 0,000 mm 0,0 UV-I 0 W/m -3,0 C -2,3 C 3,2 km/h (1 Bft) 100,00 %
30.12.2017 03:13 -2,3 C 3,3 C 95 % 1009,7 hPa 0,0 l/m 3,2 km/h (1 Bft) O-SO 112 0 min 0,000 mm 0,0 UV-I 0 W/m -3,0 C -2,3 C 4,8 km/h (1 Bft) 100,00 %
30.12.2017 03:14 -2,3 C 3,3 C 95 % 1009,7 hPa 0,0 l/m 3,2 km/h (1 Bft) S 180 0 min 0,000 mm 0,0 UV-I 0 W/m -3,0 C -2,3 C 4,8 km/h (1 Bft) 100,00 %
30.12.2017 03:15 -2,3 C 3,3 C 95 % 1009,7 hPa 0,0 l/m 3,2 km/h (1 Bft) S 180 0 min 0,000 mm 0,0 UV-I 0 W/m -3,0 C -2,3 C 4,8 km/h (1 Bft) 100,00 %
30.12.2017 03:16 -2,3 C 3,3 C 95 % 1009,7 hPa 0,0 l/m 1,6 km/h (1 Bft) S 180 0 min 0,000 mm 0,0 UV-I 0 W/m -3,0 C -2,3 C 3,2 km/h (1 Bft) 100,00 %
30.12.2017 03:17 -2,2 C 3,3 C 96 % 1009,8 hPa 0,0 l/m 3,2 km/h (1 Bft) S 180 0 min 0,000 mm 0,0 UV-I 0 W/m -2,7 C -2,2 C 4,8 km/h (1 Bft) 100,00 %
30.12.2017 03:18 -2,2 C 3,3 C 96 % 1009,7 hPa 0,0 l/m 3,2 km/h (1 Bft) S 180 0 min 0,000 mm 0,0 UV-I 0 W/m -2,7 C -2,2 C 4,8 km/h (1 Bft) 91,30 %
30.12.2017 03:19 -2,2 C 3,3 C 96 % 1009,7 hPa 0,0 l/m 1,6 km/h (1 Bft) S 180 0 min 0,000 mm 0,0 UV-I 0 W/m -2,7 C -2,2 C 3,2 km/h (1 Bft) 95,65 %
30.12.2017 03:20 -2,2 C 3,3 C 96 % 1009,7 hPa 0,0 l/m 4,8 km/h (1 Bft) SW 225 0 min 0,000 mm 0,0 UV-I 0 W/m -2,7 C -2,2 C 6,4 km/h (2 Bft) 100,00 %
30.12.2017 03:21 -2,2 C 3,3 C 96 % 1009,8 hPa 0,0 l/m 3,2 km/h (1 Bft) S-SW 202 0 min 0,000 mm 0,0 UV-I 0 W/m -2,7 C -2,2 C 4,8 km/h (1 Bft) 100,00 %
30.12.2017 03:22 -2,2 C 3,3 C 96 % 1009,7 hPa 0,0 l/m 3,2 km/h (1 Bft) S-SW 202 0 min 0,000 mm 0,0 UV-I 0 W/m -2,7 C -2,2 C 4,8 km/h (1 Bft) 95,65 %
30.12.2017 03:23 -2,1 C 3,3 C 96 % 1009,7 hPa 0,0 l/m 3,2 km/h (1 Bft) S-SW 202 0 min 0,000 mm 0,0 UV-I 0 W/m -2,6 C -2,1 C 4,8 km/h (1 Bft) 100,00 %
30.12.2017 03:24 -2,1 C 3,3 C 96 % 1009,7 hPa 0,0 l/m 4,8 km/h (1 Bft) S-SW 202 0 min 0,000 mm 0,0 UV-I 0 W/m -2,6 C -2,1 C 6,4 km/h (2 Bft) 100,00 %
30.12.2017 03:25 -2,1 C 3,3 C 96 % 1009,7 hPa 0,0 l/m 4,8 km/h (1 Bft) S-SW 202 0 min 0,000 mm 0,0 UV-I 0 W/m -2,6 C -2,1 C 6,4 km/h (2 Bft) 95,65 %
30.12.2017 03:26 -2,0 C 3,3 C 96 % 1009,7 hPa 0,0 l/m 4,8 km/h (1 Bft) S-SW 202 0 min 0,000 mm 0,0 UV-I 0 W/m -2,6 C -2,0 C 6,4 km/h (2 Bft) 100,00 %
30.12.2017 03:27 -1,9 C 3,3 C 96 % 1009,6 hPa 0,0 l/m 4,8 km/h (1 Bft) S-SW 202 0 min 0,000 mm 0,0 UV-I 0 W/m -2,5 C -1,9 C 6,4 km/h (2 Bft) 100,00 %
30.12.2017 03:28 -1,9 C 3,3 C 96 % 1009,6 hPa 0,0 l/m 8,0 km/h (2 Bft) SW 225 0 min 0,000 mm 0,0 UV-I 0 W/m -2,5 C -3,6 C 9,7 km/h (2 Bft) 86,96 %
30.12.2017 03:29 -1,8 C 3,3 C 96 % 1009,6 hPa 0,0 l/m 4,8 km/h (1 Bft) SW 225 0 min 0,000 mm 0,0 UV-I 0 W/m -2,4 C -1,8 C 8,0 km/h (2 Bft) 100,00 %
30.12.2017 03:30 -1,8 C 3,3 C 96 % 1009,5 hPa 0,0 l/m 6,4 km/h (2 Bft) SW 225 0 min 0,000 mm 0,0 UV-I 0 W/m -2,4 C -1,8 C 9,7 km/h (2 Bft) 95,65 %
30.12.2017 03:31 -1,7 C 3,3 C 96 % 1009,5 hPa 0,0 l/m 6,4 km/h (2 Bft) SW 225 0 min 0,000 mm 0,0 UV-I 0 W/m -2,3 C -1,7 C 8,0 km/h (2 Bft) 100,00 %
30.12.2017 03:32 -1,6 C 3,3 C 96 % 1009,5 hPa 0,0 l/m 6,4 km/h (2 Bft) SW 225 0 min 0,000 mm 0,0 UV-I 0 W/m -2,2 C -1,6 C 8,0 km/h (2 Bft) 91,30 %
30.12.2017 03:33 -1,6 C 3,3 C 96 % 1009,4 hPa 0,0 l/m 8,0 km/h (2 Bft) SW 225 0 min 0,000 mm 0,0 UV-I 0 W/m -2,2 C -3,3 C 11,3 km/h (2 Bft) 100,00 %
30.12.2017 03:34 -1,6 C 3,3 C 96 % 1009,5 hPa 0,0 l/m 8,0 km/h (2 Bft) SW 225 0 min 0,000 mm 0,0 UV-I 0 W/m -2,2 C -3,3 C 11,3 km/h (2 Bft) 95,65 %
30.12.2017 03:35 -1,5 C 3,3 C 96 % 1009,5 hPa 0,0 l/m 6,4 km/h (2 Bft) W-SW 247 0 min 0,000 mm 0,0 UV-I 0 W/m -2,1 C -1,5 C 9,7 km/h (2 Bft) 95,65 %
30.12.2017 03:36 -1,5 C 3,3 C 96 % 1009,4 hPa 0,0 l/m 8,0 km/h (2 Bft) SW 225 0 min 0,000 mm 0,0 UV-I 0 W/m -2,1 C -3,2 C 12,9 km/h (3 Bft) 100,00 %
30.12.2017 03:37 -1,4 C 3,3 C 96 % 1009,4 hPa 0,0 l/m 6,4 km/h (2 Bft) SW 225 0 min 0,000 mm 0,0 UV-I 0 W/m -2,0 C -1,4 C 11,3 km/h (2 Bft) 91,30 %
30.12.2017 03:38 -1,4 C 3,3 C 96 % 1009,4 hPa 0,0 l/m 6,4 km/h (2 Bft) SW 225 0 min 0,000 mm 0,0 UV-I 0 W/m -2,0 C -1,4 C 9,7 km/h (2 Bft) 100,00 %
30.12.2017 03:39 -1,3 C 3,3 C 96 % 1009,4 hPa 0,0 l/m 6,4 km/h (2 Bft) SW 225 0 min 0,000 mm 0,0 UV-I 0 W/m -1,9 C -1,3 C 8,0 km/h (2 Bft) 91,30 %
30.12.2017 03:40 -1,3 C 3,3 C 96 % 1009,4 hPa 0,0 l/m 6,4 km/h (2 Bft) SW 225 0 min 0,000 mm 0,0 UV-I 0 W/m -1,9 C -1,3 C 9,7 km/h (2 Bft) 100,00 %
30.12.2017 03:41 -1,2 C 3,3 C 96 % 1009,4 hPa 0,0 l/m 8,0 km/h (2 Bft) SW 225 0 min 0,000 mm 0,0 UV-I 0 W/m -1,8 C -2,9 C 11,3 km/h (2 Bft) 95,65 %
30.12.2017 03:42 -1,1 C 3,3 C 96 % 1009,4 hPa 0,0 l/m 8,0 km/h (2 Bft) SW 225 0 min 0,000 mm 0,0 UV-I 0 W/m -1,7 C -2,8 C 11,3 km/h (2 Bft) 100,00 %
30.12.2017 03:43 -1,1 C 3,3 C 96 % 1009,4 hPa 0,0 l/m 8,0 km/h (2 Bft) W-SW 247 0 min 0,000 mm 0,0 UV-I 0 W/m -1,7 C -2,8 C 12,9 km/h (3 Bft) 95,65 %
30.12.2017 03:44 -0,9 C 3,3 C 96 % 1009,4 hPa 0,0 l/m 6,4 km/h (2 Bft) SW 225 0 min 0,000 mm 0,0 UV-I 0 W/m -1,5 C -0,9 C 8,0 km/h (2 Bft) 100,00 %
30.12.2017 03:45 -0,8 C 3,3 C 96 % 1009,4 hPa 0,0 l/m 9,7 km/h (2 Bft) SW 225 0 min 0,000 mm 0,0 UV-I 0 W/m -1,4 C -4,1 C 14,5 km/h (3 Bft) 95,65 %
30.12.2017 03:46 -0,8 C 3,3 C 96 % 1009,4 hPa 0,0 l/m 8,0 km/h (2 Bft) SW 225 0 min 0,000 mm 0,0 UV-I 0 W/m -1,4 C -2,5 C 12,9 km/h (3 Bft) 91,30 %
30.12.2017 03:47 -0,7 C 3,3 C 96 % 1009,4 hPa 0,0 l/m 9,7 km/h (2 Bft) SW 225 0 min 0,000 mm 0,0 UV-I 0 W/m -1,3 C -4,0 C 11,3 km/h (2 Bft) 95,65 %
30.12.2017 03:48 -0,6 C 3,3 C 96 % 1009,4 hPa 0,0 l/m 8,0 km/h (2 Bft) SW 225 0 min 0,000 mm 0,0 UV-I 0 W/m -1,2 C -2,3 C 14,5 km/h (3 Bft) 100,00 %
30.12.2017 03:49 -0,6 C 3,3 C 96 % 1009,4 hPa 0,0 l/m 11,3 km/h (2 Bft) SW 225 0 min 0,000 mm 0,0 UV-I 0 W/m -1,2 C -5,2 C 12,9 km/h (3 Bft) 91,30 %
30.12.2017 03:50 -0,5 C 3,3 C 96 % 1009,4 hPa 0,0 l/m 8,0 km/h (2 Bft) SW 225 0 min 0,000 mm 0,0 UV-I 0 W/m -1,1 C -2,2 C 12,9 km/h (3 Bft) 100,00 %
30.12.2017 03:51 -0,4 C 3,3 C 96 % 1009,4 hPa 0,0 l/m 9,7 km/h (2 Bft) W-SW 247 0 min 0,000 mm 0,0 UV-I 0 W/m -1,0 C -3,6 C 14,5 km/h (3 Bft) 100,00 %
30.12.2017 03:52 -0,3 C 3,3 C 97 % 1009,4 hPa 0,0 l/m 9,7 km/h (2 Bft) SW 225 0 min 0,000 mm 0,0 UV-I 0 W/m -0,7 C -3,5 C 14,5 km/h (3 Bft) 95,65 %
30.12.2017 03:53 -0,3 C 3,3 C 97 % 1009,4 hPa 0,0 l/m 9,7 km/h (2 Bft) W-SW 247 0 min 0,000 mm 0,0 UV-I 0 W/m -0,7 C -3,5 C 12,9 km/h (3 Bft) 95,65 %
30.12.2017 03:54 -0,2 C 3,3 C 96 % 1009,4 hPa 0,0 l/m 8,0 km/h (2 Bft) SW 225 0 min 0,000 mm 0,0 UV-I 0 W/m -0,8 C -1,9 C 11,3 km/h (2 Bft) 100,00 %
30.12.2017 03:55 -0,1 C 3,3 C 96 % 1009,4 hPa 0,0 l/m 6,4 km/h (2 Bft) SW 225 0 min 0,000 mm 0,0 UV-I 0 W/m -0,7 C -0,1 C 11,3 km/h (2 Bft) 100,00 %
30.12.2017 03:56 -0,1 C 3,3 C 96 % 1009,4 hPa 0,0 l/m 9,7 km/h (2 Bft) SW 225 0 min 0,000 mm 0,0 UV-I 0 W/m -0,7 C -3,3 C 12,9 km/h (3 Bft) 100,00 %
30.12.2017 03:57 0,1 C 3,3 C 97 % 1009,4 hPa 0,0 l/m 11,3 km/h (2 Bft) SW 225 0 min 0,000 mm 0,0 UV-I 0 W/m -0,3 C -4,4 C 14,5 km/h (3 Bft) 100,00 %
30.12.2017 03:58 0,1 C 3,3 C 97 % 1009,4 hPa 0,0 l/m 8,0 km/h (2 Bft) W-SW 247 0 min 0,000 mm 0,0 UV-I 0 W/m -0,3 C -1,5 C 9,7 km/h (2 Bft) 100,00 %
30.12.2017 03:59 0,2 C 3,3 C 96 % 1009,4 hPa 0,0 l/m 9,7 km/h (2 Bft) W-SW 247 0 min 0,000 mm 0,0 UV-I 0 W/m -0,4 C -3,0 C 12,9 km/h (3 Bft) 95,65 %
30.12.2017 04:00 0,2 C 3,3 C 96 % 1009,4 hPa 0,0 l/m 9,7 km/h (2 Bft) SW 225 0 min 0,000 mm 0,0 UV-I 0 W/m -0,4 C -3,0 C 14,5 km/h (3 Bft) 95,65 %
30.12.2017 04:01 0,2 C 3,3 C 96 % 1009,4 hPa 0,0 l/m 8,0 km/h (2 Bft) SW 225 0 min 0,000 mm 0,0 UV-I 0 W/m -0,4 C -1,4 C 11,3 km/h (2 Bft) 100,00 %
30.12.2017 04:02 0,3 C 3,3 C 97 % 1009,4 hPa 0,0 l/m 9,7 km/h (2 Bft) SW 225 0 min 0,000 mm 0,0 UV-I 0 W/m -0,1 C -2,9 C 14,5 km/h (3 Bft) 100,00 %
30.12.2017 04:03 0,4 C 3,3 C 97 % 1009,4 hPa 0,0 l/m 9,7 km/h (2 Bft) SW 225 0 min 0,000 mm 0,0 UV-I 0 W/m -0,0 C -2,8 C 14,5 km/h (3 Bft) 100,00 %
30.12.2017 04:04 0,4 C 3,3 C 97 % 1009,4 hPa 0,0 l/m 9,7 km/h (2 Bft) SW 225 0 min 0,000 mm 0,0 UV-I 0 W/m -0,0 C -2,8 C 14,5 km/h (3 Bft) 100,00 %
30.12.2017 04:05 0,5 C 3,3 C 97 % 1009,4 hPa 0,0 l/m 9,7 km/h (2 Bft) SW 225 0 min 0,000 mm 0,0 UV-I 0 W/m 0,1 C -2,6 C 16,1 km/h (3 Bft) 95,65 %
30.12.2017 04:06 0,6 C 3,3 C 96 % 1009,4 hPa 0,0 l/m 14,5 km/h (3 Bft) SW 225 0 min 0,000 mm 0,0 UV-I 0 W/m 0,0 C -6,0 C 19,3 km/h (3 Bft) 100,00 %
30.12.2017 04:07 0,6 C 3,3 C 97 % 1009,4 hPa 0,0 l/m 11,3 km/h (2 Bft) SW 225 0 min 0,000 mm 0,0 UV-I 0 W/m 0,2 C -3,8 C 16,1 km/h (3 Bft) 91,30 %
30.12.2017 04:08 0,7 C 3,3 C 97 % 1009,3 hPa 0,0 l/m 12,9 km/h (3 Bft) W-SW 247 0 min 0,000 mm 0,0 UV-I 0 W/m 0,3 C -4,8 C 16,1 km/h (3 Bft) 95,65 %
30.12.2017 04:09 0,7 C 3,3 C 96 % 1009,4 hPa 0,0 l/m 12,9 km/h (3 Bft) SW 225 0 min 0,000 mm 0,0 UV-I 0 W/m 0,1 C -4,8 C 20,9 km/h (4 Bft) 100,00 %
30.12.2017 04:10 0,8 C 3,3 C 96 % 1009,3 hPa 0,0 l/m 14,5 km/h (3 Bft) SW 225 0 min 0,000 mm 0,0 UV-I 0 W/m 0,2 C -5,7 C 20,9 km/h (4 Bft) 100,00 %
30.12.2017 04:11 0,8 C 3,3 C 96 % 1009,4 hPa 0,0 l/m 16,1 km/h (3 Bft) W-SW 247 0 min 0,000 mm 0,0 UV-I 0 W/m 0,2 C -6,6 C 24,1 km/h (4 Bft) 95,65 %
30.12.2017 04:12 0,9 C 3,3 C 96 % 1009,4 hPa 0,0 l/m 19,3 km/h (3 Bft) SW 225 0 min 0,000 mm 0,0 UV-I 0 W/m 0,3 C -8,1 C 24,1 km/h (4 Bft) 100,00 %
30.12.2017 04:13 0,9 C 3,3 C 96 % 1009,4 hPa 0,0 l/m 14,5 km/h (3 Bft) W-SW 247 0 min 0,000 mm 0,0 UV-I 0 W/m 0,3 C -5,6 C 25,7 km/h (4 Bft) 95,65 %
30.12.2017 04:14 1,1 C 3,3 C 96 % 1009,4 hPa 0,0 l/m 16,1 km/h (3 Bft) W-SW 247 0 min 0,000 mm 0,0 UV-I 0 W/m 0,5 C -6,3 C 19,3 km/h (3 Bft) 95,65 %
30.12.2017 04:15 1,1 C 3,3 C 96 % 1009,4 hPa 0,0 l/m 16,1 km/h (3 Bft) W-SW 247 0 min 0,000 mm 0,0 UV-I 0 W/m 0,5 C -6,3 C 20,9 km/h (4 Bft) 100,00 %
30.12.2017 04:16 1,1 C 3,3 C 96 % 1009,5 hPa 0,0 l/m 14,5 km/h (3 Bft) SW 225 0 min 0,000 mm 0,0 UV-I 0 W/m 0,5 C -5,4 C 20,9 km/h (4 Bft) 100,00 %
30.12.2017 04:17 1,1 C 3,3 C 96 % 1009,5 hPa 0,0 l/m 16,1 km/h (3 Bft) W-SW 247 0 min 0,000 mm 0,0 UV-I 0 W/m 0,5 C -6,3 C 20,9 km/h (4 Bft) 95,65 %
30.12.2017 04:18 1,2 C 3,3 C 96 % 1009,4 hPa 0,0 l/m 17,7 km/h (3 Bft) SW 225 0 min 0,000 mm 0,0 UV-I 0 W/m 0,6 C -7,0 C 27,4 km/h (4 Bft) 100,00 %
30.12.2017 04:19 1,2 C 3,3 C 96 % 1009,5 hPa 0,0 l/m 17,7 km/h (3 Bft) W-SW 247 0 min 0,000 mm 0,0 UV-I 0 W/m 0,6 C -7,0 C 24,1 km/h (4 Bft) 100,00 %
30.12.2017 04:20 1,3 C 3,3 C 96 % 1009,5 hPa 0,0 l/m 12,9 km/h (3 Bft) W-SW 247 0 min 0,000 mm 0,0 UV-I 0 W/m 0,7 C -4,1 C 27,4 km/h (4 Bft) 100,00 %
30.12.2017 04:21 1,3 C 3,3 C 96 % 1009,6 hPa 0,0 l/m 12,9 km/h (3 Bft) SW 225 0 min 0,000 mm 0,0 UV-I 0 W/m 0,7 C -4,1 C 17,7 km/h (3 Bft) 91,30 %
30.12.2017 04:22 1,3 C 3,3 C 95 % 1009,5 hPa 0,0 l/m 16,1 km/h (3 Bft) SW 225 0 min 0,000 mm 0,0 UV-I 0 W/m 0,6 C -6,0 C 29,0 km/h (5 Bft) 100,00 %
30.12.2017 04:23 1,3 C 3,3 C 95 % 1009,6 hPa 0,0 l/m 22,5 km/h (4 Bft) SW 225 0 min 0,000 mm 0,0 UV-I 0 W/m 0,6 C -9,0 C 30,6 km/h (5 Bft) 100,00 %
30.12.2017 04:24 1,3 C 3,3 C 95 % 1009,6 hPa 0,0 l/m 22,5 km/h (4 Bft) W-SW 247 0 min 0,000 mm 0,0 UV-I 0 W/m 0,6 C -9,0 C 30,6 km/h (5 Bft) 100,00 %
30.12.2017 04:25 1,4 C 3,3 C 95 % 1009,6 hPa 0,0 l/m 17,7 km/h (3 Bft) W-SW 247 0 min 0,000 mm 0,0 UV-I 0 W/m 0,7 C -6,7 C 25,7 km/h (4 Bft) 100,00 %
30.12.2017 04:26 1,4 C 3,3 C 95 % 1009,6 hPa 0,0 l/m 14,5 km/h (3 Bft) SW 225 0 min 0,000 mm 0,0 UV-I 0 W/m 0,7 C -5,0 C 24,1 km/h (4 Bft) 100,00 %
30.12.2017 04:27 1,4 C 3,3 C 95 % 1009,6 hPa 0,0 l/m 17,7 km/h (3 Bft) SW 225 0 min 0,000 mm 0,0 UV-I 0 W/m 0,7 C -6,7 C 22,5 km/h (4 Bft) 95,65 %
30.12.2017 04:28 1,4 C 3,3 C 95 % 1009,7 hPa 0,0 l/m 17,7 km/h (3 Bft) SW 225 0 min 0,000 mm 0,0 UV-I 0 W/m 0,7 C -6,7 C 25,7 km/h (4 Bft) 95,65 %
30.12.2017 04:29 1,4 C 3,3 C 95 % 1009,7 hPa 0,0 l/m 16,1 km/h (3 Bft) SW 225 0 min 0,000 mm 0,0 UV-I 0 W/m 0,7 C -5,9 C 22,5 km/h (4 Bft) 100,00 %
30.12.2017 04:30 1,4 C 3,3 C 95 % 1009,7 hPa 0,0 l/m 12,9 km/h (3 Bft) SW 225 0 min 0,000 mm 0,0 UV-I 0 W/m 0,7 C -4,0 C 19,3 km/h (3 Bft) 100,00 %
30.12.2017 04:31 1,4 C 3,3 C 94 % 1009,7 hPa 0,0 l/m 14,5 km/h (3 Bft) SW 225 0 min 0,000 mm 0,0 UV-I 0 W/m 0,5 C -5,0 C 22,5 km/h (4 Bft) 100,00 %
30.12.2017 04:32 1,4 C 3,3 C 94 % 1009,7 hPa 0,0 l/m 16,1 km/h (3 Bft) SW 225 0 min 0,000 mm 0,0 UV-I 0 W/m 0,5 C -5,9 C 25,7 km/h (4 Bft) 100,00 %
30.12.2017 04:33 1,4 C 3,3 C 94 % 1009,6 hPa 0,0 l/m 19,3 km/h (3 Bft) SW 225 0 min 0,000 mm 0,0 UV-I 0 W/m 0,5 C -7,5 C 27,4 km/h (4 Bft) 100,00 %
30.12.2017 04:34 1,4 C 3,3 C 94 % 1009,6 hPa 0,0 l/m 19,3 km/h (3 Bft) W-SW 247 0 min 0,000 mm 0,0 UV-I 0 W/m 0,5 C -7,5 C 27,4 km/h (4 Bft) 100,00 %
30.12.2017 04:35 1,4 C 3,3 C 94 % 1009,6 hPa 0,0 l/m 14,5 km/h (3 Bft) SW 225 0 min 0,000 mm 0,0 UV-I 0 W/m 0,5 C -5,0 C 25,7 km/h (4 Bft) 95,65 %
30.12.2017 04:36 1,4 C 3,3 C 94 % 1009,6 hPa 0,0 l/m 17,7 km/h (3 Bft) SW 225 0 min 0,000 mm 0,0 UV-I 0 W/m 0,5 C -6,7 C 24,1 km/h (4 Bft) 95,65 %
30.12.2017 04:37 1,4 C 3,3 C 94 % 1009,6 hPa 0,0 l/m 17,7 km/h (3 Bft) SW 225 0 min 0,000 mm 0,0 UV-I 0 W/m 0,5 C -6,7 C 29,0 km/h (5 Bft) 100,00 %
30.12.2017 04:38 1,4 C 3,3 C 94 % 1009,6 hPa 0,0 l/m 12,9 km/h (3 Bft) SW 225 0 min 0,000 mm 0,0 UV-I 0 W/m 0,5 C -4,0 C 17,7 km/h (3 Bft) 100,00 %
30.12.2017 04:39 1,4 C 3,3 C 94 % 1009,6 hPa 0,0 l/m 16,1 km/h (3 Bft) SW 225 0 min 0,000 mm 0,0 UV-I 0 W/m 0,5 C -5,9 C 19,3 km/h (3 Bft) 100,00 %
30.12.2017 04:40 1,4 C 3,3 C 94 % 1009,6 hPa 0,0 l/m 19,3 km/h (3 Bft) SW 225 0 min 0,000 mm 0,0 UV-I 0 W/m 0,5 C -7,5 C 25,7 km/h (4 Bft) 100,00 %
30.12.2017 04:41 1,4 C 3,3 C 94 % 1009,6 hPa 0,0 l/m 16,1 km/h (3 Bft) SW 225 0 min 0,000 mm 0,0 UV-I 0 W/m 0,5 C -5,9 C 20,9 km/h (4 Bft) 91,30 %
30.12.2017 04:42 1,4 C 3,3 C 94 % 1009,6 hPa 0,0 l/m 12,9 km/h (3 Bft) SW 225 0 min 0,000 mm 0,0 UV-I 0 W/m 0,5 C -4,0 C 16,1 km/h (3 Bft) 95,65 %
30.12.2017 04:43 1,4 C 3,3 C 94 % 1009,5 hPa 0,0 l/m 16,1 km/h (3 Bft) SW 225 0 min 0,000 mm 0,0 UV-I 0 W/m 0,5 C -5,9 C 25,7 km/h (4 Bft) 100,00 %
30.12.2017 04:44 1,4 C 3,3 C 94 % 1009,5 hPa 0,0 l/m 16,1 km/h (3 Bft) SW 225 0 min 0,000 mm 0,0 UV-I 0 W/m 0,5 C -5,9 C 22,5 km/h (4 Bft) 100,00 %
30.12.2017 04:45 1,4 C 3,3 C 94 % 1009,5 hPa 0,0 l/m 16,1 km/h (3 Bft) W-SW 247 0 min 0,000 mm 0,0 UV-I 0 W/m 0,5 C -5,9 C 25,7 km/h (4 Bft) 91,30 %
30.12.2017 04:46 1,4 C 3,3 C 94 % 1009,5 hPa 0,0 l/m 20,9 km/h (4 Bft) SW 225 0 min 0,000 mm 0,0 UV-I 0 W/m 0,5 C -8,2 C 29,0 km/h (5 Bft) 100,00 %
30.12.2017 04:47 1,4 C 3,3 C 94 % 1009,5 hPa 0,0 l/m 19,3 km/h (3 Bft) SW 225 0 min 0,000 mm 0,0 UV-I 0 W/m 0,5 C -7,5 C 27,4 km/h (4 Bft) 100,00 %
30.12.2017 04:48 1,4 C 3,3 C 94 % 1009,5 hPa 0,0 l/m 16,1 km/h (3 Bft) SW 225 0 min 0,000 mm 0,0 UV-I 0 W/m 0,5 C -5,9 C 22,5 km/h (4 Bft) 100,00 %
30.12.2017 04:49 1,5 C 3,3 C 94 % 1009,5 hPa 0,0 l/m 16,1 km/h (3 Bft) W-SW 247 0 min 0,000 mm 0,0 UV-I 0 W/m 0,6 C -5,8 C 29,0 km/h (5 Bft) 91,30 %
30.12.2017 04:50 1,5 C 3,3 C 94 % 1009,5 hPa 0,0 l/m 20,9 km/h (4 Bft) SW 225 0 min 0,000 mm 0,0 UV-I 0 W/m 0,6 C -8,1 C 29,0 km/h (5 Bft) 95,65 %
30.12.2017 04:51 1,5 C 3,3 C 94 % 1009,5 hPa 0,0 l/m 22,5 km/h (4 Bft) SW 225 0 min 0,000 mm 0,0 UV-I 0 W/m 0,6 C -8,7 C 29,0 km/h (5 Bft) 95,65 %
30.12.2017 04:52 1,5 C 3,3 C 94 % 1009,6 hPa 0,0 l/m 17,7 km/h (3 Bft) W-SW 247 0 min 0,000 mm 0,0 UV-I 0 W/m 0,6 C -6,6 C 27,4 km/h (4 Bft) 95,65 %
30.12.2017 04:53 1,6 C 3,3 C 94 % 1009,6 hPa 0,0 l/m 20,9 km/h (4 Bft) SW 225 0 min 0,000 mm 0,0 UV-I 0 W/m 0,7 C -8,0 C 29,0 km/h (5 Bft) 95,65 %
30.12.2017 04:54 1,6 C 3,3 C 94 % 1009,6 hPa 0,0 l/m 20,9 km/h (4 Bft) SW 225 0 min 0,000 mm 0,0 UV-I 0 W/m 0,7 C -8,0 C 30,6 km/h (5 Bft) 95,65 %
30.12.2017 04:55 1,6 C 3,3 C 94 % 1009,6 hPa 0,0 l/m 17,7 km/h (3 Bft) SW 225 0 min 0,000 mm 0,0 UV-I 0 W/m 0,7 C -6,5 C 27,4 km/h (4 Bft) 100,00 %
30.12.2017 04:56 1,6 C 3,3 C 94 % 1009,7 hPa 0,0 l/m 19,3 km/h (3 Bft) SW 225 0 min 0,000 mm 0,0 UV-I 0 W/m 0,7 C -7,2 C 24,1 km/h (4 Bft) 86,96 %
30.12.2017 04:57 1,6 C 3,3 C 94 % 1009,6 hPa 0,0 l/m 20,9 km/h (4 Bft) SW 225 0 min 0,000 mm 0,0 UV-I 0 W/m 0,7 C -8,0 C 30,6 km/h (5 Bft) 100,00 %
30.12.2017 04:58 1,6 C 3,3 C 94 % 1009,7 hPa 0,0 l/m 12,9 km/h (3 Bft) SW 225 0 min 0,000 mm 0,0 UV-I 0 W/m 0,7 C -3,8 C 20,9 km/h (4 Bft) 91,30 %
30.12.2017 04:59 1,6 C 3,3 C 94 % 1009,7 hPa 0,0 l/m 19,3 km/h (3 Bft) SW 225 0 min 0,000 mm 0,0 UV-I 0 W/m 0,7 C -7,2 C 25,7 km/h (4 Bft) 95,65 %
30.12.2017 05:00 1,6 C 3,3 C 94 % 1009,7 hPa 0,0 l/m 17,7 km/h (3 Bft) SW 225 0 min 0,000 mm 0,0 UV-I 0 W/m 0,7 C -6,5 C 25,7 km/h (4 Bft) 91,30 %
30.12.2017 05:01 1,6 C 3,3 C 94 % 1009,7 hPa 0,0 l/m 17,7 km/h (3 Bft) SW 225 0 min 0,000 mm 0,0 UV-I 0 W/m 0,7 C -6,5 C 27,4 km/h (4 Bft) 95,65 %
30.12.2017 05:02 1,6 C 3,3 C 94 % 1009,8 hPa 0,0 l/m 25,7 km/h (4 Bft) W-SW 247 0 min 0,000 mm 0,0 UV-I 0 W/m 0,7 C -9,8 C 35,4 km/h (5 Bft) 95,65 %
30.12.2017 05:03 1,6 C 3,3 C 94 % 1009,8 hPa 0,0 l/m 20,9 km/h (4 Bft) SW 225 0 min 0,000 mm 0,0 UV-I 0 W/m 0,7 C -8,0 C 30,6 km/h (5 Bft) 86,96 %
30.12.2017 05:04 1,6 C 3,3 C 94 % 1009,7 hPa 0,0 l/m 17,7 km/h (3 Bft) SW 225 0 min 0,000 mm 0,0 UV-I 0 W/m 0,7 C -6,5 C 35,4 km/h (5 Bft) 95,65 %
30.12.2017 05:05 1,6 C 3,3 C 94 % 1009,8 hPa 0,0 l/m 20,9 km/h (4 Bft) SW 225 0 min 0,000 mm 0,0 UV-I 0 W/m 0,7 C -8,0 C 25,7 km/h (4 Bft) 95,65 %
30.12.2017 05:06 1,6 C 3,3 C 94 % 1009,8 hPa 0,0 l/m 19,3 km/h (3 Bft) SW 225 0 min 0,000 mm 0,0 UV-I 0 W/m 0,7 C -7,2 C 27,4 km/h (4 Bft) 95,65 %
30.12.2017 05:07 1,6 C 3,3 C 94 % 1009,8 hPa 0,0 l/m 17,7 km/h (3 Bft) W-SW 247 0 min 0,000 mm 0,0 UV-I 0 W/m 0,7 C -6,5 C 27,4 km/h (4 Bft) 95,65 %
30.12.2017 05:08 1,6 C 3,3 C 94 % 1009,8 hPa 0,0 l/m 22,5 km/h (4 Bft) W-SW 247 0 min 0,000 mm 0,0 UV-I 0 W/m 0,7 C -8,6 C 32,2 km/h (5 Bft) 95,65 %
30.12.2017 05:09 1,6 C 3,3 C 94 % 1009,8 hPa 0,0 l/m 20,9 km/h (4 Bft) SW 225 0 min 0,000 mm 0,0 UV-I 0 W/m 0,7 C -8,0 C 27,4 km/h (4 Bft) 95,65 %
30.12.2017 05:10 1,6 C 3,3 C 94 % 1009,9 hPa 0,0 l/m 20,9 km/h (4 Bft) SW 225 0 min 0,000 mm 0,0 UV-I 0 W/m 0,7 C -8,0 C 25,7 km/h (4 Bft) 86,96 %
30.12.2017 05:11 1,6 C 3,3 C 94 % 1009,9 hPa 0,0 l/m 17,7 km/h (3 Bft) SW 225 0 min 0,000 mm 0,0 UV-I 0 W/m 0,7 C -6,5 C 25,7 km/h (4 Bft) 95,65 %
30.12.2017 05:12 1,6 C 3,3 C 94 % 1009,8 hPa 0,0 l/m 16,1 km/h (3 Bft) SW 225 0 min 0,000 mm 0,0 UV-I 0 W/m 0,7 C -5,7 C 22,5 km/h (4 Bft) 95,65 %
30.12.2017 05:13 1,6 C 3,3 C 94 % 1009,8 hPa 0,0 l/m 16,1 km/h (3 Bft) W-SW 247 0 min 0,000 mm 0,0 UV-I 0 W/m 0,7 C -5,7 C 19,3 km/h (3 Bft) 95,65 %
30.12.2017 05:14 1,6 C 3,3 C 94 % 1009,8 hPa 0,0 l/m 19,3 km/h (3 Bft) SW 225 0 min 0,000 mm 0,0 UV-I 0 W/m 0,7 C -7,2 C 24,1 km/h (4 Bft) 95,65 %
30.12.2017 05:15 1,6 C 3,3 C 94 % 1009,7 hPa 0,0 l/m 19,3 km/h (3 Bft) W-SW 247 0 min 0,000 mm 0,0 UV-I 0 W/m 0,7 C -7,2 C 27,4 km/h (4 Bft) 95,65 %
30.12.2017 05:16 1,6 C 3,3 C 94 % 1009,7 hPa 0,0 l/m 17,7 km/h (3 Bft) SW 225 0 min 0,000 mm 0,0 UV-I 0 W/m 0,7 C -6,5 C 25,7 km/h (4 Bft) 95,65 %
30.12.2017 05:17 1,6 C 3,3 C 94 % 1009,8 hPa 0,0 l/m 17,7 km/h (3 Bft) SW 225 0 min 0,000 mm 0,0 UV-I 0 W/m 0,7 C -6,5 C 25,7 km/h (4 Bft) 91,30 %
30.12.2017 05:18 1,6 C 3,3 C 94 % 1009,8 hPa 0,0 l/m 20,9 km/h (4 Bft) SW 225 0 min 0,000 mm 0,0 UV-I 0 W/m 0,7 C -8,0 C 27,4 km/h (4 Bft) 95,65 %
30.12.2017 05:19 1,6 C 3,3 C 94 % 1009,8 hPa 0,0 l/m 19,3 km/h (3 Bft) SW 225 0 min 0,000 mm 0,0 UV-I 0 W/m 0,7 C -7,2 C 25,7 km/h (4 Bft) 91,30 %
30.12.2017 05:20 1,5 C 3,3 C 94 % 1009,8 hPa 0,0 l/m 16,1 km/h (3 Bft) W-SW 247 0 min 0,000 mm 0,0 UV-I 0 W/m 0,6 C -5,8 C 22,5 km/h (4 Bft) 100,00 %
30.12.2017 05:21 1,5 C 3,3 C 94 % 1009,9 hPa 0,0 l/m 16,1 km/h (3 Bft) SW 225 0 min 0,000 mm 0,0 UV-I 0 W/m 0,6 C -5,8 C 24,1 km/h (4 Bft) 91,30 %
30.12.2017 05:22 1,5 C 3,3 C 94 % 1009,9 hPa 0,0 l/m 12,9 km/h (3 Bft) W-SW 247 0 min 0,000 mm 0,0 UV-I 0 W/m 0,6 C -3,9 C 20,9 km/h (4 Bft) 100,00 %
30.12.2017 05:23 1,4 C 3,3 C 94 % 1009,9 hPa 0,0 l/m 20,9 km/h (4 Bft) SW 225 0 min 0,000 mm 0,0 UV-I 0 W/m 0,5 C -8,2 C 32,2 km/h (5 Bft) 95,65 %
30.12.2017 05:24 1,5 C 3,3 C 94 % 1009,9 hPa 0,0 l/m 17,7 km/h (3 Bft) W-SW 247 0 min 0,000 mm 0,0 UV-I 0 W/m 0,6 C -6,6 C 29,0 km/h (5 Bft) 95,65 %
30.12.2017 05:25 1,4 C 3,3 C 94 % 1009,9 hPa 0,0 l/m 22,5 km/h (4 Bft) SW 225 0 min 0,000 mm 0,0 UV-I 0 W/m 0,5 C -8,9 C 29,0 km/h (5 Bft) 95,65 %
30.12.2017 05:26 1,4 C 3,3 C 94 % 1009,9 hPa 0,0 l/m 20,9 km/h (4 Bft) SW 225 0 min 0,000 mm 0,0 UV-I 0 W/m 0,5 C -8,2 C 25,7 km/h (4 Bft) 100,00 %
30.12.2017 05:27 1,5 C 3,3 C 94 % 1009,9 hPa 0,0 l/m 19,3 km/h (3 Bft) SW 225 0 min 0,000 mm 0,0 UV-I 0 W/m 0,6 C -7,4 C 29,0 km/h (5 Bft) 91,30 %
30.12.2017 05:28 1,5 C 3,3 C 94 % 1009,9 hPa 0,0 l/m 17,7 km/h (3 Bft) SW 225 0 min 0,000 mm 0,0 UV-I 0 W/m 0,6 C -6,6 C 22,5 km/h (4 Bft) 91,30 %
30.12.2017 05:29 1,5 C 3,3 C 94 % 1009,9 hPa 0,0 l/m 17,7 km/h (3 Bft) W-SW 247 0 min 0,000 mm 0,0 UV-I 0 W/m 0,6 C -6,6 C 24,1 km/h (4 Bft) 100,00 %
30.12.2017 05:30 1,5 C 3,3 C 94 % 1009,9 hPa 0,0 l/m 14,5 km/h (3 Bft) SW 225 0 min 0,000 mm 0,0 UV-I 0 W/m 0,6 C -4,9 C 20,9 km/h (4 Bft) 95,65 %
30.12.2017 05:31 1,5 C 3,3 C 94 % 1010,0 hPa 0,0 l/m 17,7 km/h (3 Bft) SW 225 0 min 0,000 mm 0,0 UV-I 0 W/m 0,6 C -6,6 C 24,1 km/h (4 Bft) 95,65 %
30.12.2017 05:32 1,4 C 3,3 C 94 % 1009,9 hPa 0,0 l/m 14,5 km/h (3 Bft) SW 225 0 min 0,000 mm 0,0 UV-I 0 W/m 0,5 C -5,0 C 19,3 km/h (3 Bft) 100,00 %
30.12.2017 05:33 1,4 C 3,3 C 94 % 1010,0 hPa 0,0 l/m 14,5 km/h (3 Bft) SW 225 0 min 0,000 mm 0,0 UV-I 0 W/m 0,5 C -5,0 C 20,9 km/h (4 Bft) 100,00 %
30.12.2017 05:34 1,4 C 3,3 C 94 % 1009,9 hPa 0,0 l/m 17,7 km/h (3 Bft) SW 225 0 min 0,000 mm 0,0 UV-I 0 W/m 0,5 C -6,7 C 22,5 km/h (4 Bft) 100,00 %
30.12.2017 05:35 1,4 C 3,3 C 95 % 1010,0 hPa 0,0 l/m 17,7 km/h (3 Bft) W-SW 247 0 min 0,000 mm 0,0 UV-I 0 W/m 0,7 C -6,7 C 22,5 km/h (4 Bft) 100,00 %
30.12.2017 05:36 1,4 C 3,3 C 95 % 1010,0 hPa 0,0 l/m 14,5 km/h (3 Bft) W-SW 247 0 min 0,000 mm 0,0 UV-I 0 W/m 0,7 C -5,0 C 20,9 km/h (4 Bft) 100,00 %
30.12.2017 05:37 1,4 C 3,3 C 95 % 1010,0 hPa 0,0 l/m 14,5 km/h (3 Bft) SW 225 0 min 0,000 mm 0,0 UV-I 0 W/m 0,7 C -5,0 C 19,3 km/h (3 Bft) 100,00 %
30.12.2017 05:38 1,4 C 3,3 C 95 % 1010,0 hPa 0,0 l/m 20,9 km/h (4 Bft) W-SW 247 0 min 0,000 mm 0,0 UV-I 0 W/m 0,7 C -8,2 C 27,4 km/h (4 Bft) 95,65 %
30.12.2017 05:39 1,4 C 3,3 C 95 % 1010,0 hPa 0,0 l/m 20,9 km/h (4 Bft) SW 225 0 min 0,000 mm 0,0 UV-I 0 W/m 0,7 C -8,2 C 30,6 km/h (5 Bft) 100,00 %
30.12.2017 05:40 1,4 C 3,3 C 95 % 1010,0 hPa 0,0 l/m 16,1 km/h (3 Bft) SW 225 0 min 0,000 mm 0,0 UV-I 0 W/m 0,7 C -5,9 C 20,9 km/h (4 Bft) 100,00 %
30.12.2017 05:41 1,4 C 3,3 C 95 % 1010,0 hPa 0,0 l/m 14,5 km/h (3 Bft) W-SW 247 0 min 0,000 mm 0,0 UV-I 0 W/m 0,7 C -5,0 C 22,5 km/h (4 Bft) 100,00 %
30.12.2017 05:42 1,4 C 3,3 C 95 % 1010,0 hPa 0,0 l/m 17,7 km/h (3 Bft) SW 225 0 min 0,000 mm 0,0 UV-I 0 W/m 0,7 C -6,7 C 25,7 km/h (4 Bft) 100,00 %
30.12.2017 05:43 1,5 C 3,3 C 95 % 1010,0 hPa 0,0 l/m 19,3 km/h (3 Bft) W-SW 247 0 min 0,000 mm 0,0 UV-I 0 W/m 0,8 C -7,4 C 22,5 km/h (4 Bft) 100,00 %
30.12.2017 05:44 1,5 C 3,3 C 95 % 1010,0 hPa 0,0 l/m 16,1 km/h (3 Bft) SW 225 0 min 0,000 mm 0,0 UV-I 0 W/m 0,8 C -5,8 C 25,7 km/h (4 Bft) 100,00 %
30.12.2017 05:45 1,5 C 3,3 C 95 % 1010,0 hPa 0,0 l/m 19,3 km/h (3 Bft) SW 225 0 min 0,000 mm 0,0 UV-I 0 W/m 0,8 C -7,4 C 25,7 km/h (4 Bft) 95,65 %
30.12.2017 05:46 1,5 C 3,3 C 95 % 1010,1 hPa 0,0 l/m 20,9 km/h (4 Bft) W-SW 247 0 min 0,000 mm 0,0 UV-I 0 W/m 0,8 C -8,1 C 27,4 km/h (4 Bft) 100,00 %
30.12.2017 05:47 1,5 C 3,3 C 95 % 1010,1 hPa 0,0 l/m 14,5 km/h (3 Bft) W-SW 247 0 min 0,000 mm 0,0 UV-I 0 W/m 0,8 C -4,9 C 22,5 km/h (4 Bft) 100,00 %
30.12.2017 05:48 1,5 C 3,3 C 95 % 1010,1 hPa 0,0 l/m 16,1 km/h (3 Bft) W-SW 247 0 min 0,000 mm 0,0 UV-I 0 W/m 0,8 C -5,8 C 22,5 km/h (4 Bft) 95,65 %
30.12.2017 05:49 1,5 C 3,3 C 95 % 1010,1 hPa 0,0 l/m 14,5 km/h (3 Bft) SW 225 0 min 0,000 mm 0,0 UV-I 0 W/m 0,8 C -4,9 C 22,5 km/h (4 Bft) 100,00 %
30.12.2017 05:50 1,5 C 3,3 C 95 % 1010,1 hPa 0,0 l/m 22,5 km/h (4 Bft) SW 225 0 min 0,000 mm 0,0 UV-I 0 W/m 0,8 C -8,7 C 27,4 km/h (4 Bft) 100,00 %
30.12.2017 05:51 1,5 C 3,3 C 95 % 1010,1 hPa 0,0 l/m 17,7 km/h (3 Bft) SW 225 0 min 0,000 mm 0,0 UV-I 0 W/m 0,8 C -6,6 C 24,1 km/h (4 Bft) 100,00 %
30.12.2017 05:52 1,5 C 3,3 C 95 % 1010,2 hPa 0,0 l/m 16,1 km/h (3 Bft) W-SW 247 0 min 0,000 mm 0,0 UV-I 0 W/m 0,8 C -5,8 C 20,9 km/h (4 Bft) 95,65 %
30.12.2017 05:53 1,5 C 3,3 C 95 % 1010,1 hPa 0,0 l/m 14,5 km/h (3 Bft) SW 225 0 min 0,000 mm 0,0 UV-I 0 W/m 0,8 C -4,9 C 22,5 km/h (4 Bft) 100,00 %
30.12.2017 05:54 1,5 C 3,3 C 95 % 1010,1 hPa 0,0 l/m 17,7 km/h (3 Bft) SW 225 0 min 0,000 mm 0,0 UV-I 0 W/m 0,8 C -6,6 C 27,4 km/h (4 Bft) 100,00 %
30.12.2017 05:55 1,4 C 3,3 C 95 % 1010,2 hPa 0,0 l/m 14,5 km/h (3 Bft) SW 225 0 min 0,000 mm 0,0 UV-I 0 W/m 0,7 C -5,0 C 20,9 km/h (4 Bft) 100,00 %
30.12.2017 05:56 1,5 C 3,3 C 95 % 1010,2 hPa 0,0 l/m 16,1 km/h (3 Bft) SW 225 0 min 0,000 mm 0,0 UV-I 0 W/m 0,8 C -5,8 C 20,9 km/h (4 Bft) 100,00 %
30.12.2017 05:57 1,5 C 3,3 C 95 % 1010,3 hPa 0,0 l/m 12,9 km/h (3 Bft) SW 225 0 min 0,000 mm 0,0 UV-I 0 W/m 0,8 C -3,9 C 19,3 km/h (3 Bft) 100,00 %
30.12.2017 05:58 1,5 C 3,3 C 95 % 1010,4 hPa 0,0 l/m 16,1 km/h (3 Bft) SW 225 0 min 0,000 mm 0,0 UV-I 0 W/m 0,8 C -5,8 C 20,9 km/h (4 Bft) 100,00 %
30.12.2017 05:59 1,5 C 3,3 C 95 % 1010,4 hPa 0,0 l/m 14,5 km/h (3 Bft) W-SW 247 0 min 0,000 mm 0,0 UV-I 0 W/m 0,8 C -4,9 C 19,3 km/h (3 Bft) 95,65 %
30.12.2017 06:00 1,5 C 3,3 C 95 % 1010,4 hPa 0,0 l/m 11,3 km/h (2 Bft) SW 225 0 min 0,000 mm 0,0 UV-I 0 W/m 0,8 C -2,8 C 16,1 km/h (3 Bft) 100,00 %
30.12.2017 06:01 1,5 C 3,3 C 95 % 1010,4 hPa 0,0 l/m 14,5 km/h (3 Bft) SW 225 0 min 0,000 mm 0,0 UV-I 0 W/m 0,8 C -4,9 C 19,3 km/h (3 Bft) 100,00 %
30.12.2017 06:02 1,5 C 3,3 C 95 % 1010,5 hPa 0,0 l/m 17,7 km/h (3 Bft) SW 225 0 min 0,000 mm 0,0 UV-I 0 W/m 0,8 C -6,6 C 25,7 km/h (4 Bft) 100,00 %
30.12.2017 06:03 1,5 C 3,3 C 95 % 1010,5 hPa 0,0 l/m 19,3 km/h (3 Bft) SW 225 0 min 0,000 mm 0,0 UV-I 0 W/m 0,8 C -7,4 C 22,5 km/h (4 Bft) 100,00 %
30.12.2017 06:04 1,5 C 3,3 C 95 % 1010,5 hPa 0,0 l/m 17,7 km/h (3 Bft) W-SW 247 0 min 0,000 mm 0,0 UV-I 0 W/m 0,8 C -6,6 C 25,7 km/h (4 Bft) 100,00 %
30.12.2017 06:05 1,5 C 3,3 C 95 % 1010,5 hPa 0,0 l/m 17,7 km/h (3 Bft) SW 225 0 min 0,000 mm 0,0 UV-I 0 W/m 0,8 C -6,6 C 25,7 km/h (4 Bft) 100,00 %
30.12.2017 06:06 1,6 C 3,3 C 95 % 1010,6 hPa 0,0 l/m 19,3 km/h (3 Bft) SW 225 0 min 0,000 mm 0,0 UV-I 0 W/m 0,9 C -7,2 C 24,1 km/h (4 Bft) 95,65 %
30.12.2017 06:07 1,6 C 3,3 C 95 % 1010,6 hPa 0,0 l/m 16,1 km/h (3 Bft) W-SW 247 0 min 0,000 mm 0,0 UV-I 0 W/m 0,9 C -5,7 C 22,5 km/h (4 Bft) 100,00 %
30.12.2017 06:08 1,6 C 3,3 C 95 % 1010,6 hPa 0,0 l/m 14,5 km/h (3 Bft) SW 225 0 min 0,000 mm 0,0 UV-I 0 W/m 0,9 C -4,8 C 19,3 km/h (3 Bft) 100,00 %
30.12.2017 06:09 1,6 C 3,3 C 95 % 1010,6 hPa 0,0 l/m 19,3 km/h (3 Bft) SW 225 0 min 0,000 mm 0,0 UV-I 0 W/m 0,9 C -7,2 C 24,1 km/h (4 Bft) 100,00 %
30.12.2017 06:10 1,6 C 3,3 C 95 % 1010,6 hPa 0,0 l/m 16,1 km/h (3 Bft) SW 225 0 min 0,000 mm 0,0 UV-I 0 W/m 0,9 C -5,7 C 25,7 km/h (4 Bft) 100,00 %
30.12.2017 06:11 1,6 C 3,3 C 95 % 1010,6 hPa 0,0 l/m 16,1 km/h (3 Bft) SW 225 0 min 0,000 mm 0,0 UV-I 0 W/m 0,9 C -5,7 C 20,9 km/h (4 Bft) 100,00 %
30.12.2017 06:12 1,6 C 3,3 C 95 % 1010,6 hPa 0,0 l/m 16,1 km/h (3 Bft) SW 225 0 min 0,000 mm 0,0 UV-I 0 W/m 0,9 C -5,7 C 20,9 km/h (4 Bft) 100,00 %
30.12.2017 06:13 1,6 C 3,3 C 95 % 1010,6 hPa 0,0 l/m 12,9 km/h (3 Bft) W-SW 247 0 min 0,000 mm 0,0 UV-I 0 W/m 0,9 C -3,8 C 17,7 km/h (3 Bft) 95,65 %
30.12.2017 06:14 1,6 C 3,3 C 95 % 1010,7 hPa 0,0 l/m 16,1 km/h (3 Bft) SW 225 0 min 0,000 mm 0,0 UV-I 0 W/m 0,9 C -5,7 C 25,7 km/h (4 Bft) 100,00 %
30.12.2017 06:15 1,6 C 3,3 C 95 % 1010,7 hPa 0,0 l/m 24,1 km/h (4 Bft) W-SW 247 0 min 0,000 mm 0,0 UV-I 0 W/m 0,9 C -9,2 C 29,0 km/h (5 Bft) 100,00 %
30.12.2017 06:16 1,6 C 3,3 C 95 % 1010,7 hPa 0,0 l/m 19,3 km/h (3 Bft) SW 225 0 min 0,000 mm 0,0 UV-I 0 W/m 0,9 C -7,2 C 25,7 km/h (4 Bft) 95,65 %
30.12.2017 06:17 1,6 C 3,3 C 95 % 1010,7 hPa 0,0 l/m 17,7 km/h (3 Bft) W-SW 247 0 min 0,000 mm 0,0 UV-I 0 W/m 0,9 C -6,5 C 29,0 km/h (5 Bft) 100,00 %
30.12.2017 06:18 1,6 C 3,3 C 95 % 1010,7 hPa 0,0 l/m 19,3 km/h (3 Bft) SW 225 0 min 0,000 mm 0,0 UV-I 0 W/m 0,9 C -7,2 C 27,4 km/h (4 Bft) 100,00 %
30.12.2017 06:19 1,6 C 3,3 C 95 % 1010,7 hPa 0,0 l/m 14,5 km/h (3 Bft) SW 225 0 min 0,000 mm 0,0 UV-I 0 W/m 0,9 C -4,8 C 19,3 km/h (3 Bft) 100,00 %
30.12.2017 06:20 1,7 C 3,3 C 95 % 1010,7 hPa 0,0 l/m 19,3 km/h (3 Bft) SW 225 0 min 0,000 mm 0,0 UV-I 0 W/m 1,0 C -7,1 C 25,7 km/h (4 Bft) 95,65 %
30.12.2017 06:21 1,6 C 3,3 C 95 % 1010,7 hPa 0,0 l/m 16,1 km/h (3 Bft) W-SW 247 0 min 0,000 mm 0,0 UV-I 0 W/m 0,9 C -5,7 C 19,3 km/h (3 Bft) 100,00 %
30.12.2017 06:22 1,7 C 3,3 C 95 % 1010,7 hPa 0,0 l/m 12,9 km/h (3 Bft) SW 225 0 min 0,000 mm 0,0 UV-I 0 W/m 1,0 C -3,6 C 22,5 km/h (4 Bft) 100,00 %
30.12.2017 06:23 1,6 C 3,3 C 95 % 1010,7 hPa 0,0 l/m 16,1 km/h (3 Bft) SW 225 0 min 0,000 mm 0,0 UV-I 0 W/m 0,9 C -5,7 C 22,5 km/h (4 Bft) 100,00 %
30.12.2017 06:24 1,6 C 3,3 C 95 % 1010,7 hPa 0,0 l/m 19,3 km/h (3 Bft) SW 225 0 min 0,000 mm 0,0 UV-I 0 W/m 0,9 C -7,2 C 24,1 km/h (4 Bft) 100,00 %
30.12.2017 06:25 1,7 C 3,3 C 95 % 1010,7 hPa 0,0 l/m 20,9 km/h (4 Bft) W-SW 247 0 min 0,000 mm 0,0 UV-I 0 W/m 1,0 C -7,8 C 27,4 km/h (4 Bft) 100,00 %
30.12.2017 06:26 1,7 C 3,3 C 95 % 1010,8 hPa 0,0 l/m 17,7 km/h (3 Bft) W-SW 247 0 min 0,000 mm 0,0 UV-I 0 W/m 1,0 C -6,4 C 22,5 km/h (4 Bft) 100,00 %
30.12.2017 06:27 1,7 C 3,3 C 95 % 1010,8 hPa 0,0 l/m 12,9 km/h (3 Bft) W-SW 247 0 min 0,000 mm 0,0 UV-I 0 W/m 1,0 C -3,6 C 17,7 km/h (3 Bft) 91,30 %
30.12.2017 06:28 1,7 C 3,3 C 94 % 1010,8 hPa 0,0 l/m 17,7 km/h (3 Bft) W-SW 247 0 min 0,000 mm 0,0 UV-I 0 W/m 0,8 C -6,4 C 22,5 km/h (4 Bft) 100,00 %
30.12.2017 06:29 1,7 C 3,3 C 94 % 1010,8 hPa 0,0 l/m 16,1 km/h (3 Bft) SW 225 0 min 0,000 mm 0,0 UV-I 0 W/m 0,8 C -5,5 C 20,9 km/h (4 Bft) 95,65 %
30.12.2017 06:30 1,7 C 3,3 C 94 % 1010,9 hPa 0,0 l/m 19,3 km/h (3 Bft) SW 225 0 min 0,000 mm 0,0 UV-I 0 W/m 0,8 C -7,1 C 24,1 km/h (4 Bft) 91,30 %
30.12.2017 06:31 1,7 C 3,3 C 94 % 1010,9 hPa 0,0 l/m 16,1 km/h (3 Bft) SW 225 0 min 0,000 mm 0,0 UV-I 0 W/m 0,8 C -5,5 C 25,7 km/h (4 Bft) 100,00 %
30.12.2017 06:32 1,7 C 3,3 C 94 % 1010,8 hPa 0,0 l/m 14,5 km/h (3 Bft) SW 225 0 min 0,000 mm 0,0 UV-I 0 W/m 0,8 C -4,6 C 20,9 km/h (4 Bft) 95,65 %
30.12.2017 06:33 1,7 C 3,3 C 94 % 1010,9 hPa 0,0 l/m 16,1 km/h (3 Bft) SW 225 0 min 0,000 mm 0,0 UV-I 0 W/m 0,8 C -5,5 C 20,9 km/h (4 Bft) 100,00 %
30.12.2017 06:34 1,7 C 3,3 C 94 % 1010,9 hPa 0,0 l/m 17,7 km/h (3 Bft) W-SW 247 0 min 0,000 mm 0,0 UV-I 0 W/m 0,8 C -6,4 C 27,4 km/h (4 Bft) 91,30 %
30.12.2017 06:35 1,7 C 3,3 C 94 % 1010,9 hPa 0,0 l/m 17,7 km/h (3 Bft) SW 225 0 min 0,000 mm 0,0 UV-I 0 W/m 0,8 C -6,4 C 29,0 km/h (5 Bft) 100,00 %
30.12.2017 06:36 1,7 C 3,3 C 94 % 1010,9 hPa 0,0 l/m 16,1 km/h (3 Bft) SW 225 0 min 0,000 mm 0,0 UV-I 0 W/m 0,8 C -5,5 C 24,1 km/h (4 Bft) 95,65 %
30.12.2017 06:37 1,7 C 3,3 C 94 % 1010,8 hPa 0,0 l/m 17,7 km/h (3 Bft) SW 225 0 min 0,000 mm 0,0 UV-I 0 W/m 0,8 C -6,4 C 22,5 km/h (4 Bft) 100,00 %
30.12.2017 06:38 1,7 C 3,3 C 94 % 1010,9 hPa 0,0 l/m 17,7 km/h (3 Bft) SW 225 0 min 0,000 mm 0,0 UV-I 0 W/m 0,8 C -6,4 C 24,1 km/h (4 Bft) 95,65 %
30.12.2017 06:39 1,7 C 3,3 C 94 % 1010,8 hPa 0,0 l/m 17,7 km/h (3 Bft) SW 225 0 min 0,000 mm 0,0 UV-I 0 W/m 0,8 C -6,4 C 22,5 km/h (4 Bft) 100,00 %
30.12.2017 06:40 1,7 C 3,3 C 94 % 1010,8 hPa 0,0 l/m 14,5 km/h (3 Bft) SW 225 0 min 0,000 mm 0,0 UV-I 0 W/m 0,8 C -4,6 C 24,1 km/h (4 Bft) 95,65 %
30.12.2017 06:41 1,7 C 3,3 C 94 % 1010,8 hPa 0,0 l/m 14,5 km/h (3 Bft) SW 225 0 min 0,000 mm 0,0 UV-I 0 W/m 0,8 C -4,6 C 24,1 km/h (4 Bft) 95,65 %
30.12.2017 06:42 1,7 C 3,3 C 94 % 1010,8 hPa 0,0 l/m 17,7 km/h (3 Bft) SW 225 0 min 0,000 mm 0,0 UV-I 0 W/m 0,8 C -6,4 C 22,5 km/h (4 Bft) 95,65 %
30.12.2017 06:43 1,7 C 3,3 C 94 % 1010,9 hPa 0,0 l/m 22,5 km/h (4 Bft) SW 225 0 min 0,000 mm 0,0 UV-I 0 W/m 0,8 C -8,5 C 27,4 km/h (4 Bft) 100,00 %
30.12.2017 06:44 1,7 C 3,3 C 94 % 1010,9 hPa 0,0 l/m 17,7 km/h (3 Bft) W-SW 247 0 min 0,000 mm 0,0 UV-I 0 W/m 0,8 C -6,4 C 24,1 km/h (4 Bft) 91,30 %
30.12.2017 06:45 1,7 C 3,3 C 94 % 1010,9 hPa 0,0 l/m 19,3 km/h (3 Bft) SW 225 0 min 0,000 mm 0,0 UV-I 0 W/m 0,8 C -7,1 C 24,1 km/h (4 Bft) 100,00 %
30.12.2017 06:46 1,7 C 3,3 C 94 % 1010,8 hPa 0,0 l/m 19,3 km/h (3 Bft) SW 225 0 min 0,000 mm 0,0 UV-I 0 W/m 0,8 C -7,1 C 30,6 km/h (5 Bft) 95,65 %
30.12.2017 06:47 1,7 C 3,3 C 94 % 1010,8 hPa 0,0 l/m 14,5 km/h (3 Bft) SW 225 0 min 0,000 mm 0,0 UV-I 0 W/m 0,8 C -4,6 C 17,7 km/h (3 Bft) 91,30 %
30.12.2017 06:48 1,7 C 3,3 C 94 % 1010,9 hPa 0,0 l/m 12,9 km/h (3 Bft) SW 225 0 min 0,000 mm 0,0 UV-I 0 W/m 0,8 C -3,6 C 19,3 km/h (3 Bft) 95,65 %
30.12.2017 06:49 1,7 C 3,3 C 94 % 1011,0 hPa 0,0 l/m 17,7 km/h (3 Bft) SW 225 0 min 0,000 mm 0,0 UV-I 0 W/m 0,8 C -6,4 C 22,5 km/h (4 Bft) 91,30 %
30.12.2017 06:50 1,7 C 3,3 C 94 % 1011,0 hPa 0,0 l/m 16,1 km/h (3 Bft) SW 225 0 min 0,000 mm 0,0 UV-I 0 W/m 0,8 C -5,5 C 22,5 km/h (4 Bft) 100,00 %
30.12.2017 06:51 1,7 C 3,3 C 94 % 1011,1 hPa 0,0 l/m 16,1 km/h (3 Bft) W-SW 247 0 min 0,000 mm 0,0 UV-I 0 W/m 0,8 C -5,5 C 20,9 km/h (4 Bft) 100,00 %
30.12.2017 06:52 1,7 C 3,3 C 94 % 1011,1 hPa 0,0 l/m 16,1 km/h (3 Bft) SW 225 0 min 0,000 mm 0,0 UV-I 0 W/m 0,8 C -5,5 C 20,9 km/h (4 Bft) 95,65 %
30.12.2017 06:53 1,7 C 3,3 C 94 % 1011,1 hPa 0,0 l/m 16,1 km/h (3 Bft) W-SW 247 0 min 0,000 mm 0,0 UV-I 0 W/m 0,8 C -5,5 C 20,9 km/h (4 Bft) 100,00 %
30.12.2017 06:54 1,7 C 3,3 C 94 % 1011,1 hPa 0,0 l/m 9,7 km/h (2 Bft) SW 225 0 min 0,000 mm 0,0 UV-I 0 W/m 0,8 C -1,3 C 14,5 km/h (3 Bft) 95,65 %
30.12.2017 06:55 1,7 C 3,3 C 94 % 1011,1 hPa 0,2 l/m 9,7 km/h (2 Bft) W-SW 247 0 min 0,000 mm 0,0 UV-I 0 W/m 0,8 C -1,3 C 14,5 km/h (3 Bft) 95,65 %
30.12.2017 06:56 1,7 C 3,3 C 94 % 1011,1 hPa 0,0 l/m 14,5 km/h (3 Bft) SW 225 0 min 0,000 mm 0,0 UV-I 0 W/m 0,8 C -4,6 C 19,3 km/h (3 Bft) 100,00 %
30.12.2017 06:57 1,7 C 3,3 C 94 % 1011,1 hPa 0,0 l/m 12,9 km/h (3 Bft) SW 225 0 min 0,000 mm 0,0 UV-I 0 W/m 0,8 C -3,6 C 16,1 km/h (3 Bft) 95,65 %
30.12.2017 06:58 1,7 C 3,3 C 94 % 1011,0 hPa 0,0 l/m 19,3 km/h (3 Bft) SW 225 0 min 0,000 mm 0,0 UV-I 0 W/m 0,8 C -7,1 C 24,1 km/h (4 Bft) 100,00 %
30.12.2017 06:59 1,7 C 3,3 C 94 % 1011,1 hPa 0,0 l/m 17,7 km/h (3 Bft) SW 225 0 min 0,000 mm 0,0 UV-I 0 W/m 0,8 C -6,4 C 24,1 km/h (4 Bft) 100,00 %
30.12.2017 07:00 1,7 C 3,3 C 94 % 1011,0 hPa 0,0 l/m 14,5 km/h (3 Bft) SW 225 0 min 0,000 mm 0,0 UV-I 0 W/m 0,8 C -4,6 C 20,9 km/h (4 Bft) 100,00 %
30.12.2017 07:01 1,7 C 3,3 C 94 % 1011,1 hPa 0,0 l/m 14,5 km/h (3 Bft) SW 225 0 min 0,000 mm 0,0 UV-I 0 W/m 0,8 C -4,6 C 22,5 km/h (4 Bft) 100,00 %
30.12.2017 07:02 1,7 C 3,3 C 94 % 1011,2 hPa 0,0 l/m 12,9 km/h (3 Bft) SW 225 0 min 0,000 mm 0,0 UV-I 0 W/m 0,8 C -3,6 C 16,1 km/h (3 Bft) 95,65 %
30.12.2017 07:03 1,7 C 3,3 C 94 % 1011,2 hPa 0,0 l/m 14,5 km/h (3 Bft) SW 225 0 min 0,000 mm 0,0 UV-I 0 W/m 0,8 C -4,6 C 17,7 km/h (3 Bft) 95,65 %
30.12.2017 07:04 1,7 C 3,3 C 94 % 1011,2 hPa 0,0 l/m 12,9 km/h (3 Bft) SW 225 0 min 0,000 mm 0,0 UV-I 0 W/m 0,8 C -3,6 C 17,7 km/h (3 Bft) 100,00 %
30.12.2017 07:05 1,7 C 3,3 C 94 % 1011,3 hPa 0,0 l/m 14,5 km/h (3 Bft) SW 225 0 min 0,000 mm 0,0 UV-I 0 W/m 0,8 C -4,6 C 20,9 km/h (4 Bft) 95,65 %
30.12.2017 07:06 1,7 C 3,3 C 94 % 1011,3 hPa 0,0 l/m 14,5 km/h (3 Bft) SW 225 0 min 0,000 mm 0,0 UV-I 0 W/m 0,8 C -4,6 C 19,3 km/h (3 Bft) 100,00 %
30.12.2017 07:07 1,7 C 3,3 C 94 % 1011,2 hPa 0,0 l/m 11,3 km/h (2 Bft) SW 225 0 min 0,000 mm 0,0 UV-I 0 W/m 0,8 C -2,6 C 16,1 km/h (3 Bft) 95,65 %
30.12.2017 07:08 1,7 C 3,3 C 94 % 1011,2 hPa 0,0 l/m 14,5 km/h (3 Bft) W-SW 247 0 min 0,000 mm 0,0 UV-I 0 W/m 0,8 C -4,6 C 19,3 km/h (3 Bft) 100,00 %
30.12.2017 07:09 1,7 C 3,3 C 94 % 1011,3 hPa 0,0 l/m 12,9 km/h (3 Bft) SW 225 0 min 0,000 mm 0,0 UV-I 0 W/m 0,8 C -3,6 C 17,7 km/h (3 Bft) 91,30 %
30.12.2017 07:10 1,7 C 3,3 C 94 % 1011,3 hPa 0,2 l/m 14,5 km/h (3 Bft) SW 225 0 min 0,000 mm 0,0 UV-I 0 W/m 0,8 C -4,6 C 22,5 km/h (4 Bft) 100,00 %
30.12.2017 07:11 1,7 C 3,3 C 94 % 1011,3 hPa 0,0 l/m 14,5 km/h (3 Bft) SW 225 0 min 0,000 mm 0,0 UV-I 0 W/m 0,8 C -4,6 C 20,9 km/h (4 Bft) 91,30 %
30.12.2017 07:12 1,7 C 3,3 C 94 % 1011,3 hPa 0,0 l/m 16,1 km/h (3 Bft) W-SW 247 0 min 0,000 mm 0,0 UV-I 0 W/m 0,8 C -5,5 C 22,5 km/h (4 Bft) 95,65 %
30.12.2017 07:13 1,7 C 3,3 C 94 % 1011,3 hPa 0,0 l/m 12,9 km/h (3 Bft) SW 225 0 min 0,000 mm 0,0 UV-I 0 W/m 0,8 C -3,6 C 17,7 km/h (3 Bft) 100,00 %
30.12.2017 07:14 1,7 C 3,3 C 94 % 1011,3 hPa 0,0 l/m 16,1 km/h (3 Bft) SW 225 0 min 0,000 mm 0,0 UV-I 0 W/m 0,8 C -5,5 C 22,5 km/h (4 Bft) 95,65 %
30.12.2017 07:15 1,7 C 3,3 C 94 % 1011,2 hPa 0,0 l/m 14,5 km/h (3 Bft) SW 225 0 min 0,000 mm 0,0 UV-I 0 W/m 0,8 C -4,6 C 19,3 km/h (3 Bft) 100,00 %
30.12.2017 07:16 1,7 C 3,3 C 94 % 1011,3 hPa 0,0 l/m 11,3 km/h (2 Bft) W-SW 247 0 min 0,000 mm 0,0 UV-I 0 W/m 0,8 C -2,6 C 14,5 km/h (3 Bft) 91,30 %
30.12.2017 07:17 1,7 C 3,3 C 94 % 1011,3 hPa 0,0 l/m 12,9 km/h (3 Bft) W-SW 247 0 min 0,000 mm 0,0 UV-I 0 W/m 0,8 C -3,6 C 17,7 km/h (3 Bft) 100,00 %
30.12.2017 07:18 1,7 C 3,3 C 94 % 1011,3 hPa 0,0 l/m 12,9 km/h (3 Bft) W-SW 247 0 min 0,000 mm 0,0 UV-I 0 W/m 0,8 C -3,6 C 19,3 km/h (3 Bft) 95,65 %
30.12.2017 07:19 1,7 C 3,3 C 93 % 1011,3 hPa 0,0 l/m 9,7 km/h (2 Bft) SW 225 0 min 0,000 mm 0,0 UV-I 0 W/m 0,7 C -1,3 C 14,5 km/h (3 Bft) 95,65 %
30.12.2017 07:20 1,7 C 3,3 C 93 % 1011,4 hPa 0,0 l/m 9,7 km/h (2 Bft) W-SW 247 0 min 0,000 mm 0,0 UV-I 0 W/m 0,7 C -1,3 C 14,5 km/h (3 Bft) 95,65 %
30.12.2017 07:21 1,7 C 3,3 C 93 % 1011,4 hPa 0,0 l/m 11,3 km/h (2 Bft) SW 225 0 min 0,000 mm 0,0 UV-I 0 W/m 0,7 C -2,6 C 14,5 km/h (3 Bft) 95,65 %
30.12.2017 07:22 1,7 C 3,3 C 93 % 1011,4 hPa 0,0 l/m 12,9 km/h (3 Bft) W-SW 247 0 min 0,000 mm 0,0 UV-I 0 W/m 0,7 C -3,6 C 19,3 km/h (3 Bft) 100,00 %
30.12.2017 07:23 1,7 C 3,3 C 93 % 1011,4 hPa 0,0 l/m 9,7 km/h (2 Bft) W-SW 247 0 min 0,000 mm 0,0 UV-I 0 W/m 0,7 C -1,3 C 14,5 km/h (3 Bft) 91,30 %
30.12.2017 07:24 1,7 C 3,3 C 93 % 1011,4 hPa 0,0 l/m 11,3 km/h (2 Bft) SW 225 0 min 0,000 mm 0,0 UV-I 0 W/m 0,7 C -2,6 C 16,1 km/h (3 Bft) 95,65 %
30.12.2017 07:25 1,7 C 3,3 C 93 % 1011,4 hPa 0,2 l/m 11,3 km/h (2 Bft) SW 225 0 min 0,000 mm 0,0 UV-I 0 W/m 0,7 C -2,6 C 16,1 km/h (3 Bft) 95,65 %
30.12.2017 07:26 1,8 C 3,3 C 93 % 1011,4 hPa 0,0 l/m 9,7 km/h (2 Bft) SW 225 0 min 0,000 mm 0,0 UV-I 0 W/m 0,8 C -1,2 C 14,5 km/h (3 Bft) 100,00 %
30.12.2017 07:27 1,8 C 3,3 C 93 % 1011,5 hPa 0,0 l/m 9,7 km/h (2 Bft) W-SW 247 0 min 0,000 mm 0,0 UV-I 0 W/m 0,8 C -1,2 C 12,9 km/h (3 Bft) 95,65 %
30.12.2017 07:28 1,8 C 3,3 C 93 % 1011,4 hPa 0,0 l/m 11,3 km/h (2 Bft) W-SW 247 0 min 0,000 mm 0,0 UV-I 0 W/m 0,8 C -2,4 C 14,5 km/h (3 Bft) 95,65 %
30.12.2017 07:29 1,8 C 3,3 C 93 % 1011,5 hPa 0,0 l/m 8,0 km/h (2 Bft) SW 225 0 min 0,000 mm 0,0 UV-I 0 W/m 0,8 C 0,2 C 11,3 km/h (2 Bft) 95,65 %
30.12.2017 07:30 1,8 C 3,3 C 93 % 1011,5 hPa 0,0 l/m 6,4 km/h (2 Bft) W-SW 247 0 min 0,000 mm 0,0 UV-I 0 W/m 0,8 C 1,8 C 11,3 km/h (2 Bft) 91,30 %
30.12.2017 07:31 1,7 C 3,3 C 93 % 1011,5 hPa 0,0 l/m 6,4 km/h (2 Bft) W-SW 247 0 min 0,000 mm 0,0 UV-I 0 W/m 0,7 C 1,7 C 11,3 km/h (2 Bft) 100,00 %
30.12.2017 07:32 1,7 C 3,3 C 93 % 1011,5 hPa 0,0 l/m 8,0 km/h (2 Bft) W-SW 247 0 min 0,000 mm 0,0 UV-I 0 W/m 0,7 C 0,1 C 11,3 km/h (2 Bft) 95,65 %
30.12.2017 07:33 1,7 C 3,3 C 93 % 1011,5 hPa 0,0 l/m 6,4 km/h (2 Bft) W-SW 247 0 min 0,000 mm 0,0 UV-I 0 W/m 0,7 C 1,7 C 9,7 km/h (2 Bft) 100,00 %
30.12.2017 07:34 1,7 C 3,3 C 93 % 1011,5 hPa 0,0 l/m 6,4 km/h (2 Bft) W-SW 247 0 min 0,000 mm 0,0 UV-I 0 W/m 0,7 C 1,7 C 9,7 km/h (2 Bft) 95,65 %
30.12.2017 07:35 1,7 C 3,3 C 93 % 1011,5 hPa 0,0 l/m 8,0 km/h (2 Bft) SW 225 0 min 0,000 mm 0,0 UV-I 0 W/m 0,7 C 0,1 C 9,7 km/h (2 Bft) 100,00 %
30.12.2017 07:36 1,7 C 3,3 C 93 % 1011,6 hPa 0,0 l/m 6,4 km/h (2 Bft) W-SW 247 0 min 0,000 mm 0,0 UV-I 0 W/m 0,7 C 1,7 C 8,0 km/h (2 Bft) 95,65 %
30.12.2017 07:37 1,7 C 3,3 C 93 % 1011,6 hPa 0,0 l/m 6,4 km/h (2 Bft) SW 225 0 min 0,000 mm 0,0 UV-I 0 W/m 0,7 C 1,7 C 9,7 km/h (2 Bft) 86,96 %
30.12.2017 07:38 1,7 C 3,3 C 93 % 1011,6 hPa 0,0 l/m 6,4 km/h (2 Bft) W-SW 247 0 min 0,000 mm 0,0 UV-I 0 W/m 0,7 C 1,7 C 9,7 km/h (2 Bft) 100,00 %
30.12.2017 07:39 1,7 C 3,3 C 93 % 1011,6 hPa 0,2 l/m 9,7 km/h (2 Bft) W-SW 247 0 min 0,000 mm 0,0 UV-I 0 W/m 0,7 C -1,3 C 11,3 km/h (2 Bft) 95,65 %
30.12.2017 07:40 1,7 C 3,3 C 93 % 1011,6 hPa 0,0 l/m 11,3 km/h (2 Bft) SW 225 0 min 0,000 mm 0,0 UV-I 0 W/m 0,7 C -2,6 C 14,5 km/h (3 Bft) 100,00 %
30.12.2017 07:41 1,7 C 3,3 C 93 % 1011,6 hPa 0,0 l/m 9,7 km/h (2 Bft) SW 225 0 min 0,000 mm 0,0 UV-I 0 W/m 0,7 C -1,3 C 14,5 km/h (3 Bft) 95,65 %
30.12.2017 07:42 1,7 C 3,3 C 93 % 1011,6 hPa 0,0 l/m 8,0 km/h (2 Bft) SW 225 0 min 0,000 mm 0,0 UV-I 0 W/m 0,7 C 0,1 C 11,3 km/h (2 Bft) 95,65 %
30.12.2017 07:43 1,7 C 3,3 C 93 % 1011,6 hPa 0,0 l/m 8,0 km/h (2 Bft) SW 225 0 min 0,000 mm 0,0 UV-I 0 W/m 0,7 C 0,1 C 12,9 km/h (3 Bft) 100,00 %
30.12.2017 07:44 1,7 C 3,3 C 93 % 1011,6 hPa 0,0 l/m 9,7 km/h (2 Bft) W-SW 247 0 min 0,000 mm 0,0 UV-I 0 W/m 0,7 C -1,3 C 16,1 km/h (3 Bft) 95,65 %
30.12.2017 07:45 1,7 C 3,3 C 93 % 1011,6 hPa 0,0 l/m 8,0 km/h (2 Bft) W-SW 247 0 min 0,000 mm 0,0 UV-I 0 W/m 0,7 C 0,1 C 11,3 km/h (2 Bft) 100,00 %
30.12.2017 07:46 1,7 C 3,3 C 93 % 1011,5 hPa 0,0 l/m 9,7 km/h (2 Bft) W-SW 247 0 min 0,000 mm 0,0 UV-I 5 W/m 0,7 C -1,3 C 12,9 km/h (3 Bft) 100,00 %
30.12.2017 07:47 1,7 C 3,3 C 93 % 1011,6 hPa 0,0 l/m 8,0 km/h (2 Bft) SW 225 0 min 0,000 mm 0,0 UV-I 5 W/m 0,7 C 0,1 C 11,3 km/h (2 Bft) 100,00 %
30.12.2017 07:48 1,7 C 3,3 C 93 % 1011,6 hPa 0,0 l/m 6,4 km/h (2 Bft) SW 225 0 min 0,000 mm 0,0 UV-I 5 W/m 0,7 C 1,7 C 9,7 km/h (2 Bft) 100,00 %
30.12.2017 07:49 1,7 C 3,3 C 93 % 1011,5 hPa 0,0 l/m 6,4 km/h (2 Bft) SW 225 0 min 0,000 mm 0,0 UV-I 5 W/m 0,7 C 1,7 C 12,9 km/h (3 Bft) 100,00 %
30.12.2017 07:50 1,7 C 3,3 C 93 % 1011,5 hPa 0,0 l/m 9,7 km/h (2 Bft) SW 225 0 min 0,000 mm 0,0 UV-I 5 W/m 0,7 C -1,3 C 12,9 km/h (3 Bft) 100,00 %
30.12.2017 07:51 1,7 C 3,3 C 93 % 1011,5 hPa 0,0 l/m 6,4 km/h (2 Bft) SW 225 0 min 0,000 mm 0,0 UV-I 5 W/m 0,7 C 1,7 C 9,7 km/h (2 Bft) 95,65 %
30.12.2017 07:52 1,7 C 3,3 C 93 % 1011,5 hPa 0,0 l/m 8,0 km/h (2 Bft) SW 225 0 min 0,000 mm 0,0 UV-I 5 W/m 0,7 C 0,1 C 9,7 km/h (2 Bft) 100,00 %
30.12.2017 07:53 1,7 C 3,3 C 93 % 1011,6 hPa 0,0 l/m 6,4 km/h (2 Bft) W-SW 247 0 min 0,000 mm 0,0 UV-I 5 W/m 0,7 C 1,7 C 8,0 km/h (2 Bft) 100,00 %
30.12.2017 07:54 1,7 C 3,3 C 93 % 1011,6 hPa 0,0 l/m 6,4 km/h (2 Bft) SW 225 0 min 0,000 mm 0,0 UV-I 5 W/m 0,7 C 1,7 C 9,7 km/h (2 Bft) 100,00 %
30.12.2017 07:55 1,7 C 3,3 C 93 % 1011,5 hPa 0,0 l/m 6,4 km/h (2 Bft) W-SW 247 0 min 0,000 mm 0,0 UV-I 5 W/m 0,7 C 1,7 C 8,0 km/h (2 Bft) 95,65 %
30.12.2017 07:56 1,7 C 3,3 C 93 % 1011,5 hPa 0,0 l/m 4,8 km/h (1 Bft) SW 225 0 min 0,000 mm 0,0 UV-I 5 W/m 0,7 C 1,7 C 8,0 km/h (2 Bft) 100,00 %
30.12.2017 07:57 1,7 C 3,3 C 93 % 1011,5 hPa 0,0 l/m 4,8 km/h (1 Bft) SW 225 0 min 0,000 mm 0,0 UV-I 5 W/m 0,7 C 1,7 C 8,0 km/h (2 Bft) 91,30 %
30.12.2017 07:58 1,7 C 3,3 C 93 % 1011,5 hPa 0,0 l/m 6,4 km/h (2 Bft) SW 225 0 min 0,000 mm 0,0 UV-I 5 W/m 0,7 C 1,7 C 8,0 km/h (2 Bft) 91,30 %
30.12.2017 07:59 1,7 C 3,3 C 93 % 1011,6 hPa 0,0 l/m 6,4 km/h (2 Bft) SW 225 0 min 0,000 mm 0,0 UV-I 5 W/m 0,7 C 1,7 C 8,0 km/h (2 Bft) 91,30 %
30.12.2017 08:00 1,7 C 3,3 C 93 % 1011,6 hPa 0,0 l/m 4,8 km/h (1 Bft) SW 225 0 min 0,000 mm 0,0 UV-I 5 W/m 0,7 C 1,7 C 6,4 km/h (2 Bft) 95,65 %
30.12.2017 08:01 1,7 C 3,3 C 93 % 1011,6 hPa 0,0 l/m 6,4 km/h (2 Bft) W-SW 247 0 min 0,000 mm 0,0 UV-I 5 W/m 0,7 C 1,7 C 11,3 km/h (2 Bft) 95,65 %
30.12.2017 08:02 1,7 C 3,3 C 93 % 1011,6 hPa 0,0 l/m 4,8 km/h (1 Bft) SW 225 0 min 0,000 mm 0,0 UV-I 7 W/m 0,7 C 1,7 C 6,4 km/h (2 Bft) 100,00 %
30.12.2017 08:03 1,7 C 3,3 C 93 % 1011,5 hPa 0,0 l/m 8,0 km/h (2 Bft) SW 225 0 min 0,000 mm 0,0 UV-I 7 W/m 0,7 C 0,1 C 12,9 km/h (3 Bft) 95,65 %
30.12.2017 08:04 1,7 C 3,3 C 93 % 1011,6 hPa 0,0 l/m 6,4 km/h (2 Bft) SW 225 0 min 0,000 mm 0,0 UV-I 7 W/m 0,7 C 1,7 C 9,7 km/h (2 Bft) 100,00 %
30.12.2017 08:05 1,7 C 3,3 C 93 % 1011,6 hPa 0,0 l/m 6,4 km/h (2 Bft) SW 225 0 min 0,000 mm 0,0 UV-I 7 W/m 0,7 C 1,7 C 8,0 km/h (2 Bft) 86,96 %
30.12.2017 08:06 1,8 C 3,3 C 93 % 1011,6 hPa 0,0 l/m 4,8 km/h (1 Bft) SW 225 0 min 0,000 mm 0,0 UV-I 7 W/m 0,8 C 1,8 C 6,4 km/h (2 Bft) 91,30 %
30.12.2017 08:07 1,8 C 3,3 C 93 % 1011,6 hPa 0,0 l/m 8,0 km/h (2 Bft) W-SW 247 0 min 0,000 mm 0,0 UV-I 9 W/m 0,8 C 0,2 C 12,9 km/h (3 Bft) 91,30 %
30.12.2017 08:08 1,8 C 3,3 C 92 % 1011,6 hPa 0,0 l/m 9,7 km/h (2 Bft) SW 225 0 min 0,000 mm 0,0 UV-I 9 W/m 0,6 C -1,2 C 14,5 km/h (3 Bft) 95,65 %
30.12.2017 08:09 1,8 C 3,3 C 92 % 1011,6 hPa 0,2 l/m 8,0 km/h (2 Bft) SW 225 0 min 0,000 mm 0,0 UV-I 9 W/m 0,6 C 0,2 C 11,3 km/h (2 Bft) 100,00 %
30.12.2017 08:10 1,8 C 3,3 C 92 % 1011,6 hPa 0,0 l/m 11,3 km/h (2 Bft) SW 225 0 min 0,000 mm 0,0 UV-I 9 W/m 0,6 C -2,4 C 12,9 km/h (3 Bft) 91,30 %
30.12.2017 08:11 1,9 C 3,3 C 92 % 1011,7 hPa 0,0 l/m 8,0 km/h (2 Bft) SW 225 0 min 0,000 mm 0,0 UV-I 9 W/m 0,7 C 0,3 C 9,7 km/h (2 Bft) 100,00 %
30.12.2017 08:12 1,9 C 3,3 C 92 % 1011,6 hPa 0,0 l/m 9,7 km/h (2 Bft) SW 225 0 min 0,000 mm 0,0 UV-I 11 W/m 0,7 C -1,1 C 14,5 km/h (3 Bft) 91,30 %
30.12.2017 08:13 1,9 C 3,3 C 92 % 1011,7 hPa 0,0 l/m 8,0 km/h (2 Bft) W-SW 247 0 min 0,000 mm 0,0 UV-I 11 W/m 0,7 C 0,3 C 11,3 km/h (2 Bft) 100,00 %
30.12.2017 08:14 1,9 C 3,3 C 92 % 1011,6 hPa 0,0 l/m 6,4 km/h (2 Bft) SW 225 0 min 0,000 mm 0,0 UV-I 11 W/m 0,7 C 1,9 C 9,7 km/h (2 Bft) 95,65 %
30.12.2017 08:15 1,9 C 3,3 C 92 % 1011,7 hPa 0,0 l/m 6,4 km/h (2 Bft) W-SW 247 0 min 0,000 mm 0,0 UV-I 9 W/m 0,7 C 1,9 C 9,7 km/h (2 Bft) 95,65 %
30.12.2017 08:16 1,9 C 3,3 C 92 % 1011,7 hPa 0,0 l/m 8,0 km/h (2 Bft) W-SW 247 0 min 0,000 mm 0,0 UV-I 9 W/m 0,7 C 0,3 C 11,3 km/h (2 Bft) 95,65 %
30.12.2017 08:17 1,9 C 3,3 C 92 % 1011,8 hPa 0,0 l/m 8,0 km/h (2 Bft) W-SW 247 0 min 0,000 mm 0,0 UV-I 11 W/m 0,7 C 0,3 C 11,3 km/h (2 Bft) 100,00 %
30.12.2017 08:18 1,9 C 3,3 C 92 % 1011,7 hPa 0,0 l/m 6,4 km/h (2 Bft) W-SW 247 0 min 0,000 mm 0,0 UV-I 12 W/m 0,7 C 1,9 C 9,7 km/h (2 Bft) 95,65 %
30.12.2017 08:19 1,9 C 3,3 C 92 % 1011,7 hPa 0,0 l/m 6,4 km/h (2 Bft) SW 225 0 min 0,000 mm 0,0 UV-I 14 W/m 0,7 C 1,9 C 8,0 km/h (2 Bft) 95,65 %
30.12.2017 08:20 1,9 C 3,3 C 92 % 1011,8 hPa 0,0 l/m 8,0 km/h (2 Bft) SW 225 0 min 0,000 mm 0,0 UV-I 14 W/m 0,7 C 0,3 C 9,7 km/h (2 Bft) 95,65 %
30.12.2017 08:21 1,9 C 3,3 C 92 % 1011,7 hPa 0,0 l/m 4,8 km/h (1 Bft) SW 225 0 min 0,000 mm 0,0 UV-I 14 W/m 0,7 C 1,9 C 8,0 km/h (2 Bft) 100,00 %
30.12.2017 08:22 1,9 C 3,3 C 92 % 1011,8 hPa 0,0 l/m 6,4 km/h (2 Bft) W-SW 247 0 min 0,000 mm 0,0 UV-I 14 W/m 0,7 C 1,9 C 11,3 km/h (2 Bft) 100,00 %
30.12.2017 08:23 1,9 C 3,3 C 92 % 1011,8 hPa 0,0 l/m 4,8 km/h (1 Bft) W-SW 247 0 min 0,000 mm 0,0 UV-I 16 W/m 0,7 C 1,9 C 6,4 km/h (2 Bft) 100,00 %
30.12.2017 08:24 1,9 C 3,3 C 92 % 1011,8 hPa 0,0 l/m 4,8 km/h (1 Bft) W-SW 247 0 min 0,000 mm 0,0 UV-I 16 W/m 0,7 C 1,9 C 4,8 km/h (1 Bft) 100,00 %
30.12.2017 08:25 1,9 C 3,3 C 92 % 1011,9 hPa 0,0 l/m 3,2 km/h (1 Bft) W-SW 247 0 min 0,000 mm 0,0 UV-I 16 W/m 0,7 C 1,9 C 4,8 km/h (1 Bft) 100,00 %
30.12.2017 08:26 1,9 C 3,3 C 92 % 1011,9 hPa 0,0 l/m 3,2 km/h (1 Bft) W-SW 247 0 min 0,000 mm 0,0 UV-I 18 W/m 0,7 C 1,9 C 4,8 km/h (1 Bft) 95,65 %
30.12.2017 08:27 1,9 C 3,3 C 92 % 1011,8 hPa 0,0 l/m 3,2 km/h (1 Bft) W-SW 247 0 min 0,000 mm 0,0 UV-I 18 W/m 0,7 C 1,9 C 4,8 km/h (1 Bft) 100,00 %
30.12.2017 08:28 1,9 C 3,3 C 92 % 1011,8 hPa 0,0 l/m 3,2 km/h (1 Bft) W-SW 247 0 min 0,000 mm 0,0 UV-I 19 W/m 0,7 C 1,9 C 4,8 km/h (1 Bft) 100,00 %
30.12.2017 08:29 1,9 C 3,3 C 92 % 1011,8 hPa 0,0 l/m 3,2 km/h (1 Bft) W-SW 247 0 min 0,000 mm 0,0 UV-I 21 W/m 0,7 C 1,9 C 4,8 km/h (1 Bft) 100,00 %
30.12.2017 08:30 1,9 C 3,3 C 92 % 1011,7 hPa 0,0 l/m 3,2 km/h (1 Bft) W-SW 247 0 min 0,000 mm 0,0 UV-I 23 W/m 0,7 C 1,9 C 4,8 km/h (1 Bft) 100,00 %
30.12.2017 08:31 1,8 C 3,3 C 92 % 1011,7 hPa 0,0 l/m 3,2 km/h (1 Bft) W-SW 247 0 min 0,000 mm 0,0 UV-I 25 W/m 0,6 C 1,8 C 4,8 km/h (1 Bft) 100,00 %
30.12.2017 08:32 1,8 C 3,3 C 92 % 1011,8 hPa 0,0 l/m 3,2 km/h (1 Bft) W-SW 247 0 min 0,000 mm 0,0 UV-I 26 W/m 0,6 C 1,8 C 4,8 km/h (1 Bft) 100,00 %
30.12.2017 08:33 1,8 C 3,3 C 92 % 1011,8 hPa 0,0 l/m 3,2 km/h (1 Bft) W-SW 247 0 min 0,000 mm 0,0 UV-I 28 W/m 0,6 C 1,8 C 4,8 km/h (1 Bft) 91,30 %
30.12.2017 08:34 1,8 C 3,3 C 92 % 1011,8 hPa 0,0 l/m 3,2 km/h (1 Bft) W-SW 247 0 min 0,000 mm 0,0 UV-I 30 W/m 0,6 C 1,8 C 4,8 km/h (1 Bft) 95,65 %
30.12.2017 08:35 1,8 C 3,3 C 92 % 1011,9 hPa 0,0 l/m 3,2 km/h (1 Bft) W-SW 247 0 min 0,000 mm 0,0 UV-I 30 W/m 0,6 C 1,8 C 4,8 km/h (1 Bft) 100,00 %
30.12.2017 08:36 1,8 C 3,3 C 92 % 1011,9 hPa 0,2 l/m 3,2 km/h (1 Bft) W-SW 247 0 min 0,000 mm 0,0 UV-I 30 W/m 0,6 C 1,8 C 3,2 km/h (1 Bft) 100,00 %
30.12.2017 08:37 1,8 C 3,3 C 92 % 1011,9 hPa 0,0 l/m 1,6 km/h (1 Bft) W-SW 247 0 min 0,000 mm 0,0 UV-I 32 W/m 0,6 C 1,8 C 3,2 km/h (1 Bft) 100,00 %
30.12.2017 08:38 1,8 C 3,3 C 92 % 1011,8 hPa 0,0 l/m 3,2 km/h (1 Bft) W-SW 247 0 min 0,000 mm 0,0 UV-I 33 W/m 0,6 C 1,8 C 4,8 km/h (1 Bft) 100,00 %
30.12.2017 08:39 1,8 C 3,3 C 92 % 1011,8 hPa 0,0 l/m 1,6 km/h (1 Bft) W-SW 247 0 min 0,000 mm 0,0 UV-I 35 W/m 0,6 C 1,8 C 3,2 km/h (1 Bft) 100,00 %
30.12.2017 08:40 1,8 C 3,3 C 92 % 1011,8 hPa 0,0 l/m 0,0 km/h (0 Bft) W-SW 247 0 min 0,000 mm 0,0 UV-I 35 W/m 0,6 C 1,8 C 1,6 km/h (1 Bft) 95,65 %
30.12.2017 08:41 1,8 C 3,3 C 92 % 1011,8 hPa 0,0 l/m 1,6 km/h (1 Bft) W-SW 247 0 min 0,000 mm 0,0 UV-I 35 W/m 0,6 C 1,8 C 3,2 km/h (1 Bft) 100,00 %
30.12.2017 08:42 1,8 C 3,3 C 92 % 1011,9 hPa 0,0 l/m 1,6 km/h (1 Bft) W-SW 247 0 min 0,000 mm 0,0 UV-I 35 W/m 0,6 C 1,8 C 3,2 km/h (1 Bft) 100,00 %
30.12.2017 08:43 1,8 C 3,3 C 92 % 1011,9 hPa 0,0 l/m 1,6 km/h (1 Bft) W-SW 247 0 min 0,000 mm 0,0 UV-I 35 W/m 0,6 C 1,8 C 3,2 km/h (1 Bft) 100,00 %
30.12.2017 08:44 1,7 C 3,3 C 92 % 1011,9 hPa 0,0 l/m 1,6 km/h (1 Bft) W-SW 247 0 min 0,000 mm 0,0 UV-I 35 W/m 0,5 C 1,7 C 1,6 km/h (1 Bft) 100,00 %
30.12.2017 08:45 1,7 C 3,3 C 92 % 1011,8 hPa 0,0 l/m 1,6 km/h (1 Bft) W-SW 247 0 min 0,000 mm 0,0 UV-I 34 W/m 0,5 C 1,7 C 1,6 km/h (1 Bft) 95,65 %
30.12.2017 08:46 1,7 C 3,3 C 92 % 1011,9 hPa 0,0 l/m 0,0 km/h (0 Bft) W-SW 247 0 min 0,000 mm 0,0 UV-I 33 W/m 0,5 C 1,7 C 1,6 km/h (1 Bft) 100,00 %
30.12.2017 08:47 1,7 C 3,3 C 92 % 1011,8 hPa 0,0 l/m 0,0 km/h (0 Bft) N 0 0 min 0,000 mm 0,0 UV-I 33 W/m 0,5 C 1,7 C 0,0 km/h (0 Bft) 95,65 %
30.12.2017 08:48 1,7 C 3,3 C 93 % 1011,8 hPa 0,0 l/m 1,6 km/h (1 Bft) W-SW 247 0 min 0,000 mm 0,0 UV-I 33 W/m 0,7 C 1,7 C 1,6 km/h (1 Bft) 100,00 %
30.12.2017 08:49 1,6 C 3,3 C 93 % 1011,8 hPa 0,0 l/m 1,6 km/h (1 Bft) W-SW 247 0 min 0,000 mm 0,0 UV-I 35 W/m 0,6 C 1,6 C 3,2 km/h (1 Bft) 100,00 %
30.12.2017 08:50 1,6 C 3,3 C 93 % 1011,8 hPa 0,0 l/m 1,6 km/h (1 Bft) W-SW 247 0 min 0,000 mm 0,0 UV-I 37 W/m 0,6 C 1,6 C 3,2 km/h (1 Bft) 100,00 %
30.12.2017 08:51 1,6 C 3,3 C 93 % 1011,8 hPa 0,0 l/m 1,6 km/h (1 Bft) W-SW 247 0 min 0,000 mm 0,0 UV-I 38 W/m 0,6 C 1,6 C 4,8 km/h (1 Bft) 100,00 %
30.12.2017 08:52 1,6 C 3,3 C 93 % 1011,9 hPa 0,0 l/m 3,2 km/h (1 Bft) W-SW 247 0 min 0,000 mm 0,0 UV-I 40 W/m 0,6 C 1,6 C 4,8 km/h (1 Bft) 100,00 %
30.12.2017 08:53 1,6 C 3,3 C 93 % 1011,9 hPa 0,0 l/m 1,6 km/h (1 Bft) W-SW 247 0 min 0,000 mm 0,0 UV-I 40 W/m 0,6 C 1,6 C 3,2 km/h (1 Bft) 100,00 %
30.12.2017 08:54 1,6 C 3,3 C 93 % 1011,9 hPa 0,0 l/m 1,6 km/h (1 Bft) W-SW 247 0 min 0,000 mm 0,0 UV-I 42 W/m 0,6 C 1,6 C 1,6 km/h (1 Bft) 95,65 %
30.12.2017 08:55 1,6 C 3,3 C 93 % 1011,9 hPa 0,0 l/m 1,6 km/h (1 Bft) W-SW 247 0 min 0,000 mm 0,0 UV-I 44 W/m 0,6 C 1,6 C 1,6 km/h (1 Bft) 100,00 %
30.12.2017 08:56 1,5 C 3,3 C 93 % 1011,9 hPa 0,0 l/m 1,6 km/h (1 Bft) W-SW 247 0 min 0,000 mm 0,0 UV-I 44 W/m 0,5 C 1,5 C 3,2 km/h (1 Bft) 100,00 %
30.12.2017 08:57 1,5 C 3,3 C 93 % 1011,8 hPa 0,0 l/m 1,6 km/h (1 Bft) W-SW 247 0 min 0,000 mm 0,0 UV-I 43 W/m 0,5 C 1,5 C 3,2 km/h (1 Bft) 100,00 %
30.12.2017 08:58 1,5 C 3,3 C 93 % 1011,8 hPa 0,0 l/m 1,6 km/h (1 Bft) W-SW 247 0 min 0,000 mm 0,0 UV-I 42 W/m 0,5 C 1,5 C 1,6 km/h (1 Bft) 100,00 %
30.12.2017 08:59 1,5 C 3,3 C 93 % 1011,8 hPa 0,0 l/m 0,0 km/h (0 Bft) W-SW 247 0 min 0,000 mm 0,0 UV-I 40 W/m 0,5 C 1,5 C 1,6 km/h (1 Bft) 100,00 %
30.12.2017 09:00 1,4 C 3,3 C 93 % 1011,7 hPa 0,0 l/m 0,0 km/h (0 Bft) N 0 0 min 0,000 mm 0,0 UV-I 40 W/m 0,4 C 1,4 C 0,0 km/h (0 Bft) 100,00 %
30.12.2017 09:01 1,4 C 3,3 C 93 % 1011,8 hPa 0,0 l/m 0,0 km/h (0 Bft) N 0 0 min 0,000 mm 0,0 UV-I 42 W/m 0,4 C 1,4 C 0,0 km/h (0 Bft) 91,30 %
30.12.2017 09:02 1,4 C 3,3 C 93 % 1011,8 hPa 0,0 l/m 0,0 km/h (0 Bft) W-SW 247 0 min 0,000 mm 0,0 UV-I 42 W/m 0,4 C 1,4 C 1,6 km/h (1 Bft) 100,00 %
30.12.2017 09:03 1,3 C 3,3 C 93 % 1011,7 hPa 0,0 l/m 0,0 km/h (0 Bft) N 0 0 min 0,000 mm 0,0 UV-I 43 W/m 0,3 C 1,3 C 0,0 km/h (0 Bft) 100,00 %
30.12.2017 09:04 1,4 C 3,3 C 93 % 1011,8 hPa 0,0 l/m 0,0 km/h (0 Bft) N 0 0 min 0,000 mm 0,0 UV-I 60 W/m 0,4 C 1,4 C 0,0 km/h (0 Bft) 100,00 %
30.12.2017 09:05 1,3 C 3,3 C 94 % 1011,8 hPa 0,0 l/m 0,0 km/h (0 Bft) N 0 0 min 0,000 mm 0,0 UV-I 62 W/m 0,4 C 1,3 C 0,0 km/h (0 Bft) 95,65 %
30.12.2017 09:06 1,3 C 3,3 C 93 % 1011,8 hPa 0,0 l/m 0,0 km/h (0 Bft) N 0 0 min 0,000 mm 0,0 UV-I 62 W/m 0,3 C 1,3 C 0,0 km/h (0 Bft) 100,00 %
30.12.2017 09:07 1,3 C 3,3 C 94 % 1011,7 hPa 0,0 l/m 0,0 km/h (0 Bft) N 0 0 min 0,000 mm 0,0 UV-I 60 W/m 0,4 C 1,3 C 0,0 km/h (0 Bft) 100,00 %
30.12.2017 09:08 1,2 C 3,3 C 94 % 1011,8 hPa 0,0 l/m 0,0 km/h (0 Bft) N 0 0 min 0,000 mm 0,0 UV-I 53 W/m 0,3 C 1,2 C 0,0 km/h (0 Bft) 95,65 %
30.12.2017 09:09 1,2 C 3,3 C 94 % 1011,8 hPa 0,0 l/m 0,0 km/h (0 Bft) N 0 0 min 0,000 mm 0,0 UV-I 58 W/m 0,3 C 1,2 C 0,0 km/h (0 Bft) 100,00 %
30.12.2017 09:10 1,3 C 3,3 C 94 % 1011,9 hPa 0,0 l/m 0,0 km/h (0 Bft) N 0 0 min 0,000 mm 0,0 UV-I 72 W/m 0,4 C 1,3 C 0,0 km/h (0 Bft) 100,00 %
30.12.2017 09:11 1,2 C 3,3 C 94 % 1011,8 hPa 0,0 l/m 0,0 km/h (0 Bft) N 0 0 min 0,000 mm 0,0 UV-I 81 W/m 0,3 C 1,2 C 0,0 km/h (0 Bft) 95,65 %
30.12.2017 09:12 1,2 C 3,3 C 94 % 1011,7 hPa 0,0 l/m 0,0 km/h (0 Bft) N 0 0 min 0,000 mm 0,0 UV-I 56 W/m 0,3 C 1,2 C 0,0 km/h (0 Bft) 100,00 %
30.12.2017 09:13 1,2 C 3,3 C 94 % 1011,8 hPa 0,0 l/m 0,0 km/h (0 Bft) W-SW 247 0 min 0,000 mm 0,0 UV-I 58 W/m 0,3 C 1,2 C 1,6 km/h (1 Bft) 100,00 %
30.12.2017 09:14 1,1 C 3,3 C 94 % 1011,8 hPa 0,0 l/m 1,6 km/h (1 Bft) W-SW 247 0 min 0,000 mm 0,0 UV-I 69 W/m 0,2 C 1,1 C 3,2 km/h (1 Bft) 95,65 %
30.12.2017 09:15 1,1 C 3,3 C 94 % 1011,9 hPa 0,0 l/m 1,6 km/h (1 Bft) W-SW 247 0 min 0,000 mm 0,0 UV-I 83 W/m 0,2 C 1,1 C 3,2 km/h (1 Bft) 95,65 %
30.12.2017 09:16 1,0 C 3,3 C 94 % 1011,9 hPa 0,0 l/m 1,6 km/h (1 Bft) W-SW 247 0 min 0,000 mm 0,0 UV-I 70 W/m 0,1 C 1,0 C 1,6 km/h (1 Bft) 91,30 %
30.12.2017 09:17 1,0 C 3,3 C 94 % 1011,9 hPa 0,0 l/m 1,6 km/h (1 Bft) W-SW 247 1 min 0,000 mm 0,0 UV-I 111 W/m 0,1 C 1,0 C 3,2 km/h (1 Bft) 100,00 %
30.12.2017 09:18 1,0 C 3,3 C 95 % 1011,9 hPa 0,0 l/m 3,2 km/h (1 Bft) W-SW 247 1 min 0,000 mm 0,0 UV-I 149 W/m 0,3 C 1,0 C 3,2 km/h (1 Bft) 95,65 %
30.12.2017 09:19 1,1 C 3,3 C 95 % 1011,8 hPa 0,0 l/m 3,2 km/h (1 Bft) W-SW 247 1 min 0,000 mm 0,0 UV-I 162 W/m 0,4 C 1,1 C 3,2 km/h (1 Bft) 100,00 %
30.12.2017 09:20 1,1 C 3,3 C 95 % 1011,9 hPa 0,0 l/m 3,2 km/h (1 Bft) W-SW 247 1 min 0,000 mm 0,0 UV-I 162 W/m 0,4 C 1,1 C 3,2 km/h (1 Bft) 95,65 %
30.12.2017 09:21 1,1 C 3,3 C 95 % 1011,9 hPa 0,0 l/m 3,2 km/h (1 Bft) W-SW 247 1 min 0,000 mm 0,0 UV-I 165 W/m 0,4 C 1,1 C 3,2 km/h (1 Bft) 95,65 %
30.12.2017 09:22 1,1 C 3,3 C 95 % 1011,8 hPa 0,0 l/m 3,2 km/h (1 Bft) W-SW 247 1 min 0,000 mm 0,0 UV-I 171 W/m 0,4 C 1,1 C 4,8 km/h (1 Bft) 95,65 %
30.12.2017 09:23 1,2 C 3,3 C 95 % 1011,8 hPa 0,0 l/m 3,2 km/h (1 Bft) W-SW 247 1 min 0,000 mm 0,0 UV-I 178 W/m 0,5 C 1,2 C 4,8 km/h (1 Bft) 95,65 %
30.12.2017 09:24 1,2 C 3,3 C 95 % 1011,7 hPa 0,2 l/m 3,2 km/h (1 Bft) W-SW 247 1 min 0,000 mm 0,0 UV-I 181 W/m 0,5 C 1,2 C 3,2 km/h (1 Bft) 100,00 %
30.12.2017 09:25 1,3 C 3,3 C 96 % 1011,7 hPa 0,0 l/m 1,6 km/h (1 Bft) W-SW 247 1 min 0,000 mm 0,0 UV-I 185 W/m 0,7 C 1,3 C 3,2 km/h (1 Bft) 91,30 %
30.12.2017 09:26 1,4 C 3,3 C 96 % 1011,7 hPa 0,0 l/m 3,2 km/h (1 Bft) W-SW 247 1 min 0,000 mm 0,0 UV-I 192 W/m 0,8 C 1,4 C 3,2 km/h (1 Bft) 100,00 %
30.12.2017 09:27 1,5 C 3,3 C 96 % 1011,6 hPa 0,0 l/m 1,6 km/h (1 Bft) W-SW 247 1 min 0,000 mm 0,0 UV-I 197 W/m 0,9 C 1,5 C 3,2 km/h (1 Bft) 86,96 %
30.12.2017 09:28 1,6 C 3,3 C 96 % 1011,6 hPa 0,0 l/m 0,0 km/h (0 Bft) W-SW 247 1 min 0,000 mm 0,0 UV-I 199 W/m 1,0 C 1,6 C 1,6 km/h (1 Bft) 100,00 %
30.12.2017 09:29 1,6 C 3,3 C 96 % 1011,7 hPa 0,0 l/m 0,0 km/h (0 Bft) N 0 1 min 0,000 mm 0,0 UV-I 206 W/m 1,0 C 1,6 C 0,0 km/h (0 Bft) 86,96 %
30.12.2017 09:30 1,6 C 3,3 C 95 % 1011,6 hPa 0,0 l/m 0,0 km/h (0 Bft) W-SW 247 1 min 0,000 mm 0,0 UV-I 211 W/m 0,9 C 1,6 C 1,6 km/h (1 Bft) 91,30 %
30.12.2017 09:31 1,6 C 3,3 C 95 % 1011,5 hPa 0,0 l/m 1,6 km/h (1 Bft) W-SW 247 1 min 0,000 mm 0,0 UV-I 216 W/m 0,9 C 1,6 C 1,6 km/h (1 Bft) 91,30 %
30.12.2017 09:32 1,6 C 3,3 C 95 % 1011,5 hPa 0,0 l/m 1,6 km/h (1 Bft) W-SW 247 1 min 0,000 mm 0,0 UV-I 220 W/m 0,9 C 1,6 C 1,6 km/h (1 Bft) 95,65 %
30.12.2017 09:33 1,7 C 3,3 C 95 % 1011,5 hPa 0,0 l/m 0,0 km/h (0 Bft) W-SW 247 1 min 0,000 mm 0,0 UV-I 221 W/m 1,0 C 1,7 C 1,6 km/h (1 Bft) 95,65 %
30.12.2017 09:34 1,7 C 3,3 C 95 % 1011,6 hPa 0,0 l/m 0,0 km/h (0 Bft) N 0 1 min 0,000 mm 0,0 UV-I 227 W/m 1,0 C 1,7 C 0,0 km/h (0 Bft) 95,65 %
30.12.2017 09:35 1,7 C 3,3 C 95 % 1011,5 hPa 0,0 l/m 0,0 km/h (0 Bft) N 0 1 min 0,000 mm 0,0 UV-I 223 W/m 1,0 C 1,7 C 0,0 km/h (0 Bft) 91,30 %
30.12.2017 09:36 1,8 C 3,3 C 95 % 1011,5 hPa 0,2 l/m 1,6 km/h (1 Bft) W-SW 247 1 min 0,000 mm 0,0 UV-I 218 W/m 1,1 C 1,8 C 1,6 km/h (1 Bft) 91,30 %
30.12.2017 09:37 1,8 C 3,3 C 95 % 1011,5 hPa 0,0 l/m 0,0 km/h (0 Bft) N 0 1 min 0,000 mm 0,0 UV-I 207 W/m 1,1 C 1,8 C 0,0 km/h (0 Bft) 95,65 %
30.12.2017 09:38 1,8 C 3,3 C 95 % 1011,4 hPa 0,0 l/m 0,0 km/h (0 Bft) W-SW 247 1 min 0,000 mm 0,0 UV-I 184 W/m 1,1 C 1,8 C 1,6 km/h (1 Bft) 95,65 %
30.12.2017 09:39 1,9 C 3,3 C 95 % 1011,4 hPa 0,0 l/m 1,6 km/h (1 Bft) W-SW 247 1 min 0,000 mm 0,0 UV-I 162 W/m 1,2 C 1,9 C 3,2 km/h (1 Bft) 91,30 %
30.12.2017 09:40 1,9 C 3,3 C 95 % 1011,4 hPa 0,0 l/m 1,6 km/h (1 Bft) W-SW 247 1 min 0,000 mm 0,0 UV-I 158 W/m 1,2 C 1,9 C 3,2 km/h (1 Bft) 95,65 %
30.12.2017 09:41 2,0 C 3,3 C 94 % 1011,4 hPa 0,0 l/m 0,0 km/h (0 Bft) W-SW 247 1 min 0,000 mm 0,0 UV-I 162 W/m 1,1 C 2,0 C 1,6 km/h (1 Bft) 91,30 %
30.12.2017 09:42 2,1 C 3,3 C 94 % 1011,4 hPa 0,0 l/m 0,0 km/h (0 Bft) W-SW 247 1 min 0,000 mm 0,0 UV-I 163 W/m 1,2 C 2,1 C 1,6 km/h (1 Bft) 95,65 %
30.12.2017 09:43 2,1 C 3,3 C 94 % 1011,5 hPa 0,0 l/m 1,6 km/h (1 Bft) W-SW 247 1 min 0,000 mm 0,0 UV-I 167 W/m 1,2 C 2,1 C 3,2 km/h (1 Bft) 91,30 %
30.12.2017 09:44 1,9 C 3,3 C 93 % 1011,4 hPa 0,0 l/m 0,0 km/h (0 Bft) N 0 1 min 0,000 mm 0,0 UV-I 149 W/m 0,9 C 1,9 C 0,0 km/h (0 Bft) 95,65 %
30.12.2017 09:45 1,8 C 3,3 C 93 % 1011,5 hPa 0,0 l/m 1,6 km/h (1 Bft) W-SW 247 1 min 0,000 mm 0,0 UV-I 151 W/m 0,8 C 1,8 C 3,2 km/h (1 Bft) 95,65 %
30.12.2017 09:46 1,7 C 3,3 C 93 % 1011,5 hPa 0,0 l/m 3,2 km/h (1 Bft) W-SW 247 1 min 0,000 mm 0,0 UV-I 151 W/m 0,7 C 1,7 C 4,8 km/h (1 Bft) 95,65 %
30.12.2017 09:47 1,6 C 3,3 C 94 % 1011,5 hPa 0,2 l/m 3,2 km/h (1 Bft) W-SW 247 1 min 0,000 mm 0,0 UV-I 172 W/m 0,7 C 1,6 C 3,2 km/h (1 Bft) 95,65 %
30.12.2017 09:48 1,7 C 3,3 C 94 % 1011,5 hPa 0,0 l/m 1,6 km/h (1 Bft) W-SW 247 1 min 0,000 mm 0,0 UV-I 176 W/m 0,8 C 1,7 C 3,2 km/h (1 Bft) 91,30 %
30.12.2017 09:49 1,7 C 3,3 C 94 % 1011,5 hPa 0,0 l/m 1,6 km/h (1 Bft) W-SW 247 1 min 0,000 mm 0,0 UV-I 181 W/m 0,8 C 1,7 C 3,2 km/h (1 Bft) 100,00 %
30.12.2017 09:50 1,8 C 3,3 C 94 % 1011,5 hPa 0,0 l/m 1,6 km/h (1 Bft) W-SW 247 1 min 0,000 mm 0,0 UV-I 193 W/m 0,9 C 1,8 C 1,6 km/h (1 Bft) 86,96 %
30.12.2017 09:51 1,8 C 3,3 C 94 % 1011,4 hPa 0,0 l/m 1,6 km/h (1 Bft) W-SW 247 1 min 0,000 mm 0,0 UV-I 197 W/m 0,9 C 1,8 C 4,8 km/h (1 Bft) 100,00 %
30.12.2017 09:52 1,9 C 3,3 C 94 % 1011,4 hPa 0,0 l/m 3,2 km/h (1 Bft) W-SW 247 1 min 0,000 mm 0,0 UV-I 206 W/m 1,0 C 1,9 C 4,8 km/h (1 Bft) 91,30 %
30.12.2017 09:53 2,0 C 3,3 C 94 % 1011,4 hPa 0,0 l/m 3,2 km/h (1 Bft) W-SW 247 1 min 0,000 mm 0,0 UV-I 214 W/m 1,1 C 2,0 C 3,2 km/h (1 Bft) 100,00 %
30.12.2017 09:54 2,1 C 3,3 C 94 % 1011,5 hPa 0,0 l/m 3,2 km/h (1 Bft) W-SW 247 1 min 0,000 mm 0,0 UV-I 195 W/m 1,2 C 2,1 C 4,8 km/h (1 Bft) 91,30 %
30.12.2017 09:55 2,2 C 3,3 C 94 % 1011,5 hPa 0,0 l/m 3,2 km/h (1 Bft) W-SW 247 1 min 0,000 mm 0,0 UV-I 196 W/m 1,3 C 2,2 C 4,8 km/h (1 Bft) 95,65 %
30.12.2017 09:56 2,3 C 3,3 C 93 % 1011,4 hPa 0,2 l/m 4,8 km/h (1 Bft) W-SW 247 1 min 0,000 mm 0,0 UV-I 193 W/m 1,3 C 2,3 C 4,8 km/h (1 Bft) 95,65 %
30.12.2017 09:57 2,3 C 3,3 C 93 % 1011,4 hPa 0,0 l/m 4,8 km/h (1 Bft) W-SW 247 1 min 0,000 mm 0,0 UV-I 188 W/m 1,3 C 2,3 C 6,4 km/h (2 Bft) 95,65 %
30.12.2017 09:58 2,3 C 3,3 C 92 % 1011,4 hPa 0,0 l/m 4,8 km/h (1 Bft) O-NO 67 1 min 0,000 mm 0,0 UV-I 197 W/m 1,1 C 2,3 C 6,4 km/h (2 Bft) 95,65 %
30.12.2017 09:59 2,3 C 3,3 C 92 % 1011,4 hPa 0,0 l/m 4,8 km/h (1 Bft) NO 45 1 min 0,000 mm 0,0 UV-I 202 W/m 1,1 C 2,3 C 6,4 km/h (2 Bft) 91,30 %
30.12.2017 10:00 2,2 C 3,3 C 91 % 1011,4 hPa 0,0 l/m 6,4 km/h (2 Bft) NO 45 1 min 0,051 mm 0,0 UV-I 181 W/m 0,9 C 2,2 C 8,0 km/h (2 Bft) 100,00 %
30.12.2017 10:01 2,0 C 3,3 C 92 % 1011,4 hPa 0,0 l/m 4,8 km/h (1 Bft) NO 45 1 min 0,000 mm 0,0 UV-I 164 W/m 0,8 C 2,0 C 6,4 km/h (2 Bft) 91,30 %
30.12.2017 10:02 1,9 C 3,3 C 92 % 1011,4 hPa 0,0 l/m 4,8 km/h (1 Bft) NO 45 1 min 0,000 mm 0,0 UV-I 167 W/m 0,7 C 1,9 C 4,8 km/h (1 Bft) 100,00 %
30.12.2017 10:03 1,9 C 3,3 C 92 % 1011,4 hPa 0,0 l/m 4,8 km/h (1 Bft) NO 45 1 min 0,000 mm 0,0 UV-I 169 W/m 0,7 C 1,9 C 6,4 km/h (2 Bft) 100,00 %
30.12.2017 10:04 1,9 C 3,3 C 92 % 1011,4 hPa 0,0 l/m 3,2 km/h (1 Bft) NO 45 1 min 0,000 mm 0,0 UV-I 169 W/m 0,7 C 1,9 C 4,8 km/h (1 Bft) 95,65 %
30.12.2017 10:05 1,9 C 3,3 C 93 % 1011,4 hPa 0,0 l/m 3,2 km/h (1 Bft) NO 45 1 min 0,000 mm 0,0 UV-I 156 W/m 0,9 C 1,9 C 3,2 km/h (1 Bft) 100,00 %
30.12.2017 10:06 1,9 C 3,3 C 93 % 1011,4 hPa 0,0 l/m 3,2 km/h (1 Bft) NO 45 1 min 0,000 mm 0,0 UV-I 148 W/m 0,9 C 1,9 C 3,2 km/h (1 Bft) 100,00 %
30.12.2017 10:07 1,9 C 3,3 C 93 % 1011,4 hPa 0,0 l/m 3,2 km/h (1 Bft) NO 45 1 min 0,000 mm 0,0 UV-I 144 W/m 0,9 C 1,9 C 3,2 km/h (1 Bft) 100,00 %
30.12.2017 10:08 1,9 C 3,3 C 93 % 1011,4 hPa 0,0 l/m 3,2 km/h (1 Bft) NO 45 1 min 0,000 mm 0,0 UV-I 141 W/m 0,9 C 1,9 C 3,2 km/h (1 Bft) 100,00 %
30.12.2017 10:09 2,0 C 3,3 C 93 % 1011,4 hPa 0,0 l/m 3,2 km/h (1 Bft) NO 45 1 min 0,000 mm 0,0 UV-I 141 W/m 1,0 C 2,0 C 3,2 km/h (1 Bft) 95,65 %
30.12.2017 10:10 2,0 C 3,3 C 93 % 1011,4 hPa 0,2 l/m 1,6 km/h (1 Bft) NO 45 0 min 0,000 mm 0,0 UV-I 135 W/m 1,0 C 2,0 C 3,2 km/h (1 Bft) 100,00 %
30.12.2017 10:11 1,9 C 3,3 C 93 % 1011,4 hPa 0,0 l/m 0,0 km/h (0 Bft) N 0 0 min 0,000 mm 0,0 UV-I 130 W/m 0,9 C 1,9 C 0,0 km/h (0 Bft) 95,65 %
30.12.2017 10:12 1,9 C 3,3 C 93 % 1011,4 hPa 0,0 l/m 0,0 km/h (0 Bft) N 0 0 min 0,000 mm 0,0 UV-I 128 W/m 0,9 C 1,9 C 0,0 km/h (0 Bft) 100,00 %
30.12.2017 10:13 1,9 C 3,3 C 93 % 1011,4 hPa 0,0 l/m 0,0 km/h (0 Bft) N 0 0 min 0,000 mm 0,0 UV-I 124 W/m 0,9 C 1,9 C 0,0 km/h (0 Bft) 100,00 %
30.12.2017 10:14 1,9 C 3,3 C 93 % 1011,4 hPa 0,0 l/m 0,0 km/h (0 Bft) N 0 0 min 0,000 mm 0,0 UV-I 121 W/m 0,9 C 1,9 C 0,0 km/h (0 Bft) 100,00 %
30.12.2017 10:15 1,9 C 3,3 C 93 % 1011,4 hPa 0,0 l/m 0,0 km/h (0 Bft) N 0 0 min 0,000 mm 0,0 UV-I 120 W/m 0,9 C 1,9 C 0,0 km/h (0 Bft) 100,00 %
30.12.2017 10:16 2,0 C 3,3 C 93 % 1011,4 hPa 0,0 l/m 0,0 km/h (0 Bft) NO 45 0 min 0,000 mm 0,0 UV-I 120 W/m 1,0 C 2,0 C 1,6 km/h (1 Bft) 100,00 %
30.12.2017 10:17 2,0 C 3,3 C 93 % 1011,5 hPa 0,0 l/m 1,6 km/h (1 Bft) NO 45 0 min 0,000 mm 0,0 UV-I 118 W/m 1,0 C 2,0 C 1,6 km/h (1 Bft) 100,00 %
30.12.2017 10:18 2,1 C 3,3 C 93 % 1011,5 hPa 0,0 l/m 1,6 km/h (1 Bft) NO 45 0 min 0,000 mm 0,0 UV-I 114 W/m 1,1 C 2,1 C 1,6 km/h (1 Bft) 95,65 %
30.12.2017 10:19 2,1 C 3,3 C 93 % 1011,5 hPa 0,0 l/m 1,6 km/h (1 Bft) NO 45 0 min 0,000 mm 0,0 UV-I 113 W/m 1,1 C 2,1 C 3,2 km/h (1 Bft) 95,65 %
30.12.2017 10:20 2,1 C 3,3 C 93 % 1011,5 hPa 0,0 l/m 1,6 km/h (1 Bft) NO 45 0 min 0,000 mm 0,0 UV-I 116 W/m 1,1 C 2,1 C 3,2 km/h (1 Bft) 100,00 %
30.12.2017 10:21 2,2 C 3,3 C 93 % 1011,4 hPa 0,0 l/m 3,2 km/h (1 Bft) NO 45 0 min 0,000 mm 0,0 UV-I 118 W/m 1,2 C 2,2 C 4,8 km/h (1 Bft) 100,00 %
30.12.2017 10:22 2,2 C 3,3 C 93 % 1011,4 hPa 0,0 l/m 4,8 km/h (1 Bft) NO 45 0 min 0,000 mm 0,0 UV-I 125 W/m 1,2 C 2,2 C 6,4 km/h (2 Bft) 95,65 %
30.12.2017 10:23 2,2 C 3,3 C 93 % 1011,3 hPa 0,0 l/m 4,8 km/h (1 Bft) NO 45 0 min 0,000 mm 0,0 UV-I 139 W/m 1,2 C 2,2 C 6,4 km/h (2 Bft) 100,00 %
30.12.2017 10:24 2,2 C 3,3 C 93 % 1011,3 hPa 0,0 l/m 4,8 km/h (1 Bft) NO 45 1 min 0,000 mm 0,0 UV-I 156 W/m 1,2 C 2,2 C 6,4 km/h (2 Bft) 100,00 %
30.12.2017 10:25 2,3 C 3,3 C 93 % 1011,3 hPa 0,2 l/m 4,8 km/h (1 Bft) NO 45 1 min 0,000 mm 0,0 UV-I 177 W/m 1,3 C 2,3 C 6,4 km/h (2 Bft) 95,65 %
30.12.2017 10:26 2,3 C 3,3 C 93 % 1011,3 hPa 0,0 l/m 4,8 km/h (1 Bft) NO 45 1 min 0,000 mm 0,0 UV-I 213 W/m 1,3 C 2,3 C 6,4 km/h (2 Bft) 100,00 %
30.12.2017 10:27 2,3 C 3,3 C 93 % 1011,3 hPa 0,0 l/m 3,2 km/h (1 Bft) NO 45 1 min 0,000 mm 0,0 UV-I 234 W/m 1,3 C 2,3 C 4,8 km/h (1 Bft) 95,65 %
30.12.2017 10:28 2,3 C 3,3 C 92 % 1011,3 hPa 0,0 l/m 3,2 km/h (1 Bft) NO 45 1 min 0,000 mm 0,0 UV-I 258 W/m 1,1 C 2,3 C 4,8 km/h (1 Bft) 100,00 %
30.12.2017 10:29 2,4 C 3,3 C 92 % 1011,3 hPa 0,0 l/m 4,8 km/h (1 Bft) NO 45 1 min 0,000 mm 0,0 UV-I 255 W/m 1,2 C 2,4 C 4,8 km/h (1 Bft) 95,65 %
30.12.2017 10:30 2,3 C 3,3 C 92 % 1011,3 hPa 0,0 l/m 3,2 km/h (1 Bft) NO 45 1 min 0,000 mm 0,0 UV-I 253 W/m 1,1 C 2,3 C 4,8 km/h (1 Bft) 100,00 %
30.12.2017 10:31 2,2 C 3,3 C 91 % 1011,3 hPa 0,0 l/m 3,2 km/h (1 Bft) NO 45 1 min 0,000 mm 0,0 UV-I 246 W/m 0,9 C 2,2 C 4,8 km/h (1 Bft) 100,00 %
30.12.2017 10:32 1,9 C 3,3 C 91 % 1011,3 hPa 0,0 l/m 1,6 km/h (1 Bft) NO 45 1 min 0,000 mm 0,0 UV-I 209 W/m 0,6 C 1,9 C 3,2 km/h (1 Bft) 95,65 %
30.12.2017 10:33 1,8 C 3,3 C 91 % 1011,3 hPa 0,0 l/m 3,2 km/h (1 Bft) NO 45 1 min 0,000 mm 0,0 UV-I 158 W/m 0,5 C 1,8 C 4,8 km/h (1 Bft) 95,65 %
30.12.2017 10:34 1,7 C 3,3 C 92 % 1011,3 hPa 0,0 l/m 4,8 km/h (1 Bft) NO 45 1 min 0,000 mm 0,0 UV-I 155 W/m 0,5 C 1,7 C 4,8 km/h (1 Bft) 100,00 %
30.12.2017 10:35 1,6 C 3,3 C 92 % 1011,3 hPa 0,0 l/m 3,2 km/h (1 Bft) NO 45 1 min 0,000 mm 0,0 UV-I 171 W/m 0,4 C 1,6 C 4,8 km/h (1 Bft) 100,00 %
30.12.2017 10:36 1,4 C 3,3 C 92 % 1011,3 hPa 0,0 l/m 1,6 km/h (1 Bft) NO 45 1 min 0,000 mm 0,0 UV-I 206 W/m 0,2 C 1,4 C 3,2 km/h (1 Bft) 95,65 %
30.12.2017 10:37 1,4 C 3,3 C 92 % 1011,3 hPa 0,0 l/m 0,0 km/h (0 Bft) N 0 1 min 0,000 mm 0,0 UV-I 281 W/m 0,2 C 1,4 C 0,0 km/h (0 Bft) 100,00 %
30.12.2017 10:38 1,3 C 3,3 C 92 % 1011,2 hPa 0,0 l/m 4,8 km/h (1 Bft) NO 45 1 min 0,000 mm 0,0 UV-I 302 W/m 0,1 C 1,3 C 4,8 km/h (1 Bft) 100,00 %
30.12.2017 10:39 1,3 C 3,3 C 93 % 1011,2 hPa 0,0 l/m 4,8 km/h (1 Bft) NO 45 1 min 0,000 mm 0,0 UV-I 322 W/m 0,3 C 1,3 C 6,4 km/h (2 Bft) 95,65 %
30.12.2017 10:40 1,3 C 3,3 C 94 % 1011,1 hPa 0,0 l/m 4,8 km/h (1 Bft) NO 45 1 min 0,000 mm 0,0 UV-I 338 W/m 0,4 C 1,3 C 4,8 km/h (1 Bft) 100,00 %
30.12.2017 10:41 1,4 C 3,3 C 94 % 1011,1 hPa 0,0 l/m 4,8 km/h (1 Bft) NO 45 1 min 0,000 mm 0,0 UV-I 353 W/m 0,5 C 1,4 C 6,4 km/h (2 Bft) 100,00 %
30.12.2017 10:42 1,4 C 3,3 C 94 % 1011,1 hPa 0,0 l/m 3,2 km/h (1 Bft) NO 45 1 min 0,000 mm 0,0 UV-I 368 W/m 0,5 C 1,4 C 4,8 km/h (1 Bft) 95,65 %
30.12.2017 10:43 1,4 C 3,3 C 94 % 1011,1 hPa 0,2 l/m 4,8 km/h (1 Bft) NO 45 1 min 0,000 mm 0,0 UV-I 364 W/m 0,5 C 1,4 C 6,4 km/h (2 Bft) 100,00 %
30.12.2017 10:44 1,4 C 3,3 C 94 % 1011,1 hPa 0,0 l/m 4,8 km/h (1 Bft) NO 45 1 min 0,000 mm 0,0 UV-I 362 W/m 0,5 C 1,4 C 6,4 km/h (2 Bft) 100,00 %
30.12.2017 10:45 1,4 C 3,3 C 93 % 1011,1 hPa 0,0 l/m 6,4 km/h (2 Bft) NO 45 1 min 0,000 mm 0,0 UV-I 274 W/m 0,4 C 1,4 C 6,4 km/h (2 Bft) 95,65 %
30.12.2017 10:46 1,3 C 3,3 C 93 % 1011,1 hPa 0,0 l/m 6,4 km/h (2 Bft) NO 45 1 min 0,000 mm 0,0 UV-I 221 W/m 0,3 C 1,3 C 6,4 km/h (2 Bft) 95,65 %
30.12.2017 10:47 1,3 C 3,3 C 93 % 1011,1 hPa 0,0 l/m 4,8 km/h (1 Bft) NO 45 1 min 0,000 mm 0,0 UV-I 227 W/m 0,3 C 1,3 C 6,4 km/h (2 Bft) 100,00 %
30.12.2017 10:48 1,3 C 3,3 C 93 % 1011,1 hPa 0,0 l/m 4,8 km/h (1 Bft) NO 45 1 min 0,000 mm 0,0 UV-I 192 W/m 0,3 C 1,3 C 8,0 km/h (2 Bft) 100,00 %
30.12.2017 10:49 1,3 C 3,3 C 93 % 1011,1 hPa 0,0 l/m 6,4 km/h (2 Bft) NO 45 1 min 0,000 mm 0,0 UV-I 213 W/m 0,3 C 1,3 C 8,0 km/h (2 Bft) 100,00 %
30.12.2017 10:50 1,3 C 3,3 C 93 % 1011,0 hPa 0,0 l/m 6,4 km/h (2 Bft) NO 45 1 min 0,000 mm 0,0 UV-I 271 W/m 0,3 C 1,3 C 8,0 km/h (2 Bft) 100,00 %
30.12.2017 10:51 1,2 C 3,3 C 93 % 1011,1 hPa 0,0 l/m 6,4 km/h (2 Bft) NO 45 1 min 0,000 mm 0,0 UV-I 302 W/m 0,2 C 1,2 C 6,4 km/h (2 Bft) 100,00 %
30.12.2017 10:52 1,3 C 3,3 C 93 % 1011,1 hPa 0,0 l/m 4,8 km/h (1 Bft) NO 45 1 min 0,000 mm 0,0 UV-I 292 W/m 0,3 C 1,3 C 6,4 km/h (2 Bft) 100,00 %
30.12.2017 10:53 1,3 C 3,3 C 94 % 1011,1 hPa 0,0 l/m 4,8 km/h (1 Bft) NO 45 1 min 0,000 mm 0,0 UV-I 299 W/m 0,4 C 1,3 C 6,4 km/h (2 Bft) 95,65 %
30.12.2017 10:54 1,3 C 3,3 C 94 % 1011,1 hPa 0,2 l/m 3,2 km/h (1 Bft) NO 45 1 min 0,000 mm 0,0 UV-I 289 W/m 0,4 C 1,3 C 4,8 km/h (1 Bft) 100,00 %
30.12.2017 10:55 1,3 C 3,3 C 93 % 1011,1 hPa 0,0 l/m 3,2 km/h (1 Bft) NO 45 1 min 0,000 mm 0,0 UV-I 244 W/m 0,3 C 1,3 C 4,8 km/h (1 Bft) 100,00 %
30.12.2017 10:56 1,3 C 3,3 C 93 % 1011,1 hPa 0,0 l/m 3,2 km/h (1 Bft) NO 45 1 min 0,000 mm 0,0 UV-I 281 W/m 0,3 C 1,3 C 4,8 km/h (1 Bft) 100,00 %
30.12.2017 10:57 1,4 C 3,3 C 93 % 1011,1 hPa 0,0 l/m 4,8 km/h (1 Bft) NO 45 1 min 0,000 mm 0,0 UV-I 253 W/m 0,4 C 1,4 C 4,8 km/h (1 Bft) 100,00 %
30.12.2017 10:58 1,4 C 3,3 C 93 % 1011,1 hPa 0,0 l/m 3,2 km/h (1 Bft) NO 45 1 min 0,000 mm 0,0 UV-I 236 W/m 0,4 C 1,4 C 4,8 km/h (1 Bft) 95,65 %
30.12.2017 10:59 1,4 C 3,3 C 93 % 1011,1 hPa 0,0 l/m 4,8 km/h (1 Bft) NO 45 1 min 0,000 mm 0,0 UV-I 209 W/m 0,4 C 1,4 C 4,8 km/h (1 Bft) 100,00 %
30.12.2017 11:00 1,4 C 3,3 C 93 % 1011,0 hPa 0,0 l/m 4,8 km/h (1 Bft) NO 45 1 min 0,076 mm 0,0 UV-I 179 W/m 0,4 C 1,4 C 6,4 km/h (2 Bft) 95,65 %
30.12.2017 11:01 1,4 C 3,3 C 93 % 1011,0 hPa 0,0 l/m 4,8 km/h (1 Bft) NO 45 1 min 0,000 mm 0,0 UV-I 174 W/m 0,4 C 1,4 C 8,0 km/h (2 Bft) 95,65 %
30.12.2017 11:02 1,5 C 3,3 C 94 % 1011,0 hPa 0,0 l/m 3,2 km/h (1 Bft) NO 45 1 min 0,000 mm 0,0 UV-I 172 W/m 0,6 C 1,5 C 4,8 km/h (1 Bft) 91,30 %
30.12.2017 11:03 1,6 C 3,3 C 94 % 1011,0 hPa 0,0 l/m 3,2 km/h (1 Bft) NO 45 1 min 0,000 mm 0,0 UV-I 169 W/m 0,7 C 1,6 C 4,8 km/h (1 Bft) 100,00 %
30.12.2017 11:04 1,6 C 3,3 C 94 % 1011,0 hPa 0,0 l/m 3,2 km/h (1 Bft) NO 45 0 min 0,000 mm 0,0 UV-I 163 W/m 0,7 C 1,6 C 4,8 km/h (1 Bft) 95,65 %
30.12.2017 11:05 1,6 C 3,3 C 94 % 1010,9 hPa 0,0 l/m 3,2 km/h (1 Bft) NO 45 0 min 0,000 mm 0,0 UV-I 158 W/m 0,7 C 1,6 C 4,8 km/h (1 Bft) 95,65 %
30.12.2017 11:06 1,6 C 3,3 C 94 % 1010,8 hPa 0,0 l/m 3,2 km/h (1 Bft) NO 45 0 min 0,000 mm 0,0 UV-I 151 W/m 0,7 C 1,6 C 4,8 km/h (1 Bft) 100,00 %
30.12.2017 11:07 1,6 C 3,3 C 93 % 1010,7 hPa 0,0 l/m 4,8 km/h (1 Bft) NO 45 0 min 0,000 mm 0,0 UV-I 144 W/m 0,6 C 1,6 C 6,4 km/h (2 Bft) 91,30 %
30.12.2017 11:08 1,6 C 3,3 C 94 % 1010,6 hPa 0,0 l/m 6,4 km/h (2 Bft) NO 45 0 min 0,000 mm 0,0 UV-I 146 W/m 0,7 C 1,6 C 8,0 km/h (2 Bft) 100,00 %
30.12.2017 11:09 1,7 C 3,3 C 94 % 1010,5 hPa 0,0 l/m 8,0 km/h (2 Bft) O-NO 67 0 min 0,000 mm 0,0 UV-I 148 W/m 0,8 C 0,1 C 9,7 km/h (2 Bft) 95,65 %
30.12.2017 11:10 1,7 C 3,3 C 94 % 1010,5 hPa 0,2 l/m 8,0 km/h (2 Bft) O-NO 67 0 min 0,000 mm 0,0 UV-I 153 W/m 0,8 C 0,1 C 9,7 km/h (2 Bft) 100,00 %
30.12.2017 11:11 1,7 C 3,3 C 94 % 1010,4 hPa 0,0 l/m 6,4 km/h (2 Bft) NO 45 0 min 0,000 mm 0,0 UV-I 156 W/m 0,8 C 1,7 C 9,7 km/h (2 Bft) 95,65 %
30.12.2017 11:12 1,7 C 3,3 C 94 % 1010,4 hPa 0,0 l/m 6,4 km/h (2 Bft) O-NO 67 0 min 0,000 mm 0,0 UV-I 166 W/m 0,8 C 1,7 C 8,0 km/h (2 Bft) 100,00 %
30.12.2017 11:13 1,8 C 3,3 C 94 % 1010,4 hPa 0,0 l/m 6,4 km/h (2 Bft) O-NO 67 1 min 0,000 mm 0,0 UV-I 174 W/m 0,9 C 1,8 C 8,0 km/h (2 Bft) 95,65 %
30.12.2017 11:14 1,8 C 3,3 C 94 % 1010,3 hPa 0,0 l/m 4,8 km/h (1 Bft) O-NO 67 1 min 0,000 mm 0,0 UV-I 179 W/m 0,9 C 1,8 C 6,4 km/h (2 Bft) 91,30 %
30.12.2017 11:15 1,8 C 3,3 C 94 % 1010,3 hPa 0,0 l/m 4,8 km/h (1 Bft) O-NO 67 1 min 0,000 mm 0,0 UV-I 181 W/m 0,9 C 1,8 C 6,4 km/h (2 Bft) 95,65 %
30.12.2017 11:16 1,8 C 3,3 C 94 % 1010,3 hPa 0,0 l/m 4,8 km/h (1 Bft) O-NO 67 1 min 0,000 mm 0,0 UV-I 185 W/m 0,9 C 1,8 C 6,4 km/h (2 Bft) 95,65 %
30.12.2017 11:17 1,8 C 3,3 C 94 % 1010,3 hPa 0,0 l/m 4,8 km/h (1 Bft) O-NO 67 1 min 0,000 mm 0,0 UV-I 190 W/m 0,9 C 1,8 C 6,4 km/h (2 Bft) 100,00 %
30.12.2017 11:18 1,9 C 3,3 C 94 % 1010,3 hPa 0,0 l/m 4,8 km/h (1 Bft) O-NO 67 1 min 0,000 mm 0,0 UV-I 199 W/m 1,0 C 1,9 C 6,4 km/h (2 Bft) 91,30 %
30.12.2017 11:19 1,9 C 3,3 C 94 % 1010,4 hPa 0,0 l/m 3,2 km/h (1 Bft) O-NO 67 1 min 0,000 mm 0,0 UV-I 211 W/m 1,0 C 1,9 C 4,8 km/h (1 Bft) 100,00 %
30.12.2017 11:20 1,9 C 3,3 C 94 % 1010,5 hPa 0,0 l/m 3,2 km/h (1 Bft) O-NO 67 1 min 0,000 mm 0,0 UV-I 220 W/m 1,0 C 1,9 C 4,8 km/h (1 Bft) 86,96 %
30.12.2017 11:21 2,0 C 3,3 C 94 % 1010,5 hPa 0,0 l/m 3,2 km/h (1 Bft) O-NO 67 1 min 0,000 mm 0,0 UV-I 218 W/m 1,1 C 2,0 C 4,8 km/h (1 Bft) 95,65 %
30.12.2017 11:22 2,0 C 3,3 C 94 % 1010,5 hPa 0,0 l/m 4,8 km/h (1 Bft) O-NO 67 1 min 0,000 mm 0,0 UV-I 218 W/m 1,1 C 2,0 C 6,4 km/h (2 Bft) 86,96 %
30.12.2017 11:23 2,0 C 3,3 C 94 % 1010,5 hPa 0,0 l/m 4,8 km/h (1 Bft) O-NO 67 1 min 0,000 mm 0,0 UV-I 211 W/m 1,1 C 2,0 C 6,4 km/h (2 Bft) 95,65 %
30.12.2017 11:24 2,1 C 3,3 C 94 % 1010,4 hPa 0,0 l/m 4,8 km/h (1 Bft) O-NO 67 1 min 0,000 mm 0,0 UV-I 186 W/m 1,2 C 2,1 C 6,4 km/h (2 Bft) 95,65 %
30.12.2017 11:25 2,1 C 3,3 C 93 % 1010,4 hPa 0,0 l/m 4,8 km/h (1 Bft) O-NO 67 0 min 0,000 mm 0,0 UV-I 172 W/m 1,1 C 2,1 C 6,4 km/h (2 Bft) 95,65 %
30.12.2017 11:26 2,1 C 3,3 C 93 % 1010,4 hPa 0,0 l/m 3,2 km/h (1 Bft) O-NO 67 0 min 0,000 mm 0,0 UV-I 176 W/m 1,1 C 2,1 C 4,8 km/h (1 Bft) 95,65 %
30.12.2017 11:27 2,1 C 3,3 C 93 % 1010,4 hPa 0,2 l/m 3,2 km/h (1 Bft) O-NO 67 1 min 0,000 mm 0,0 UV-I 178 W/m 1,1 C 2,1 C 4,8 km/h (1 Bft) 95,65 %
30.12.2017 11:28 2,1 C 3,3 C 93 % 1010,4 hPa 0,0 l/m 4,8 km/h (1 Bft) O-NO 67 1 min 0,000 mm 0,0 UV-I 225 W/m 1,1 C 2,1 C 6,4 km/h (2 Bft) 91,30 %
30.12.2017 11:29 2,1 C 3,3 C 93 % 1010,4 hPa 0,0 l/m 1,6 km/h (1 Bft) O-NO 67 1 min 0,000 mm 0,0 UV-I 193 W/m 1,1 C 2,1 C 4,8 km/h (1 Bft) 95,65 %
30.12.2017 11:30 2,1 C 3,3 C 93 % 1010,4 hPa 0,0 l/m 4,8 km/h (1 Bft) O-NO 67 1 min 0,000 mm 0,0 UV-I 185 W/m 1,1 C 2,1 C 4,8 km/h (1 Bft) 95,65 %
30.12.2017 11:31 2,1 C 3,3 C 93 % 1010,3 hPa 0,0 l/m 3,2 km/h (1 Bft) O-NO 67 1 min 0,000 mm 0,0 UV-I 183 W/m 1,1 C 2,1 C 4,8 km/h (1 Bft) 91,30 %
30.12.2017 11:32 2,1 C 3,3 C 93 % 1010,3 hPa 0,0 l/m 3,2 km/h (1 Bft) O-NO 67 0 min 0,000 mm 0,0 UV-I 169 W/m 1,1 C 2,1 C 4,8 km/h (1 Bft) 91,30 %
30.12.2017 11:33 2,1 C 3,3 C 93 % 1010,2 hPa 0,0 l/m 4,8 km/h (1 Bft) O-NO 67 0 min 0,000 mm 0,0 UV-I 162 W/m 1,1 C 2,1 C 6,4 km/h (2 Bft) 91,30 %
30.12.2017 11:34 2,1 C 3,3 C 93 % 1010,2 hPa 0,0 l/m 4,8 km/h (1 Bft) O-NO 67 0 min 0,000 mm 0,0 UV-I 156 W/m 1,1 C 2,1 C 6,4 km/h (2 Bft) 100,00 %
30.12.2017 11:35 2,2 C 3,3 C 93 % 1010,1 hPa 0,0 l/m 4,8 km/h (1 Bft) O-NO 67 0 min 0,000 mm 0,0 UV-I 152 W/m 1,2 C 2,2 C 4,8 km/h (1 Bft) 91,30 %
30.12.2017 11:36 2,2 C 3,3 C 93 % 1010,1 hPa 0,0 l/m 3,2 km/h (1 Bft) O-NO 67 0 min 0,000 mm 0,0 UV-I 148 W/m 1,2 C 2,2 C 4,8 km/h (1 Bft) 100,00 %
30.12.2017 11:37 2,2 C 3,3 C 93 % 1010,2 hPa 0,0 l/m 3,2 km/h (1 Bft) O-NO 67 0 min 0,000 mm 0,0 UV-I 146 W/m 1,2 C 2,2 C 4,8 km/h (1 Bft) 95,65 %
30.12.2017 11:38 2,2 C 3,3 C 93 % 1010,1 hPa 0,0 l/m 1,6 km/h (1 Bft) O-NO 67 0 min 0,000 mm 0,0 UV-I 148 W/m 1,2 C 2,2 C 3,2 km/h (1 Bft) 100,00 %
30.12.2017 11:39 2,2 C 3,3 C 93 % 1010,1 hPa 0,0 l/m 3,2 km/h (1 Bft) O-NO 67 0 min 0,000 mm 0,0 UV-I 148 W/m 1,2 C 2,2 C 4,8 km/h (1 Bft) 95,65 %
30.12.2017 11:40 2,2 C 3,3 C 93 % 1010,1 hPa 0,0 l/m 1,6 km/h (1 Bft) O-NO 67 0 min 0,000 mm 0,0 UV-I 149 W/m 1,2 C 2,2 C 3,2 km/h (1 Bft) 100,00 %
30.12.2017 11:41 2,2 C 3,3 C 93 % 1010,0 hPa 0,0 l/m 3,2 km/h (1 Bft) O-NO 67 0 min 0,000 mm 0,0 UV-I 151 W/m 1,2 C 2,2 C 3,2 km/h (1 Bft) 95,65 %
30.12.2017 11:42 2,2 C 3,3 C 93 % 1010,0 hPa 0,0 l/m 3,2 km/h (1 Bft) O-NO 67 0 min 0,000 mm 0,0 UV-I 153 W/m 1,2 C 2,2 C 3,2 km/h (1 Bft) 100,00 %
30.12.2017 11:43 2,1 C 3,3 C 92 % 1010,0 hPa 0,0 l/m 4,8 km/h (1 Bft) O-NO 67 0 min 0,000 mm 0,0 UV-I 151 W/m 0,9 C 2,1 C 6,4 km/h (2 Bft) 91,30 %
30.12.2017 11:44 2,1 C 3,3 C 92 % 1009,9 hPa 0,0 l/m 4,8 km/h (1 Bft) O-NO 67 0 min 0,000 mm 0,0 UV-I 149 W/m 0,9 C 2,1 C 6,4 km/h (2 Bft) 95,65 %
30.12.2017 11:45 2,1 C 3,3 C 93 % 1010,0 hPa 0,0 l/m 3,2 km/h (1 Bft) O-NO 67 0 min 0,000 mm 0,0 UV-I 149 W/m 1,1 C 2,1 C 4,8 km/h (1 Bft) 95,65 %
30.12.2017 11:46 2,0 C 3,3 C 93 % 1010,0 hPa 0,0 l/m 1,6 km/h (1 Bft) NO 45 0 min 0,000 mm 0,0 UV-I 148 W/m 1,0 C 2,0 C 4,8 km/h (1 Bft) 100,00 %
30.12.2017 11:47 1,9 C 3,3 C 92 % 1010,1 hPa 0,0 l/m 1,6 km/h (1 Bft) NO 45 0 min 0,000 mm 0,0 UV-I 143 W/m 0,7 C 1,9 C 3,2 km/h (1 Bft) 100,00 %
30.12.2017 11:48 1,8 C 3,3 C 92 % 1010,1 hPa 0,0 l/m 1,6 km/h (1 Bft) NO 45 0 min 0,000 mm 0,0 UV-I 137 W/m 0,6 C 1,8 C 1,6 km/h (1 Bft) 100,00 %
30.12.2017 11:49 1,7 C 3,3 C 92 % 1010,1 hPa 0,0 l/m 3,2 km/h (1 Bft) NO 45 0 min 0,000 mm 0,0 UV-I 134 W/m 0,5 C 1,7 C 4,8 km/h (1 Bft) 100,00 %
30.12.2017 11:50 1,7 C 3,3 C 93 % 1010,1 hPa 0,0 l/m 6,4 km/h (2 Bft) NO 45 0 min 0,000 mm 0,0 UV-I 132 W/m 0,7 C 1,7 C 8,0 km/h (2 Bft) 95,65 %
30.12.2017 11:51 1,7 C 3,3 C 93 % 1010,1 hPa 0,0 l/m 6,4 km/h (2 Bft) NO 45 0 min 0,000 mm 0,0 UV-I 128 W/m 0,7 C 1,7 C 8,0 km/h (2 Bft) 100,00 %
30.12.2017 11:52 1,7 C 3,3 C 93 % 1010,1 hPa 0,0 l/m 8,0 km/h (2 Bft) NO 45 0 min 0,000 mm 0,0 UV-I 127 W/m 0,7 C 0,1 C 8,0 km/h (2 Bft) 100,00 %
30.12.2017 11:53 1,7 C 3,3 C 93 % 1010,0 hPa 0,0 l/m 6,4 km/h (2 Bft) NO 45 0 min 0,000 mm 0,0 UV-I 126 W/m 0,7 C 1,7 C 8,0 km/h (2 Bft) 100,00 %
30.12.2017 11:54 1,7 C 3,3 C 93 % 1010,0 hPa 0,0 l/m 8,0 km/h (2 Bft) NO 45 0 min 0,000 mm 0,0 UV-I 125 W/m 0,7 C 0,1 C 9,7 km/h (2 Bft) 100,00 %
30.12.2017 11:55 1,7 C 3,3 C 93 % 1010,0 hPa 0,0 l/m 6,4 km/h (2 Bft) NO 45 0 min 0,000 mm 0,0 UV-I 125 W/m 0,7 C 1,7 C 8,0 km/h (2 Bft) 100,00 %
30.12.2017 11:56 1,7 C 3,3 C 93 % 1009,9 hPa 0,0 l/m 6,4 km/h (2 Bft) NO 45 0 min 0,000 mm 0,0 UV-I 127 W/m 0,7 C 1,7 C 8,0 km/h (2 Bft) 100,00 %
30.12.2017 11:57 1,7 C 3,3 C 93 % 1009,9 hPa 0,0 l/m 6,4 km/h (2 Bft) NO 45 0 min 0,000 mm 0,0 UV-I 128 W/m 0,7 C 1,7 C 8,0 km/h (2 Bft) 95,65 %
30.12.2017 11:58 1,6 C 3,3 C 93 % 1009,9 hPa 0,0 l/m 4,8 km/h (1 Bft) NO 45 0 min 0,000 mm 0,0 UV-I 130 W/m 0,6 C 1,6 C 8,0 km/h (2 Bft) 95,65 %
30.12.2017 11:59 1,6 C 3,3 C 94 % 1009,9 hPa 0,0 l/m 4,8 km/h (1 Bft) NO 45 0 min 0,000 mm 0,0 UV-I 128 W/m 0,7 C 1,6 C 6,4 km/h (2 Bft) 95,65 %
30.12.2017 12:00 1,5 C 3,3 C 93 % 1009,9 hPa 0,0 l/m 4,8 km/h (1 Bft) NO 45 0 min 0,051 mm 0,0 UV-I 128 W/m 0,5 C 1,5 C 6,4 km/h (2 Bft) 100,00 %
30.12.2017 12:01 1,5 C 3,3 C 94 % 1009,9 hPa 0,0 l/m 3,2 km/h (1 Bft) NO 45 0 min 0,000 mm 0,0 UV-I 128 W/m 0,6 C 1,5 C 4,8 km/h (1 Bft) 100,00 %
30.12.2017 12:02 1,5 C 3,3 C 94 % 1009,8 hPa 0,0 l/m 3,2 km/h (1 Bft) NO 45 0 min 0,000 mm 0,0 UV-I 130 W/m 0,6 C 1,5 C 6,4 km/h (2 Bft) 100,00 %
30.12.2017 12:03 1,5 C 3,3 C 94 % 1009,8 hPa 0,0 l/m 4,8 km/h (1 Bft) NO 45 0 min 0,000 mm 0,0 UV-I 130 W/m 0,6 C 1,5 C 6,4 km/h (2 Bft) 100,00 %
30.12.2017 12:04 1,5 C 3,3 C 94 % 1009,8 hPa 0,0 l/m 4,8 km/h (1 Bft) NO 45 0 min 0,000 mm 0,0 UV-I 130 W/m 0,6 C 1,5 C 6,4 km/h (2 Bft) 95,65 %
30.12.2017 12:05 1,5 C 3,3 C 94 % 1009,7 hPa 0,0 l/m 6,4 km/h (2 Bft) NO 45 0 min 0,000 mm 0,0 UV-I 132 W/m 0,6 C 1,5 C 9,7 km/h (2 Bft) 100,00 %
30.12.2017 12:06 1,5 C 3,3 C 94 % 1009,7 hPa 0,0 l/m 6,4 km/h (2 Bft) O-NO 67 0 min 0,000 mm 0,0 UV-I 134 W/m 0,6 C 1,5 C 9,7 km/h (2 Bft) 100,00 %
30.12.2017 12:07 1,5 C 3,3 C 94 % 1009,6 hPa 0,0 l/m 8,0 km/h (2 Bft) O-NO 67 0 min 0,000 mm 0,0 UV-I 137 W/m 0,6 C -0,1 C 11,3 km/h (2 Bft) 95,65 %
30.12.2017 12:08 1,4 C 3,3 C 94 % 1009,6 hPa 0,0 l/m 9,7 km/h (2 Bft) O-NO 67 0 min 0,000 mm 0,0 UV-I 137 W/m 0,5 C -1,7 C 14,5 km/h (3 Bft) 100,00 %
30.12.2017 12:09 1,4 C 3,3 C 94 % 1009,6 hPa 0,0 l/m 8,0 km/h (2 Bft) NO 45 0 min 0,000 mm 0,0 UV-I 139 W/m 0,5 C -0,2 C 9,7 km/h (2 Bft) 100,00 %
30.12.2017 12:10 1,4 C 3,3 C 94 % 1009,5 hPa 0,0 l/m 9,7 km/h (2 Bft) O-NO 67 0 min 0,000 mm 0,0 UV-I 139 W/m 0,5 C -1,7 C 11,3 km/h (2 Bft) 100,00 %
30.12.2017 12:11 1,4 C 3,3 C 94 % 1009,5 hPa 0,0 l/m 11,3 km/h (2 Bft) O-NO 67 0 min 0,000 mm 0,0 UV-I 141 W/m 0,5 C -2,9 C 14,5 km/h (3 Bft) 91,30 %
30.12.2017 12:12 1,4 C 3,3 C 94 % 1009,5 hPa 0,0 l/m 12,9 km/h (3 Bft) O-NO 67 0 min 0,000 mm 0,0 UV-I 142 W/m 0,5 C -4,0 C 14,5 km/h (3 Bft) 100,00 %
30.12.2017 12:13 1,4 C 3,3 C 94 % 1009,4 hPa 0,0 l/m 12,9 km/h (3 Bft) O-NO 67 0 min 0,000 mm 0,0 UV-I 142 W/m 0,5 C -4,0 C 14,5 km/h (3 Bft) 100,00 %
30.12.2017 12:14 1,4 C 3,3 C 94 % 1009,4 hPa 0,0 l/m 14,5 km/h (3 Bft) O-NO 67 0 min 0,000 mm 0,0 UV-I 144 W/m 0,5 C -5,0 C 17,7 km/h (3 Bft) 100,00 %
30.12.2017 12:15 1,4 C 3,3 C 94 % 1009,3 hPa 0,0 l/m 14,5 km/h (3 Bft) NO 45 0 min 0,000 mm 0,0 UV-I 144 W/m 0,5 C -5,0 C 17,7 km/h (3 Bft) 100,00 %
30.12.2017 12:16 1,3 C 3,3 C 94 % 1009,3 hPa 0,0 l/m 12,9 km/h (3 Bft) O-NO 67 0 min 0,000 mm 0,0 UV-I 146 W/m 0,4 C -4,1 C 16,1 km/h (3 Bft) 95,65 %
30.12.2017 12:17 1,3 C 3,3 C 94 % 1009,2 hPa 0,0 l/m 11,3 km/h (2 Bft) NO 45 0 min 0,000 mm 0,0 UV-I 148 W/m 0,4 C -3,0 C 14,5 km/h (3 Bft) 100,00 %
30.12.2017 12:18 1,3 C 3,3 C 94 % 1009,2 hPa 0,0 l/m 9,7 km/h (2 Bft) NO 45 0 min 0,000 mm 0,0 UV-I 149 W/m 0,4 C -1,8 C 14,5 km/h (3 Bft) 95,65 %
30.12.2017 12:19 1,3 C 3,3 C 94 % 1009,1 hPa 0,0 l/m 9,7 km/h (2 Bft) O-NO 67 0 min 0,000 mm 0,0 UV-I 149 W/m 0,4 C -1,8 C 11,3 km/h (2 Bft) 100,00 %
30.12.2017 12:20 1,3 C 3,3 C 94 % 1009,1 hPa 0,0 l/m 9,7 km/h (2 Bft) NO 45 0 min 0,000 mm 0,0 UV-I 148 W/m 0,4 C -1,8 C 12,9 km/h (3 Bft) 100,00 %
30.12.2017 12:21 1,3 C 3,3 C 94 % 1009,1 hPa 0,0 l/m 12,9 km/h (3 Bft) O-NO 67 0 min 0,000 mm 0,0 UV-I 148 W/m 0,4 C -4,1 C 16,1 km/h (3 Bft) 100,00 %
30.12.2017 12:22 1,3 C 3,3 C 94 % 1009,1 hPa 0,0 l/m 12,9 km/h (3 Bft) O-NO 67 0 min 0,000 mm 0,0 UV-I 146 W/m 0,4 C -4,1 C 16,1 km/h (3 Bft) 100,00 %
30.12.2017 12:23 1,2 C 3,3 C 94 % 1009,1 hPa 0,0 l/m 11,3 km/h (2 Bft) NO 45 0 min 0,000 mm 0,0 UV-I 144 W/m 0,3 C -3,1 C 17,7 km/h (3 Bft) 100,00 %
30.12.2017 12:24 1,2 C 3,3 C 94 % 1009,1 hPa 0,0 l/m 9,7 km/h (2 Bft) NO 45 0 min 0,000 mm 0,0 UV-I 141 W/m 0,3 C -1,9 C 14,5 km/h (3 Bft) 95,65 %
30.12.2017 12:25 1,2 C 3,3 C 94 % 1009,2 hPa 0,0 l/m 8,0 km/h (2 Bft) NO 45 0 min 0,000 mm 0,0 UV-I 137 W/m 0,3 C -0,4 C 12,9 km/h (3 Bft) 91,30 %
30.12.2017 12:26 1,2 C 3,3 C 94 % 1009,2 hPa 0,0 l/m 6,4 km/h (2 Bft) NO 45 0 min 0,000 mm 0,0 UV-I 135 W/m 0,3 C 1,2 C 9,7 km/h (2 Bft) 95,65 %
30.12.2017 12:27 1,2 C 3,3 C 94 % 1009,2 hPa 0,0 l/m 6,4 km/h (2 Bft) NO 45 0 min 0,000 mm 0,0 UV-I 134 W/m 0,3 C 1,2 C 6,4 km/h (2 Bft) 100,00 %
30.12.2017 12:28 1,2 C 3,3 C 94 % 1009,2 hPa 0,0 l/m 6,4 km/h (2 Bft) NO 45 0 min 0,000 mm 0,0 UV-I 134 W/m 0,3 C 1,2 C 8,0 km/h (2 Bft) 95,65 %
30.12.2017 12:29 1,2 C 3,3 C 94 % 1009,2 hPa 0,0 l/m 6,4 km/h (2 Bft) NO 45 0 min 0,000 mm 0,0 UV-I 135 W/m 0,3 C 1,2 C 9,7 km/h (2 Bft) 100,00 %
30.12.2017 12:30 1,2 C 3,3 C 94 % 1009,1 hPa 0,0 l/m 6,4 km/h (2 Bft) NO 45 0 min 0,000 mm 0,0 UV-I 139 W/m 0,3 C 1,2 C 8,0 km/h (2 Bft) 95,65 %
30.12.2017 12:31 1,2 C 3,3 C 94 % 1009,1 hPa 0,0 l/m 6,4 km/h (2 Bft) NO 45 0 min 0,000 mm 0,0 UV-I 141 W/m 0,3 C 1,2 C 8,0 km/h (2 Bft) 100,00 %
30.12.2017 12:32 1,2 C 3,3 C 94 % 1009,0 hPa 0,0 l/m 6,4 km/h (2 Bft) NO 45 0 min 0,000 mm 0,0 UV-I 142 W/m 0,3 C 1,2 C 8,0 km/h (2 Bft) 95,65 %
30.12.2017 12:33 1,2 C 3,3 C 94 % 1009,0 hPa 0,0 l/m 4,8 km/h (1 Bft) NO 45 0 min 0,000 mm 0,0 UV-I 141 W/m 0,3 C 1,2 C 8,0 km/h (2 Bft) 100,00 %
30.12.2017 12:34 1,2 C 3,3 C 94 % 1009,0 hPa 0,0 l/m 4,8 km/h (1 Bft) NO 45 0 min 0,000 mm 0,0 UV-I 134 W/m 0,3 C 1,2 C 6,4 km/h (2 Bft) 100,00 %
30.12.2017 12:35 1,2 C 3,3 C 94 % 1009,0 hPa 0,0 l/m 4,8 km/h (1 Bft) NO 45 0 min 0,000 mm 0,0 UV-I 127 W/m 0,3 C 1,2 C 6,4 km/h (2 Bft) 100,00 %
30.12.2017 12:36 1,2 C 3,3 C 94 % 1009,0 hPa 0,0 l/m 3,2 km/h (1 Bft) NO 45 0 min 0,000 mm 0,0 UV-I 123 W/m 0,3 C 1,2 C 6,4 km/h (2 Bft) 95,65 %
30.12.2017 12:37 1,2 C 3,3 C 94 % 1009,0 hPa 0,0 l/m 6,4 km/h (2 Bft) NO 45 0 min 0,000 mm 0,0 UV-I 120 W/m 0,3 C 1,2 C 8,0 km/h (2 Bft) 95,65 %
30.12.2017 12:38 1,2 C 3,3 C 94 % 1008,9 hPa 0,0 l/m 4,8 km/h (1 Bft) NO 45 0 min 0,000 mm 0,0 UV-I 118 W/m 0,3 C 1,2 C 8,0 km/h (2 Bft) 100,00 %
30.12.2017 12:39 1,2 C 3,3 C 94 % 1009,0 hPa 0,0 l/m 4,8 km/h (1 Bft) NO 45 0 min 0,000 mm 0,0 UV-I 118 W/m 0,3 C 1,2 C 6,4 km/h (2 Bft) 91,30 %
30.12.2017 12:40 1,2 C 3,3 C 94 % 1009,0 hPa 0,0 l/m 6,4 km/h (2 Bft) O-NO 67 0 min 0,000 mm 0,0 UV-I 114 W/m 0,3 C 1,2 C 8,0 km/h (2 Bft) 100,00 %
30.12.2017 12:41 1,2 C 3,3 C 94 % 1008,9 hPa 0,0 l/m 6,4 km/h (2 Bft) O-NO 67 0 min 0,000 mm 0,0 UV-I 111 W/m 0,3 C 1,2 C 8,0 km/h (2 Bft) 91,30 %
30.12.2017 12:42 1,2 C 3,3 C 94 % 1008,9 hPa 0,0 l/m 6,4 km/h (2 Bft) NO 45 0 min 0,000 mm 0,0 UV-I 109 W/m 0,3 C 1,2 C 8,0 km/h (2 Bft) 100,00 %
30.12.2017 12:43 1,2 C 3,3 C 94 % 1008,8 hPa 0,0 l/m 8,0 km/h (2 Bft) O-NO 67 0 min 0,000 mm 0,0 UV-I 107 W/m 0,3 C -0,4 C 9,7 km/h (2 Bft) 100,00 %
30.12.2017 12:44 1,2 C 3,3 C 94 % 1008,8 hPa 0,0 l/m 6,4 km/h (2 Bft) NO 45 0 min 0,000 mm 0,0 UV-I 109 W/m 0,3 C 1,2 C 9,7 km/h (2 Bft) 100,00 %
30.12.2017 12:45 1,2 C 3,3 C 94 % 1008,8 hPa 0,0 l/m 8,0 km/h (2 Bft) NO 45 0 min 0,000 mm 0,0 UV-I 113 W/m 0,3 C -0,4 C 9,7 km/h (2 Bft) 100,00 %
30.12.2017 12:46 1,2 C 3,3 C 94 % 1008,8 hPa 0,0 l/m 8,0 km/h (2 Bft) NO 45 0 min 0,000 mm 0,0 UV-I 116 W/m 0,3 C -0,4 C 9,7 km/h (2 Bft) 95,65 %
30.12.2017 12:47 1,2 C 3,3 C 94 % 1008,8 hPa 0,0 l/m 6,4 km/h (2 Bft) O-NO 67 0 min 0,000 mm 0,0 UV-I 118 W/m 0,3 C 1,2 C 8,0 km/h (2 Bft) 100,00 %
30.12.2017 12:48 1,2 C 3,3 C 94 % 1008,8 hPa 0,0 l/m 6,4 km/h (2 Bft) O-NO 67 0 min 0,000 mm 0,0 UV-I 120 W/m 0,3 C 1,2 C 8,0 km/h (2 Bft) 100,00 %
30.12.2017 12:49 1,2 C 3,3 C 94 % 1008,8 hPa 0,0 l/m 6,4 km/h (2 Bft) NO 45 0 min 0,000 mm 0,0 UV-I 120 W/m 0,3 C 1,2 C 6,4 km/h (2 Bft) 86,96 %
30.12.2017 12:50 1,2 C 3,3 C 94 % 1008,8 hPa 0,0 l/m 6,4 km/h (2 Bft) NO 45 0 min 0,000 mm 0,0 UV-I 118 W/m 0,3 C 1,2 C 9,7 km/h (2 Bft) 95,65 %
30.12.2017 12:51 1,2 C 3,3 C 94 % 1008,8 hPa 0,0 l/m 6,4 km/h (2 Bft) NO 45 0 min 0,000 mm 0,0 UV-I 123 W/m 0,3 C 1,2 C 8,0 km/h (2 Bft) 100,00 %
30.12.2017 12:52 1,2 C 3,3 C 94 % 1008,8 hPa 0,0 l/m 6,4 km/h (2 Bft) O-NO 67 0 min 0,000 mm 0,0 UV-I 134 W/m 0,3 C 1,2 C 9,7 km/h (2 Bft) 95,65 %
30.12.2017 12:53 1,2 C 3,3 C 94 % 1008,7 hPa 0,0 l/m 6,4 km/h (2 Bft) NO 45 0 min 0,000 mm 0,0 UV-I 142 W/m 0,3 C 1,2 C 9,7 km/h (2 Bft) 91,30 %
30.12.2017 12:54 1,2 C 3,3 C 94 % 1008,7 hPa 0,0 l/m 6,4 km/h (2 Bft) NO 45 0 min 0,000 mm 0,0 UV-I 142 W/m 0,3 C 1,2 C 9,7 km/h (2 Bft) 95,65 %
30.12.2017 12:55 1,2 C 3,3 C 94 % 1008,7 hPa 0,0 l/m 4,8 km/h (1 Bft) NO 45 0 min 0,000 mm 0,0 UV-I 139 W/m 0,3 C 1,2 C 6,4 km/h (2 Bft) 95,65 %
30.12.2017 12:56 1,2 C 3,3 C 94 % 1008,7 hPa 0,0 l/m 6,4 km/h (2 Bft) O-NO 67 0 min 0,000 mm 0,0 UV-I 139 W/m 0,3 C 1,2 C 8,0 km/h (2 Bft) 95,65 %
30.12.2017 12:57 1,2 C 3,3 C 94 % 1008,7 hPa 0,0 l/m 6,4 km/h (2 Bft) NO 45 0 min 0,000 mm 0,0 UV-I 144 W/m 0,3 C 1,2 C 8,0 km/h (2 Bft) 95,65 %
30.12.2017 12:58 1,2 C 3,3 C 94 % 1008,7 hPa 0,0 l/m 4,8 km/h (1 Bft) NO 45 0 min 0,000 mm 0,0 UV-I 146 W/m 0,3 C 1,2 C 8,0 km/h (2 Bft) 91,30 %
30.12.2017 12:59 1,2 C 3,3 C 94 % 1008,7 hPa 0,0 l/m 6,4 km/h (2 Bft) NO 45 0 min 0,000 mm 0,0 UV-I 144 W/m 0,3 C 1,2 C 9,7 km/h (2 Bft) 95,65 %
30.12.2017 13:00 1,2 C 3,3 C 95 % 1008,6 hPa 0,0 l/m 6,4 km/h (2 Bft) NO 45 0 min 0,051 mm 0,0 UV-I 142 W/m 0,5 C 1,2 C 8,0 km/h (2 Bft) 86,96 %
30.12.2017 13:01 1,2 C 3,3 C 95 % 1008,6 hPa 0,0 l/m 6,4 km/h (2 Bft) NO 45 0 min 0,000 mm 0,0 UV-I 144 W/m 0,5 C 1,2 C 8,0 km/h (2 Bft) 100,00 %
30.12.2017 13:02 1,2 C 3,3 C 95 % 1008,6 hPa 0,0 l/m 6,4 km/h (2 Bft) NO 45 0 min 0,000 mm 0,0 UV-I 146 W/m 0,5 C 1,2 C 6,4 km/h (2 Bft) 95,65 %
30.12.2017 13:03 1,2 C 3,3 C 95 % 1008,7 hPa 0,0 l/m 4,8 km/h (1 Bft) NO 45 0 min 0,000 mm 0,0 UV-I 149 W/m 0,5 C 1,2 C 8,0 km/h (2 Bft) 100,00 %
30.12.2017 13:04 1,2 C 3,3 C 95 % 1008,7 hPa 0,0 l/m 4,8 km/h (1 Bft) N-NO 22 0 min 0,000 mm 0,0 UV-I 151 W/m 0,5 C 1,2 C 6,4 km/h (2 Bft) 91,30 %
30.12.2017 13:05 1,2 C 3,3 C 95 % 1008,7 hPa 0,0 l/m 4,8 km/h (1 Bft) N-NO 22 0 min 0,000 mm 0,0 UV-I 153 W/m 0,5 C 1,2 C 4,8 km/h (1 Bft) 100,00 %
30.12.2017 13:06 1,2 C 3,3 C 94 % 1008,8 hPa 0,0 l/m 4,8 km/h (1 Bft) N-NO 22 0 min 0,000 mm 0,0 UV-I 155 W/m 0,3 C 1,2 C 6,4 km/h (2 Bft) 91,30 %
30.12.2017 13:07 1,3 C 3,3 C 94 % 1008,8 hPa 0,0 l/m 6,4 km/h (2 Bft) N-NO 22 0 min 0,000 mm 0,0 UV-I 163 W/m 0,4 C 1,3 C 9,7 km/h (2 Bft) 91,30 %
30.12.2017 13:08 1,2 C 3,3 C 94 % 1008,7 hPa 0,0 l/m 6,4 km/h (2 Bft) N-NO 22 1 min 0,000 mm 0,0 UV-I 172 W/m 0,3 C 1,2 C 8,0 km/h (2 Bft) 95,65 %
30.12.2017 13:09 1,2 C 3,3 C 94 % 1008,7 hPa 0,0 l/m 6,4 km/h (2 Bft) NO 45 1 min 0,000 mm 0,0 UV-I 173 W/m 0,3 C 1,2 C 9,7 km/h (2 Bft) 86,96 %
30.12.2017 13:10 1,2 C 3,3 C 94 % 1008,7 hPa 0,0 l/m 6,4 km/h (2 Bft) NO 45 1 min 0,000 mm 0,0 UV-I 172 W/m 0,3 C 1,2 C 8,0 km/h (2 Bft) 100,00 %
30.12.2017 13:11 1,2 C 3,3 C 94 % 1008,7 hPa 0,0 l/m 6,4 km/h (2 Bft) N-NO 22 1 min 0,000 mm 0,0 UV-I 171 W/m 0,3 C 1,2 C 9,7 km/h (2 Bft) 91,30 %
30.12.2017 13:12 1,3 C 3,3 C 94 % 1008,7 hPa 0,0 l/m 6,4 km/h (2 Bft) NO 45 1 min 0,000 mm 0,0 UV-I 174 W/m 0,4 C 1,3 C 8,0 km/h (2 Bft) 95,65 %
30.12.2017 13:13 1,3 C 3,3 C 94 % 1008,7 hPa 0,0 l/m 6,4 km/h (2 Bft) NO 45 1 min 0,000 mm 0,0 UV-I 181 W/m 0,4 C 1,3 C 8,0 km/h (2 Bft) 91,30 %
30.12.2017 13:14 1,3 C 3,3 C 94 % 1008,8 hPa 0,0 l/m 6,4 km/h (2 Bft) N-NO 22 1 min 0,000 mm 0,0 UV-I 183 W/m 0,4 C 1,3 C 6,4 km/h (2 Bft) 95,65 %
30.12.2017 13:15 1,3 C 3,3 C 94 % 1008,7 hPa 0,0 l/m 4,8 km/h (1 Bft) N-NO 22 1 min 0,000 mm 0,0 UV-I 179 W/m 0,4 C 1,3 C 6,4 km/h (2 Bft) 91,30 %
30.12.2017 13:16 1,3 C 3,3 C 94 % 1008,8 hPa 0,0 l/m 4,8 km/h (1 Bft) N-NO 22 1 min 0,000 mm 0,0 UV-I 172 W/m 0,4 C 1,3 C 6,4 km/h (2 Bft) 95,65 %
30.12.2017 13:17 1,3 C 3,3 C 94 % 1008,8 hPa 0,0 l/m 4,8 km/h (1 Bft) N-NO 22 1 min 0,000 mm 0,0 UV-I 169 W/m 0,4 C 1,3 C 6,4 km/h (2 Bft) 91,30 %
30.12.2017 13:18 1,3 C 3,3 C 94 % 1008,8 hPa 0,0 l/m 3,2 km/h (1 Bft) N-NO 22 1 min 0,000 mm 0,0 UV-I 165 W/m 0,4 C 1,3 C 6,4 km/h (2 Bft) 95,65 %
30.12.2017 13:19 1,3 C 3,3 C 94 % 1008,8 hPa 0,0 l/m 4,8 km/h (1 Bft) N-NO 22 0 min 0,000 mm 0,0 UV-I 160 W/m 0,4 C 1,3 C 6,4 km/h (2 Bft) 100,00 %
30.12.2017 13:20 1,3 C 3,3 C 94 % 1008,8 hPa 0,0 l/m 4,8 km/h (1 Bft) N-NO 22 0 min 0,000 mm 0,0 UV-I 152 W/m 0,4 C 1,3 C 8,0 km/h (2 Bft) 95,65 %
30.12.2017 13:21 1,3 C 3,3 C 94 % 1008,7 hPa 0,0 l/m 3,2 km/h (1 Bft) N-NO 22 0 min 0,000 mm 0,0 UV-I 146 W/m 0,4 C 1,3 C 6,4 km/h (2 Bft) 95,65 %
30.12.2017 13:22 1,4 C 3,3 C 94 % 1008,8 hPa 0,0 l/m 8,0 km/h (2 Bft) N-NO 22 0 min 0,000 mm 0,0 UV-I 146 W/m 0,5 C -0,2 C 8,0 km/h (2 Bft) 95,65 %
30.12.2017 13:23 1,4 C 3,3 C 94 % 1008,8 hPa 0,0 l/m 6,4 km/h (2 Bft) N-NO 22 0 min 0,000 mm 0,0 UV-I 146 W/m 0,5 C 1,4 C 8,0 km/h (2 Bft) 91,30 %
30.12.2017 13:24 1,4 C 3,3 C 94 % 1008,8 hPa 0,0 l/m 3,2 km/h (1 Bft) N-NO 22 0 min 0,000 mm 0,0 UV-I 142 W/m 0,5 C 1,4 C 6,4 km/h (2 Bft) 100,00 %
30.12.2017 13:25 1,4 C 3,3 C 94 % 1008,7 hPa 0,0 l/m 3,2 km/h (1 Bft) N-NO 22 0 min 0,000 mm 0,0 UV-I 139 W/m 0,5 C 1,4 C 4,8 km/h (1 Bft) 95,65 %
30.12.2017 13:26 1,4 C 3,3 C 94 % 1008,8 hPa 0,0 l/m 4,8 km/h (1 Bft) N-NO 22 0 min 0,000 mm 0,0 UV-I 135 W/m 0,5 C 1,4 C 8,0 km/h (2 Bft) 100,00 %
30.12.2017 13:27 1,4 C 3,3 C 94 % 1008,8 hPa 0,0 l/m 4,8 km/h (1 Bft) N-NO 22 0 min 0,000 mm 0,0 UV-I 128 W/m 0,5 C 1,4 C 8,0 km/h (2 Bft) 95,65 %
30.12.2017 13:28 1,5 C 3,3 C 94 % 1008,8 hPa 0,0 l/m 0,0 km/h (0 Bft) N-NO 22 0 min 0,000 mm 0,0 UV-I 125 W/m 0,6 C 1,5 C 1,6 km/h (1 Bft) 95,65 %
30.12.2017 13:29 1,6 C 3,3 C 94 % 1008,7 hPa 0,0 l/m 0,0 km/h (0 Bft) N-NO 22 0 min 0,000 mm 0,0 UV-I 123 W/m 0,7 C 1,6 C 1,6 km/h (1 Bft) 95,65 %
30.12.2017 13:30 1,6 C 3,3 C 94 % 1008,7 hPa 0,0 l/m 0,0 km/h (0 Bft) N-NO 22 0 min 0,000 mm 0,0 UV-I 123 W/m 0,7 C 1,6 C 1,6 km/h (1 Bft) 100,00 %
30.12.2017 13:31 1,6 C 3,3 C 94 % 1008,8 hPa 0,0 l/m 0,0 km/h (0 Bft) N-NO 22 0 min 0,000 mm 0,0 UV-I 123 W/m 0,7 C 1,6 C 1,6 km/h (1 Bft) 100,00 %
30.12.2017 13:32 1,6 C 3,3 C 94 % 1008,7 hPa 0,0 l/m 1,6 km/h (1 Bft) N-NO 22 0 min 0,000 mm 0,0 UV-I 121 W/m 0,7 C 1,6 C 3,2 km/h (1 Bft) 100,00 %
30.12.2017 13:33 1,6 C 3,3 C 94 % 1008,6 hPa 0,0 l/m 1,6 km/h (1 Bft) N-NO 22 0 min 0,000 mm 0,0 UV-I 121 W/m 0,7 C 1,6 C 3,2 km/h (1 Bft) 95,65 %
30.12.2017 13:34 1,6 C 3,3 C 94 % 1008,6 hPa 0,0 l/m 1,6 km/h (1 Bft) N-NO 22 0 min 0,000 mm 0,0 UV-I 123 W/m 0,7 C 1,6 C 3,2 km/h (1 Bft) 100,00 %
30.12.2017 13:35 1,5 C 3,3 C 94 % 1008,6 hPa 0,0 l/m 1,6 km/h (1 Bft) N-NO 22 0 min 0,000 mm 0,0 UV-I 123 W/m 0,6 C 1,5 C 3,2 km/h (1 Bft) 95,65 %
30.12.2017 13:36 1,4 C 3,3 C 93 % 1008,6 hPa 0,0 l/m 1,6 km/h (1 Bft) N-NO 22 0 min 0,000 mm 0,0 UV-I 120 W/m 0,4 C 1,4 C 3,2 km/h (1 Bft) 100,00 %
30.12.2017 13:37 1,4 C 3,3 C 94 % 1008,6 hPa 0,0 l/m 1,6 km/h (1 Bft) N-NO 22 0 min 0,000 mm 0,0 UV-I 120 W/m 0,5 C 1,4 C 3,2 km/h (1 Bft) 100,00 %
30.12.2017 13:38 1,4 C 3,3 C 94 % 1008,5 hPa 0,0 l/m 1,6 km/h (1 Bft) N-NO 22 0 min 0,000 mm 0,0 UV-I 121 W/m 0,5 C 1,4 C 6,4 km/h (2 Bft) 95,65 %
30.12.2017 13:39 1,4 C 3,3 C 94 % 1008,5 hPa 0,0 l/m 0,0 km/h (0 Bft) N-NO 22 0 min 0,000 mm 0,0 UV-I 120 W/m 0,5 C 1,4 C 1,6 km/h (1 Bft) 100,00 %
30.12.2017 13:40 1,3 C 3,3 C 94 % 1008,5 hPa 0,0 l/m 0,0 km/h (0 Bft) N-NO 22 0 min 0,000 mm 0,0 UV-I 123 W/m 0,4 C 1,3 C 1,6 km/h (1 Bft) 100,00 %
30.12.2017 13:41 1,3 C 3,3 C 94 % 1008,5 hPa 0,0 l/m 0,0 km/h (0 Bft) N-NO 22 0 min 0,000 mm 0,0 UV-I 125 W/m 0,4 C 1,3 C 1,6 km/h (1 Bft) 95,65 %
30.12.2017 13:42 1,3 C 3,3 C 94 % 1008,5 hPa 0,0 l/m 0,0 km/h (0 Bft) N-NO 22 0 min 0,000 mm 0,0 UV-I 132 W/m 0,4 C 1,3 C 1,6 km/h (1 Bft) 95,65 %
30.12.2017 13:43 1,4 C 3,3 C 94 % 1008,5 hPa 0,0 l/m 0,0 km/h (0 Bft) N 0 0 min 0,000 mm 0,0 UV-I 141 W/m 0,5 C 1,4 C 0,0 km/h (0 Bft) 100,00 %
30.12.2017 13:44 1,4 C 3,3 C 94 % 1008,5 hPa 0,0 l/m 0,0 km/h (0 Bft) N 0 1 min 0,000 mm 0,0 UV-I 151 W/m 0,5 C 1,4 C 0,0 km/h (0 Bft) 100,00 %
30.12.2017 13:45 1,4 C 3,3 C 94 % 1008,5 hPa 0,0 l/m 3,2 km/h (1 Bft) N-NO 22 1 min 0,000 mm 0,0 UV-I 158 W/m 0,5 C 1,4 C 3,2 km/h (1 Bft) 100,00 %
30.12.2017 13:46 1,4 C 3,3 C 94 % 1008,5 hPa 0,0 l/m 1,6 km/h (1 Bft) N-NO 22 1 min 0,000 mm 0,0 UV-I 156 W/m 0,5 C 1,4 C 3,2 km/h (1 Bft) 100,00 %
30.12.2017 13:47 1,5 C 3,3 C 94 % 1008,5 hPa 0,0 l/m 0,0 km/h (0 Bft) N-NO 22 1 min 0,000 mm 0,0 UV-I 151 W/m 0,6 C 1,5 C 1,6 km/h (1 Bft) 100,00 %
30.12.2017 13:48 1,6 C 3,3 C 94 % 1008,5 hPa 0,0 l/m 1,6 km/h (1 Bft) N-NO 22 0 min 0,000 mm 0,0 UV-I 146 W/m 0,7 C 1,6 C 3,2 km/h (1 Bft) 100,00 %
30.12.2017 13:49 1,6 C 3,3 C 94 % 1008,6 hPa 0,0 l/m 1,6 km/h (1 Bft) N-NO 22 1 min 0,000 mm 0,0 UV-I 149 W/m 0,7 C 1,6 C 3,2 km/h (1 Bft) 95,65 %
30.12.2017 13:50 1,6 C 3,3 C 94 % 1008,5 hPa 0,0 l/m 1,6 km/h (1 Bft) N-NO 22 1 min 0,000 mm 0,0 UV-I 159 W/m 0,7 C 1,6 C 1,6 km/h (1 Bft) 100,00 %
30.12.2017 13:51 1,7 C 3,3 C 94 % 1008,6 hPa 0,0 l/m 0,0 km/h (0 Bft) N-NO 22 1 min 0,000 mm 0,0 UV-I 160 W/m 0,8 C 1,7 C 1,6 km/h (1 Bft) 100,00 %
30.12.2017 13:52 1,7 C 3,3 C 94 % 1008,6 hPa 0,0 l/m 1,6 km/h (1 Bft) N-NO 22 1 min 0,000 mm 0,0 UV-I 148 W/m 0,8 C 1,7 C 3,2 km/h (1 Bft) 95,65 %
30.12.2017 13:53 1,7 C 3,3 C 94 % 1008,6 hPa 0,0 l/m 0,0 km/h (0 Bft) N-NO 22 0 min 0,000 mm 0,0 UV-I 142 W/m 0,8 C 1,7 C 1,6 km/h (1 Bft) 91,30 %
30.12.2017 13:54 1,7 C 3,3 C 94 % 1008,5 hPa 0,0 l/m 0,0 km/h (0 Bft) N-NO 22 1 min 0,000 mm 0,0 UV-I 146 W/m 0,8 C 1,7 C 1,6 km/h (1 Bft) 100,00 %
30.12.2017 13:55 1,7 C 3,3 C 94 % 1008,6 hPa 0,0 l/m 0,0 km/h (0 Bft) N 0 1 min 0,000 mm 0,0 UV-I 148 W/m 0,8 C 1,7 C 0,0 km/h (0 Bft) 100,00 %
30.12.2017 13:56 1,7 C 3,3 C 94 % 1008,5 hPa 0,0 l/m 0,0 km/h (0 Bft) N-NO 22 1 min 0,000 mm 0,0 UV-I 144 W/m 0,8 C 1,7 C 1,6 km/h (1 Bft) 91,30 %
30.12.2017 13:57 1,7 C 3,3 C 93 % 1008,7 hPa 0,0 l/m 0,0 km/h (0 Bft) N 0 1 min 0,000 mm 0,0 UV-I 148 W/m 0,7 C 1,7 C 0,0 km/h (0 Bft) 100,00 %
30.12.2017 13:58 1,7 C 3,3 C 93 % 1008,6 hPa 0,0 l/m 0,0 km/h (0 Bft) N 0 1 min 0,000 mm 0,0 UV-I 148 W/m 0,7 C 1,7 C 0,0 km/h (0 Bft) 100,00 %
30.12.2017 13:59 1,7 C 3,3 C 94 % 1008,7 hPa 0,0 l/m 0,0 km/h (0 Bft) N 0 1 min 0,000 mm 0,0 UV-I 141 W/m 0,8 C 1,7 C 0,0 km/h (0 Bft) 100,00 %
30.12.2017 14:00 1,7 C 3,3 C 94 % 1008,7 hPa 0,0 l/m 0,0 km/h (0 Bft) N 0 1 min 0,051 mm 0,0 UV-I 142 W/m 0,8 C 1,7 C 0,0 km/h (0 Bft) 100,00 %
30.12.2017 14:01 1,6 C 3,3 C 94 % 1008,7 hPa 0,0 l/m 0,0 km/h (0 Bft) N-NO 22 1 min 0,000 mm 0,0 UV-I 143 W/m 0,7 C 1,6 C 1,6 km/h (1 Bft) 100,00 %
30.12.2017 14:02 1,6 C 3,3 C 94 % 1008,6 hPa 0,0 l/m 0,0 km/h (0 Bft) N 0 1 min 0,000 mm 0,0 UV-I 139 W/m 0,7 C 1,6 C 0,0 km/h (0 Bft) 95,65 %
30.12.2017 14:03 1,6 C 3,3 C 93 % 1008,6 hPa 0,0 l/m 0,0 km/h (0 Bft) N-NO 22 0 min 0,000 mm 0,0 UV-I 134 W/m 0,6 C 1,6 C 1,6 km/h (1 Bft) 95,65 %
30.12.2017 14:04 1,6 C 3,3 C 94 % 1008,5 hPa 0,0 l/m 1,6 km/h (1 Bft) N-NO 22 0 min 0,000 mm 0,0 UV-I 134 W/m 0,7 C 1,6 C 3,2 km/h (1 Bft) 100,00 %
30.12.2017 14:05 1,5 C 3,3 C 94 % 1008,7 hPa 0,0 l/m 1,6 km/h (1 Bft) N-NO 22 0 min 0,000 mm 0,0 UV-I 134 W/m 0,6 C 1,5 C 3,2 km/h (1 Bft) 100,00 %
30.12.2017 14:06 1,5 C 3,3 C 94 % 1008,7 hPa 0,0 l/m 0,0 km/h (0 Bft) N-NO 22 0 min 0,000 mm 0,0 UV-I 135 W/m 0,6 C 1,5 C 1,6 km/h (1 Bft) 100,00 %
30.12.2017 14:07 1,5 C 3,3 C 94 % 1008,6 hPa 0,0 l/m 0,0 km/h (0 Bft) N-NO 22 1 min 0,000 mm 0,0 UV-I 138 W/m 0,6 C 1,5 C 1,6 km/h (1 Bft) 100,00 %
30.12.2017 14:08 1,5 C 3,3 C 94 % 1008,6 hPa 0,0 l/m 0,0 km/h (0 Bft) N 0 0 min 0,000 mm 0,0 UV-I 128 W/m 0,6 C 1,5 C 0,0 km/h (0 Bft) 95,65 %
30.12.2017 14:09 1,5 C 3,3 C 94 % 1008,5 hPa 0,0 l/m 1,6 km/h (1 Bft) N-NO 22 0 min 0,000 mm 0,0 UV-I 118 W/m 0,6 C 1,5 C 6,4 km/h (2 Bft) 100,00 %
30.12.2017 14:10 1,5 C 3,3 C 94 % 1008,5 hPa 0,0 l/m 3,2 km/h (1 Bft) N-NO 22 0 min 0,000 mm 0,0 UV-I 113 W/m 0,6 C 1,5 C 4,8 km/h (1 Bft) 91,30 %
30.12.2017 14:11 1,6 C 3,3 C 94 % 1008,5 hPa 0,0 l/m 1,6 km/h (1 Bft) N-NO 22 0 min 0,000 mm 0,0 UV-I 109 W/m 0,7 C 1,6 C 3,2 km/h (1 Bft) 100,00 %
30.12.2017 14:12 1,5 C 3,3 C 94 % 1008,5 hPa 0,0 l/m 1,6 km/h (1 Bft) N-NO 22 0 min 0,000 mm 0,0 UV-I 109 W/m 0,6 C 1,5 C 3,2 km/h (1 Bft) 100,00 %
30.12.2017 14:13 1,5 C 3,3 C 94 % 1008,5 hPa 0,0 l/m 0,0 km/h (0 Bft) N 0 0 min 0,000 mm 0,0 UV-I 109 W/m 0,6 C 1,5 C 0,0 km/h (0 Bft) 100,00 %
30.12.2017 14:14 1,6 C 3,3 C 94 % 1008,5 hPa 0,0 l/m 0,0 km/h (0 Bft) N-NO 22 0 min 0,000 mm 0,0 UV-I 107 W/m 0,7 C 1,6 C 1,6 km/h (1 Bft) 100,00 %
30.12.2017 14:15 1,5 C 3,3 C 94 % 1008,5 hPa 0,0 l/m 0,0 km/h (0 Bft) N-NO 22 0 min 0,000 mm 0,0 UV-I 107 W/m 0,6 C 1,5 C 3,2 km/h (1 Bft) 100,00 %
30.12.2017 14:16 1,6 C 3,3 C 94 % 1008,5 hPa 0,0 l/m 3,2 km/h (1 Bft) N-NO 22 0 min 0,000 mm 0,0 UV-I 105 W/m 0,7 C 1,6 C 4,8 km/h (1 Bft) 95,65 %
30.12.2017 14:17 1,6 C 3,3 C 94 % 1008,5 hPa 0,0 l/m 4,8 km/h (1 Bft) N-NO 22 0 min 0,000 mm 0,0 UV-I 107 W/m 0,7 C 1,6 C 6,4 km/h (2 Bft) 91,30 %
30.12.2017 14:18 1,6 C 3,3 C 94 % 1008,4 hPa 0,0 l/m 6,4 km/h (2 Bft) NO 45 0 min 0,000 mm 0,0 UV-I 109 W/m 0,7 C 1,6 C 8,0 km/h (2 Bft) 100,00 %
30.12.2017 14:19 1,6 C 3,3 C 94 % 1008,4 hPa 0,0 l/m 6,4 km/h (2 Bft) NO 45 0 min 0,000 mm 0,0 UV-I 107 W/m 0,7 C 1,6 C 8,0 km/h (2 Bft) 100,00 %
30.12.2017 14:20 1,6 C 3,3 C 94 % 1008,4 hPa 0,0 l/m 8,0 km/h (2 Bft) NO 45 0 min 0,000 mm 0,0 UV-I 104 W/m 0,7 C 0,0 C 9,7 km/h (2 Bft) 100,00 %
30.12.2017 14:21 1,5 C 3,3 C 94 % 1008,3 hPa 0,0 l/m 6,4 km/h (2 Bft) NO 45 0 min 0,000 mm 0,0 UV-I 102 W/m 0,6 C 1,5 C 8,0 km/h (2 Bft) 100,00 %
30.12.2017 14:22 1,5 C 3,3 C 94 % 1008,4 hPa 0,0 l/m 4,8 km/h (1 Bft) NO 45 0 min 0,000 mm 0,0 UV-I 100 W/m 0,6 C 1,5 C 8,0 km/h (2 Bft) 100,00 %
30.12.2017 14:23 1,5 C 3,3 C 94 % 1008,4 hPa 0,0 l/m 3,2 km/h (1 Bft) NO 45 0 min 0,000 mm 0,0 UV-I 97 W/m 0,6 C 1,5 C 4,8 km/h (1 Bft) 100,00 %
30.12.2017 14:24 1,4 C 3,3 C 94 % 1008,4 hPa 0,0 l/m 3,2 km/h (1 Bft) NO 45 0 min 0,000 mm 0,0 UV-I 91 W/m 0,5 C 1,4 C 4,8 km/h (1 Bft) 95,65 %
30.12.2017 14:25 1,4 C 3,3 C 94 % 1008,4 hPa 0,0 l/m 3,2 km/h (1 Bft) NO 45 0 min 0,000 mm 0,0 UV-I 83 W/m 0,5 C 1,4 C 4,8 km/h (1 Bft) 100,00 %
30.12.2017 14:26 1,4 C 3,3 C 94 % 1008,4 hPa 0,0 l/m 1,6 km/h (1 Bft) NO 45 0 min 0,000 mm 0,0 UV-I 76 W/m 0,5 C 1,4 C 3,2 km/h (1 Bft) 100,00 %
30.12.2017 14:27 1,4 C 3,3 C 94 % 1008,5 hPa 0,0 l/m 1,6 km/h (1 Bft) NO 45 0 min 0,000 mm 0,0 UV-I 72 W/m 0,5 C 1,4 C 3,2 km/h (1 Bft) 100,00 %
30.12.2017 14:28 1,4 C 3,3 C 94 % 1008,5 hPa 0,0 l/m 3,2 km/h (1 Bft) NO 45 0 min 0,000 mm 0,0 UV-I 69 W/m 0,5 C 1,4 C 4,8 km/h (1 Bft) 100,00 %
30.12.2017 14:29 1,4 C 3,3 C 94 % 1008,4 hPa 0,0 l/m 1,6 km/h (1 Bft) NO 45 0 min 0,000 mm 0,0 UV-I 65 W/m 0,5 C 1,4 C 3,2 km/h (1 Bft) 100,00 %
30.12.2017 14:30 1,4 C 3,3 C 94 % 1008,4 hPa 0,0 l/m 0,0 km/h (0 Bft) NO 45 0 min 0,000 mm 0,0 UV-I 63 W/m 0,5 C 1,4 C 1,6 km/h (1 Bft) 95,65 %
30.12.2017 14:31 1,4 C 3,3 C 94 % 1008,4 hPa 0,0 l/m 0,0 km/h (0 Bft) NO 45 0 min 0,000 mm 0,0 UV-I 67 W/m 0,5 C 1,4 C 1,6 km/h (1 Bft) 95,65 %
30.12.2017 14:32 1,3 C 3,3 C 94 % 1008,4 hPa 0,0 l/m 3,2 km/h (1 Bft) NO 45 0 min 0,000 mm 0,0 UV-I 70 W/m 0,4 C 1,3 C 4,8 km/h (1 Bft) 95,65 %
30.12.2017 14:33 1,3 C 3,3 C 94 % 1008,3 hPa 0,0 l/m 4,8 km/h (1 Bft) NO 45 0 min 0,000 mm 0,0 UV-I 69 W/m 0,4 C 1,3 C 6,4 km/h (2 Bft) 100,00 %
30.12.2017 14:34 1,3 C 3,3 C 94 % 1008,4 hPa 0,0 l/m 4,8 km/h (1 Bft) NO 45 0 min 0,000 mm 0,0 UV-I 70 W/m 0,4 C 1,3 C 4,8 km/h (1 Bft) 95,65 %
30.12.2017 14:35 1,3 C 3,3 C 94 % 1008,3 hPa 0,0 l/m 6,4 km/h (2 Bft) NO 45 0 min 0,000 mm 0,0 UV-I 70 W/m 0,4 C 1,3 C 8,0 km/h (2 Bft) 100,00 %
30.12.2017 14:36 1,3 C 3,3 C 94 % 1008,2 hPa 0,0 l/m 8,0 km/h (2 Bft) NO 45 0 min 0,000 mm 0,0 UV-I 74 W/m 0,4 C -0,3 C 8,0 km/h (2 Bft) 95,65 %
30.12.2017 14:37 1,3 C 3,3 C 94 % 1008,1 hPa 0,0 l/m 6,4 km/h (2 Bft) NO 45 0 min 0,000 mm 0,0 UV-I 73 W/m 0,4 C 1,3 C 8,0 km/h (2 Bft) 100,00 %
30.12.2017 14:38 1,3 C 3,3 C 94 % 1008,1 hPa 0,0 l/m 6,4 km/h (2 Bft) N-NO 22 0 min 0,000 mm 0,0 UV-I 69 W/m 0,4 C 1,3 C 8,0 km/h (2 Bft) 91,30 %
30.12.2017 14:39 1,3 C 3,3 C 94 % 1008,1 hPa 0,0 l/m 4,8 km/h (1 Bft) N-NO 22 0 min 0,000 mm 0,0 UV-I 67 W/m 0,4 C 1,3 C 8,0 km/h (2 Bft) 100,00 %
30.12.2017 14:40 1,3 C 3,3 C 94 % 1008,2 hPa 0,0 l/m 4,8 km/h (1 Bft) N-NO 22 0 min 0,000 mm 0,0 UV-I 67 W/m 0,4 C 1,3 C 4,8 km/h (1 Bft) 95,65 %
30.12.2017 14:41 1,3 C 3,3 C 94 % 1008,2 hPa 0,0 l/m 3,2 km/h (1 Bft) N-NO 22 0 min 0,000 mm 0,0 UV-I 65 W/m 0,4 C 1,3 C 4,8 km/h (1 Bft) 100,00 %
30.12.2017 14:42 1,3 C 3,3 C 94 % 1008,2 hPa 0,0 l/m 1,6 km/h (1 Bft) N-NO 22 0 min 0,000 mm 0,0 UV-I 64 W/m 0,4 C 1,3 C 3,2 km/h (1 Bft) 91,30 %
30.12.2017 14:43 1,3 C 3,3 C 95 % 1008,2 hPa 0,0 l/m 4,8 km/h (1 Bft) N-NO 22 0 min 0,000 mm 0,0 UV-I 60 W/m 0,6 C 1,3 C 4,8 km/h (1 Bft) 100,00 %
30.12.2017 14:44 1,3 C 3,3 C 95 % 1008,2 hPa 0,0 l/m 4,8 km/h (1 Bft) N-NO 22 0 min 0,000 mm 0,0 UV-I 58 W/m 0,6 C 1,3 C 6,4 km/h (2 Bft) 95,65 %
30.12.2017 14:45 1,3 C 3,3 C 95 % 1008,2 hPa 0,0 l/m 4,8 km/h (1 Bft) N-NO 22 0 min 0,000 mm 0,0 UV-I 56 W/m 0,6 C 1,3 C 6,4 km/h (2 Bft) 91,30 %
30.12.2017 14:46 1,3 C 3,3 C 94 % 1008,2 hPa 0,0 l/m 4,8 km/h (1 Bft) N-NO 22 0 min 0,000 mm 0,0 UV-I 54 W/m 0,4 C 1,3 C 6,4 km/h (2 Bft) 100,00 %
30.12.2017 14:47 1,3 C 3,3 C 95 % 1008,3 hPa 0,0 l/m 3,2 km/h (1 Bft) N-NO 22 0 min 0,000 mm 0,0 UV-I 54 W/m 0,6 C 1,3 C 4,8 km/h (1 Bft) 95,65 %
30.12.2017 14:48 1,3 C 3,3 C 95 % 1008,2 hPa 0,0 l/m 4,8 km/h (1 Bft) N-NO 22 0 min 0,000 mm 0,0 UV-I 51 W/m 0,6 C 1,3 C 6,4 km/h (2 Bft) 100,00 %
30.12.2017 14:49 1,3 C 3,3 C 95 % 1008,2 hPa 0,0 l/m 4,8 km/h (1 Bft) N-NO 22 0 min 0,000 mm 0,0 UV-I 49 W/m 0,6 C 1,3 C 6,4 km/h (2 Bft) 95,65 %
30.12.2017 14:50 1,3 C 3,3 C 95 % 1008,2 hPa 0,0 l/m 4,8 km/h (1 Bft) N-NO 22 0 min 0,000 mm 0,0 UV-I 49 W/m 0,6 C 1,3 C 6,4 km/h (2 Bft) 95,65 %
30.12.2017 14:51 1,3 C 3,3 C 95 % 1008,2 hPa 0,0 l/m 4,8 km/h (1 Bft) N-NO 22 0 min 0,000 mm 0,0 UV-I 47 W/m 0,6 C 1,3 C 6,4 km/h (2 Bft) 95,65 %
30.12.2017 14:52 1,3 C 3,3 C 95 % 1008,2 hPa 0,0 l/m 3,2 km/h (1 Bft) N-NO 22 0 min 0,000 mm 0,0 UV-I 46 W/m 0,6 C 1,3 C 6,4 km/h (2 Bft) 95,65 %
30.12.2017 14:53 1,3 C 3,3 C 95 % 1008,3 hPa 0,0 l/m 1,6 km/h (1 Bft) N-NO 22 0 min 0,000 mm 0,0 UV-I 46 W/m 0,6 C 1,3 C 4,8 km/h (1 Bft) 95,65 %
30.12.2017 14:54 1,3 C 3,3 C 95 % 1008,3 hPa 0,0 l/m 0,0 km/h (0 Bft) N-NO 22 0 min 0,000 mm 0,0 UV-I 43 W/m 0,6 C 1,3 C 1,6 km/h (1 Bft) 100,00 %
30.12.2017 14:55 1,3 C 3,3 C 95 % 1008,3 hPa 0,0 l/m 1,6 km/h (1 Bft) N-NO 22 0 min 0,000 mm 0,0 UV-I 42 W/m 0,6 C 1,3 C 4,8 km/h (1 Bft) 91,30 %
30.12.2017 14:56 1,3 C 3,3 C 95 % 1008,2 hPa 0,0 l/m 6,4 km/h (2 Bft) N-NO 22 0 min 0,000 mm 0,0 UV-I 42 W/m 0,6 C 1,3 C 8,0 km/h (2 Bft) 100,00 %
30.12.2017 14:57 1,3 C 3,3 C 95 % 1008,1 hPa 0,0 l/m 8,0 km/h (2 Bft) N-NO 22 0 min 0,000 mm 0,0 UV-I 44 W/m 0,6 C -0,3 C 11,3 km/h (2 Bft) 100,00 %
30.12.2017 14:58 1,3 C 3,3 C 95 % 1008,1 hPa 0,0 l/m 3,2 km/h (1 Bft) N-NO 22 0 min 0,000 mm 0,0 UV-I 44 W/m 0,6 C 1,3 C 6,4 km/h (2 Bft) 100,00 %
30.12.2017 14:59 1,2 C 3,3 C 95 % 1008,2 hPa 0,0 l/m 1,6 km/h (1 Bft) N-NO 22 0 min 0,000 mm 0,0 UV-I 42 W/m 0,5 C 1,2 C 3,2 km/h (1 Bft) 95,65 %
30.12.2017 15:00 1,2 C 3,3 C 95 % 1008,3 hPa 0,0 l/m 1,6 km/h (1 Bft) N-NO 22 0 min 0,025 mm 0,0 UV-I 45 W/m 0,5 C 1,2 C 4,8 km/h (1 Bft) 95,65 %
30.12.2017 15:01 1,2 C 3,3 C 95 % 1008,3 hPa 0,0 l/m 3,2 km/h (1 Bft) N-NO 22 0 min 0,000 mm 0,0 UV-I 49 W/m 0,5 C 1,2 C 4,8 km/h (1 Bft) 95,65 %
30.12.2017 15:02 1,2 C 3,3 C 95 % 1008,3 hPa 0,0 l/m 1,6 km/h (1 Bft) N-NO 22 0 min 0,000 mm 0,0 UV-I 51 W/m 0,5 C 1,2 C 3,2 km/h (1 Bft) 91,30 %
30.12.2017 15:03 1,2 C 3,3 C 95 % 1008,3 hPa 0,0 l/m 1,6 km/h (1 Bft) N-NO 22 0 min 0,000 mm 0,0 UV-I 53 W/m 0,5 C 1,2 C 3,2 km/h (1 Bft) 100,00 %
30.12.2017 15:04 1,3 C 3,3 C 95 % 1008,1 hPa 0,0 l/m 3,2 km/h (1 Bft) N-NO 22 0 min 0,000 mm 0,0 UV-I 54 W/m 0,6 C 1,3 C 4,8 km/h (1 Bft) 95,65 %
30.12.2017 15:05 1,3 C 3,3 C 95 % 1008,1 hPa 0,0 l/m 3,2 km/h (1 Bft) N-NO 22 0 min 0,000 mm 0,0 UV-I 54 W/m 0,6 C 1,3 C 4,8 km/h (1 Bft) 100,00 %
30.12.2017 15:06 1,3 C 3,3 C 95 % 1008,3 hPa 0,0 l/m 3,2 km/h (1 Bft) S 180 0 min 0,000 mm 0,0 UV-I 54 W/m 0,6 C 1,3 C 6,4 km/h (2 Bft) 91,30 %
30.12.2017 15:07 1,3 C 3,3 C 95 % 1008,3 hPa 0,0 l/m 4,8 km/h (1 Bft) S 180 0 min 0,000 mm 0,0 UV-I 51 W/m 0,6 C 1,3 C 6,4 km/h (2 Bft) 91,30 %
30.12.2017 15:08 1,3 C 3,3 C 95 % 1008,3 hPa 0,0 l/m 3,2 km/h (1 Bft) S 180 0 min 0,000 mm 0,0 UV-I 49 W/m 0,6 C 1,3 C 4,8 km/h (1 Bft) 100,00 %
30.12.2017 15:09 1,3 C 3,3 C 95 % 1008,3 hPa 0,0 l/m 0,0 km/h (0 Bft) S 180 0 min 0,000 mm 0,0 UV-I 47 W/m 0,6 C 1,3 C 1,6 km/h (1 Bft) 95,65 %
30.12.2017 15:10 1,3 C 3,3 C 95 % 1008,3 hPa 0,0 l/m 0,0 km/h (0 Bft) S 180 0 min 0,000 mm 0,0 UV-I 44 W/m 0,6 C 1,3 C 1,6 km/h (1 Bft) 100,00 %
30.12.2017 15:11 1,3 C 3,3 C 95 % 1008,4 hPa 0,0 l/m 1,6 km/h (1 Bft) S 180 0 min 0,000 mm 0,0 UV-I 39 W/m 0,6 C 1,3 C 3,2 km/h (1 Bft) 95,65 %
30.12.2017 15:12 1,3 C 3,3 C 95 % 1008,3 hPa 0,0 l/m 3,2 km/h (1 Bft) S 180 0 min 0,000 mm 0,0 UV-I 36 W/m 0,6 C 1,3 C 4,8 km/h (1 Bft) 100,00 %
30.12.2017 15:13 1,3 C 3,3 C 95 % 1008,4 hPa 0,0 l/m 1,6 km/h (1 Bft) S 180 0 min 0,000 mm 0,0 UV-I 33 W/m 0,6 C 1,3 C 3,2 km/h (1 Bft) 91,30 %
30.12.2017 15:14 1,3 C 3,3 C 95 % 1008,3 hPa 0,0 l/m 1,6 km/h (1 Bft) S 180 0 min 0,000 mm 0,0 UV-I 32 W/m 0,6 C 1,3 C 3,2 km/h (1 Bft) 100,00 %
30.12.2017 15:15 1,3 C 3,3 C 95 % 1008,3 hPa 0,0 l/m 1,6 km/h (1 Bft) S 180 0 min 0,000 mm 0,0 UV-I 30 W/m 0,6 C 1,3 C 3,2 km/h (1 Bft) 95,65 %
30.12.2017 15:16 1,3 C 3,3 C 95 % 1008,4 hPa 0,0 l/m 1,6 km/h (1 Bft) S 180 0 min 0,000 mm 0,0 UV-I 26 W/m 0,6 C 1,3 C 3,2 km/h (1 Bft) 91,30 %
30.12.2017 15:17 1,3 C 3,3 C 95 % 1008,4 hPa 0,0 l/m 0,0 km/h (0 Bft) S 180 0 min 0,000 mm 0,0 UV-I 25 W/m 0,6 C 1,3 C 1,6 km/h (1 Bft) 100,00 %
30.12.2017 15:18 1,4 C 3,3 C 95 % 1008,3 hPa 0,0 l/m 0,0 km/h (0 Bft) N 0 0 min 0,000 mm 0,0 UV-I 25 W/m 0,7 C 1,4 C 0,0 km/h (0 Bft) 95,65 %
30.12.2017 15:19 1,4 C 3,3 C 95 % 1008,3 hPa 0,0 l/m 0,0 km/h (0 Bft) N 0 0 min 0,000 mm 0,0 UV-I 25 W/m 0,7 C 1,4 C 0,0 km/h (0 Bft) 100,00 %
30.12.2017 15:20 1,4 C 3,3 C 95 % 1008,3 hPa 0,0 l/m 0,0 km/h (0 Bft) S 180 0 min 0,000 mm 0,0 UV-I 25 W/m 0,7 C 1,4 C 1,6 km/h (1 Bft) 91,30 %
30.12.2017 15:21 1,4 C 3,3 C 95 % 1008,3 hPa 0,0 l/m 3,2 km/h (1 Bft) S 180 0 min 0,000 mm 0,0 UV-I 23 W/m 0,7 C 1,4 C 3,2 km/h (1 Bft) 100,00 %
30.12.2017 15:22 1,3 C 3,3 C 95 % 1008,4 hPa 0,0 l/m 3,2 km/h (1 Bft) S 180 0 min 0,000 mm 0,0 UV-I 21 W/m 0,6 C 1,3 C 4,8 km/h (1 Bft) 91,30 %
30.12.2017 15:23 1,3 C 3,3 C 95 % 1008,4 hPa 0,0 l/m 3,2 km/h (1 Bft) S 180 0 min 0,000 mm 0,0 UV-I 19 W/m 0,6 C 1,3 C 4,8 km/h (1 Bft) 100,00 %
30.12.2017 15:24 1,3 C 3,3 C 95 % 1008,5 hPa 0,0 l/m 3,2 km/h (1 Bft) S 180 0 min 0,000 mm 0,0 UV-I 19 W/m 0,6 C 1,3 C 4,8 km/h (1 Bft) 86,96 %
30.12.2017 15:25 1,3 C 3,3 C 95 % 1008,6 hPa 0,0 l/m 3,2 km/h (1 Bft) S 180 0 min 0,000 mm 0,0 UV-I 19 W/m 0,6 C 1,3 C 4,8 km/h (1 Bft) 95,65 %
30.12.2017 15:26 1,3 C 3,3 C 95 % 1008,6 hPa 0,0 l/m 3,2 km/h (1 Bft) S 180 0 min 0,000 mm 0,0 UV-I 19 W/m 0,6 C 1,3 C 4,8 km/h (1 Bft) 100,00 %
30.12.2017 15:27 1,3 C 3,3 C 95 % 1008,6 hPa 0,0 l/m 3,2 km/h (1 Bft) S 180 0 min 0,000 mm 0,0 UV-I 19 W/m 0,6 C 1,3 C 4,8 km/h (1 Bft) 91,30 %
30.12.2017 15:28 1,3 C 3,3 C 95 % 1008,6 hPa 0,0 l/m 3,2 km/h (1 Bft) S 180 0 min 0,000 mm 0,0 UV-I 18 W/m 0,6 C 1,3 C 4,8 km/h (1 Bft) 100,00 %
30.12.2017 15:29 1,3 C 3,3 C 95 % 1008,6 hPa 0,0 l/m 1,6 km/h (1 Bft) S 180 0 min 0,000 mm 0,0 UV-I 18 W/m 0,6 C 1,3 C 4,8 km/h (1 Bft) 91,30 %
30.12.2017 15:30 1,3 C 3,3 C 95 % 1008,6 hPa 0,0 l/m 3,2 km/h (1 Bft) S 180 0 min 0,000 mm 0,0 UV-I 16 W/m 0,6 C 1,3 C 4,8 km/h (1 Bft) 100,00 %
30.12.2017 15:31 1,3 C 3,3 C 95 % 1008,6 hPa 0,0 l/m 3,2 km/h (1 Bft) S 180 0 min 0,000 mm 0,0 UV-I 16 W/m 0,6 C 1,3 C 4,8 km/h (1 Bft) 95,65 %
30.12.2017 15:32 1,3 C 3,3 C 95 % 1008,6 hPa 0,0 l/m 3,2 km/h (1 Bft) S 180 0 min 0,000 mm 0,0 UV-I 16 W/m 0,6 C 1,3 C 4,8 km/h (1 Bft) 100,00 %
30.12.2017 15:33 1,3 C 3,3 C 95 % 1008,7 hPa 0,0 l/m 3,2 km/h (1 Bft) S 180 0 min 0,000 mm 0,0 UV-I 16 W/m 0,6 C 1,3 C 4,8 km/h (1 Bft) 95,65 %
30.12.2017 15:34 1,3 C 3,3 C 95 % 1008,6 hPa 0,0 l/m 1,6 km/h (1 Bft) S 180 0 min 0,000 mm 0,0 UV-I 16 W/m 0,6 C 1,3 C 3,2 km/h (1 Bft) 91,30 %
30.12.2017 15:35 1,3 C 3,3 C 95 % 1008,6 hPa 0,0 l/m 3,2 km/h (1 Bft) S 180 0 min 0,000 mm 0,0 UV-I 17 W/m 0,6 C 1,3 C 4,8 km/h (1 Bft) 95,65 %
30.12.2017 15:36 1,3 C 3,3 C 95 % 1008,7 hPa 0,2 l/m 3,2 km/h (1 Bft) S 180 0 min 0,000 mm 0,0 UV-I 16 W/m 0,6 C 1,3 C 4,8 km/h (1 Bft) 95,65 %
30.12.2017 15:37 1,3 C 3,3 C 95 % 1008,7 hPa 0,0 l/m 3,2 km/h (1 Bft) S 180 0 min 0,000 mm 0,0 UV-I 14 W/m 0,6 C 1,3 C 4,8 km/h (1 Bft) 95,65 %
30.12.2017 15:38 1,3 C 3,3 C 95 % 1008,7 hPa 0,0 l/m 3,2 km/h (1 Bft) S 180 0 min 0,000 mm 0,0 UV-I 12 W/m 0,6 C 1,3 C 4,8 km/h (1 Bft) 95,65 %
30.12.2017 15:39 1,3 C 3,3 C 95 % 1008,8 hPa 0,0 l/m 3,2 km/h (1 Bft) S 180 0 min 0,000 mm 0,0 UV-I 12 W/m 0,6 C 1,3 C 4,8 km/h (1 Bft) 100,00 %
30.12.2017 15:40 1,3 C 3,3 C 96 % 1008,8 hPa 0,2 l/m 1,6 km/h (1 Bft) S 180 0 min 0,000 mm 0,0 UV-I 11 W/m 0,7 C 1,3 C 4,8 km/h (1 Bft) 100,00 %
30.12.2017 15:41 1,2 C 3,3 C 96 % 1008,8 hPa 0,0 l/m 0,0 km/h (0 Bft) S 180 0 min 0,000 mm 0,0 UV-I 11 W/m 0,6 C 1,2 C 1,6 km/h (1 Bft) 95,65 %
30.12.2017 15:42 1,2 C 3,3 C 96 % 1008,8 hPa 0,0 l/m 0,0 km/h (0 Bft) N 0 0 min 0,000 mm 0,0 UV-I 11 W/m 0,6 C 1,2 C 0,0 km/h (0 Bft) 95,65 %
30.12.2017 15:43 1,2 C 3,3 C 96 % 1008,7 hPa 0,0 l/m 0,0 km/h (0 Bft) N 0 0 min 0,000 mm 0,0 UV-I 11 W/m 0,6 C 1,2 C 0,0 km/h (0 Bft) 100,00 %
30.12.2017 15:44 1,2 C 3,3 C 96 % 1008,7 hPa 0,2 l/m 0,0 km/h (0 Bft) N 0 0 min 0,000 mm 0,0 UV-I 11 W/m 0,6 C 1,2 C 0,0 km/h (0 Bft) 95,65 %
30.12.2017 15:45 1,2 C 3,3 C 96 % 1008,7 hPa 0,0 l/m 0,0 km/h (0 Bft) N 0 0 min 0,000 mm 0,0 UV-I 9 W/m 0,6 C 1,2 C 0,0 km/h (0 Bft) 100,00 %
30.12.2017 15:46 1,2 C 3,3 C 96 % 1008,7 hPa 0,0 l/m 0,0 km/h (0 Bft) N 0 0 min 0,000 mm 0,0 UV-I 9 W/m 0,6 C 1,2 C 0,0 km/h (0 Bft) 100,00 %
30.12.2017 15:47 1,2 C 3,3 C 96 % 1008,7 hPa 0,2 l/m 0,0 km/h (0 Bft) N 0 0 min 0,000 mm 0,0 UV-I 9 W/m 0,6 C 1,2 C 0,0 km/h (0 Bft) 95,65 %
30.12.2017 15:48 1,2 C 3,3 C 96 % 1008,6 hPa 0,0 l/m 0,0 km/h (0 Bft) N 0 0 min 0,000 mm 0,0 UV-I 9 W/m 0,6 C 1,2 C 0,0 km/h (0 Bft) 95,65 %
30.12.2017 15:49 1,2 C 3,3 C 96 % 1008,7 hPa 0,0 l/m 0,0 km/h (0 Bft) N 0 0 min 0,000 mm 0,0 UV-I 7 W/m 0,6 C 1,2 C 0,0 km/h (0 Bft) 100,00 %
30.12.2017 15:50 1,2 C 3,3 C 96 % 1008,7 hPa 0,0 l/m 0,0 km/h (0 Bft) N 0 0 min 0,000 mm 0,0 UV-I 7 W/m 0,6 C 1,2 C 0,0 km/h (0 Bft) 100,00 %
30.12.2017 15:51 1,2 C 3,3 C 96 % 1008,7 hPa 0,0 l/m 0,0 km/h (0 Bft) N 0 0 min 0,000 mm 0,0 UV-I 7 W/m 0,6 C 1,2 C 0,0 km/h (0 Bft) 100,00 %
30.12.2017 15:52 1,1 C 3,3 C 96 % 1008,7 hPa 0,0 l/m 0,0 km/h (0 Bft) N 0 0 min 0,000 mm 0,0 UV-I 7 W/m 0,5 C 1,1 C 0,0 km/h (0 Bft) 100,00 %
30.12.2017 15:53 1,1 C 3,3 C 96 % 1008,6 hPa 0,0 l/m 3,2 km/h (1 Bft) S 180 0 min 0,000 mm 0,0 UV-I 7 W/m 0,5 C 1,1 C 4,8 km/h (1 Bft) 100,00 %
30.12.2017 15:54 1,1 C 3,3 C 96 % 1008,6 hPa 0,0 l/m 6,4 km/h (2 Bft) S 180 0 min 0,000 mm 0,0 UV-I 7 W/m 0,5 C 1,1 C 8,0 km/h (2 Bft) 100,00 %
30.12.2017 15:55 1,1 C 3,3 C 96 % 1008,5 hPa 0,0 l/m 6,4 km/h (2 Bft) S-SO 157 0 min 0,000 mm 0,0 UV-I 7 W/m 0,5 C 1,1 C 8,0 km/h (2 Bft) 91,30 %
30.12.2017 15:56 1,1 C 3,3 C 96 % 1008,5 hPa 0,0 l/m 3,2 km/h (1 Bft) S-SO 157 0 min 0,000 mm 0,0 UV-I 7 W/m 0,5 C 1,1 C 4,8 km/h (1 Bft) 100,00 %
30.12.2017 15:57 1,1 C 3,3 C 96 % 1008,6 hPa 0,0 l/m 0,0 km/h (0 Bft) S-SO 157 0 min 0,000 mm 0,0 UV-I 7 W/m 0,5 C 1,1 C 1,6 km/h (1 Bft) 95,65 %
30.12.2017 15:58 1,1 C 3,3 C 96 % 1008,6 hPa 0,0 l/m 0,0 km/h (0 Bft) S-SO 157 0 min 0,000 mm 0,0 UV-I 7 W/m 0,5 C 1,1 C 1,6 km/h (1 Bft) 100,00 %
30.12.2017 15:59 1,1 C 3,3 C 96 % 1008,5 hPa 0,0 l/m 0,0 km/h (0 Bft) N 0 0 min 0,000 mm 0,0 UV-I 9 W/m 0,5 C 1,1 C 0,0 km/h (0 Bft) 95,65 %
30.12.2017 16:00 1,2 C 3,3 C 96 % 1008,5 hPa 0,2 l/m 0,0 km/h (0 Bft) N 0 0 min 0,000 mm 0,0 UV-I 9 W/m 0,6 C 1,2 C 0,0 km/h (0 Bft) 100,00 %
30.12.2017 16:01 1,1 C 3,3 C 96 % 1008,5 hPa 0,0 l/m 1,6 km/h (1 Bft) S-SO 157 0 min 0,000 mm 0,0 UV-I 9 W/m 0,5 C 1,1 C 4,8 km/h (1 Bft) 100,00 %
30.12.2017 16:02 1,1 C 3,3 C 96 % 1008,4 hPa 0,0 l/m 4,8 km/h (1 Bft) S-SO 157 0 min 0,000 mm 0,0 UV-I 7 W/m 0,5 C 1,1 C 4,8 km/h (1 Bft) 91,30 %
30.12.2017 16:03 1,1 C 3,3 C 96 % 1008,4 hPa 0,0 l/m 4,8 km/h (1 Bft) S-SO 157 0 min 0,000 mm 0,0 UV-I 7 W/m 0,5 C 1,1 C 8,0 km/h (2 Bft) 95,65 %
30.12.2017 16:04 1,1 C 3,3 C 96 % 1008,4 hPa 0,0 l/m 3,2 km/h (1 Bft) S-SO 157 0 min 0,000 mm 0,0 UV-I 7 W/m 0,5 C 1,1 C 4,8 km/h (1 Bft) 100,00 %
30.12.2017 16:05 1,1 C 3,3 C 96 % 1008,4 hPa 0,0 l/m 3,2 km/h (1 Bft) S-SO 157 0 min 0,000 mm 0,0 UV-I 7 W/m 0,5 C 1,1 C 3,2 km/h (1 Bft) 95,65 %
30.12.2017 16:06 1,1 C 3,3 C 96 % 1008,4 hPa 0,0 l/m 0,0 km/h (0 Bft) S-SO 157 0 min 0,000 mm 0,0 UV-I 5 W/m 0,5 C 1,1 C 1,6 km/h (1 Bft) 95,65 %
30.12.2017 16:07 1,1 C 3,3 C 96 % 1008,4 hPa 0,0 l/m 0,0 km/h (0 Bft) N 0 0 min 0,000 mm 0,0 UV-I 5 W/m 0,5 C 1,1 C 0,0 km/h (0 Bft) 100,00 %
30.12.2017 16:08 1,1 C 3,3 C 96 % 1008,3 hPa 0,0 l/m 0,0 km/h (0 Bft) N 0 0 min 0,000 mm 0,0 UV-I 5 W/m 0,5 C 1,1 C 0,0 km/h (0 Bft) 91,30 %
30.12.2017 16:09 1,1 C 3,3 C 96 % 1008,4 hPa 0,0 l/m 0,0 km/h (0 Bft) N 0 0 min 0,000 mm 0,0 UV-I 5 W/m 0,5 C 1,1 C 0,0 km/h (0 Bft) 95,65 %
30.12.2017 16:10 1,1 C 3,3 C 96 % 1008,4 hPa 0,0 l/m 0,0 km/h (0 Bft) N 0 0 min 0,000 mm 0,0 UV-I 5 W/m 0,5 C 1,1 C 0,0 km/h (0 Bft) 95,65 %
30.12.2017 16:11 1,1 C 3,9 C 96 % 1008,4 hPa 0,2 l/m 0,0 km/h (0 Bft) N 0 0 min 0,000 mm 0,0 UV-I 5 W/m 0,5 C 1,1 C 0,0 km/h (0 Bft) 100,00 %
30.12.2017 16:12 1,1 C 3,3 C 96 % 1008,4 hPa 0,0 l/m 0,0 km/h (0 Bft) N 0 0 min 0,000 mm 0,0 UV-I 5 W/m 0,5 C 1,1 C 0,0 km/h (0 Bft) 95,65 %
30.12.2017 16:13 1,1 C 3,3 C 96 % 1008,4 hPa 0,0 l/m 0,0 km/h (0 Bft) N 0 0 min 0,000 mm 0,0 UV-I 5 W/m 0,5 C 1,1 C 0,0 km/h (0 Bft) 100,00 %
30.12.2017 16:14 1,0 C 3,3 C 97 % 1008,5 hPa 0,0 l/m 0,0 km/h (0 Bft) N 0 0 min 0,000 mm 0,0 UV-I 5 W/m 0,6 C 1,0 C 0,0 km/h (0 Bft) 95,65 %
30.12.2017 16:15 0,9 C 3,3 C 97 % 1008,4 hPa 0,0 l/m 0,0 km/h (0 Bft) N 0 0 min 0,000 mm 0,0 UV-I 0 W/m 0,5 C 0,9 C 0,0 km/h (0 Bft) 95,65 %
30.12.2017 16:16 1,0 C 3,3 C 97 % 1008,4 hPa 0,0 l/m 0,0 km/h (0 Bft) S-SO 157 0 min 0,000 mm 0,0 UV-I 0 W/m 0,6 C 1,0 C 1,6 km/h (1 Bft) 91,30 %
30.12.2017 16:17 0,9 C 3,9 C 97 % 1008,3 hPa 0,0 l/m 1,6 km/h (1 Bft) S-SO 157 0 min 0,000 mm 0,0 UV-I 0 W/m 0,5 C 0,9 C 3,2 km/h (1 Bft) 100,00 %
30.12.2017 16:18 0,9 C 3,9 C 97 % 1008,3 hPa 0,0 l/m 1,6 km/h (1 Bft) S-SO 157 0 min 0,000 mm 0,0 UV-I 0 W/m 0,5 C 0,9 C 3,2 km/h (1 Bft) 95,65 %
30.12.2017 16:19 0,9 C 3,3 C 97 % 1008,3 hPa 0,0 l/m 1,6 km/h (1 Bft) S-SO 157 0 min 0,000 mm 0,0 UV-I 0 W/m 0,5 C 0,9 C 3,2 km/h (1 Bft) 100,00 %
30.12.2017 16:20 1,0 C 3,3 C 97 % 1008,4 hPa 0,0 l/m 0,0 km/h (0 Bft) S-SO 157 0 min 0,000 mm 0,0 UV-I 0 W/m 0,6 C 1,0 C 1,6 km/h (1 Bft) 95,65 %
30.12.2017 16:21 1,0 C 3,3 C 97 % 1008,4 hPa 0,0 l/m 0,0 km/h (0 Bft) N 0 0 min 0,000 mm 0,0 UV-I 0 W/m 0,6 C 1,0 C 0,0 km/h (0 Bft) 95,65 %
30.12.2017 16:22 0,9 C 3,3 C 97 % 1008,5 hPa 0,0 l/m 0,0 km/h (0 Bft) N 0 0 min 0,000 mm 0,0 UV-I 0 W/m 0,5 C 0,9 C 0,0 km/h (0 Bft) 95,65 %
30.12.2017 16:23 0,9 C 3,3 C 97 % 1008,5 hPa 0,0 l/m 0,0 km/h (0 Bft) N 0 0 min 0,000 mm 0,0 UV-I 0 W/m 0,5 C 0,9 C 0,0 km/h (0 Bft) 91,30 %
30.12.2017 16:24 1,0 C 3,3 C 97 % 1008,6 hPa 0,0 l/m 0,0 km/h (0 Bft) N 0 0 min 0,000 mm 0,0 UV-I 0 W/m 0,6 C 1,0 C 0,0 km/h (0 Bft) 95,65 %
30.12.2017 16:25 1,0 C 3,3 C 97 % 1008,6 hPa 0,2 l/m 3,2 km/h (1 Bft) S-SO 157 0 min 0,000 mm 0,0 UV-I 0 W/m 0,6 C 1,0 C 4,8 km/h (1 Bft) 95,65 %
30.12.2017 16:26 1,0 C 3,3 C 97 % 1008,5 hPa 0,0 l/m 3,2 km/h (1 Bft) S-SO 157 0 min 0,000 mm 0,0 UV-I 0 W/m 0,6 C 1,0 C 4,8 km/h (1 Bft) 100,00 %
30.12.2017 16:27 1,1 C 3,3 C 97 % 1008,6 hPa 0,0 l/m 0,0 km/h (0 Bft) S-SO 157 0 min 0,000 mm 0,0 UV-I 0 W/m 0,7 C 1,1 C 1,6 km/h (1 Bft) 95,65 %
30.12.2017 16:28 1,1 C 3,3 C 97 % 1008,7 hPa 0,0 l/m 1,6 km/h (1 Bft) S-SO 157 0 min 0,000 mm 0,0 UV-I 0 W/m 0,7 C 1,1 C 4,8 km/h (1 Bft) 100,00 %
30.12.2017 16:29 1,1 C 3,3 C 97 % 1008,8 hPa 0,0 l/m 1,6 km/h (1 Bft) S-SO 157 0 min 0,000 mm 0,0 UV-I 0 W/m 0,7 C 1,1 C 3,2 km/h (1 Bft) 95,65 %
30.12.2017 16:30 1,1 C 3,3 C 97 % 1008,9 hPa 0,0 l/m 1,6 km/h (1 Bft) S-SO 157 0 min 0,000 mm 0,0 UV-I 0 W/m 0,7 C 1,1 C 1,6 km/h (1 Bft) 95,65 %
30.12.2017 16:31 1,1 C 3,3 C 97 % 1008,8 hPa 0,0 l/m 0,0 km/h (0 Bft) S-SO 157 0 min 0,000 mm 0,0 UV-I 0 W/m 0,7 C 1,1 C 1,6 km/h (1 Bft) 100,00 %
30.12.2017 16:32 1,1 C 3,3 C 97 % 1008,7 hPa 0,2 l/m 0,0 km/h (0 Bft) S-SO 157 0 min 0,000 mm 0,0 UV-I 0 W/m 0,7 C 1,1 C 1,6 km/h (1 Bft) 100,00 %
30.12.2017 16:33 1,1 C 3,3 C 97 % 1008,7 hPa 0,0 l/m 3,2 km/h (1 Bft) S-SO 157 0 min 0,000 mm 0,0 UV-I 0 W/m 0,7 C 1,1 C 6,4 km/h (2 Bft) 100,00 %
30.12.2017 16:34 1,1 C 3,3 C 97 % 1008,6 hPa 0,0 l/m 4,8 km/h (1 Bft) S-SO 157 0 min 0,000 mm 0,0 UV-I 0 W/m 0,7 C 1,1 C 6,4 km/h (2 Bft) 100,00 %
30.12.2017 16:35 1,1 C 3,3 C 97 % 1008,5 hPa 0,0 l/m 3,2 km/h (1 Bft) S-SO 157 0 min 0,000 mm 0,0 UV-I 0 W/m 0,7 C 1,1 C 6,4 km/h (2 Bft) 100,00 %
30.12.2017 16:36 1,1 C 3,3 C 97 % 1008,7 hPa 0,0 l/m 4,8 km/h (1 Bft) S-SW 202 0 min 0,000 mm 0,0 UV-I 0 W/m 0,7 C 1,1 C 8,0 km/h (2 Bft) 100,00 %
30.12.2017 16:37 1,1 C 3,3 C 97 % 1008,8 hPa 0,0 l/m 3,2 km/h (1 Bft) S 180 0 min 0,000 mm 0,0 UV-I 0 W/m 0,7 C 1,1 C 4,8 km/h (1 Bft) 95,65 %
30.12.2017 16:38 1,2 C 3,3 C 97 % 1008,7 hPa 0,0 l/m 1,6 km/h (1 Bft) S 180 0 min 0,000 mm 0,0 UV-I 0 W/m 0,8 C 1,2 C 4,8 km/h (1 Bft) 100,00 %
30.12.2017 16:39 1,2 C 3,3 C 97 % 1008,7 hPa 0,2 l/m 1,6 km/h (1 Bft) S 180 0 min 0,000 mm 0,0 UV-I 0 W/m 0,8 C 1,2 C 3,2 km/h (1 Bft) 100,00 %
30.12.2017 16:40 1,2 C 3,3 C 97 % 1008,8 hPa 0,0 l/m 3,2 km/h (1 Bft) NW 315 0 min 0,000 mm 0,0 UV-I 0 W/m 0,8 C 1,2 C 4,8 km/h (1 Bft) 100,00 %
30.12.2017 16:41 1,2 C 3,3 C 97 % 1008,9 hPa 0,0 l/m 3,2 km/h (1 Bft) W-NW 292 0 min 0,000 mm 0,0 UV-I 0 W/m 0,8 C 1,2 C 4,8 km/h (1 Bft) 100,00 %
30.12.2017 16:42 1,3 C 3,3 C 97 % 1008,7 hPa 0,0 l/m 1,6 km/h (1 Bft) W-NW 292 0 min 0,000 mm 0,0 UV-I 0 W/m 0,9 C 1,3 C 3,2 km/h (1 Bft) 100,00 %
30.12.2017 16:43 1,3 C 3,3 C 97 % 1008,6 hPa 0,0 l/m 1,6 km/h (1 Bft) W-NW 292 0 min 0,000 mm 0,0 UV-I 0 W/m 0,9 C 1,3 C 3,2 km/h (1 Bft) 100,00 %
30.12.2017 16:44 1,3 C 3,3 C 97 % 1008,8 hPa 0,0 l/m 3,2 km/h (1 Bft) W-NW 292 0 min 0,000 mm 0,0 UV-I 0 W/m 0,9 C 1,3 C 4,8 km/h (1 Bft) 95,65 %
30.12.2017 16:45 1,3 C 3,3 C 97 % 1008,9 hPa 0,0 l/m 4,8 km/h (1 Bft) W-NW 292 0 min 0,000 mm 0,0 UV-I 0 W/m 0,9 C 1,3 C 6,4 km/h (2 Bft) 95,65 %
30.12.2017 16:46 1,2 C 3,3 C 97 % 1008,9 hPa 0,0 l/m 3,2 km/h (1 Bft) W-NW 292 0 min 0,000 mm 0,0 UV-I 0 W/m 0,8 C 1,2 C 4,8 km/h (1 Bft) 100,00 %
30.12.2017 16:47 1,2 C 3,3 C 97 % 1008,9 hPa 0,2 l/m 4,8 km/h (1 Bft) W 270 0 min 0,000 mm 0,0 UV-I 0 W/m 0,8 C 1,2 C 4,8 km/h (1 Bft) 100,00 %
30.12.2017 16:48 1,2 C 3,3 C 97 % 1008,8 hPa 0,0 l/m 4,8 km/h (1 Bft) SW 225 0 min 0,000 mm 0,0 UV-I 0 W/m 0,8 C 1,2 C 6,4 km/h (2 Bft) 95,65 %
30.12.2017 16:49 1,2 C 3,3 C 97 % 1008,6 hPa 0,0 l/m 4,8 km/h (1 Bft) SO 135 0 min 0,000 mm 0,0 UV-I 0 W/m 0,8 C 1,2 C 8,0 km/h (2 Bft) 100,00 %
30.12.2017 16:50 1,1 C 3,9 C 97 % 1008,5 hPa 0,0 l/m 8,0 km/h (2 Bft) SO 135 0 min 0,000 mm 0,0 UV-I 0 W/m 0,7 C -0,5 C 12,9 km/h (3 Bft) 100,00 %
30.12.2017 16:51 1,2 C 3,3 C 97 % 1008,4 hPa 0,0 l/m 4,8 km/h (1 Bft) S-SO 157 0 min 0,000 mm 0,0 UV-I 0 W/m 0,8 C 1,2 C 9,7 km/h (2 Bft) 91,30 %
30.12.2017 16:52 1,2 C 3,3 C 97 % 1008,4 hPa 0,0 l/m 3,2 km/h (1 Bft) SO 135 0 min 0,000 mm 0,0 UV-I 0 W/m 0,8 C 1,2 C 6,4 km/h (2 Bft) 100,00 %
30.12.2017 16:53 1,2 C 3,3 C 97 % 1008,5 hPa 0,0 l/m 3,2 km/h (1 Bft) S-SO 157 0 min 0,000 mm 0,0 UV-I 0 W/m 0,8 C 1,2 C 6,4 km/h (2 Bft) 100,00 %
30.12.2017 16:54 1,2 C 3,9 C 97 % 1008,5 hPa 0,0 l/m 1,6 km/h (1 Bft) S-SO 157 0 min 0,000 mm 0,0 UV-I 0 W/m 0,8 C 1,2 C 4,8 km/h (1 Bft) 100,00 %
30.12.2017 16:55 1,2 C 3,3 C 97 % 1008,5 hPa 0,0 l/m 1,6 km/h (1 Bft) S-SO 157 0 min 0,000 mm 0,0 UV-I 0 W/m 0,8 C 1,2 C 3,2 km/h (1 Bft) 100,00 %
30.12.2017 16:56 1,2 C 3,3 C 97 % 1008,5 hPa 0,0 l/m 0,0 km/h (0 Bft) S-SO 157 0 min 0,000 mm 0,0 UV-I 0 W/m 0,8 C 1,2 C 1,6 km/h (1 Bft) 95,65 %
30.12.2017 16:57 1,3 C 3,3 C 97 % 1008,6 hPa 0,0 l/m 3,2 km/h (1 Bft) S-SO 157 0 min 0,000 mm 0,0 UV-I 0 W/m 0,9 C 1,3 C 8,0 km/h (2 Bft) 100,00 %
30.12.2017 16:58 1,3 C 3,3 C 97 % 1008,6 hPa 0,0 l/m 8,0 km/h (2 Bft) SO 135 0 min 0,000 mm 0,0 UV-I 0 W/m 0,9 C -0,3 C 9,7 km/h (2 Bft) 91,30 %
30.12.2017 16:59 1,4 C 3,3 C 97 % 1008,4 hPa 0,0 l/m 8,0 km/h (2 Bft) SO 135 0 min 0,000 mm 0,0 UV-I 0 W/m 1,0 C -0,2 C 11,3 km/h (2 Bft) 100,00 %
30.12.2017 17:00 1,4 C 3,3 C 97 % 1008,3 hPa 0,0 l/m 6,4 km/h (2 Bft) O-SO 112 0 min 0,000 mm 0,0 UV-I 0 W/m 1,0 C 1,4 C 11,3 km/h (2 Bft) 95,65 %
30.12.2017 17:01 1,4 C 3,3 C 97 % 1008,4 hPa 0,0 l/m 3,2 km/h (1 Bft) O-SO 112 0 min 0,000 mm 0,0 UV-I 0 W/m 1,0 C 1,4 C 6,4 km/h (2 Bft) 100,00 %
30.12.2017 17:02 1,6 C 3,3 C 98 % 1008,4 hPa 0,0 l/m 4,8 km/h (1 Bft) O 90 0 min 0,000 mm 0,0 UV-I 0 W/m 1,3 C 1,6 C 6,4 km/h (2 Bft) 100,00 %
30.12.2017 17:03 1,6 C 3,3 C 97 % 1008,5 hPa 0,0 l/m 3,2 km/h (1 Bft) O 90 0 min 0,000 mm 0,0 UV-I 0 W/m 1,2 C 1,6 C 4,8 km/h (1 Bft) 95,65 %
30.12.2017 17:04 1,7 C 3,3 C 97 % 1008,7 hPa 0,0 l/m 4,8 km/h (1 Bft) W-NW 292 0 min 0,000 mm 0,0 UV-I 0 W/m 1,3 C 1,7 C 6,4 km/h (2 Bft) 100,00 %
30.12.2017 17:05 1,6 C 3,3 C 97 % 1008,8 hPa 0,0 l/m 4,8 km/h (1 Bft) W-NW 292 0 min 0,000 mm 0,0 UV-I 0 W/m 1,2 C 1,6 C 6,4 km/h (2 Bft) 95,65 %
30.12.2017 17:06 1,6 C 3,3 C 98 % 1008,8 hPa 0,0 l/m 1,6 km/h (1 Bft) NW 315 0 min 0,000 mm 0,0 UV-I 0 W/m 1,3 C 1,6 C 4,8 km/h (1 Bft) 100,00 %
30.12.2017 17:07 1,6 C 3,3 C 98 % 1008,7 hPa 0,0 l/m 0,0 km/h (0 Bft) N 0 0 min 0,000 mm 0,0 UV-I 0 W/m 1,3 C 1,6 C 0,0 km/h (0 Bft) 100,00 %
30.12.2017 17:08 1,5 C 3,9 C 97 % 1008,7 hPa 0,0 l/m 0,0 km/h (0 Bft) NW 315 0 min 0,000 mm 0,0 UV-I 0 W/m 1,1 C 1,5 C 1,6 km/h (1 Bft) 100,00 %
30.12.2017 17:09 1,4 C 3,9 C 97 % 1008,6 hPa 0,0 l/m 0,0 km/h (0 Bft) NW 315 0 min 0,000 mm 0,0 UV-I 0 W/m 1,0 C 1,4 C 1,6 km/h (1 Bft) 95,65 %
30.12.2017 17:10 1,5 C 3,3 C 97 % 1008,7 hPa 0,0 l/m 1,6 km/h (1 Bft) NW 315 0 min 0,000 mm 0,0 UV-I 0 W/m 1,1 C 1,5 C 1,6 km/h (1 Bft) 100,00 %
30.12.2017 17:11 1,5 C 3,3 C 97 % 1008,7 hPa 0,0 l/m 0,0 km/h (0 Bft) NW 315 0 min 0,000 mm 0,0 UV-I 0 W/m 1,1 C 1,5 C 1,6 km/h (1 Bft) 91,30 %
30.12.2017 17:12 1,5 C 3,3 C 97 % 1008,7 hPa 0,0 l/m 0,0 km/h (0 Bft) N 0 0 min 0,000 mm 0,0 UV-I 0 W/m 1,1 C 1,5 C 0,0 km/h (0 Bft) 95,65 %
30.12.2017 17:13 1,5 C 3,3 C 97 % 1008,6 hPa 0,0 l/m 0,0 km/h (0 Bft) N 0 0 min 0,000 mm 0,0 UV-I 0 W/m 1,1 C 1,5 C 0,0 km/h (0 Bft) 91,30 %
30.12.2017 17:14 1,5 C 3,3 C 97 % 1008,6 hPa 0,0 l/m 1,6 km/h (1 Bft) NW 315 0 min 0,000 mm 0,0 UV-I 0 W/m 1,1 C 1,5 C 1,6 km/h (1 Bft) 100,00 %
30.12.2017 17:15 1,5 C 3,3 C 97 % 1008,7 hPa 0,2 l/m 0,0 km/h (0 Bft) NW 315 0 min 0,000 mm 0,0 UV-I 0 W/m 1,1 C 1,5 C 1,6 km/h (1 Bft) 95,65 %
30.12.2017 17:16 1,5 C 3,3 C 97 % 1008,7 hPa 0,0 l/m 0,0 km/h (0 Bft) NW 315 0 min 0,000 mm 0,0 UV-I 0 W/m 1,1 C 1,5 C 1,6 km/h (1 Bft) 100,00 %
30.12.2017 17:17 1,5 C 3,3 C 97 % 1008,7 hPa 0,0 l/m 0,0 km/h (0 Bft) N 0 0 min 0,000 mm 0,0 UV-I 0 W/m 1,1 C 1,5 C 0,0 km/h (0 Bft) 95,65 %
30.12.2017 17:18 1,5 C 3,9 C 97 % 1008,7 hPa 0,0 l/m 0,0 km/h (0 Bft) NW 315 0 min 0,000 mm 0,0 UV-I 0 W/m 1,1 C 1,5 C 1,6 km/h (1 Bft) 95,65 %
30.12.2017 17:19 1,4 C 3,9 C 97 % 1008,7 hPa 0,0 l/m 0,0 km/h (0 Bft) N 0 0 min 0,000 mm 0,0 UV-I 0 W/m 1,0 C 1,4 C 0,0 km/h (0 Bft) 95,65 %
30.12.2017 17:20 1,4 C 3,3 C 97 % 1008,7 hPa 0,0 l/m 0,0 km/h (0 Bft) N 0 0 min 0,000 mm 0,0 UV-I 0 W/m 1,0 C 1,4 C 0,0 km/h (0 Bft) 95,65 %
30.12.2017 17:21 1,3 C 3,3 C 97 % 1008,7 hPa 0,0 l/m 0,0 km/h (0 Bft) NW 315 0 min 0,000 mm 0,0 UV-I 0 W/m 0,9 C 1,3 C 1,6 km/h (1 Bft) 100,00 %
30.12.2017 17:22 1,3 C 3,3 C 97 % 1008,8 hPa 0,0 l/m 0,0 km/h (0 Bft) N 0 0 min 0,000 mm 0,0 UV-I 0 W/m 0,9 C 1,3 C 0,0 km/h (0 Bft) 95,65 %
30.12.2017 17:23 1,2 C 3,3 C 97 % 1008,8 hPa 0,2 l/m 0,0 km/h (0 Bft) NW 315 0 min 0,000 mm 0,0 UV-I 0 W/m 0,8 C 1,2 C 1,6 km/h (1 Bft) 100,00 %
30.12.2017 17:24 1,2 C 3,3 C 97 % 1008,8 hPa 0,0 l/m 0,0 km/h (0 Bft) NW 315 0 min 0,000 mm 0,0 UV-I 0 W/m 0,8 C 1,2 C 1,6 km/h (1 Bft) 91,30 %
30.12.2017 17:25 1,1 C 3,3 C 97 % 1008,9 hPa 0,0 l/m 0,0 km/h (0 Bft) N 0 0 min 0,000 mm 0,0 UV-I 0 W/m 0,7 C 1,1 C 0,0 km/h (0 Bft) 100,00 %
30.12.2017 17:26 1,1 C 3,3 C 97 % 1008,9 hPa 0,0 l/m 1,6 km/h (1 Bft) N-NW 337 0 min 0,000 mm 0,0 UV-I 0 W/m 0,7 C 1,1 C 1,6 km/h (1 Bft) 91,30 %
30.12.2017 17:27 1,1 C 3,3 C 97 % 1008,9 hPa 0,0 l/m 1,6 km/h (1 Bft) N 360 0 min 0,000 mm 0,0 UV-I 0 W/m 0,7 C 1,1 C 3,2 km/h (1 Bft) 95,65 %
30.12.2017 17:28 1,0 C 3,3 C 97 % 1008,9 hPa 0,0 l/m 1,6 km/h (1 Bft) N-NO 22 0 min 0,000 mm 0,0 UV-I 0 W/m 0,6 C 1,0 C 3,2 km/h (1 Bft) 100,00 %
30.12.2017 17:29 1,0 C 3,3 C 97 % 1008,9 hPa 0,0 l/m 3,2 km/h (1 Bft) N-NO 22 0 min 0,000 mm 0,0 UV-I 0 W/m 0,6 C 1,0 C 4,8 km/h (1 Bft) 91,30 %
30.12.2017 17:30 1,0 C 3,9 C 97 % 1008,9 hPa 0,2 l/m 3,2 km/h (1 Bft) N-NO 22 0 min 0,000 mm 0,0 UV-I 0 W/m 0,6 C 1,0 C 4,8 km/h (1 Bft) 100,00 %
30.12.2017 17:31 1,0 C 3,3 C 97 % 1008,9 hPa 0,0 l/m 6,4 km/h (2 Bft) N-NO 22 0 min 0,000 mm 0,0 UV-I 0 W/m 0,6 C 1,0 C 8,0 km/h (2 Bft) 91,30 %
30.12.2017 17:32 1,1 C 3,3 C 97 % 1009,0 hPa 0,0 l/m 6,4 km/h (2 Bft) N-NO 22 0 min 0,000 mm 0,0 UV-I 0 W/m 0,7 C 1,1 C 8,0 km/h (2 Bft) 100,00 %
30.12.2017 17:33 1,1 C 3,3 C 97 % 1009,0 hPa 0,0 l/m 6,4 km/h (2 Bft) N-NO 22 0 min 0,000 mm 0,0 UV-I 0 W/m 0,7 C 1,1 C 8,0 km/h (2 Bft) 86,96 %
30.12.2017 17:34 1,1 C 3,3 C 97 % 1009,1 hPa 0,2 l/m 8,0 km/h (2 Bft) N-NO 22 0 min 0,000 mm 0,0 UV-I 0 W/m 0,7 C -0,5 C 11,3 km/h (2 Bft) 100,00 %
30.12.2017 17:35 1,1 C 3,3 C 97 % 1009,1 hPa 0,0 l/m 9,7 km/h (2 Bft) NO 45 0 min 0,000 mm 0,0 UV-I 0 W/m 0,7 C -2,0 C 12,9 km/h (3 Bft) 91,30 %
30.12.2017 17:36 1,1 C 3,3 C 97 % 1009,1 hPa 0,0 l/m 9,7 km/h (2 Bft) NO 45 0 min 0,000 mm 0,0 UV-I 0 W/m 0,7 C -2,0 C 11,3 km/h (2 Bft) 95,65 %
30.12.2017 17:37 1,1 C 3,3 C 97 % 1009,1 hPa 0,0 l/m 8,0 km/h (2 Bft) NO 45 0 min 0,000 mm 0,0 UV-I 0 W/m 0,7 C -0,5 C 9,7 km/h (2 Bft) 95,65 %
30.12.2017 17:38 1,2 C 3,3 C 97 % 1009,1 hPa 0,0 l/m 9,7 km/h (2 Bft) NO 45 0 min 0,000 mm 0,0 UV-I 0 W/m 0,8 C -1,9 C 11,3 km/h (2 Bft) 95,65 %
30.12.2017 17:39 1,2 C 3,3 C 97 % 1009,1 hPa 0,0 l/m 8,0 km/h (2 Bft) NO 45 0 min 0,000 mm 0,0 UV-I 0 W/m 0,8 C -0,4 C 9,7 km/h (2 Bft) 95,65 %
30.12.2017 17:40 1,2 C 3,3 C 97 % 1009,1 hPa 0,2 l/m 8,0 km/h (2 Bft) NO 45 0 min 0,000 mm 0,0 UV-I 0 W/m 0,8 C -0,4 C 11,3 km/h (2 Bft) 91,30 %
30.12.2017 17:41 1,2 C 3,3 C 97 % 1009,2 hPa 0,0 l/m 4,8 km/h (1 Bft) NO 45 0 min 0,000 mm 0,0 UV-I 0 W/m 0,8 C 1,2 C 8,0 km/h (2 Bft) 91,30 %
30.12.2017 17:42 1,2 C 3,3 C 97 % 1009,1 hPa 0,0 l/m 1,6 km/h (1 Bft) NO 45 0 min 0,000 mm 0,0 UV-I 0 W/m 0,8 C 1,2 C 4,8 km/h (1 Bft) 91,30 %
30.12.2017 17:43 1,1 C 3,3 C 97 % 1009,1 hPa 0,0 l/m 1,6 km/h (1 Bft) NO 45 0 min 0,000 mm 0,0 UV-I 0 W/m 0,7 C 1,1 C 3,2 km/h (1 Bft) 95,65 %
30.12.2017 17:44 1,1 C 3,3 C 97 % 1009,1 hPa 0,2 l/m 6,4 km/h (2 Bft) N-NO 22 0 min 0,000 mm 0,0 UV-I 0 W/m 0,7 C 1,1 C 9,7 km/h (2 Bft) 91,30 %
30.12.2017 17:45 1,1 C 3,3 C 97 % 1009,1 hPa 0,0 l/m 3,2 km/h (1 Bft) N-NO 22 0 min 0,000 mm 0,0 UV-I 0 W/m 0,7 C 1,1 C 8,0 km/h (2 Bft) 91,30 %
30.12.2017 17:46 1,0 C 3,3 C 97 % 1009,2 hPa 0,0 l/m 3,2 km/h (1 Bft) N 360 0 min 0,000 mm 0,0 UV-I 0 W/m 0,6 C 1,0 C 8,0 km/h (2 Bft) 91,30 %
30.12.2017 17:47 1,0 C 3,3 C 97 % 1009,2 hPa 0,0 l/m 6,4 km/h (2 Bft) N-NO 22 0 min 0,000 mm 0,0 UV-I 0 W/m 0,6 C 1,0 C 11,3 km/h (2 Bft) 91,30 %
30.12.2017 17:48 1,0 C 3,3 C 97 % 1009,2 hPa 0,0 l/m 6,4 km/h (2 Bft) N-NO 22 0 min 0,000 mm 0,0 UV-I 0 W/m 0,6 C 1,0 C 8,0 km/h (2 Bft) 95,65 %
30.12.2017 17:49 1,0 C 3,3 C 97 % 1009,0 hPa 0,0 l/m 6,4 km/h (2 Bft) NO 45 0 min 0,000 mm 0,0 UV-I 0 W/m 0,6 C 1,0 C 8,0 km/h (2 Bft) 100,00 %
30.12.2017 17:50 1,0 C 3,3 C 97 % 1009,1 hPa 0,0 l/m 3,2 km/h (1 Bft) NO 45 0 min 0,000 mm 0,0 UV-I 0 W/m 0,6 C 1,0 C 6,4 km/h (2 Bft) 95,65 %
30.12.2017 17:51 1,0 C 3,3 C 97 % 1009,4 hPa 0,0 l/m 1,6 km/h (1 Bft) NO 45 0 min 0,000 mm 0,0 UV-I 0 W/m 0,6 C 1,0 C 3,2 km/h (1 Bft) 100,00 %
30.12.2017 17:52 0,9 C 3,3 C 97 % 1009,4 hPa 0,0 l/m 1,6 km/h (1 Bft) N 360 0 min 0,000 mm 0,0 UV-I 0 W/m 0,5 C 0,9 C 4,8 km/h (1 Bft) 95,65 %
30.12.2017 17:53 0,9 C 3,3 C 98 % 1009,2 hPa 0,0 l/m 4,8 km/h (1 Bft) NO 45 0 min 0,000 mm 0,0 UV-I 0 W/m 0,6 C 0,9 C 11,3 km/h (2 Bft) 100,00 %
30.12.2017 17:54 0,9 C 3,3 C 98 % 1008,9 hPa 0,0 l/m 11,3 km/h (2 Bft) O 90 0 min 0,000 mm 0,0 UV-I 0 W/m 0,6 C -3,5 C 14,5 km/h (3 Bft) 95,65 %
30.12.2017 17:55 0,9 C 3,9 C 98 % 1009,1 hPa 0,0 l/m 8,0 km/h (2 Bft) N-NO 22 0 min 0,000 mm 0,0 UV-I 0 W/m 0,6 C -0,7 C 9,7 km/h (2 Bft) 95,65 %
30.12.2017 17:56 0,9 C 3,3 C 98 % 1009,5 hPa 0,0 l/m 4,8 km/h (1 Bft) N 360 0 min 0,000 mm 0,0 UV-I 0 W/m 0,6 C 0,9 C 11,3 km/h (2 Bft) 95,65 %
30.12.2017 17:57 0,8 C 3,3 C 98 % 1009,6 hPa 0,0 l/m 3,2 km/h (1 Bft) N-NO 22 0 min 0,000 mm 0,0 UV-I 0 W/m 0,5 C 0,8 C 8,0 km/h (2 Bft) 100,00 %
30.12.2017 17:58 0,8 C 3,3 C 98 % 1009,3 hPa 0,0 l/m 6,4 km/h (2 Bft) O 90 0 min 0,000 mm 0,0 UV-I 0 W/m 0,5 C 0,8 C 8,0 km/h (2 Bft) 100,00 %
30.12.2017 17:59 0,9 C 3,3 C 98 % 1009,2 hPa 0,0 l/m 6,4 km/h (2 Bft) O-NO 67 0 min 0,000 mm 0,0 UV-I 0 W/m 0,6 C 0,9 C 8,0 km/h (2 Bft) 100,00 %
30.12.2017 18:00 0,8 C 3,3 C 98 % 1009,2 hPa 0,0 l/m 9,7 km/h (2 Bft) O-NO 67 0 min 0,000 mm 0,0 UV-I 0 W/m 0,5 C -2,3 C 12,9 km/h (3 Bft) 100,00 %
30.12.2017 18:01 0,8 C 3,3 C 98 % 1009,4 hPa 0,0 l/m 4,8 km/h (1 Bft) N-NO 22 0 min 0,000 mm 0,0 UV-I 0 W/m 0,5 C 0,8 C 9,7 km/h (2 Bft) 95,65 %
30.12.2017 18:02 0,8 C 3,3 C 98 % 1009,6 hPa 0,0 l/m 1,6 km/h (1 Bft) N-NO 22 0 min 0,000 mm 0,0 UV-I 0 W/m 0,5 C 0,8 C 3,2 km/h (1 Bft) 95,65 %
30.12.2017 18:03 0,8 C 3,3 C 97 % 1009,5 hPa 0,0 l/m 6,4 km/h (2 Bft) NO 45 0 min 0,000 mm 0,0 UV-I 0 W/m 0,4 C 0,8 C 9,7 km/h (2 Bft) 95,65 %
30.12.2017 18:04 0,8 C 3,3 C 97 % 1009,2 hPa 0,0 l/m 8,0 km/h (2 Bft) O-NO 67 0 min 0,000 mm 0,0 UV-I 0 W/m 0,4 C -0,8 C 12,9 km/h (3 Bft) 100,00 %
30.12.2017 18:05 0,9 C 3,3 C 98 % 1009,3 hPa 0,0 l/m 6,4 km/h (2 Bft) O-NO 67 0 min 0,000 mm 0,0 UV-I 0 W/m 0,6 C 0,9 C 8,0 km/h (2 Bft) 100,00 %
30.12.2017 18:06 0,9 C 3,3 C 98 % 1009,4 hPa 0,0 l/m 4,8 km/h (1 Bft) O-NO 67 0 min 0,000 mm 0,0 UV-I 0 W/m 0,6 C 0,9 C 8,0 km/h (2 Bft) 100,00 %
30.12.2017 18:07 0,9 C 3,3 C 97 % 1009,7 hPa 0,0 l/m 0,0 km/h (0 Bft) NO 45 0 min 0,000 mm 0,0 UV-I 0 W/m 0,5 C 0,9 C 1,6 km/h (1 Bft) 100,00 %
30.12.2017 18:08 0,9 C 3,3 C 97 % 1009,6 hPa 0,0 l/m 0,0 km/h (0 Bft) NO 45 0 min 0,000 mm 0,0 UV-I 0 W/m 0,5 C 0,9 C 3,2 km/h (1 Bft) 95,65 %
30.12.2017 18:09 0,8 C 3,3 C 97 % 1009,5 hPa 0,0 l/m 1,6 km/h (1 Bft) NO 45 0 min 0,000 mm 0,0 UV-I 0 W/m 0,4 C 0,8 C 3,2 km/h (1 Bft) 100,00 %
30.12.2017 18:10 0,8 C 3,3 C 97 % 1009,4 hPa 0,0 l/m 3,2 km/h (1 Bft) NO 45 0 min 0,000 mm 0,0 UV-I 0 W/m 0,4 C 0,8 C 6,4 km/h (2 Bft) 100,00 %
30.12.2017 18:11 0,9 C 3,3 C 97 % 1009,4 hPa 0,0 l/m 1,6 km/h (1 Bft) O-SO 112 0 min 0,000 mm 0,0 UV-I 0 W/m 0,5 C 0,9 C 3,2 km/h (1 Bft) 100,00 %
30.12.2017 18:12 0,9 C 3,3 C 97 % 1009,5 hPa 0,0 l/m 3,2 km/h (1 Bft) O-SO 112 0 min 0,000 mm 0,0 UV-I 0 W/m 0,5 C 0,9 C 6,4 km/h (2 Bft) 100,00 %
30.12.2017 18:13 0,9 C 3,3 C 97 % 1009,7 hPa 0,0 l/m 1,6 km/h (1 Bft) NW 315 0 min 0,000 mm 0,0 UV-I 0 W/m 0,5 C 0,9 C 3,2 km/h (1 Bft) 100,00 %
30.12.2017 18:14 0,9 C 3,3 C 97 % 1009,6 hPa 0,0 l/m 1,6 km/h (1 Bft) NW 315 0 min 0,000 mm 0,0 UV-I 0 W/m 0,5 C 0,9 C 3,2 km/h (1 Bft) 100,00 %
30.12.2017 18:15 0,9 C 3,3 C 97 % 1009,5 hPa 0,0 l/m 4,8 km/h (1 Bft) N 360 0 min 0,000 mm 0,0 UV-I 0 W/m 0,5 C 0,9 C 6,4 km/h (2 Bft) 95,65 %
30.12.2017 18:16 0,9 C 3,3 C 97 % 1009,4 hPa 0,0 l/m 6,4 km/h (2 Bft) N-NO 22 0 min 0,000 mm 0,0 UV-I 0 W/m 0,5 C 0,9 C 8,0 km/h (2 Bft) 95,65 %
30.12.2017 18:17 0,8 C 3,3 C 97 % 1009,5 hPa 0,0 l/m 8,0 km/h (2 Bft) N-NO 22 0 min 0,000 mm 0,0 UV-I 0 W/m 0,4 C -0,8 C 9,7 km/h (2 Bft) 95,65 %
30.12.2017 18:18 0,8 C 3,3 C 97 % 1009,5 hPa 0,0 l/m 6,4 km/h (2 Bft) N-NO 22 0 min 0,000 mm 0,0 UV-I 0 W/m 0,4 C 0,8 C 9,7 km/h (2 Bft) 100,00 %
30.12.2017 18:19 0,9 C 3,9 C 97 % 1009,7 hPa 0,0 l/m 1,6 km/h (1 Bft) N-NO 22 0 min 0,000 mm 0,0 UV-I 0 W/m 0,5 C 0,9 C 4,8 km/h (1 Bft) 100,00 %
30.12.2017 18:20 0,9 C 3,3 C 97 % 1009,9 hPa 0,0 l/m 0,0 km/h (0 Bft) N-NO 22 0 min 0,000 mm 0,0 UV-I 0 W/m 0,5 C 0,9 C 1,6 km/h (1 Bft) 95,65 %
30.12.2017 18:21 0,9 C 3,3 C 97 % 1009,9 hPa 0,0 l/m 3,2 km/h (1 Bft) N-NO 22 0 min 0,000 mm 0,0 UV-I 0 W/m 0,5 C 0,9 C 4,8 km/h (1 Bft) 100,00 %
30.12.2017 18:22 0,9 C 3,3 C 97 % 1009,7 hPa 0,0 l/m 4,8 km/h (1 Bft) O-NO 67 0 min 0,000 mm 0,0 UV-I 0 W/m 0,5 C 0,9 C 4,8 km/h (1 Bft) 91,30 %
30.12.2017 18:23 0,9 C 3,3 C 97 % 1009,7 hPa 0,0 l/m 1,6 km/h (1 Bft) O-NO 67 0 min 0,000 mm 0,0 UV-I 0 W/m 0,5 C 0,9 C 3,2 km/h (1 Bft) 100,00 %
30.12.2017 18:24 0,9 C 3,3 C 98 % 1009,8 hPa 0,0 l/m 1,6 km/h (1 Bft) O-NO 67 0 min 0,000 mm 0,0 UV-I 0 W/m 0,6 C 0,9 C 3,2 km/h (1 Bft) 100,00 %
30.12.2017 18:25 0,9 C 3,3 C 98 % 1009,8 hPa 0,0 l/m 3,2 km/h (1 Bft) O-NO 67 0 min 0,000 mm 0,0 UV-I 0 W/m 0,6 C 0,9 C 4,8 km/h (1 Bft) 100,00 %
30.12.2017 18:26 1,0 C 3,3 C 98 % 1009,8 hPa 0,0 l/m 1,6 km/h (1 Bft) N-NW 337 0 min 0,000 mm 0,0 UV-I 0 W/m 0,7 C 1,0 C 4,8 km/h (1 Bft) 100,00 %
30.12.2017 18:27 1,0 C 3,3 C 98 % 1009,9 hPa 0,0 l/m 1,6 km/h (1 Bft) N-NW 337 0 min 0,000 mm 0,0 UV-I 0 W/m 0,7 C 1,0 C 3,2 km/h (1 Bft) 95,65 %
30.12.2017 18:28 0,9 C 3,3 C 98 % 1009,6 hPa 0,0 l/m 4,8 km/h (1 Bft) O-NO 67 0 min 0,000 mm 0,0 UV-I 0 W/m 0,6 C 0,9 C 8,0 km/h (2 Bft) 100,00 %
30.12.2017 18:29 1,0 C 3,3 C 98 % 1009,6 hPa 0,0 l/m 4,8 km/h (1 Bft) O-NO 67 0 min 0,000 mm 0,0 UV-I 0 W/m 0,7 C 1,0 C 6,4 km/h (2 Bft) 95,65 %
30.12.2017 18:30 1,1 C 3,3 C 98 % 1009,7 hPa 0,0 l/m 3,2 km/h (1 Bft) NO 45 0 min 0,000 mm 0,0 UV-I 0 W/m 0,8 C 1,1 C 6,4 km/h (2 Bft) 100,00 %
30.12.2017 18:31 1,0 C 3,3 C 98 % 1009,7 hPa 0,0 l/m 1,6 km/h (1 Bft) N-NO 22 0 min 0,000 mm 0,0 UV-I 0 W/m 0,7 C 1,0 C 3,2 km/h (1 Bft) 100,00 %
30.12.2017 18:32 1,0 C 3,3 C 98 % 1009,7 hPa 0,0 l/m 3,2 km/h (1 Bft) N-NO 22 0 min 0,000 mm 0,0 UV-I 0 W/m 0,7 C 1,0 C 8,0 km/h (2 Bft) 100,00 %
30.12.2017 18:33 0,9 C 3,3 C 98 % 1009,7 hPa 0,0 l/m 4,8 km/h (1 Bft) N-NO 22 0 min 0,000 mm 0,0 UV-I 0 W/m 0,6 C 0,9 C 6,4 km/h (2 Bft) 100,00 %
30.12.2017 18:34 0,9 C 3,9 C 98 % 1009,7 hPa 0,0 l/m 4,8 km/h (1 Bft) NO 45 0 min 0,000 mm 0,0 UV-I 0 W/m 0,6 C 0,9 C 8,0 km/h (2 Bft) 95,65 %
30.12.2017 18:35 1,0 C 3,3 C 98 % 1009,7 hPa 0,0 l/m 3,2 km/h (1 Bft) NO 45 0 min 0,000 mm 0,0 UV-I 0 W/m 0,7 C 1,0 C 6,4 km/h (2 Bft) 100,00 %
30.12.2017 18:36 1,0 C 3,3 C 98 % 1009,7 hPa 0,0 l/m 8,0 km/h (2 Bft) NO 45 0 min 0,000 mm 0,0 UV-I 0 W/m 0,7 C -0,6 C 8,0 km/h (2 Bft) 91,30 %
30.12.2017 18:37 1,0 C 3,3 C 98 % 1009,7 hPa 0,0 l/m 8,0 km/h (2 Bft) NO 45 0 min 0,000 mm 0,0 UV-I 0 W/m 0,7 C -0,6 C 9,7 km/h (2 Bft) 100,00 %
30.12.2017 18:38 0,9 C 3,3 C 98 % 1009,7 hPa 0,0 l/m 6,4 km/h (2 Bft) NO 45 0 min 0,000 mm 0,0 UV-I 0 W/m 0,6 C 0,9 C 8,0 km/h (2 Bft) 100,00 %
30.12.2017 18:39 0,9 C 3,3 C 98 % 1009,6 hPa 0,0 l/m 4,8 km/h (1 Bft) O-NO 67 0 min 0,000 mm 0,0 UV-I 0 W/m 0,6 C 0,9 C 6,4 km/h (2 Bft) 100,00 %
30.12.2017 18:40 1,0 C 3,3 C 98 % 1009,6 hPa 0,0 l/m 4,8 km/h (1 Bft) O-NO 67 0 min 0,000 mm 0,0 UV-I 0 W/m 0,7 C 1,0 C 6,4 km/h (2 Bft) 95,65 %
30.12.2017 18:41 0,9 C 3,3 C 98 % 1009,6 hPa 0,0 l/m 4,8 km/h (1 Bft) O-NO 67 0 min 0,000 mm 0,0 UV-I 0 W/m 0,6 C 0,9 C 8,0 km/h (2 Bft) 100,00 %
30.12.2017 18:42 1,0 C 3,3 C 98 % 1009,7 hPa 0,0 l/m 4,8 km/h (1 Bft) O-NO 67 0 min 0,000 mm 0,0 UV-I 0 W/m 0,7 C 1,0 C 6,4 km/h (2 Bft) 100,00 %
30.12.2017 18:43 1,0 C 3,3 C 98 % 1009,9 hPa 0,0 l/m 4,8 km/h (1 Bft) O-NO 67 0 min 0,000 mm 0,0 UV-I 0 W/m 0,7 C 1,0 C 6,4 km/h (2 Bft) 95,65 %
30.12.2017 18:44 1,0 C 3,3 C 98 % 1010,0 hPa 0,0 l/m 6,4 km/h (2 Bft) O-NO 67 0 min 0,000 mm 0,0 UV-I 0 W/m 0,7 C 1,0 C 6,4 km/h (2 Bft) 100,00 %
30.12.2017 18:45 1,0 C 3,3 C 98 % 1009,9 hPa 0,0 l/m 4,8 km/h (1 Bft) O-NO 67 0 min 0,000 mm 0,0 UV-I 0 W/m 0,7 C 1,0 C 6,4 km/h (2 Bft) 100,00 %
30.12.2017 18:46 1,1 C 3,3 C 98 % 1009,8 hPa 0,0 l/m 3,2 km/h (1 Bft) O-NO 67 0 min 0,000 mm 0,0 UV-I 0 W/m 0,8 C 1,1 C 6,4 km/h (2 Bft) 100,00 %
30.12.2017 18:47 1,1 C 3,3 C 98 % 1009,8 hPa 0,0 l/m 4,8 km/h (1 Bft) O-NO 67 0 min 0,000 mm 0,0 UV-I 0 W/m 0,8 C 1,1 C 6,4 km/h (2 Bft) 100,00 %
30.12.2017 18:48 1,1 C 3,3 C 98 % 1009,9 hPa 0,0 l/m 4,8 km/h (1 Bft) O-NO 67 0 min 0,000 mm 0,0 UV-I 0 W/m 0,8 C 1,1 C 6,4 km/h (2 Bft) 100,00 %
30.12.2017 18:49 1,1 C 3,3 C 98 % 1009,9 hPa 0,0 l/m 4,8 km/h (1 Bft) O-NO 67 0 min 0,000 mm 0,0 UV-I 0 W/m 0,8 C 1,1 C 6,4 km/h (2 Bft) 100,00 %
30.12.2017 18:50 1,1 C 3,3 C 98 % 1009,9 hPa 0,0 l/m 4,8 km/h (1 Bft) O-NO 67 0 min 0,000 mm 0,0 UV-I 0 W/m 0,8 C 1,1 C 6,4 km/h (2 Bft) 91,30 %
30.12.2017 18:51 1,1 C 3,3 C 98 % 1009,9 hPa 0,0 l/m 4,8 km/h (1 Bft) O-NO 67 0 min 0,000 mm 0,0 UV-I 0 W/m 0,8 C 1,1 C 8,0 km/h (2 Bft) 100,00 %
30.12.2017 18:52 1,1 C 3,3 C 98 % 1009,9 hPa 0,0 l/m 3,2 km/h (1 Bft) O-NO 67 0 min 0,000 mm 0,0 UV-I 0 W/m 0,8 C 1,1 C 4,8 km/h (1 Bft) 100,00 %
30.12.2017 18:53 1,1 C 3,3 C 98 % 1009,9 hPa 0,0 l/m 3,2 km/h (1 Bft) O-NO 67 0 min 0,000 mm 0,0 UV-I 0 W/m 0,8 C 1,1 C 4,8 km/h (1 Bft) 100,00 %
30.12.2017 18:54 1,1 C 3,3 C 98 % 1009,9 hPa 0,0 l/m 3,2 km/h (1 Bft) O-NO 67 0 min 0,000 mm 0,0 UV-I 0 W/m 0,8 C 1,1 C 6,4 km/h (2 Bft) 95,65 %
30.12.2017 18:55 1,1 C 3,3 C 98 % 1009,8 hPa 0,0 l/m 9,7 km/h (2 Bft) O-NO 67 0 min 0,000 mm 0,0 UV-I 0 W/m 0,8 C -2,0 C 12,9 km/h (3 Bft) 100,00 %
30.12.2017 18:56 1,1 C 3,3 C 98 % 1009,8 hPa 0,0 l/m 8,0 km/h (2 Bft) NO 45 0 min 0,000 mm 0,0 UV-I 0 W/m 0,8 C -0,5 C 9,7 km/h (2 Bft) 100,00 %
30.12.2017 18:57 1,1 C 3,3 C 98 % 1010,0 hPa 0,0 l/m 3,2 km/h (1 Bft) NO 45 0 min 0,000 mm 0,0 UV-I 0 W/m 0,8 C 1,1 C 8,0 km/h (2 Bft) 91,30 %
30.12.2017 18:58 1,1 C 3,3 C 98 % 1010,0 hPa 0,0 l/m 3,2 km/h (1 Bft) S 180 0 min 0,000 mm 0,0 UV-I 0 W/m 0,8 C 1,1 C 4,8 km/h (1 Bft) 95,65 %
30.12.2017 18:59 1,1 C 3,3 C 98 % 1010,0 hPa 0,0 l/m 3,2 km/h (1 Bft) S 180 0 min 0,000 mm 0,0 UV-I 0 W/m 0,8 C 1,1 C 4,8 km/h (1 Bft) 100,00 %
30.12.2017 19:00 1,1 C 3,3 C 98 % 1010,0 hPa 0,0 l/m 8,0 km/h (2 Bft) O-SO 112 0 min 0,000 mm 0,0 UV-I 0 W/m 0,8 C -0,5 C 11,3 km/h (2 Bft) 95,65 %
30.12.2017 19:01 1,2 C 3,3 C 98 % 1009,8 hPa 0,0 l/m 9,7 km/h (2 Bft) O-SO 112 0 min 0,000 mm 0,0 UV-I 0 W/m 0,9 C -1,9 C 11,3 km/h (2 Bft) 95,65 %
30.12.2017 19:02 1,2 C 3,3 C 98 % 1009,7 hPa 0,0 l/m 8,0 km/h (2 Bft) O-SO 112 0 min 0,000 mm 0,0 UV-I 0 W/m 0,9 C -0,4 C 9,7 km/h (2 Bft) 100,00 %
30.12.2017 19:03 1,2 C 3,3 C 98 % 1009,7 hPa 0,0 l/m 4,8 km/h (1 Bft) O-SO 112 0 min 0,000 mm 0,0 UV-I 0 W/m 0,9 C 1,2 C 6,4 km/h (2 Bft) 95,65 %
30.12.2017 19:04 1,2 C 3,9 C 98 % 1009,7 hPa 0,0 l/m 3,2 km/h (1 Bft) O-SO 112 0 min 0,000 mm 0,0 UV-I 0 W/m 0,9 C 1,2 C 6,4 km/h (2 Bft) 95,65 %
30.12.2017 19:05 1,2 C 3,9 C 98 % 1009,8 hPa 0,0 l/m 1,6 km/h (1 Bft) O-SO 112 0 min 0,000 mm 0,0 UV-I 0 W/m 0,9 C 1,2 C 3,2 km/h (1 Bft) 95,65 %
30.12.2017 19:06 1,2 C 3,3 C 98 % 1009,9 hPa 0,0 l/m 0,0 km/h (0 Bft) N 0 0 min 0,000 mm 0,0 UV-I 0 W/m 0,9 C 1,2 C 0,0 km/h (0 Bft) 91,30 %
30.12.2017 19:07 1,2 C 3,3 C 98 % 1009,9 hPa 0,0 l/m 1,6 km/h (1 Bft) O-SO 112 0 min 0,000 mm 0,0 UV-I 0 W/m 0,9 C 1,2 C 3,2 km/h (1 Bft) 95,65 %
30.12.2017 19:08 1,2 C 3,3 C 98 % 1009,9 hPa 0,0 l/m 3,2 km/h (1 Bft) O-SO 112 0 min 0,000 mm 0,0 UV-I 0 W/m 0,9 C 1,2 C 4,8 km/h (1 Bft) 100,00 %
30.12.2017 19:09 1,2 C 3,3 C 98 % 1009,9 hPa 0,0 l/m 3,2 km/h (1 Bft) O-SO 112 0 min 0,000 mm 0,0 UV-I 0 W/m 0,9 C 1,2 C 4,8 km/h (1 Bft) 95,65 %
30.12.2017 19:10 1,2 C 3,3 C 98 % 1009,9 hPa 0,0 l/m 4,8 km/h (1 Bft) O-SO 112 0 min 0,000 mm 0,0 UV-I 0 W/m 0,9 C 1,2 C 6,4 km/h (2 Bft) 100,00 %
30.12.2017 19:11 1,2 C 3,9 C 98 % 1010,0 hPa 0,0 l/m 3,2 km/h (1 Bft) O-SO 112 0 min 0,000 mm 0,0 UV-I 0 W/m 0,9 C 1,2 C 4,8 km/h (1 Bft) 91,30 %
30.12.2017 19:12 1,2 C 3,9 C 98 % 1010,0 hPa 0,0 l/m 3,2 km/h (1 Bft) O-SO 112 0 min 0,000 mm 0,0 UV-I 0 W/m 0,9 C 1,2 C 3,2 km/h (1 Bft) 100,00 %
30.12.2017 19:13 1,3 C 3,3 C 98 % 1010,1 hPa 0,0 l/m 3,2 km/h (1 Bft) O-SO 112 0 min 0,000 mm 0,0 UV-I 0 W/m 1,0 C 1,3 C 4,8 km/h (1 Bft) 95,65 %
30.12.2017 19:14 1,3 C 3,3 C 98 % 1010,1 hPa 0,0 l/m 3,2 km/h (1 Bft) O-SO 112 0 min 0,000 mm 0,0 UV-I 0 W/m 1,0 C 1,3 C 4,8 km/h (1 Bft) 95,65 %
30.12.2017 19:15 1,3 C 3,3 C 98 % 1010,1 hPa 0,0 l/m 3,2 km/h (1 Bft) O-SO 112 0 min 0,000 mm 0,0 UV-I 0 W/m 1,0 C 1,3 C 3,2 km/h (1 Bft) 86,96 %
30.12.2017 19:16 1,3 C 3,3 C 98 % 1010,0 hPa 0,0 l/m 4,8 km/h (1 Bft) O-SO 112 0 min 0,000 mm 0,0 UV-I 0 W/m 1,0 C 1,3 C 4,8 km/h (1 Bft) 91,30 %
30.12.2017 19:17 1,3 C 3,9 C 98 % 1010,0 hPa 0,0 l/m 3,2 km/h (1 Bft) O-SO 112 0 min 0,000 mm 0,0 UV-I 0 W/m 1,0 C 1,3 C 4,8 km/h (1 Bft) 95,65 %
30.12.2017 19:18 1,3 C 3,3 C 98 % 1010,1 hPa 0,0 l/m 3,2 km/h (1 Bft) O-SO 112 0 min 0,000 mm 0,0 UV-I 0 W/m 1,0 C 1,3 C 4,8 km/h (1 Bft) 91,30 %
30.12.2017 19:19 1,3 C 3,3 C 98 % 1010,1 hPa 0,0 l/m 3,2 km/h (1 Bft) O-SO 112 0 min 0,000 mm 0,0 UV-I 0 W/m 1,0 C 1,3 C 4,8 km/h (1 Bft) 95,65 %
30.12.2017 19:20 1,3 C 3,3 C 98 % 1010,1 hPa 0,0 l/m 3,2 km/h (1 Bft) O-SO 112 0 min 0,000 mm 0,0 UV-I 0 W/m 1,0 C 1,3 C 4,8 km/h (1 Bft) 86,96 %
30.12.2017 19:21 1,3 C 3,3 C 98 % 1009,9 hPa 0,0 l/m 3,2 km/h (1 Bft) O-SO 112 0 min 0,000 mm 0,0 UV-I 0 W/m 1,0 C 1,3 C 3,2 km/h (1 Bft) 100,00 %
30.12.2017 19:22 1,3 C 3,3 C 98 % 1009,9 hPa 0,0 l/m 3,2 km/h (1 Bft) O-SO 112 0 min 0,000 mm 0,0 UV-I 0 W/m 1,0 C 1,3 C 3,2 km/h (1 Bft) 95,65 %
30.12.2017 19:23 1,3 C 3,3 C 98 % 1009,9 hPa 0,0 l/m 3,2 km/h (1 Bft) O-SO 112 0 min 0,000 mm 0,0 UV-I 0 W/m 1,0 C 1,3 C 3,2 km/h (1 Bft) 95,65 %
30.12.2017 19:24 1,4 C 3,3 C 98 % 1009,9 hPa 0,0 l/m 1,6 km/h (1 Bft) O-SO 112 0 min 0,000 mm 0,0 UV-I 0 W/m 1,1 C 1,4 C 3,2 km/h (1 Bft) 82,61 %
30.12.2017 19:25 1,4 C 3,3 C 98 % 1009,8 hPa 0,0 l/m 3,2 km/h (1 Bft) O-SO 112 0 min 0,000 mm 0,0 UV-I 0 W/m 1,1 C 1,4 C 4,8 km/h (1 Bft) 95,65 %
30.12.2017 19:26 1,4 C 3,3 C 98 % 1009,9 hPa 0,0 l/m 3,2 km/h (1 Bft) O-SO 112 0 min 0,000 mm 0,0 UV-I 0 W/m 1,1 C 1,4 C 4,8 km/h (1 Bft) 95,65 %
30.12.2017 19:27 1,4 C 3,3 C 98 % 1009,9 hPa 0,0 l/m 1,6 km/h (1 Bft) O-SO 112 0 min 0,000 mm 0,0 UV-I 0 W/m 1,1 C 1,4 C 1,6 km/h (1 Bft) 95,65 %
30.12.2017 19:28 1,4 C 3,3 C 98 % 1009,8 hPa 0,0 l/m 1,6 km/h (1 Bft) O-SO 112 0 min 0,000 mm 0,0 UV-I 0 W/m 1,1 C 1,4 C 3,2 km/h (1 Bft) 100,00 %
30.12.2017 19:29 1,4 C 3,3 C 98 % 1009,8 hPa 0,0 l/m 1,6 km/h (1 Bft) O-SO 112 0 min 0,000 mm 0,0 UV-I 0 W/m 1,1 C 1,4 C 3,2 km/h (1 Bft) 95,65 %
30.12.2017 19:30 1,3 C 3,3 C 98 % 1009,9 hPa 0,0 l/m 1,6 km/h (1 Bft) O-SO 112 0 min 0,000 mm 0,0 UV-I 0 W/m 1,0 C 1,3 C 3,2 km/h (1 Bft) 95,65 %
30.12.2017 19:31 1,3 C 3,3 C 98 % 1010,0 hPa 0,0 l/m 1,6 km/h (1 Bft) O-SO 112 0 min 0,000 mm 0,0 UV-I 0 W/m 1,0 C 1,3 C 3,2 km/h (1 Bft) 95,65 %
30.12.2017 19:32 1,3 C 3,3 C 98 % 1010,1 hPa 0,0 l/m 0,0 km/h (0 Bft) O-SO 112 0 min 0,000 mm 0,0 UV-I 0 W/m 1,0 C 1,3 C 1,6 km/h (1 Bft) 95,65 %
30.12.2017 19:33 1,3 C 3,3 C 98 % 1010,1 hPa 0,0 l/m 0,0 km/h (0 Bft) O-SO 112 0 min 0,000 mm 0,0 UV-I 0 W/m 1,0 C 1,3 C 1,6 km/h (1 Bft) 95,65 %
30.12.2017 19:34 1,3 C 3,9 C 98 % 1010,0 hPa 0,0 l/m 0,0 km/h (0 Bft) N 0 0 min 0,000 mm 0,0 UV-I 0 W/m 1,0 C 1,3 C 0,0 km/h (0 Bft) 95,65 %
30.12.2017 19:35 1,4 C 3,9 C 98 % 1010,0 hPa 0,0 l/m 1,6 km/h (1 Bft) O-SO 112 0 min 0,000 mm 0,0 UV-I 0 W/m 1,1 C 1,4 C 1,6 km/h (1 Bft) 95,65 %
30.12.2017 19:36 1,4 C 3,3 C 98 % 1010,0 hPa 0,0 l/m 1,6 km/h (1 Bft) O-SO 112 0 min 0,000 mm 0,0 UV-I 0 W/m 1,1 C 1,4 C 1,6 km/h (1 Bft) 95,65 %
30.12.2017 19:37 1,4 C 3,3 C 98 % 1010,1 hPa 0,0 l/m 0,0 km/h (0 Bft) O-SO 112 0 min 0,000 mm 0,0 UV-I 0 W/m 1,1 C 1,4 C 1,6 km/h (1 Bft) 100,00 %
30.12.2017 19:38 1,4 C 3,3 C 98 % 1010,2 hPa 0,0 l/m 0,0 km/h (0 Bft) N 0 0 min 0,000 mm 0,0 UV-I 0 W/m 1,1 C 1,4 C 0,0 km/h (0 Bft) 95,65 %
30.12.2017 19:39 1,4 C 3,3 C 98 % 1010,2 hPa 0,0 l/m 0,0 km/h (0 Bft) N 0 0 min 0,000 mm 0,0 UV-I 0 W/m 1,1 C 1,4 C 0,0 km/h (0 Bft) 100,00 %
30.12.2017 19:40 1,3 C 3,3 C 98 % 1010,2 hPa 0,0 l/m 0,0 km/h (0 Bft) N 0 0 min 0,000 mm 0,0 UV-I 0 W/m 1,0 C 1,3 C 0,0 km/h (0 Bft) 91,30 %
30.12.2017 19:41 1,2 C 3,3 C 98 % 1010,2 hPa 0,0 l/m 0,0 km/h (0 Bft) N 0 0 min 0,000 mm 0,0 UV-I 0 W/m 0,9 C 1,2 C 0,0 km/h (0 Bft) 100,00 %
30.12.2017 19:42 1,2 C 3,3 C 98 % 1010,2 hPa 0,0 l/m 1,6 km/h (1 Bft) O-SO 112 0 min 0,000 mm 0,0 UV-I 0 W/m 0,9 C 1,2 C 3,2 km/h (1 Bft) 95,65 %
30.12.2017 19:43 1,3 C 3,3 C 98 % 1010,1 hPa 0,0 l/m 1,6 km/h (1 Bft) O-SO 112 0 min 0,000 mm 0,0 UV-I 0 W/m 1,0 C 1,3 C 3,2 km/h (1 Bft) 100,00 %
30.12.2017 19:44 1,3 C 3,3 C 98 % 1010,1 hPa 0,0 l/m 1,6 km/h (1 Bft) O-SO 112 0 min 0,000 mm 0,0 UV-I 0 W/m 1,0 C 1,3 C 3,2 km/h (1 Bft) 95,65 %
30.12.2017 19:45 1,3 C 3,3 C 98 % 1010,1 hPa 0,0 l/m 3,2 km/h (1 Bft) O-SO 112 0 min 0,000 mm 0,0 UV-I 0 W/m 1,0 C 1,3 C 3,2 km/h (1 Bft) 95,65 %
30.12.2017 19:46 1,3 C 3,3 C 98 % 1010,1 hPa 0,0 l/m 1,6 km/h (1 Bft) O-SO 112 0 min 0,000 mm 0,0 UV-I 0 W/m 1,0 C 1,3 C 3,2 km/h (1 Bft) 95,65 %
30.12.2017 19:47 1,3 C 3,3 C 98 % 1010,1 hPa 0,0 l/m 3,2 km/h (1 Bft) O-SO 112 0 min 0,000 mm 0,0 UV-I 0 W/m 1,0 C 1,3 C 4,8 km/h (1 Bft) 95,65 %
30.12.2017 19:48 1,3 C 3,3 C 98 % 1010,1 hPa 0,0 l/m 3,2 km/h (1 Bft) O-SO 112 0 min 0,000 mm 0,0 UV-I 0 W/m 1,0 C 1,3 C 4,8 km/h (1 Bft) 100,00 %
30.12.2017 19:49 1,4 C 3,3 C 98 % 1010,1 hPa 0,0 l/m 0,0 km/h (0 Bft) O-SO 112 0 min 0,000 mm 0,0 UV-I 0 W/m 1,1 C 1,4 C 1,6 km/h (1 Bft) 95,65 %
30.12.2017 19:50 1,4 C 3,3 C 98 % 1010,2 hPa 0,0 l/m 0,0 km/h (0 Bft) N 0 0 min 0,000 mm 0,0 UV-I 0 W/m 1,1 C 1,4 C 0,0 km/h (0 Bft) 100,00 %
30.12.2017 19:51 1,4 C 3,3 C 98 % 1010,2 hPa 0,0 l/m 0,0 km/h (0 Bft) N 0 0 min 0,000 mm 0,0 UV-I 0 W/m 1,1 C 1,4 C 0,0 km/h (0 Bft) 95,65 %
30.12.2017 19:52 1,4 C 3,3 C 98 % 1010,1 hPa 0,0 l/m 0,0 km/h (0 Bft) O-SO 112 0 min 0,000 mm 0,0 UV-I 0 W/m 1,1 C 1,4 C 1,6 km/h (1 Bft) 100,00 %
30.12.2017 19:53 1,4 C 3,3 C 98 % 1010,0 hPa 0,0 l/m 0,0 km/h (0 Bft) O-SO 112 0 min 0,000 mm 0,0 UV-I 0 W/m 1,1 C 1,4 C 1,6 km/h (1 Bft) 95,65 %
30.12.2017 19:54 1,4 C 3,3 C 98 % 1010,1 hPa 0,0 l/m 0,0 km/h (0 Bft) N 0 0 min 0,000 mm 0,0 UV-I 0 W/m 1,1 C 1,4 C 0,0 km/h (0 Bft) 95,65 %
30.12.2017 19:55 1,4 C 3,3 C 98 % 1010,2 hPa 0,0 l/m 0,0 km/h (0 Bft) N 0 0 min 0,000 mm 0,0 UV-I 0 W/m 1,1 C 1,4 C 0,0 km/h (0 Bft) 100,00 %
30.12.2017 19:56 1,4 C 3,3 C 98 % 1010,0 hPa 0,0 l/m 0,0 km/h (0 Bft) N 0 0 min 0,000 mm 0,0 UV-I 0 W/m 1,1 C 1,4 C 0,0 km/h (0 Bft) 100,00 %
30.12.2017 19:57 1,4 C 3,3 C 98 % 1010,0 hPa 0,0 l/m 0,0 km/h (0 Bft) N 0 0 min 0,000 mm 0,0 UV-I 0 W/m 1,1 C 1,4 C 0,0 km/h (0 Bft) 100,00 %
30.12.2017 19:58 1,4 C 3,3 C 98 % 1010,1 hPa 0,0 l/m 0,0 km/h (0 Bft) N 0 0 min 0,000 mm 0,0 UV-I 0 W/m 1,1 C 1,4 C 0,0 km/h (0 Bft) 100,00 %
30.12.2017 19:59 1,4 C 3,3 C 98 % 1010,0 hPa 0,0 l/m 0,0 km/h (0 Bft) O-SO 112 0 min 0,000 mm 0,0 UV-I 0 W/m 1,1 C 1,4 C 1,6 km/h (1 Bft) 100,00 %
30.12.2017 20:00 1,4 C 3,3 C 98 % 1010,0 hPa 0,0 l/m 0,0 km/h (0 Bft) N 0 0 min 0,000 mm 0,0 UV-I 0 W/m 1,1 C 1,4 C 0,0 km/h (0 Bft) 100,00 %
30.12.2017 20:01 1,3 C 3,3 C 98 % 1010,0 hPa 0,0 l/m 0,0 km/h (0 Bft) O-SO 112 0 min 0,000 mm 0,0 UV-I 0 W/m 1,0 C 1,3 C 1,6 km/h (1 Bft) 95,65 %
30.12.2017 20:02 1,3 C 3,3 C 98 % 1009,9 hPa 0,0 l/m 1,6 km/h (1 Bft) O-SO 112 0 min 0,000 mm 0,0 UV-I 0 W/m 1,0 C 1,3 C 3,2 km/h (1 Bft) 100,00 %
30.12.2017 20:03 1,3 C 3,3 C 98 % 1009,9 hPa 0,0 l/m 3,2 km/h (1 Bft) S 180 0 min 0,000 mm 0,0 UV-I 0 W/m 1,0 C 1,3 C 6,4 km/h (2 Bft) 100,00 %
30.12.2017 20:04 1,3 C 3,3 C 98 % 1009,8 hPa 0,0 l/m 1,6 km/h (1 Bft) S 180 0 min 0,000 mm 0,0 UV-I 0 W/m 1,0 C 1,3 C 1,6 km/h (1 Bft) 100,00 %
30.12.2017 20:05 1,3 C 3,3 C 98 % 1009,8 hPa 0,0 l/m 1,6 km/h (1 Bft) S 180 0 min 0,000 mm 0,0 UV-I 0 W/m 1,0 C 1,3 C 3,2 km/h (1 Bft) 100,00 %
30.12.2017 20:06 1,3 C 3,3 C 98 % 1009,9 hPa 0,0 l/m 0,0 km/h (0 Bft) N 0 0 min 0,000 mm 0,0 UV-I 0 W/m 1,0 C 1,3 C 0,0 km/h (0 Bft) 100,00 %
30.12.2017 20:07 1,3 C 3,3 C 98 % 1009,9 hPa 0,0 l/m 0,0 km/h (0 Bft) N 0 0 min 0,000 mm 0,0 UV-I 0 W/m 1,0 C 1,3 C 0,0 km/h (0 Bft) 95,65 %
30.12.2017 20:08 1,3 C 3,3 C 98 % 1010,0 hPa 0,0 l/m 0,0 km/h (0 Bft) N 0 0 min 0,000 mm 0,0 UV-I 0 W/m 1,0 C 1,3 C 0,0 km/h (0 Bft) 95,65 %
30.12.2017 20:09 1,3 C 3,3 C 98 % 1010,0 hPa 0,0 l/m 1,6 km/h (1 Bft) S 180 0 min 0,000 mm 0,0 UV-I 0 W/m 1,0 C 1,3 C 3,2 km/h (1 Bft) 100,00 %
30.12.2017 20:10 1,3 C 3,3 C 98 % 1010,2 hPa 0,0 l/m 0,0 km/h (0 Bft) N 0 0 min 0,000 mm 0,0 UV-I 0 W/m 1,0 C 1,3 C 0,0 km/h (0 Bft) 100,00 %
30.12.2017 20:11 1,3 C 3,3 C 98 % 1010,1 hPa 0,0 l/m 0,0 km/h (0 Bft) N 0 0 min 0,000 mm 0,0 UV-I 0 W/m 1,0 C 1,3 C 0,0 km/h (0 Bft) 91,30 %
30.12.2017 20:12 1,2 C 3,3 C 98 % 1010,3 hPa 0,0 l/m 1,6 km/h (1 Bft) S 180 0 min 0,000 mm 0,0 UV-I 0 W/m 0,9 C 1,2 C 3,2 km/h (1 Bft) 95,65 %
30.12.2017 20:13 1,2 C 3,3 C 98 % 1010,4 hPa 0,0 l/m 0,0 km/h (0 Bft) S 180 0 min 0,000 mm 0,0 UV-I 0 W/m 0,9 C 1,2 C 3,2 km/h (1 Bft) 78,26 %
30.12.2017 20:14 1,2 C 3,9 C 98 % 1010,3 hPa 0,0 l/m 3,2 km/h (1 Bft) S 180 0 min 0,000 mm 0,0 UV-I 0 W/m 0,9 C 1,2 C 4,8 km/h (1 Bft) 95,65 %
30.12.2017 20:15 1,2 C 3,3 C 98 % 1010,4 hPa 0,0 l/m 1,6 km/h (1 Bft) S 180 0 min 0,000 mm 0,0 UV-I 0 W/m 0,9 C 1,2 C 4,8 km/h (1 Bft) 95,65 %
30.12.2017 20:16 1,3 C 3,3 C 98 % 1010,3 hPa 0,0 l/m 3,2 km/h (1 Bft) S 180 0 min 0,000 mm 0,0 UV-I 0 W/m 1,0 C 1,3 C 3,2 km/h (1 Bft) 60,87 %
30.12.2017 20:17 1,3 C 3,3 C 98 % 1010,4 hPa 0,0 l/m 0,0 km/h (0 Bft) N 0 0 min 0,000 mm 0,0 UV-I 0 W/m 1,0 C 1,3 C 0,0 km/h (0 Bft) 0,00 %
30.12.2017 20:18 1,3 C 3,3 C 98 % 1010,4 hPa 0,0 l/m 0,0 km/h (0 Bft) N 0 0 min 0,000 mm 0,0 UV-I 0 W/m 1,0 C 1,3 C 0,0 km/h (0 Bft) 0,00 %
30.12.2017 20:19 1,3 C 3,9 C 98 % 1010,3 hPa 0,0 l/m 0,0 km/h (0 Bft) N 0 0 min 0,000 mm 0,0 UV-I 0 W/m 1,0 C 1,3 C 0,0 km/h (0 Bft) 0,00 %
30.12.2017 20:20 1,3 C 3,9 C 98 % 1010,3 hPa 0,0 l/m 1,6 km/h (1 Bft) S-SW 202 0 min 0,000 mm 0,0 UV-I 0 W/m 1,0 C 1,3 C 1,6 km/h (1 Bft) 39,13 %
30.12.2017 20:21 1,3 C 3,3 C 98 % 1009,9 hPa 0,0 l/m 1,6 km/h (1 Bft) S 180 0 min 0,000 mm 0,0 UV-I 0 W/m 1,0 C 1,3 C 3,2 km/h (1 Bft) 95,65 %
30.12.2017 20:22 1,3 C 3,3 C 98 % 1009,8 hPa 0,0 l/m 3,2 km/h (1 Bft) S 180 0 min 0,000 mm 0,0 UV-I 0 W/m 1,0 C 1,3 C 4,8 km/h (1 Bft) 95,65 %
30.12.2017 20:23 1,3 C 3,3 C 98 % 1009,8 hPa 0,0 l/m 1,6 km/h (1 Bft) S 180 0 min 0,000 mm 0,0 UV-I 0 W/m 1,0 C 1,3 C 3,2 km/h (1 Bft) 100,00 %
30.12.2017 20:24 1,4 C 3,3 C 98 % 1009,8 hPa 0,0 l/m 3,2 km/h (1 Bft) S 180 0 min 0,000 mm 0,0 UV-I 0 W/m 1,1 C 1,4 C 4,8 km/h (1 Bft) 95,65 %
30.12.2017 20:25 1,4 C 3,3 C 98 % 1009,9 hPa 0,0 l/m 3,2 km/h (1 Bft) S 180 0 min 0,000 mm 0,0 UV-I 0 W/m 1,1 C 1,4 C 4,8 km/h (1 Bft) 95,65 %
30.12.2017 20:26 1,4 C 3,3 C 98 % 1009,9 hPa 0,0 l/m 1,6 km/h (1 Bft) S 180 0 min 0,000 mm 0,0 UV-I 0 W/m 1,1 C 1,4 C 3,2 km/h (1 Bft) 95,65 %
30.12.2017 20:27 1,4 C 3,3 C 98 % 1009,9 hPa 0,0 l/m 1,6 km/h (1 Bft) S 180 0 min 0,000 mm 0,0 UV-I 0 W/m 1,1 C 1,4 C 1,6 km/h (1 Bft) 100,00 %
30.12.2017 20:28 1,5 C 3,3 C 98 % 1009,9 hPa 0,0 l/m 0,0 km/h (0 Bft) N 0 0 min 0,000 mm 0,0 UV-I 0 W/m 1,2 C 1,5 C 0,0 km/h (0 Bft) 82,61 %
30.12.2017 20:29 1,6 C 3,3 C 98 % 1010,0 hPa 0,0 l/m 1,6 km/h (1 Bft) S 180 0 min 0,000 mm 0,0 UV-I 0 W/m 1,3 C 1,6 C 3,2 km/h (1 Bft) 95,65 %
30.12.2017 20:30 1,4 C 3,3 C 98 % 1010,0 hPa 0,2 l/m 0,0 km/h (0 Bft) S 180 0 min 0,000 mm 0,0 UV-I 0 W/m 1,1 C 1,4 C 3,2 km/h (1 Bft) 95,65 %
30.12.2017 20:31 1,3 C 3,9 C 98 % 1010,0 hPa 0,0 l/m 0,0 km/h (0 Bft) S 180 0 min 0,000 mm 0,0 UV-I 0 W/m 1,0 C 1,3 C 1,6 km/h (1 Bft) 100,00 %
30.12.2017 20:32 1,2 C 3,9 C 98 % 1010,0 hPa 0,0 l/m 0,0 km/h (0 Bft) S 180 0 min 0,000 mm 0,0 UV-I 0 W/m 0,9 C 1,2 C 1,6 km/h (1 Bft) 95,65 %
30.12.2017 20:33 1,1 C 3,3 C 98 % 1010,2 hPa 0,0 l/m 0,0 km/h (0 Bft) S 180 0 min 0,000 mm 0,0 UV-I 0 W/m 0,8 C 1,1 C 1,6 km/h (1 Bft) 100,00 %
30.12.2017 20:34 1,1 C 3,9 C 98 % 1010,1 hPa 0,0 l/m 0,0 km/h (0 Bft) N 0 0 min 0,000 mm 0,0 UV-I 0 W/m 0,8 C 1,1 C 0,0 km/h (0 Bft) 95,65 %
30.12.2017 20:35 1,1 C 3,3 C 98 % 1010,2 hPa 0,0 l/m 1,6 km/h (1 Bft) S 180 0 min 0,000 mm 0,0 UV-I 0 W/m 0,8 C 1,1 C 3,2 km/h (1 Bft) 100,00 %
30.12.2017 20:36 1,1 C 3,3 C 98 % 1010,2 hPa 0,0 l/m 1,6 km/h (1 Bft) S 180 0 min 0,000 mm 0,0 UV-I 0 W/m 0,8 C 1,1 C 3,2 km/h (1 Bft) 91,30 %
30.12.2017 20:37 1,1 C 3,3 C 98 % 1010,1 hPa 0,0 l/m 1,6 km/h (1 Bft) S 180 0 min 0,000 mm 0,0 UV-I 0 W/m 0,8 C 1,1 C 1,6 km/h (1 Bft) 95,65 %
30.12.2017 20:38 1,1 C 3,3 C 98 % 1010,2 hPa 0,0 l/m 0,0 km/h (0 Bft) N 0 0 min 0,000 mm 0,0 UV-I 0 W/m 0,8 C 1,1 C 0,0 km/h (0 Bft) 100,00 %
30.12.2017 20:39 1,2 C 3,3 C 98 % 1010,2 hPa 0,0 l/m 0,0 km/h (0 Bft) S 180 0 min 0,000 mm 0,0 UV-I 0 W/m 0,9 C 1,2 C 1,6 km/h (1 Bft) 95,65 %
30.12.2017 20:40 1,2 C 3,3 C 98 % 1010,3 hPa 0,0 l/m 0,0 km/h (0 Bft) S 180 0 min 0,000 mm 0,0 UV-I 0 W/m 0,9 C 1,2 C 1,6 km/h (1 Bft) 100,00 %
30.12.2017 20:41 1,2 C 3,3 C 98 % 1010,3 hPa 0,0 l/m 0,0 km/h (0 Bft) S 180 0 min 0,000 mm 0,0 UV-I 0 W/m 0,9 C 1,2 C 1,6 km/h (1 Bft) 95,65 %
30.12.2017 20:42 1,1 C 3,3 C 98 % 1010,4 hPa 0,2 l/m 1,6 km/h (1 Bft) S 180 0 min 0,000 mm 0,0 UV-I 0 W/m 0,8 C 1,1 C 4,8 km/h (1 Bft) 100,00 %
30.12.2017 20:43 1,1 C 3,3 C 98 % 1010,4 hPa 0,0 l/m 6,4 km/h (2 Bft) N-NO 22 0 min 0,000 mm 0,0 UV-I 0 W/m 0,8 C 1,1 C 6,4 km/h (2 Bft) 86,96 %
30.12.2017 20:44 1,1 C 3,3 C 98 % 1010,3 hPa 0,0 l/m 6,4 km/h (2 Bft) N-NO 22 0 min 0,000 mm 0,0 UV-I 0 W/m 0,8 C 1,1 C 8,0 km/h (2 Bft) 100,00 %
30.12.2017 20:45 1,1 C 3,3 C 98 % 1010,4 hPa 0,0 l/m 6,4 km/h (2 Bft) NO 45 0 min 0,000 mm 0,0 UV-I 0 W/m 0,8 C 1,1 C 9,7 km/h (2 Bft) 91,30 %
30.12.2017 20:46 1,2 C 3,9 C 98 % 1010,4 hPa 0,0 l/m 8,0 km/h (2 Bft) N-NO 22 0 min 0,000 mm 0,0 UV-I 0 W/m 0,9 C -0,4 C 12,9 km/h (3 Bft) 100,00 %
30.12.2017 20:47 1,2 C 3,9 C 98 % 1010,4 hPa 0,0 l/m 12,9 km/h (3 Bft) N-NO 22 0 min 0,000 mm 0,0 UV-I 0 W/m 0,9 C -4,2 C 14,5 km/h (3 Bft) 95,65 %
30.12.2017 20:48 1,2 C 3,3 C 98 % 1010,4 hPa 0,0 l/m 9,7 km/h (2 Bft) N-NO 22 0 min 0,000 mm 0,0 UV-I 0 W/m 0,9 C -1,9 C 12,9 km/h (3 Bft) 100,00 %
30.12.2017 20:49 1,2 C 3,3 C 98 % 1010,4 hPa 0,0 l/m 9,7 km/h (2 Bft) N-NO 22 0 min 0,000 mm 0,0 UV-I 0 W/m 0,9 C -1,9 C 12,9 km/h (3 Bft) 100,00 %
30.12.2017 20:50 1,2 C 3,3 C 98 % 1010,3 hPa 0,0 l/m 11,3 km/h (2 Bft) NO 45 0 min 0,000 mm 0,0 UV-I 0 W/m 0,9 C -3,1 C 16,1 km/h (3 Bft) 95,65 %
30.12.2017 20:51 1,2 C 3,3 C 98 % 1010,4 hPa 0,0 l/m 9,7 km/h (2 Bft) NO 45 0 min 0,000 mm 0,0 UV-I 0 W/m 0,9 C -1,9 C 14,5 km/h (3 Bft) 100,00 %
30.12.2017 20:52 1,2 C 3,3 C 98 % 1010,4 hPa 0,0 l/m 6,4 km/h (2 Bft) N-NO 22 0 min 0,000 mm 0,0 UV-I 0 W/m 0,9 C 1,2 C 12,9 km/h (3 Bft) 100,00 %
30.12.2017 20:53 1,2 C 3,3 C 98 % 1010,4 hPa 0,0 l/m 11,3 km/h (2 Bft) N-NO 22 0 min 0,000 mm 0,0 UV-I 0 W/m 0,9 C -3,1 C 14,5 km/h (3 Bft) 100,00 %
30.12.2017 20:54 1,2 C 3,3 C 98 % 1010,4 hPa 0,0 l/m 9,7 km/h (2 Bft) N-NO 22 0 min 0,000 mm 0,0 UV-I 0 W/m 0,9 C -1,9 C 14,5 km/h (3 Bft) 100,00 %
30.12.2017 20:55 1,2 C 3,3 C 98 % 1010,4 hPa 0,0 l/m 6,4 km/h (2 Bft) NO 45 0 min 0,000 mm 0,0 UV-I 0 W/m 0,9 C 1,2 C 9,7 km/h (2 Bft) 100,00 %
30.12.2017 20:56 1,2 C 3,3 C 98 % 1010,3 hPa 0,0 l/m 6,4 km/h (2 Bft) NO 45 0 min 0,000 mm 0,0 UV-I 0 W/m 0,9 C 1,2 C 9,7 km/h (2 Bft) 100,00 %
30.12.2017 20:57 1,2 C 3,3 C 98 % 1010,3 hPa 0,0 l/m 4,8 km/h (1 Bft) NO 45 0 min 0,000 mm 0,0 UV-I 0 W/m 0,9 C 1,2 C 6,4 km/h (2 Bft) 95,65 %
30.12.2017 20:58 1,2 C 3,3 C 98 % 1010,4 hPa 0,0 l/m 4,8 km/h (1 Bft) N-NO 22 0 min 0,000 mm 0,0 UV-I 0 W/m 0,9 C 1,2 C 8,0 km/h (2 Bft) 100,00 %
30.12.2017 20:59 1,1 C 3,9 C 98 % 1010,5 hPa 0,0 l/m 3,2 km/h (1 Bft) N-NO 22 0 min 0,000 mm 0,0 UV-I 0 W/m 0,8 C 1,1 C 8,0 km/h (2 Bft) 100,00 %
30.12.2017 21:00 1,1 C 3,9 C 98 % 1010,6 hPa 0,0 l/m 1,6 km/h (1 Bft) N 360 0 min 0,000 mm 0,0 UV-I 0 W/m 0,8 C 1,1 C 3,2 km/h (1 Bft) 100,00 %
30.12.2017 21:01 1,0 C 3,9 C 98 % 1010,6 hPa 0,0 l/m 1,6 km/h (1 Bft) N 360 0 min 0,000 mm 0,0 UV-I 0 W/m 0,7 C 1,0 C 4,8 km/h (1 Bft) 100,00 %
30.12.2017 21:02 1,0 C 3,9 C 98 % 1010,7 hPa 0,0 l/m 3,2 km/h (1 Bft) N-NO 22 0 min 0,000 mm 0,0 UV-I 0 W/m 0,7 C 1,0 C 8,0 km/h (2 Bft) 100,00 %
30.12.2017 21:03 1,1 C 3,3 C 98 % 1010,6 hPa 0,0 l/m 8,0 km/h (2 Bft) NO 45 0 min 0,000 mm 0,0 UV-I 0 W/m 0,8 C -0,5 C 9,7 km/h (2 Bft) 100,00 %
30.12.2017 21:04 1,1 C 3,3 C 98 % 1010,6 hPa 0,0 l/m 6,4 km/h (2 Bft) NO 45 0 min 0,000 mm 0,0 UV-I 0 W/m 0,8 C 1,1 C 8,0 km/h (2 Bft) 91,30 %
30.12.2017 21:05 1,1 C 3,9 C 98 % 1010,5 hPa 0,0 l/m 4,8 km/h (1 Bft) NO 45 0 min 0,000 mm 0,0 UV-I 0 W/m 0,8 C 1,1 C 6,4 km/h (2 Bft) 100,00 %
30.12.2017 21:06 1,1 C 3,9 C 98 % 1010,5 hPa 0,0 l/m 4,8 km/h (1 Bft) O-NO 67 0 min 0,000 mm 0,0 UV-I 0 W/m 0,8 C 1,1 C 6,4 km/h (2 Bft) 100,00 %
30.12.2017 21:07 1,2 C 3,9 C 98 % 1010,5 hPa 0,0 l/m 3,2 km/h (1 Bft) O-NO 67 0 min 0,000 mm 0,0 UV-I 0 W/m 0,9 C 1,2 C 6,4 km/h (2 Bft) 100,00 %
30.12.2017 21:08 1,1 C 3,9 C 98 % 1010,4 hPa 0,0 l/m 4,8 km/h (1 Bft) O-NO 67 0 min 0,000 mm 0,0 UV-I 0 W/m 0,8 C 1,1 C 6,4 km/h (2 Bft) 100,00 %
30.12.2017 21:09 1,1 C 3,9 C 98 % 1010,5 hPa 0,0 l/m 3,2 km/h (1 Bft) O-NO 67 0 min 0,000 mm 0,0 UV-I 0 W/m 0,8 C 1,1 C 4,8 km/h (1 Bft) 100,00 %
30.12.2017 21:10 1,2 C 3,3 C 98 % 1010,5 hPa 0,0 l/m 1,6 km/h (1 Bft) O-NO 67 0 min 0,000 mm 0,0 UV-I 0 W/m 0,9 C 1,2 C 3,2 km/h (1 Bft) 100,00 %
30.12.2017 21:11 1,2 C 3,3 C 98 % 1010,4 hPa 0,0 l/m 0,0 km/h (0 Bft) O-NO 67 0 min 0,000 mm 0,0 UV-I 0 W/m 0,9 C 1,2 C 1,6 km/h (1 Bft) 91,30 %
30.12.2017 21:12 1,2 C 3,9 C 98 % 1010,4 hPa 0,0 l/m 0,0 km/h (0 Bft) N 0 0 min 0,000 mm 0,0 UV-I 0 W/m 0,9 C 1,2 C 0,0 km/h (0 Bft) 100,00 %
30.12.2017 21:13 1,2 C 3,9 C 98 % 1010,4 hPa 0,0 l/m 0,0 km/h (0 Bft) N 0 0 min 0,000 mm 0,0 UV-I 0 W/m 0,9 C 1,2 C 0,0 km/h (0 Bft) 100,00 %
30.12.2017 21:14 1,2 C 3,9 C 98 % 1010,3 hPa 0,0 l/m 0,0 km/h (0 Bft) O-NO 67 0 min 0,000 mm 0,0 UV-I 0 W/m 0,9 C 1,2 C 1,6 km/h (1 Bft) 100,00 %
30.12.2017 21:15 1,2 C 3,9 C 98 % 1010,3 hPa 0,0 l/m 1,6 km/h (1 Bft) O-NO 67 0 min 0,000 mm 0,0 UV-I 0 W/m 0,9 C 1,2 C 3,2 km/h (1 Bft) 100,00 %
30.12.2017 21:16 1,2 C 3,9 C 98 % 1010,2 hPa 0,0 l/m 1,6 km/h (1 Bft) O-NO 67 0 min 0,000 mm 0,0 UV-I 0 W/m 0,9 C 1,2 C 3,2 km/h (1 Bft) 100,00 %
30.12.2017 21:17 1,2 C 3,9 C 98 % 1010,2 hPa 0,0 l/m 3,2 km/h (1 Bft) SO 135 0 min 0,000 mm 0,0 UV-I 0 W/m 0,9 C 1,2 C 6,4 km/h (2 Bft) 100,00 %
30.12.2017 21:18 1,2 C 3,9 C 98 % 1010,1 hPa 0,0 l/m 3,2 km/h (1 Bft) S-SO 157 0 min 0,000 mm 0,0 UV-I 0 W/m 0,9 C 1,2 C 4,8 km/h (1 Bft) 95,65 %
30.12.2017 21:19 1,2 C 3,9 C 98 % 1010,1 hPa 0,0 l/m 1,6 km/h (1 Bft) S-SO 157 0 min 0,000 mm 0,0 UV-I 0 W/m 0,9 C 1,2 C 4,8 km/h (1 Bft) 100,00 %
30.12.2017 21:20 1,2 C 3,9 C 98 % 1010,2 hPa 0,0 l/m 1,6 km/h (1 Bft) S-SO 157 0 min 0,000 mm 0,0 UV-I 0 W/m 0,9 C 1,2 C 3,2 km/h (1 Bft) 95,65 %
30.12.2017 21:21 1,2 C 3,9 C 98 % 1010,2 hPa 0,0 l/m 1,6 km/h (1 Bft) S-SO 157 0 min 0,000 mm 0,0 UV-I 0 W/m 0,9 C 1,2 C 3,2 km/h (1 Bft) 100,00 %
30.12.2017 21:22 1,2 C 3,9 C 98 % 1010,1 hPa 0,0 l/m 1,6 km/h (1 Bft) S-SO 157 0 min 0,000 mm 0,0 UV-I 0 W/m 0,9 C 1,2 C 3,2 km/h (1 Bft) 100,00 %
30.12.2017 21:23 1,3 C 3,9 C 98 % 1010,2 hPa 0,0 l/m 1,6 km/h (1 Bft) S-SO 157 0 min 0,000 mm 0,0 UV-I 0 W/m 1,0 C 1,3 C 1,6 km/h (1 Bft) 100,00 %
30.12.2017 21:24 1,3 C 3,9 C 98 % 1010,3 hPa 0,0 l/m 1,6 km/h (1 Bft) S-SO 157 0 min 0,000 mm 0,0 UV-I 0 W/m 1,0 C 1,3 C 3,2 km/h (1 Bft) 100,00 %
30.12.2017 21:25 1,3 C 3,9 C 98 % 1010,2 hPa 0,0 l/m 1,6 km/h (1 Bft) S-SO 157 0 min 0,000 mm 0,0 UV-I 0 W/m 1,0 C 1,3 C 4,8 km/h (1 Bft) 95,65 %
30.12.2017 21:26 1,4 C 3,3 C 98 % 1010,3 hPa 0,0 l/m 1,6 km/h (1 Bft) S-SO 157 0 min 0,000 mm 0,0 UV-I 0 W/m 1,1 C 1,4 C 4,8 km/h (1 Bft) 95,65 %
30.12.2017 21:27 1,3 C 3,3 C 98 % 1010,4 hPa 0,0 l/m 0,0 km/h (0 Bft) S-SO 157 0 min 0,000 mm 0,0 UV-I 0 W/m 1,0 C 1,3 C 1,6 km/h (1 Bft) 100,00 %
30.12.2017 21:28 1,4 C 3,3 C 98 % 1010,4 hPa 0,0 l/m 1,6 km/h (1 Bft) S-SO 157 0 min 0,000 mm 0,0 UV-I 0 W/m 1,1 C 1,4 C 3,2 km/h (1 Bft) 95,65 %
30.12.2017 21:29 1,3 C 3,3 C 98 % 1010,4 hPa 0,0 l/m 1,6 km/h (1 Bft) S-SO 157 0 min 0,000 mm 0,0 UV-I 0 W/m 1,0 C 1,3 C 1,6 km/h (1 Bft) 91,30 %
30.12.2017 21:30 1,3 C 3,3 C 98 % 1010,5 hPa 0,0 l/m 0,0 km/h (0 Bft) S-SO 157 0 min 0,000 mm 0,0 UV-I 0 W/m 1,0 C 1,3 C 1,6 km/h (1 Bft) 95,65 %
30.12.2017 21:31 1,2 C 3,3 C 98 % 1010,4 hPa 0,0 l/m 0,0 km/h (0 Bft) S-SO 157 0 min 0,000 mm 0,0 UV-I 0 W/m 0,9 C 1,2 C 1,6 km/h (1 Bft) 95,65 %
30.12.2017 21:32 1,1 C 3,3 C 98 % 1010,5 hPa 0,0 l/m 1,6 km/h (1 Bft) SO 135 0 min 0,000 mm 0,0 UV-I 0 W/m 0,8 C 1,1 C 1,6 km/h (1 Bft) 95,65 %
30.12.2017 21:33 1,0 C 3,9 C 98 % 1010,5 hPa 0,0 l/m 0,0 km/h (0 Bft) O-SO 112 0 min 0,000 mm 0,0 UV-I 0 W/m 0,7 C 1,0 C 1,6 km/h (1 Bft) 95,65 %
30.12.2017 21:34 0,9 C 3,9 C 98 % 1010,6 hPa 0,0 l/m 1,6 km/h (1 Bft) N-NO 22 0 min 0,000 mm 0,0 UV-I 0 W/m 0,6 C 0,9 C 3,2 km/h (1 Bft) 100,00 %
30.12.2017 21:35 0,9 C 3,9 C 98 % 1010,6 hPa 0,0 l/m 4,8 km/h (1 Bft) N-NO 22 0 min 0,000 mm 0,0 UV-I 0 W/m 0,6 C 0,9 C 8,0 km/h (2 Bft) 95,65 %
30.12.2017 21:36 0,9 C 3,9 C 98 % 1010,6 hPa 0,0 l/m 6,4 km/h (2 Bft) N-NO 22 0 min 0,000 mm 0,0 UV-I 0 W/m 0,6 C 0,9 C 8,0 km/h (2 Bft) 100,00 %
30.12.2017 21:37 1,1 C 3,9 C 98 % 1010,6 hPa 0,0 l/m 4,8 km/h (1 Bft) NO 45 0 min 0,000 mm 0,0 UV-I 0 W/m 0,8 C 1,1 C 6,4 km/h (2 Bft) 95,65 %
30.12.2017 21:38 1,1 C 3,9 C 98 % 1010,6 hPa 0,0 l/m 4,8 km/h (1 Bft) NO 45 0 min 0,000 mm 0,0 UV-I 0 W/m 0,8 C 1,1 C 8,0 km/h (2 Bft) 95,65 %
30.12.2017 21:39 1,2 C 3,9 C 98 % 1010,6 hPa 0,0 l/m 8,0 km/h (2 Bft) NO 45 0 min 0,000 mm 0,0 UV-I 0 W/m 0,9 C -0,4 C 9,7 km/h (2 Bft) 95,65 %
30.12.2017 21:40 1,2 C 3,9 C 98 % 1010,6 hPa 0,0 l/m 9,7 km/h (2 Bft) O-NO 67 0 min 0,000 mm 0,0 UV-I 0 W/m 0,9 C -1,9 C 12,9 km/h (3 Bft) 95,65 %
30.12.2017 21:41 1,2 C 3,9 C 98 % 1010,6 hPa 0,0 l/m 4,8 km/h (1 Bft) O-NO 67 0 min 0,000 mm 0,0 UV-I 0 W/m 0,9 C 1,2 C 9,7 km/h (2 Bft) 100,00 %
30.12.2017 21:42 1,3 C 3,3 C 98 % 1010,7 hPa 0,0 l/m 4,8 km/h (1 Bft) O-NO 67 0 min 0,000 mm 0,0 UV-I 0 W/m 1,0 C 1,3 C 6,4 km/h (2 Bft) 95,65 %
30.12.2017 21:43 1,3 C 3,3 C 98 % 1010,7 hPa 0,0 l/m 9,7 km/h (2 Bft) NO 45 0 min 0,000 mm 0,0 UV-I 0 W/m 1,0 C -1,8 C 11,3 km/h (2 Bft) 100,00 %
30.12.2017 21:44 1,2 C 3,3 C 98 % 1010,7 hPa 0,0 l/m 12,9 km/h (3 Bft) NO 45 0 min 0,000 mm 0,0 UV-I 0 W/m 0,9 C -4,2 C 16,1 km/h (3 Bft) 91,30 %
30.12.2017 21:45 1,2 C 3,3 C 98 % 1010,6 hPa 0,0 l/m 11,3 km/h (2 Bft) NO 45 0 min 0,000 mm 0,0 UV-I 0 W/m 0,9 C -3,1 C 14,5 km/h (3 Bft) 100,00 %
30.12.2017 21:46 1,2 C 3,3 C 98 % 1010,7 hPa 0,0 l/m 9,7 km/h (2 Bft) NO 45 0 min 0,000 mm 0,0 UV-I 0 W/m 0,9 C -1,9 C 12,9 km/h (3 Bft) 91,30 %
30.12.2017 21:47 1,2 C 3,3 C 98 % 1010,7 hPa 0,0 l/m 4,8 km/h (1 Bft) NO 45 0 min 0,000 mm 0,0 UV-I 0 W/m 0,9 C 1,2 C 9,7 km/h (2 Bft) 91,30 %
30.12.2017 21:48 1,2 C 3,3 C 98 % 1010,7 hPa 0,0 l/m 6,4 km/h (2 Bft) NO 45 0 min 0,000 mm 0,0 UV-I 0 W/m 0,9 C 1,2 C 8,0 km/h (2 Bft) 100,00 %
30.12.2017 21:49 1,2 C 3,3 C 98 % 1010,7 hPa 0,0 l/m 4,8 km/h (1 Bft) NO 45 0 min 0,000 mm 0,0 UV-I 0 W/m 0,9 C 1,2 C 6,4 km/h (2 Bft) 95,65 %
30.12.2017 21:50 1,2 C 3,3 C 98 % 1010,7 hPa 0,0 l/m 3,2 km/h (1 Bft) NO 45 0 min 0,000 mm 0,0 UV-I 0 W/m 0,9 C 1,2 C 4,8 km/h (1 Bft) 100,00 %
30.12.2017 21:51 1,2 C 3,3 C 98 % 1010,7 hPa 0,0 l/m 3,2 km/h (1 Bft) NO 45 0 min 0,000 mm 0,0 UV-I 0 W/m 0,9 C 1,2 C 4,8 km/h (1 Bft) 91,30 %
30.12.2017 21:52 1,2 C 3,3 C 98 % 1010,7 hPa 0,0 l/m 4,8 km/h (1 Bft) O-NO 67 0 min 0,000 mm 0,0 UV-I 0 W/m 0,9 C 1,2 C 6,4 km/h (2 Bft) 100,00 %
30.12.2017 21:53 1,2 C 3,3 C 98 % 1010,7 hPa 0,0 l/m 3,2 km/h (1 Bft) O-NO 67 0 min 0,000 mm 0,0 UV-I 0 W/m 0,9 C 1,2 C 4,8 km/h (1 Bft) 86,96 %
30.12.2017 21:54 1,3 C 3,9 C 98 % 1010,6 hPa 0,0 l/m 4,8 km/h (1 Bft) O-NO 67 0 min 0,000 mm 0,0 UV-I 0 W/m 1,0 C 1,3 C 6,4 km/h (2 Bft) 100,00 %
30.12.2017 21:55 1,3 C 3,9 C 98 % 1010,6 hPa 0,0 l/m 4,8 km/h (1 Bft) O-NO 67 0 min 0,000 mm 0,0 UV-I 0 W/m 1,0 C 1,3 C 6,4 km/h (2 Bft) 91,30 %
30.12.2017 21:56 1,3 C 3,3 C 98 % 1010,5 hPa 0,0 l/m 4,8 km/h (1 Bft) O-NO 67 0 min 0,000 mm 0,0 UV-I 0 W/m 1,0 C 1,3 C 4,8 km/h (1 Bft) 91,30 %
30.12.2017 21:57 1,3 C 3,3 C 98 % 1010,6 hPa 0,0 l/m 1,6 km/h (1 Bft) O-NO 67 0 min 0,000 mm 0,0 UV-I 0 W/m 1,0 C 1,3 C 3,2 km/h (1 Bft) 100,00 %
30.12.2017 21:58 1,3 C 3,3 C 98 % 1010,6 hPa 0,0 l/m 3,2 km/h (1 Bft) O-NO 67 0 min 0,000 mm 0,0 UV-I 0 W/m 1,0 C 1,3 C 4,8 km/h (1 Bft) 91,30 %
30.12.2017 21:59 1,3 C 3,3 C 98 % 1010,6 hPa 0,0 l/m 3,2 km/h (1 Bft) NO 45 0 min 0,000 mm 0,0 UV-I 0 W/m 1,0 C 1,3 C 6,4 km/h (2 Bft) 100,00 %
30.12.2017 22:00 1,3 C 3,3 C 98 % 1010,6 hPa 0,0 l/m 1,6 km/h (1 Bft) NO 45 0 min 0,000 mm 0,0 UV-I 0 W/m 1,0 C 1,3 C 4,8 km/h (1 Bft) 86,96 %
30.12.2017 22:01 1,3 C 3,3 C 98 % 1010,6 hPa 0,0 l/m 3,2 km/h (1 Bft) NO 45 0 min 0,000 mm 0,0 UV-I 0 W/m 1,0 C 1,3 C 4,8 km/h (1 Bft) 91,30 %
30.12.2017 22:02 1,3 C 3,3 C 98 % 1010,8 hPa 0,0 l/m 1,6 km/h (1 Bft) NO 45 0 min 0,000 mm 0,0 UV-I 0 W/m 1,0 C 1,3 C 1,6 km/h (1 Bft) 91,30 %
30.12.2017 22:03 1,4 C 3,3 C 98 % 1010,7 hPa 0,0 l/m 0,0 km/h (0 Bft) NO 45 0 min 0,000 mm 0,0 UV-I 0 W/m 1,1 C 1,4 C 1,6 km/h (1 Bft) 100,00 %
30.12.2017 22:04 1,3 C 3,3 C 98 % 1010,7 hPa 0,0 l/m 1,6 km/h (1 Bft) NO 45 0 min 0,000 mm 0,0 UV-I 0 W/m 1,0 C 1,3 C 3,2 km/h (1 Bft) 95,65 %
30.12.2017 22:05 1,2 C 3,3 C 98 % 1010,6 hPa 0,0 l/m 4,8 km/h (1 Bft) NO 45 0 min 0,000 mm 0,0 UV-I 0 W/m 0,9 C 1,2 C 6,4 km/h (2 Bft) 100,00 %
30.12.2017 22:06 1,2 C 3,3 C 98 % 1010,7 hPa 0,0 l/m 3,2 km/h (1 Bft) NO 45 0 min 0,000 mm 0,0 UV-I 0 W/m 0,9 C 1,2 C 4,8 km/h (1 Bft) 95,65 %
30.12.2017 22:07 1,2 C 3,3 C 98 % 1010,6 hPa 0,0 l/m 3,2 km/h (1 Bft) NO 45 0 min 0,000 mm 0,0 UV-I 0 W/m 0,9 C 1,2 C 3,2 km/h (1 Bft) 95,65 %
30.12.2017 22:08 1,3 C 3,3 C 98 % 1010,6 hPa 0,0 l/m 3,2 km/h (1 Bft) NO 45 0 min 0,000 mm 0,0 UV-I 0 W/m 1,0 C 1,3 C 6,4 km/h (2 Bft) 95,65 %
30.12.2017 22:09 1,3 C 3,3 C 98 % 1010,6 hPa 0,0 l/m 8,0 km/h (2 Bft) N-NO 22 0 min 0,000 mm 0,0 UV-I 0 W/m 1,0 C -0,3 C 8,0 km/h (2 Bft) 100,00 %
30.12.2017 22:10 1,3 C 3,3 C 98 % 1010,6 hPa 0,0 l/m 6,4 km/h (2 Bft) N-NO 22 0 min 0,000 mm 0,0 UV-I 0 W/m 1,0 C 1,3 C 6,4 km/h (2 Bft) 95,65 %
30.12.2017 22:11 1,3 C 3,3 C 98 % 1010,6 hPa 0,0 l/m 4,8 km/h (1 Bft) N-NO 22 0 min 0,000 mm 0,0 UV-I 0 W/m 1,0 C 1,3 C 6,4 km/h (2 Bft) 100,00 %
30.12.2017 22:12 1,3 C 3,3 C 98 % 1010,6 hPa 0,0 l/m 3,2 km/h (1 Bft) N-NO 22 0 min 0,000 mm 0,0 UV-I 0 W/m 1,0 C 1,3 C 6,4 km/h (2 Bft) 95,65 %
30.12.2017 22:13 1,3 C 3,3 C 98 % 1010,6 hPa 0,0 l/m 3,2 km/h (1 Bft) N-NO 22 0 min 0,000 mm 0,0 UV-I 0 W/m 1,0 C 1,3 C 4,8 km/h (1 Bft) 95,65 %
30.12.2017 22:14 1,4 C 3,3 C 98 % 1010,5 hPa 0,0 l/m 3,2 km/h (1 Bft) N-NO 22 0 min 0,000 mm 0,0 UV-I 0 W/m 1,1 C 1,4 C 4,8 km/h (1 Bft) 95,65 %
30.12.2017 22:15 1,4 C 3,9 C 98 % 1010,5 hPa 0,0 l/m 4,8 km/h (1 Bft) O-NO 67 0 min 0,000 mm 0,0 UV-I 0 W/m 1,1 C 1,4 C 4,8 km/h (1 Bft) 91,30 %
30.12.2017 22:16 1,4 C 3,9 C 98 % 1010,5 hPa 0,0 l/m 4,8 km/h (1 Bft) O 90 0 min 0,000 mm 0,0 UV-I 0 W/m 1,1 C 1,4 C 6,4 km/h (2 Bft) 100,00 %
30.12.2017 22:17 1,4 C 3,9 C 98 % 1010,5 hPa 0,0 l/m 4,8 km/h (1 Bft) O 90 0 min 0,000 mm 0,0 UV-I 0 W/m 1,1 C 1,4 C 9,7 km/h (2 Bft) 100,00 %
30.12.2017 22:18 1,5 C 3,9 C 98 % 1010,5 hPa 0,0 l/m 3,2 km/h (1 Bft) O-SO 112 0 min 0,000 mm 0,0 UV-I 0 W/m 1,2 C 1,5 C 4,8 km/h (1 Bft) 100,00 %
30.12.2017 22:19 1,5 C 3,3 C 98 % 1010,5 hPa 0,0 l/m 3,2 km/h (1 Bft) O-SO 112 0 min 0,000 mm 0,0 UV-I 0 W/m 1,2 C 1,5 C 4,8 km/h (1 Bft) 95,65 %
30.12.2017 22:20 1,4 C 3,3 C 98 % 1010,4 hPa 0,0 l/m 4,8 km/h (1 Bft) O-SO 112 0 min 0,000 mm 0,0 UV-I 0 W/m 1,1 C 1,4 C 6,4 km/h (2 Bft) 95,65 %
30.12.2017 22:21 1,4 C 3,3 C 98 % 1010,4 hPa 0,0 l/m 4,8 km/h (1 Bft) O-SO 112 0 min 0,000 mm 0,0 UV-I 0 W/m 1,1 C 1,4 C 6,4 km/h (2 Bft) 95,65 %
30.12.2017 22:22 1,4 C 3,3 C 98 % 1010,3 hPa 0,0 l/m 3,2 km/h (1 Bft) O-SO 112 0 min 0,000 mm 0,0 UV-I 0 W/m 1,1 C 1,4 C 4,8 km/h (1 Bft) 100,00 %
30.12.2017 22:23 1,4 C 3,3 C 98 % 1010,4 hPa 0,0 l/m 3,2 km/h (1 Bft) SO 135 0 min 0,000 mm 0,0 UV-I 0 W/m 1,1 C 1,4 C 3,2 km/h (1 Bft) 100,00 %
30.12.2017 22:24 1,4 C 3,3 C 98 % 1010,4 hPa 0,0 l/m 4,8 km/h (1 Bft) SO 135 0 min 0,000 mm 0,0 UV-I 0 W/m 1,1 C 1,4 C 6,4 km/h (2 Bft) 100,00 %
30.12.2017 22:25 1,5 C 3,3 C 98 % 1010,3 hPa 0,0 l/m 6,4 km/h (2 Bft) SO 135 0 min 0,000 mm 0,0 UV-I 0 W/m 1,2 C 1,5 C 8,0 km/h (2 Bft) 100,00 %
30.12.2017 22:26 1,5 C 3,3 C 98 % 1010,3 hPa 0,0 l/m 4,8 km/h (1 Bft) SO 135 0 min 0,000 mm 0,0 UV-I 0 W/m 1,2 C 1,5 C 6,4 km/h (2 Bft) 100,00 %
30.12.2017 22:27 1,4 C 3,3 C 98 % 1010,4 hPa 0,0 l/m 4,8 km/h (1 Bft) SO 135 0 min 0,000 mm 0,0 UV-I 0 W/m 1,1 C 1,4 C 6,4 km/h (2 Bft) 100,00 %
30.12.2017 22:28 1,5 C 3,3 C 98 % 1010,3 hPa 0,0 l/m 4,8 km/h (1 Bft) SO 135 0 min 0,000 mm 0,0 UV-I 0 W/m 1,2 C 1,5 C 6,4 km/h (2 Bft) 95,65 %
30.12.2017 22:29 1,5 C 3,3 C 98 % 1010,3 hPa 0,0 l/m 3,2 km/h (1 Bft) SO 135 0 min 0,000 mm 0,0 UV-I 0 W/m 1,2 C 1,5 C 4,8 km/h (1 Bft) 100,00 %
30.12.2017 22:30 1,5 C 3,3 C 98 % 1010,3 hPa 0,0 l/m 4,8 km/h (1 Bft) SO 135 0 min 0,000 mm 0,0 UV-I 0 W/m 1,2 C 1,5 C 4,8 km/h (1 Bft) 95,65 %
30.12.2017 22:31 1,6 C 3,3 C 98 % 1010,2 hPa 0,0 l/m 3,2 km/h (1 Bft) SO 135 0 min 0,000 mm 0,0 UV-I 0 W/m 1,3 C 1,6 C 4,8 km/h (1 Bft) 100,00 %
30.12.2017 22:32 1,7 C 3,3 C 98 % 1010,2 hPa 0,0 l/m 3,2 km/h (1 Bft) SO 135 0 min 0,000 mm 0,0 UV-I 0 W/m 1,4 C 1,7 C 4,8 km/h (1 Bft) 100,00 %
30.12.2017 22:33 1,7 C 3,3 C 98 % 1010,3 hPa 0,0 l/m 1,6 km/h (1 Bft) SO 135 0 min 0,000 mm 0,0 UV-I 0 W/m 1,4 C 1,7 C 3,2 km/h (1 Bft) 100,00 %
30.12.2017 22:34 1,7 C 3,3 C 98 % 1010,3 hPa 0,0 l/m 0,0 km/h (0 Bft) N 0 0 min 0,000 mm 0,0 UV-I 0 W/m 1,4 C 1,7 C 0,0 km/h (0 Bft) 100,00 %
30.12.2017 22:35 1,7 C 3,3 C 98 % 1010,3 hPa 0,0 l/m 0,0 km/h (0 Bft) N 0 0 min 0,000 mm 0,0 UV-I 0 W/m 1,4 C 1,7 C 0,0 km/h (0 Bft) 95,65 %
30.12.2017 22:36 1,7 C 3,3 C 98 % 1010,2 hPa 0,0 l/m 0,0 km/h (0 Bft) SO 135 0 min 0,000 mm 0,0 UV-I 0 W/m 1,4 C 1,7 C 1,6 km/h (1 Bft) 100,00 %
30.12.2017 22:37 1,7 C 3,3 C 98 % 1010,2 hPa 0,0 l/m 1,6 km/h (1 Bft) SO 135 0 min 0,000 mm 0,0 UV-I 0 W/m 1,4 C 1,7 C 1,6 km/h (1 Bft) 95,65 %
30.12.2017 22:38 1,7 C 3,3 C 98 % 1010,4 hPa 0,0 l/m 0,0 km/h (0 Bft) SO 135 0 min 0,000 mm 0,0 UV-I 0 W/m 1,4 C 1,7 C 1,6 km/h (1 Bft) 100,00 %
30.12.2017 22:39 1,7 C 3,3 C 98 % 1010,2 hPa 0,0 l/m 1,6 km/h (1 Bft) SO 135 0 min 0,000 mm 0,0 UV-I 0 W/m 1,4 C 1,7 C 3,2 km/h (1 Bft) 100,00 %
30.12.2017 22:40 1,7 C 3,3 C 98 % 1010,2 hPa 0,0 l/m 1,6 km/h (1 Bft) SO 135 0 min 0,000 mm 0,0 UV-I 0 W/m 1,4 C 1,7 C 3,2 km/h (1 Bft) 100,00 %
30.12.2017 22:41 1,7 C 3,3 C 98 % 1010,3 hPa 0,0 l/m 1,6 km/h (1 Bft) SO 135 0 min 0,000 mm 0,0 UV-I 0 W/m 1,4 C 1,7 C 3,2 km/h (1 Bft) 100,00 %
30.12.2017 22:42 1,7 C 3,3 C 98 % 1010,3 hPa 0,0 l/m 0,0 km/h (0 Bft) SO 135 0 min 0,000 mm 0,0 UV-I 0 W/m 1,4 C 1,7 C 1,6 km/h (1 Bft) 95,65 %
30.12.2017 22:43 1,7 C 3,3 C 98 % 1010,3 hPa 0,0 l/m 3,2 km/h (1 Bft) SO 135 0 min 0,000 mm 0,0 UV-I 0 W/m 1,4 C 1,7 C 4,8 km/h (1 Bft) 100,00 %
30.12.2017 22:44 1,6 C 3,3 C 98 % 1010,3 hPa 0,0 l/m 3,2 km/h (1 Bft) SO 135 0 min 0,000 mm 0,0 UV-I 0 W/m 1,3 C 1,6 C 4,8 km/h (1 Bft) 95,65 %
30.12.2017 22:45 1,6 C 3,3 C 98 % 1010,2 hPa 0,0 l/m 3,2 km/h (1 Bft) SO 135 0 min 0,000 mm 0,0 UV-I 0 W/m 1,3 C 1,6 C 3,2 km/h (1 Bft) 95,65 %
30.12.2017 22:46 1,5 C 3,3 C 98 % 1010,2 hPa 0,0 l/m 0,0 km/h (0 Bft) SO 135 0 min 0,000 mm 0,0 UV-I 0 W/m 1,2 C 1,5 C 3,2 km/h (1 Bft) 100,00 %
30.12.2017 22:47 1,4 C 3,3 C 98 % 1010,2 hPa 0,0 l/m 1,6 km/h (1 Bft) SO 135 0 min 0,000 mm 0,0 UV-I 0 W/m 1,1 C 1,4 C 1,6 km/h (1 Bft) 95,65 %
30.12.2017 22:48 1,4 C 3,3 C 98 % 1010,1 hPa 0,0 l/m 1,6 km/h (1 Bft) SO 135 0 min 0,000 mm 0,0 UV-I 0 W/m 1,1 C 1,4 C 3,2 km/h (1 Bft) 100,00 %
30.12.2017 22:49 1,5 C 3,3 C 98 % 1010,1 hPa 0,0 l/m 1,6 km/h (1 Bft) SO 135 0 min 0,000 mm 0,0 UV-I 0 W/m 1,2 C 1,5 C 3,2 km/h (1 Bft) 95,65 %
30.12.2017 22:50 1,5 C 3,3 C 98 % 1010,1 hPa 0,0 l/m 1,6 km/h (1 Bft) SO 135 0 min 0,000 mm 0,0 UV-I 0 W/m 1,2 C 1,5 C 3,2 km/h (1 Bft) 100,00 %
30.12.2017 22:51 1,6 C 3,3 C 98 % 1010,2 hPa 0,0 l/m 1,6 km/h (1 Bft) SO 135 0 min 0,000 mm 0,0 UV-I 0 W/m 1,3 C 1,6 C 3,2 km/h (1 Bft) 100,00 %
30.12.2017 22:52 1,6 C 3,3 C 98 % 1010,1 hPa 0,0 l/m 0,0 km/h (0 Bft) SO 135 0 min 0,000 mm 0,0 UV-I 0 W/m 1,3 C 1,6 C 1,6 km/h (1 Bft) 100,00 %
30.12.2017 22:53 1,5 C 3,3 C 98 % 1010,2 hPa 0,0 l/m 0,0 km/h (0 Bft) SO 135 0 min 0,000 mm 0,0 UV-I 0 W/m 1,2 C 1,5 C 1,6 km/h (1 Bft) 100,00 %
30.12.2017 22:54 1,4 C 3,3 C 98 % 1010,2 hPa 0,0 l/m 0,0 km/h (0 Bft) SO 135 0 min 0,000 mm 0,0 UV-I 0 W/m 1,1 C 1,4 C 1,6 km/h (1 Bft) 95,65 %
30.12.2017 22:55 1,4 C 3,3 C 98 % 1010,3 hPa 0,0 l/m 0,0 km/h (0 Bft) N 0 0 min 0,000 mm 0,0 UV-I 0 W/m 1,1 C 1,4 C 0,0 km/h (0 Bft) 100,00 %
30.12.2017 22:56 1,3 C 3,9 C 98 % 1010,3 hPa 0,0 l/m 0,0 km/h (0 Bft) N 0 0 min 0,000 mm 0,0 UV-I 0 W/m 1,0 C 1,3 C 0,0 km/h (0 Bft) 95,65 %
30.12.2017 22:57 1,3 C 3,3 C 98 % 1010,3 hPa 0,0 l/m 1,6 km/h (1 Bft) SO 135 0 min 0,000 mm 0,0 UV-I 0 W/m 1,0 C 1,3 C 3,2 km/h (1 Bft) 100,00 %
30.12.2017 22:58 1,3 C 3,3 C 98 % 1010,3 hPa 0,0 l/m 0,0 km/h (0 Bft) SO 135 0 min 0,000 mm 0,0 UV-I 0 W/m 1,0 C 1,3 C 1,6 km/h (1 Bft) 100,00 %
30.12.2017 22:59 1,3 C 3,3 C 98 % 1010,3 hPa 0,0 l/m 0,0 km/h (0 Bft) SO 135 0 min 0,000 mm 0,0 UV-I 0 W/m 1,0 C 1,3 C 1,6 km/h (1 Bft) 100,00 %
30.12.2017 23:00 1,3 C 3,3 C 98 % 1010,3 hPa 0,0 l/m 0,0 km/h (0 Bft) SO 135 0 min 0,000 mm 0,0 UV-I 0 W/m 1,0 C 1,3 C 1,6 km/h (1 Bft) 100,00 %
30.12.2017 23:01 1,3 C 3,3 C 98 % 1010,4 hPa 0,0 l/m 0,0 km/h (0 Bft) N 0 0 min 0,000 mm 0,0 UV-I 0 W/m 1,0 C 1,3 C 0,0 km/h (0 Bft) 95,65 %
30.12.2017 23:02 1,3 C 3,3 C 98 % 1010,3 hPa 0,0 l/m 0,0 km/h (0 Bft) N 0 0 min 0,000 mm 0,0 UV-I 0 W/m 1,0 C 1,3 C 0,0 km/h (0 Bft) 100,00 %
30.12.2017 23:03 1,3 C 3,3 C 98 % 1010,3 hPa 0,0 l/m 0,0 km/h (0 Bft) SO 135 0 min 0,000 mm 0,0 UV-I 0 W/m 1,0 C 1,3 C 1,6 km/h (1 Bft) 95,65 %
30.12.2017 23:04 1,4 C 3,3 C 98 % 1010,2 hPa 0,0 l/m 3,2 km/h (1 Bft) SO 135 0 min 0,000 mm 0,0 UV-I 0 W/m 1,1 C 1,4 C 4,8 km/h (1 Bft) 95,65 %
30.12.2017 23:05 1,4 C 3,3 C 98 % 1010,2 hPa 0,0 l/m 1,6 km/h (1 Bft) SO 135 0 min 0,000 mm 0,0 UV-I 0 W/m 1,1 C 1,4 C 3,2 km/h (1 Bft) 100,00 %
30.12.2017 23:06 1,6 C 3,3 C 98 % 1010,2 hPa 0,0 l/m 1,6 km/h (1 Bft) SO 135 0 min 0,000 mm 0,0 UV-I 0 W/m 1,3 C 1,6 C 3,2 km/h (1 Bft) 100,00 %
30.12.2017 23:07 1,6 C 3,3 C 98 % 1010,2 hPa 0,0 l/m 0,0 km/h (0 Bft) SO 135 0 min 0,000 mm 0,0 UV-I 0 W/m 1,3 C 1,6 C 3,2 km/h (1 Bft) 100,00 %
30.12.2017 23:08 1,6 C 3,3 C 98 % 1010,2 hPa 0,0 l/m 3,2 km/h (1 Bft) SO 135 0 min 0,000 mm 0,0 UV-I 0 W/m 1,3 C 1,6 C 4,8 km/h (1 Bft) 100,00 %
30.12.2017 23:09 1,7 C 3,3 C 98 % 1010,1 hPa 0,0 l/m 3,2 km/h (1 Bft) SO 135 0 min 0,000 mm 0,0 UV-I 0 W/m 1,4 C 1,7 C 4,8 km/h (1 Bft) 100,00 %
30.12.2017 23:10 1,6 C 3,3 C 98 % 1010,1 hPa 0,0 l/m 1,6 km/h (1 Bft) SO 135 0 min 0,000 mm 0,0 UV-I 0 W/m 1,3 C 1,6 C 3,2 km/h (1 Bft) 95,65 %
30.12.2017 23:11 1,6 C 3,3 C 98 % 1010,1 hPa 0,0 l/m 0,0 km/h (0 Bft) N 0 0 min 0,000 mm 0,0 UV-I 0 W/m 1,3 C 1,6 C 0,0 km/h (0 Bft) 100,00 %
30.12.2017 23:12 1,6 C 3,9 C 98 % 1010,1 hPa 0,0 l/m 0,0 km/h (0 Bft) N 0 0 min 0,000 mm 0,0 UV-I 0 W/m 1,3 C 1,6 C 0,0 km/h (0 Bft) 100,00 %
30.12.2017 23:13 1,6 C 3,9 C 98 % 1010,1 hPa 0,0 l/m 0,0 km/h (0 Bft) SO 135 0 min 0,000 mm 0,0 UV-I 0 W/m 1,3 C 1,6 C 1,6 km/h (1 Bft) 95,65 %
30.12.2017 23:14 1,6 C 3,9 C 98 % 1010,1 hPa 0,0 l/m 0,0 km/h (0 Bft) N 0 0 min 0,000 mm 0,0 UV-I 0 W/m 1,3 C 1,6 C 0,0 km/h (0 Bft) 100,00 %
30.12.2017 23:15 1,7 C 3,9 C 98 % 1010,2 hPa 0,0 l/m 0,0 km/h (0 Bft) N 0 0 min 0,000 mm 0,0 UV-I 0 W/m 1,4 C 1,7 C 0,0 km/h (0 Bft) 100,00 %
30.12.2017 23:16 1,7 C 3,9 C 98 % 1010,2 hPa 0,0 l/m 0,0 km/h (0 Bft) N 0 0 min 0,000 mm 0,0 UV-I 0 W/m 1,4 C 1,7 C 0,0 km/h (0 Bft) 100,00 %
30.12.2017 23:17 1,7 C 3,3 C 98 % 1010,2 hPa 0,0 l/m 0,0 km/h (0 Bft) SO 135 0 min 0,000 mm 0,0 UV-I 0 W/m 1,4 C 1,7 C 1,6 km/h (1 Bft) 95,65 %
30.12.2017 23:18 1,7 C 3,3 C 98 % 1010,2 hPa 0,2 l/m 0,0 km/h (0 Bft) SO 135 0 min 0,000 mm 0,0 UV-I 0 W/m 1,4 C 1,7 C 1,6 km/h (1 Bft) 100,00 %
30.12.2017 23:19 1,5 C 3,3 C 98 % 1010,4 hPa 0,0 l/m 0,0 km/h (0 Bft) SO 135 0 min 0,000 mm 0,0 UV-I 0 W/m 1,2 C 1,5 C 1,6 km/h (1 Bft) 95,65 %
30.12.2017 23:20 1,4 C 3,3 C 98 % 1010,5 hPa 0,0 l/m 0,0 km/h (0 Bft) SO 135 0 min 0,000 mm 0,0 UV-I 0 W/m 1,1 C 1,4 C 1,6 km/h (1 Bft) 95,65 %
30.12.2017 23:21 1,4 C 3,3 C 98 % 1010,5 hPa 0,0 l/m 0,0 km/h (0 Bft) N 0 0 min 0,000 mm 0,0 UV-I 0 W/m 1,1 C 1,4 C 0,0 km/h (0 Bft) 95,65 %
30.12.2017 23:22 1,4 C 3,3 C 98 % 1010,5 hPa 0,0 l/m 0,0 km/h (0 Bft) SO 135 0 min 0,000 mm 0,0 UV-I 0 W/m 1,1 C 1,4 C 1,6 km/h (1 Bft) 95,65 %
30.12.2017 23:23 1,3 C 3,3 C 98 % 1010,5 hPa 0,2 l/m 3,2 km/h (1 Bft) SO 135 0 min 0,000 mm 0,0 UV-I 0 W/m 1,0 C 1,3 C 4,8 km/h (1 Bft) 95,65 %
30.12.2017 23:24 1,4 C 3,3 C 98 % 1010,5 hPa 0,0 l/m 4,8 km/h (1 Bft) SO 135 0 min 0,000 mm 0,0 UV-I 0 W/m 1,1 C 1,4 C 4,8 km/h (1 Bft) 95,65 %
30.12.2017 23:25 1,3 C 3,3 C 98 % 1010,5 hPa 0,0 l/m 1,6 km/h (1 Bft) SO 135 0 min 0,000 mm 0,0 UV-I 0 W/m 1,0 C 1,3 C 3,2 km/h (1 Bft) 95,65 %
30.12.2017 23:26 1,4 C 3,9 C 98 % 1010,4 hPa 0,0 l/m 3,2 km/h (1 Bft) SO 135 0 min 0,000 mm 0,0 UV-I 0 W/m 1,1 C 1,4 C 6,4 km/h (2 Bft) 91,30 %
30.12.2017 23:27 1,4 C 3,9 C 98 % 1010,4 hPa 0,0 l/m 4,8 km/h (1 Bft) NO 45 0 min 0,000 mm 0,0 UV-I 0 W/m 1,1 C 1,4 C 6,4 km/h (2 Bft) 95,65 %
30.12.2017 23:28 1,4 C 3,9 C 98 % 1010,4 hPa 0,0 l/m 3,2 km/h (1 Bft) NO 45 0 min 0,000 mm 0,0 UV-I 0 W/m 1,1 C 1,4 C 4,8 km/h (1 Bft) 100,00 %
30.12.2017 23:29 1,4 C 3,9 C 98 % 1010,5 hPa 0,2 l/m 1,6 km/h (1 Bft) NO 45 0 min 0,000 mm 0,0 UV-I 0 W/m 1,1 C 1,4 C 4,8 km/h (1 Bft) 95,65 %
30.12.2017 23:30 1,4 C 3,3 C 98 % 1010,4 hPa 0,0 l/m 6,4 km/h (2 Bft) NO 45 0 min 0,000 mm 0,0 UV-I 0 W/m 1,1 C 1,4 C 6,4 km/h (2 Bft) 100,00 %
30.12.2017 23:31 1,4 C 3,3 C 98 % 1010,4 hPa 0,0 l/m 4,8 km/h (1 Bft) NO 45 0 min 0,000 mm 0,0 UV-I 0 W/m 1,1 C 1,4 C 6,4 km/h (2 Bft) 91,30 %
30.12.2017 23:32 1,4 C 3,3 C 98 % 1010,3 hPa 0,2 l/m 3,2 km/h (1 Bft) NO 45 0 min 0,000 mm 0,0 UV-I 0 W/m 1,1 C 1,4 C 4,8 km/h (1 Bft) 95,65 %
30.12.2017 23:33 1,5 C 3,3 C 98 % 1010,3 hPa 0,0 l/m 4,8 km/h (1 Bft) NO 45 0 min 0,000 mm 0,0 UV-I 0 W/m 1,2 C 1,5 C 6,4 km/h (2 Bft) 100,00 %
30.12.2017 23:34 1,5 C 3,3 C 98 % 1010,3 hPa 0,0 l/m 4,8 km/h (1 Bft) O-NO 67 0 min 0,000 mm 0,0 UV-I 0 W/m 1,2 C 1,5 C 8,0 km/h (2 Bft) 95,65 %
30.12.2017 23:35 1,5 C 3,3 C 98 % 1010,3 hPa 0,0 l/m 4,8 km/h (1 Bft) O-NO 67 0 min 0,000 mm 0,0 UV-I 0 W/m 1,2 C 1,5 C 6,4 km/h (2 Bft) 91,30 %
30.12.2017 23:36 1,5 C 3,3 C 98 % 1010,4 hPa 0,2 l/m 0,0 km/h (0 Bft) O-NO 67 0 min 0,000 mm 0,0 UV-I 0 W/m 1,2 C 1,5 C 3,2 km/h (1 Bft) 95,65 %
30.12.2017 23:37 1,5 C 3,3 C 98 % 1010,4 hPa 0,0 l/m 3,2 km/h (1 Bft) O-NO 67 0 min 0,000 mm 0,0 UV-I 0 W/m 1,2 C 1,5 C 4,8 km/h (1 Bft) 95,65 %
30.12.2017 23:38 1,5 C 3,3 C 98 % 1010,3 hPa 0,0 l/m 1,6 km/h (1 Bft) O-NO 67 0 min 0,000 mm 0,0 UV-I 0 W/m 1,2 C 1,5 C 3,2 km/h (1 Bft) 91,30 %
30.12.2017 23:39 1,6 C 3,3 C 98 % 1010,3 hPa 0,2 l/m 3,2 km/h (1 Bft) O-NO 67 0 min 0,000 mm 0,0 UV-I 0 W/m 1,3 C 1,6 C 4,8 km/h (1 Bft) 95,65 %
30.12.2017 23:40 1,5 C 3,3 C 98 % 1010,4 hPa 0,0 l/m 1,6 km/h (1 Bft) O-NO 67 0 min 0,000 mm 0,0 UV-I 0 W/m 1,2 C 1,5 C 3,2 km/h (1 Bft) 91,30 %
30.12.2017 23:41 1,5 C 3,3 C 98 % 1010,5 hPa 0,0 l/m 0,0 km/h (0 Bft) O-NO 67 0 min 0,000 mm 0,0 UV-I 0 W/m 1,2 C 1,5 C 1,6 km/h (1 Bft) 95,65 %
30.12.2017 23:42 1,4 C 3,3 C 98 % 1010,6 hPa 0,0 l/m 0,0 km/h (0 Bft) O-NO 67 0 min 0,000 mm 0,0 UV-I 0 W/m 1,1 C 1,4 C 1,6 km/h (1 Bft) 91,30 %
30.12.2017 23:43 1,3 C 3,3 C 98 % 1010,6 hPa 0,0 l/m 0,0 km/h (0 Bft) N-NO 22 0 min 0,000 mm 0,0 UV-I 0 W/m 1,0 C 1,3 C 1,6 km/h (1 Bft) 95,65 %
30.12.2017 23:44 1,3 C 3,3 C 98 % 1010,6 hPa 0,0 l/m 0,0 km/h (0 Bft) N-NW 337 0 min 0,000 mm 0,0 UV-I 0 W/m 1,0 C 1,3 C 1,6 km/h (1 Bft) 95,65 %
30.12.2017 23:45 1,3 C 3,3 C 98 % 1010,6 hPa 0,2 l/m 0,0 km/h (0 Bft) N-NW 337 0 min 0,000 mm 0,0 UV-I 0 W/m 1,0 C 1,3 C 1,6 km/h (1 Bft) 95,65 %
30.12.2017 23:46 1,4 C 3,3 C 98 % 1010,6 hPa 0,0 l/m 0,0 km/h (0 Bft) N 0 0 min 0,000 mm 0,0 UV-I 0 W/m 1,1 C 1,4 C 0,0 km/h (0 Bft) 95,65 %
30.12.2017 23:47 1,5 C 3,3 C 98 % 1010,6 hPa 0,0 l/m 0,0 km/h (0 Bft) N-NW 337 0 min 0,000 mm 0,0 UV-I 0 W/m 1,2 C 1,5 C 1,6 km/h (1 Bft) 95,65 %
30.12.2017 23:48 1,6 C 3,3 C 98 % 1010,6 hPa 0,0 l/m 1,6 km/h (1 Bft) N-NW 337 0 min 0,000 mm 0,0 UV-I 0 W/m 1,3 C 1,6 C 3,2 km/h (1 Bft) 100,00 %
30.12.2017 23:49 1,6 C 3,3 C 98 % 1010,6 hPa 0,0 l/m 1,6 km/h (1 Bft) N-NW 337 0 min 0,000 mm 0,0 UV-I 0 W/m 1,3 C 1,6 C 1,6 km/h (1 Bft) 95,65 %
30.12.2017 23:50 1,6 C 3,3 C 98 % 1010,6 hPa 0,0 l/m 3,2 km/h (1 Bft) N-NW 337 0 min 0,000 mm 0,0 UV-I 0 W/m 1,3 C 1,6 C 4,8 km/h (1 Bft) 100,00 %
30.12.2017 23:51 1,7 C 3,3 C 98 % 1010,6 hPa 0,2 l/m 4,8 km/h (1 Bft) NO 45 0 min 0,000 mm 0,0 UV-I 0 W/m 1,4 C 1,7 C 4,8 km/h (1 Bft) 95,65 %
30.12.2017 23:52 1,7 C 3,9 C 98 % 1010,6 hPa 0,0 l/m 3,2 km/h (1 Bft) SO 135 0 min 0,000 mm 0,0 UV-I 0 W/m 1,4 C 1,7 C 4,8 km/h (1 Bft) 95,65 %
30.12.2017 23:53 1,7 C 3,9 C 98 % 1010,5 hPa 0,0 l/m 1,6 km/h (1 Bft) S-SO 157 0 min 0,000 mm 0,0 UV-I 0 W/m 1,4 C 1,7 C 3,2 km/h (1 Bft) 95,65 %
30.12.2017 23:54 1,8 C 3,9 C 98 % 1010,4 hPa 0,0 l/m 1,6 km/h (1 Bft) S-SO 157 0 min 0,000 mm 0,0 UV-I 0 W/m 1,5 C 1,8 C 3,2 km/h (1 Bft) 100,00 %
30.12.2017 23:55 1,8 C 3,9 C 98 % 1010,5 hPa 0,0 l/m 1,6 km/h (1 Bft) S-SO 157 0 min 0,000 mm 0,0 UV-I 0 W/m 1,5 C 1,8 C 3,2 km/h (1 Bft) 95,65 %
30.12.2017 23:56 1,9 C 3,9 C 98 % 1010,6 hPa 0,0 l/m 1,6 km/h (1 Bft) S-SO 157 0 min 0,000 mm 0,0 UV-I 0 W/m 1,6 C 1,9 C 3,2 km/h (1 Bft) 95,65 %
30.12.2017 23:57 2,0 C 3,3 C 98 % 1010,6 hPa 0,0 l/m 0,0 km/h (0 Bft) S-SO 157 0 min 0,000 mm 0,0 UV-I 0 W/m 1,7 C 2,0 C 3,2 km/h (1 Bft) 100,00 %
30.12.2017 23:58 2,0 C 3,3 C 98 % 1010,6 hPa 0,2 l/m 0,0 km/h (0 Bft) S-SO 157 0 min 0,000 mm 0,0 UV-I 0 W/m 1,7 C 2,0 C 1,6 km/h (1 Bft) 95,65 %
30.12.2017 23:59 2,0 C 3,3 C 98 % 1010,6 hPa 0,0 l/m 0,0 km/h (0 Bft) S-SO 157 0 min 0,000 mm 0,0 UV-I 0 W/m 1,7 C 2,0 C 1,6 km/h (1 Bft) 95,65 %
_ Min-Zeit 00:47 00:00 00:00 14:37 - 00:10 - - - - - - 00:00 05:02 02:08 20:17
Minimum _ -3,1 C 3,3 C 88 % 1008,1 hPa - 0,0 km/h (0 Bft) - - - - - - -4,5 C -9,8 C 0,0 km/h (0 Bft) 0,00 %
_ Max-Zeit 10:29 16:11 17:02 08:25 06:55 05:02 - - 09:17 11:00 00:00 10:42 23:57 10:29 05:02 00:02
Maximum _ 2,4 C 3,9 C 98 % 1011,9 hPa 0,2 l/m 25,7 km/h
W-SW (4 Bft)
- - 1 min 0,076 mm 0,0 UV-I 368 W/m 1,7 C 2,4 C 35,4 km/h
SW (5 Bft)
100,00 %
Durchschnitt _ 0,8 C 3,3 C 95 % 1009,9 hPa #8,6 l/m 5,3 km/h (1 Bft) SW - #2:19 h #0,305 mm 0,0 UV-I 110 W/m 0,1 C -0,5 C 7,8 km/h (2 Bft) 96,84 %